<?xml version='1.0' encoding='UTF-8'?><gpx version="1.1" creator="JPX - https://github.com/jenetics/jpx" xmlns="http://www.topografix.com/GPX/1/1"><trk><trkseg><trkpt lat="45.854869769109456" lon="9.269688691104687"><ele>385.99999999999994</ele><time>2026-04-07T13:59:24.999Z</time></trkpt><trkpt lat="45.854918200806615" lon="9.269628159788619"><ele>386.0</ele><time>2026-04-07T13:59:29.999Z</time></trkpt><trkpt lat="45.854982700598576" lon="9.269640341324026"><ele>386.0</ele><time>2026-04-07T13:59:33.999Z</time></trkpt><trkpt lat="45.8549093435389" lon="9.269735009721524"><ele>386.0</ele><time>2026-04-07T14:00:26Z</time></trkpt><trkpt lat="45.854866068783295" lon="9.269848787513759"><ele>385.99999999999994</ele><time>2026-04-07T14:00:28Z</time></trkpt><trkpt lat="45.85487332545618" lon="9.269962156401979"><ele>386.0</ele><time>2026-04-07T14:00:30Z</time></trkpt><trkpt lat="45.85499467617667" lon="9.269920597278315"><ele>386.0</ele><time>2026-04-07T14:00:35Z</time></trkpt><trkpt lat="45.85503438288337" lon="9.269825099116307"><ele>386.0</ele><time>2026-04-07T14:00:36Z</time></trkpt><trkpt lat="45.8550641891589" lon="9.269733846338106"><ele>386.0</ele><time>2026-04-07T14:00:37Z</time></trkpt><trkpt lat="45.85510512262906" lon="9.269633333543682"><ele>386.0</ele><time>2026-04-07T14:00:38Z</time></trkpt><trkpt lat="45.85515429431542" lon="9.26955338968469"><ele>386.0</ele><time>2026-04-07T14:00:39Z</time></trkpt><trkpt lat="45.855309732755735" lon="9.269437746681964"><ele>386.16666666666663</ele><time>2026-04-07T14:00:41Z</time></trkpt><trkpt lat="45.85539284403483" lon="9.269396884512476"><ele>386.3333333333333</ele><time>2026-04-07T14:00:42Z</time></trkpt><trkpt lat="45.855472543273564" lon="9.269385742335603"><ele>386.5</ele><time>2026-04-07T14:00:43Z</time></trkpt><trkpt lat="45.8555426640142" lon="9.269405862354963"><ele>386.66666666666663</ele><time>2026-04-07T14:00:45Z</time></trkpt><trkpt lat="45.855645491197755" lon="9.269416056283163"><ele>386.8333333333333</ele><time>2026-04-07T14:00:47Z</time></trkpt><trkpt lat="45.85572053134873" lon="9.269426502212708"><ele>387.0</ele><time>2026-04-07T14:00:48Z</time></trkpt><trkpt lat="45.855827861072775" lon="9.269464707067149"><ele>387.0</ele><time>2026-04-07T14:00:49Z</time></trkpt><trkpt lat="45.85593133134432" lon="9.269478524940114"><ele>387.0</ele><time>2026-04-07T14:00:50Z</time></trkpt><trkpt lat="45.8560498554405" lon="9.269492241251253"><ele>387.0</ele><time>2026-04-07T14:00:51Z</time></trkpt><trkpt lat="45.85614750351208" lon="9.269525105228984"><ele>387.0</ele><time>2026-04-07T14:00:52Z</time></trkpt><trkpt lat="45.85628924991214" lon="9.269585752686746"><ele>387.75</ele><time>2026-04-07T14:00:53Z</time></trkpt><trkpt lat="45.856415167512324" lon="9.269616430835892"><ele>388.5</ele><time>2026-04-07T14:00:54Z</time></trkpt><trkpt lat="45.856531027812" lon="9.269644524225908"><ele>389.25</ele><time>2026-04-07T14:00:55Z</time></trkpt><trkpt lat="45.85664928514944" lon="9.269722955821333"><ele>390.0</ele><time>2026-04-07T14:00:56Z</time></trkpt><trkpt lat="45.856756540882564" lon="9.269771389861361"><ele>392.75</ele><time>2026-04-07T14:00:56.999Z</time></trkpt><trkpt lat="45.85688144400318" lon="9.26982142560624"><ele>395.5</ele><time>2026-04-07T14:00:57.999Z</time></trkpt><trkpt lat="45.85699132816674" lon="9.269846663094134"><ele>398.25</ele><time>2026-04-07T14:00:58.999Z</time></trkpt><trkpt lat="45.85711008901745" lon="9.269855926305663"><ele>401.0</ele><time>2026-04-07T14:00:59.999Z</time></trkpt><trkpt lat="45.8572087919272" lon="9.269821324460269"><ele>401.0</ele><time>2026-04-07T14:01:00.999Z</time></trkpt><trkpt lat="45.85731587377072" lon="9.269807699670707"><ele>401.0</ele><time>2026-04-07T14:01:01.999Z</time></trkpt><trkpt lat="45.85742260246513" lon="9.26979322196603"><ele>401.0</ele><time>2026-04-07T14:01:02.999Z</time></trkpt><trkpt lat="45.85753091324679" lon="9.269776509808553"><ele>401.0</ele><time>2026-04-07T14:01:03.999Z</time></trkpt><trkpt lat="45.85764324785106" lon="9.26974998033748"><ele>401.0</ele><time>2026-04-07T14:01:04.999Z</time></trkpt><trkpt lat="45.85773618209161" lon="9.26971127452484"><ele>399.99999999999994</ele><time>2026-04-07T14:01:05.999Z</time></trkpt><trkpt lat="45.85781768108526" lon="9.269698509294084"><ele>399.0</ele><time>2026-04-07T14:01:06.999Z</time></trkpt><trkpt lat="45.85788305428471" lon="9.269686623293925"><ele>398.0</ele><time>2026-04-07T14:01:07.999Z</time></trkpt><trkpt lat="45.857955766347466" lon="9.269652576246338"><ele>397.0</ele><time>2026-04-07T14:01:08.999Z</time></trkpt><trkpt lat="45.85795224625208" lon="9.269483920859741"><ele>395.99999999999994</ele><time>2026-04-07T14:01:10.999Z</time></trkpt><trkpt lat="45.85793788773775" lon="9.269341630149032"><ele>395.0</ele><time>2026-04-07T14:01:12.999Z</time></trkpt><trkpt lat="45.85790827783079" lon="9.269240155207633"><ele>395.0</ele><time>2026-04-07T14:01:13.999Z</time></trkpt><trkpt lat="45.85784821999075" lon="9.269131445872494"><ele>395.0</ele><time>2026-04-07T14:01:14.999Z</time></trkpt><trkpt lat="45.8577718476119" lon="9.269044655648052"><ele>395.0</ele><time>2026-04-07T14:01:15.999Z</time></trkpt><trkpt lat="45.85768063925455" lon="9.26896187123264"><ele>395.0</ele><time>2026-04-07T14:01:16.999Z</time></trkpt><trkpt lat="45.85757994241998" lon="9.26887484802257"><ele>395.0</ele><time>2026-04-07T14:01:17.999Z</time></trkpt><trkpt lat="45.85747379441584" lon="9.26878217345102"><ele>395.25</ele><time>2026-04-07T14:01:18.999Z</time></trkpt><trkpt lat="45.85738666002027" lon="9.268652442699812"><ele>395.5</ele><time>2026-04-07T14:01:19.999Z</time></trkpt><trkpt lat="45.85729312615704" lon="9.268544029306128"><ele>395.75</ele><time>2026-04-07T14:01:20.999Z</time></trkpt><trkpt lat="45.857189419544454" lon="9.26847325571148"><ele>396.0</ele><time>2026-04-07T14:01:21.999Z</time></trkpt><trkpt lat="45.85709825712586" lon="9.268392661349568"><ele>396.0</ele><time>2026-04-07T14:01:22.999Z</time></trkpt><trkpt lat="45.85700063849178" lon="9.268316562396137"><ele>396.0</ele><time>2026-04-07T14:01:23.999Z</time></trkpt><trkpt lat="45.856912436098455" lon="9.268207963372834"><ele>396.0</ele><time>2026-04-07T14:01:24.999Z</time></trkpt><trkpt lat="45.856825827979506" lon="9.268056899020728"><ele>396.0</ele><time>2026-04-07T14:01:26.999Z</time></trkpt><trkpt lat="45.85674469223621" lon="9.26795296782874"><ele>395.0</ele><time>2026-04-07T14:01:27.999Z</time></trkpt><trkpt lat="45.85668483467552" lon="9.267892827338883"><ele>394.0</ele><time>2026-04-07T14:01:28.999Z</time></trkpt><trkpt lat="45.85660955006598" lon="9.267782662729395"><ele>393.0</ele><time>2026-04-07T14:01:29.999Z</time></trkpt><trkpt lat="45.85654570972614" lon="9.2676685964372"><ele>392.0</ele><time>2026-04-07T14:01:30.999Z</time></trkpt><trkpt lat="45.856479971245385" lon="9.26754747959892"><ele>391.0</ele><time>2026-04-07T14:01:31.999Z</time></trkpt><trkpt lat="45.856412547680605" lon="9.267440036248269"><ele>391.0</ele><time>2026-04-07T14:01:32.999Z</time></trkpt><trkpt lat="45.85634829952758" lon="9.267334957028162"><ele>391.0</ele><time>2026-04-07T14:01:33.999Z</time></trkpt><trkpt lat="45.85629134162892" lon="9.267249214302822"><ele>391.0</ele><time>2026-04-07T14:01:34.999Z</time></trkpt><trkpt lat="45.85623639143" lon="9.267154393047093"><ele>391.0</ele><time>2026-04-07T14:01:35.999Z</time></trkpt><trkpt lat="45.85615692519635" lon="9.267027513693652"><ele>391.0</ele><time>2026-04-07T14:01:36.999Z</time></trkpt><trkpt lat="45.85612632301401" lon="9.266931538917113"><ele>391.0</ele><time>2026-04-07T14:01:37.999Z</time></trkpt><trkpt lat="45.8560608475522" lon="9.266848006198632"><ele>391.0</ele><time>2026-04-07T14:01:38.999Z</time></trkpt><trkpt lat="45.855996475498586" lon="9.2667657256935"><ele>391.0</ele><time>2026-04-07T14:01:39.999Z</time></trkpt><trkpt lat="45.85611108082747" lon="9.26657670404505"><ele>391.0</ele><time>2026-04-07T14:01:41.999Z</time></trkpt><trkpt lat="45.85612399190384" lon="9.266485068929464"><ele>391.0</ele><time>2026-04-07T14:01:42.999Z</time></trkpt><trkpt lat="45.85613766298398" lon="9.266346906410933"><ele>391.20000000000005</ele><time>2026-04-07T14:01:43.999Z</time></trkpt><trkpt lat="45.85614140500803" lon="9.266217243643633"><ele>391.40000000000003</ele><time>2026-04-07T14:01:44.999Z</time></trkpt><trkpt lat="45.85614079429571" lon="9.266093574018683"><ele>391.6</ele><time>2026-04-07T14:01:45.999Z</time></trkpt><trkpt lat="45.85614414407779" lon="9.265984964945872"><ele>391.8</ele><time>2026-04-07T14:01:46.999Z</time></trkpt><trkpt lat="45.856189385977444" lon="9.26584194022325"><ele>392.0</ele><time>2026-04-07T14:01:48.999Z</time></trkpt><trkpt lat="45.85624177488424" lon="9.265657093427961"><ele>391.8</ele><time>2026-04-07T14:01:50.999Z</time></trkpt><trkpt lat="45.85630172720656" lon="9.265559714224812"><ele>391.6</ele><time>2026-04-07T14:01:51.999Z</time></trkpt><trkpt lat="45.85636533410247" lon="9.265472995142423"><ele>391.40000000000003</ele><time>2026-04-07T14:01:52.999Z</time></trkpt><trkpt lat="45.85646378292294" lon="9.265393786256439"><ele>391.20000000000005</ele><time>2026-04-07T14:01:53.999Z</time></trkpt><trkpt lat="45.85653960427457" lon="9.265311279055247"><ele>391.0</ele><time>2026-04-07T14:01:54.999Z</time></trkpt><trkpt lat="45.85660561647513" lon="9.26522790621161"><ele>391.0</ele><time>2026-04-07T14:01:55.999Z</time></trkpt><trkpt lat="45.85665398218727" lon="9.26516682059946"><ele>391.0</ele><time>2026-04-07T14:01:56.999Z</time></trkpt><trkpt lat="45.85670937055319" lon="9.265319346529475"><ele>391.0</ele><time>2026-04-07T14:01:57.999Z</time></trkpt><trkpt lat="45.856836542564345" lon="9.265174337672617"><ele>391.0</ele><time>2026-04-07T14:01:59.999Z</time></trkpt><trkpt lat="45.85687630621426" lon="9.264955612061112"><ele>398.6666666666667</ele><time>2026-04-07T14:02:00.999Z</time></trkpt><trkpt lat="45.856912533634464" lon="9.264827503050956"><ele>406.33333333333337</ele><time>2026-04-07T14:02:01.999Z</time></trkpt><trkpt lat="45.85694456879481" lon="9.264712630307402"><ele>414.0</ele><time>2026-04-07T14:02:02.999Z</time></trkpt><trkpt lat="45.857039511963784" lon="9.264733025052347"><ele>421.66666666666663</ele><time>2026-04-07T14:02:06.999Z</time></trkpt><trkpt lat="45.85704040168452" lon="9.264826893649671"><ele>429.3333333333333</ele><time>2026-04-07T14:02:07.999Z</time></trkpt><trkpt lat="45.85706502733562" lon="9.264925190651912"><ele>437.0</ele><time>2026-04-07T14:02:08.999Z</time></trkpt><trkpt lat="45.85704390214883" lon="9.265080304927492"><ele>436.99999999999994</ele><time>2026-04-07T14:02:09.999Z</time></trkpt><trkpt lat="45.857049275673695" lon="9.265188900895055"><ele>437.0</ele><time>2026-04-07T14:02:10.999Z</time></trkpt><trkpt lat="45.857096036260586" lon="9.265316792878911"><ele>437.0</ele><time>2026-04-07T14:02:11.999Z</time></trkpt><trkpt lat="45.85711449121133" lon="9.265434429636553"><ele>437.0</ele><time>2026-04-07T14:02:12.999Z</time></trkpt><trkpt lat="45.85709855666799" lon="9.265523452352278"><ele>436.99999999999994</ele><time>2026-04-07T14:02:13.999Z</time></trkpt><trkpt lat="45.85710043167139" lon="9.2656909740143"><ele>437.0</ele><time>2026-04-07T14:02:15.999Z</time></trkpt><trkpt lat="45.85711145078368" lon="9.265843944669802"><ele>435.16666666666663</ele><time>2026-04-07T14:02:17.999Z</time></trkpt><trkpt lat="45.85712473331494" lon="9.265991104867737"><ele>433.3333333333333</ele><time>2026-04-07T14:02:19.999Z</time></trkpt><trkpt lat="45.85712352727034" lon="9.266108393838737"><ele>431.5</ele><time>2026-04-07T14:02:20.999Z</time></trkpt><trkpt lat="45.857151651888344" lon="9.266235688432886"><ele>429.66666666666663</ele><time>2026-04-07T14:02:23.999Z</time></trkpt><trkpt lat="45.85720567714664" lon="9.266290409246725"><ele>427.8333333333333</ele><time>2026-04-07T14:02:24.999Z</time></trkpt><trkpt lat="45.857279156249184" lon="9.266358247473093"><ele>426.0</ele><time>2026-04-07T14:02:25.999Z</time></trkpt><trkpt lat="45.857338086057744" lon="9.266411112649774"><ele>426.4</ele><time>2026-04-07T14:02:26.999Z</time></trkpt><trkpt lat="45.85741258947705" lon="9.266452699160736"><ele>426.8</ele><time>2026-04-07T14:02:27.999Z</time></trkpt><trkpt lat="45.85750582490022" lon="9.266526606793942"><ele>427.19999999999993</ele><time>2026-04-07T14:02:29.999Z</time></trkpt><trkpt lat="45.85761124411073" lon="9.26661867933457"><ele>427.59999999999997</ele><time>2026-04-07T14:02:31.999Z</time></trkpt><trkpt lat="45.857677239210815" lon="9.266674001795316"><ele>428.0</ele><time>2026-04-07T14:02:32.999Z</time></trkpt><trkpt lat="45.857734715913566" lon="9.266722183464886"><ele>428.0</ele><time>2026-04-07T14:02:34Z</time></trkpt><trkpt lat="45.85783846119943" lon="9.266820671998255"><ele>427.99999999999994</ele><time>2026-04-07T14:02:36Z</time></trkpt><trkpt lat="45.85791288690437" lon="9.266931866008"><ele>427.99999999999994</ele><time>2026-04-07T14:02:38Z</time></trkpt><trkpt lat="45.85795187519153" lon="9.267014285345972"><ele>428.0</ele><time>2026-04-07T14:02:40Z</time></trkpt><trkpt lat="45.85800964996384" lon="9.26713631980308"><ele>428.0</ele><time>2026-04-07T14:02:56.999Z</time></trkpt><trkpt lat="45.85807521523839" lon="9.267185399178258"><ele>428.0</ele><time>2026-04-07T14:02:57.999Z</time></trkpt><trkpt lat="45.85818615624552" lon="9.267190896167124"><ele>427.99999999999994</ele><time>2026-04-07T14:02:58.999Z</time></trkpt><trkpt lat="45.85827679371305" lon="9.267265016103847"><ele>427.99999999999994</ele><time>2026-04-07T14:02:59.999Z</time></trkpt><trkpt lat="45.858379842081355" lon="9.267292945070869"><ele>428.0</ele><time>2026-04-07T14:03:00.999Z</time></trkpt><trkpt lat="45.85845397547309" lon="9.267296352214576"><ele>428.0</ele><time>2026-04-07T14:03:01.999Z</time></trkpt><trkpt lat="45.858557905022074" lon="9.26745241170865"><ele>426.0</ele><time>2026-04-07T14:03:03.999Z</time></trkpt><trkpt lat="45.85862745372108" lon="9.267493579687878"><ele>423.99999999999994</ele><time>2026-04-07T14:03:04.999Z</time></trkpt><trkpt lat="45.858683681081985" lon="9.267538870776937"><ele>422.0</ele><time>2026-04-07T14:03:05.999Z</time></trkpt><trkpt lat="45.858760343646935" lon="9.267534898642221"><ele>420.0</ele><time>2026-04-07T14:03:06.999Z</time></trkpt><trkpt lat="45.85891672067559" lon="9.267496280963822"><ele>418.0</ele><time>2026-04-07T14:03:08.999Z</time></trkpt><trkpt lat="45.85900941122672" lon="9.267494224525517"><ele>418.00000000000006</ele><time>2026-04-07T14:03:09.999Z</time></trkpt><trkpt lat="45.85907529305712" lon="9.267480535724683"><ele>418.0</ele><time>2026-04-07T14:03:10.999Z</time></trkpt><trkpt lat="45.859145298729025" lon="9.26750560237665"><ele>418.0</ele><time>2026-04-07T14:03:11.999Z</time></trkpt><trkpt lat="45.85921604443049" lon="9.267557530026524"><ele>418.0</ele><time>2026-04-07T14:03:12.999Z</time></trkpt><trkpt lat="45.859307364163" lon="9.267605005734868"><ele>418.00000000000006</ele><time>2026-04-07T14:03:13.999Z</time></trkpt><trkpt lat="45.85938101483686" lon="9.26765350391459"><ele>418.0</ele><time>2026-04-07T14:03:14.999Z</time></trkpt><trkpt lat="45.859420435980674" lon="9.26774194947644"><ele>419.79999999999995</ele><time>2026-04-07T14:03:15.999Z</time></trkpt><trkpt lat="45.85952549880223" lon="9.267931627307297"><ele>421.6</ele><time>2026-04-07T14:03:17.999Z</time></trkpt><trkpt lat="45.85957870724138" lon="9.267984399871532"><ele>423.40000000000003</ele><time>2026-04-07T14:03:18.999Z</time></trkpt><trkpt lat="45.8596863604302" lon="9.268014417187842"><ele>425.20000000000005</ele><time>2026-04-07T14:03:19.999Z</time></trkpt><trkpt lat="45.859788450330534" lon="9.268051732814728"><ele>427.0</ele><time>2026-04-07T14:03:20.999Z</time></trkpt><trkpt lat="45.859911094614546" lon="9.268117669731218"><ele>425.00000000000006</ele><time>2026-04-07T14:03:22.999Z</time></trkpt><trkpt lat="45.85998627253834" lon="9.268161649166517"><ele>423.0</ele><time>2026-04-07T14:03:23.999Z</time></trkpt><trkpt lat="45.86006712915961" lon="9.268191290041202"><ele>421.0</ele><time>2026-04-07T14:03:24.999Z</time></trkpt><trkpt lat="45.86013867288434" lon="9.268226253024133"><ele>419.0</ele><time>2026-04-07T14:03:25.999Z</time></trkpt><trkpt lat="45.86021624919275" lon="9.268264164097546"><ele>417.00000000000006</ele><time>2026-04-07T14:03:26.999Z</time></trkpt><trkpt lat="45.86029740405051" lon="9.268301363023605"><ele>415.0</ele><time>2026-04-07T14:03:27.999Z</time></trkpt><trkpt lat="45.860387056863495" lon="9.268318740381423"><ele>415.00000000000006</ele><time>2026-04-07T14:03:28.999Z</time></trkpt><trkpt lat="45.86047467438647" lon="9.26829685825215"><ele>415.0</ele><time>2026-04-07T14:03:29.999Z</time></trkpt><trkpt lat="45.86055525010388" lon="9.268308852130275"><ele>415.0</ele><time>2026-04-07T14:03:30.999Z</time></trkpt><trkpt lat="45.86062552960127" lon="9.268336615824163"><ele>415.0</ele><time>2026-04-07T14:03:31.999Z</time></trkpt><trkpt lat="45.8607408618687" lon="9.268315768991078"><ele>415.00000000000006</ele><time>2026-04-07T14:03:33.999Z</time></trkpt><trkpt lat="45.86079431203313" lon="9.268242471972476"><ele>415.0</ele><time>2026-04-07T14:03:34.999Z</time></trkpt><trkpt lat="45.8608304269933" lon="9.268056508513185"><ele>417.6</ele><time>2026-04-07T14:03:35.999Z</time></trkpt><trkpt lat="45.86085007560817" lon="9.267898612564046"><ele>420.2</ele><time>2026-04-07T14:03:36.999Z</time></trkpt><trkpt lat="45.860863563084564" lon="9.267762349698987"><ele>422.79999999999995</ele><time>2026-04-07T14:03:37.999Z</time></trkpt><trkpt lat="45.860870517947404" lon="9.267670650074178"><ele>425.4</ele><time>2026-04-07T14:03:38.999Z</time></trkpt><trkpt lat="45.86091865005805" lon="9.267482554406294"><ele>428.0</ele><time>2026-04-07T14:03:40.999Z</time></trkpt><trkpt lat="45.86092544832145" lon="9.267318795344183"><ele>427.75</ele><time>2026-04-07T14:03:41.999Z</time></trkpt><trkpt lat="45.860980958314364" lon="9.26715643738482"><ele>427.5</ele><time>2026-04-07T14:03:42.999Z</time></trkpt><trkpt lat="45.861019283120484" lon="9.267023790074756"><ele>427.25</ele><time>2026-04-07T14:03:43.999Z</time></trkpt><trkpt lat="45.86107164636272" lon="9.26685506771867"><ele>427.0</ele><time>2026-04-07T14:03:44.999Z</time></trkpt><trkpt lat="45.86111773954247" lon="9.266706375696275"><ele>427.00000000000006</ele><time>2026-04-07T14:03:45.999Z</time></trkpt><trkpt lat="45.86115383883753" lon="9.266600653567147"><ele>427.0</ele><time>2026-04-07T14:03:46.999Z</time></trkpt><trkpt lat="45.86118803839094" lon="9.266512093059509"><ele>427.0</ele><time>2026-04-07T14:03:47.999Z</time></trkpt><trkpt lat="45.861214851545505" lon="9.266403012565476"><ele>427.0</ele><time>2026-04-07T14:03:48.999Z</time></trkpt><trkpt lat="45.86129258921896" lon="9.266392326535321"><ele>427.00000000000006</ele><time>2026-04-07T14:03:49.999Z</time></trkpt><trkpt lat="45.861380196339944" lon="9.266342335135862"><ele>427.0</ele><time>2026-04-07T14:03:50.999Z</time></trkpt><trkpt lat="45.86146845697898" lon="9.266345032617629"><ele>427.0</ele><time>2026-04-07T14:03:51.999Z</time></trkpt><trkpt lat="45.86156587693615" lon="9.266387751468939"><ele>427.00000000000006</ele><time>2026-04-07T14:03:52.999Z</time></trkpt><trkpt lat="45.86165560387853" lon="9.266431036493103"><ele>427.00000000000006</ele><time>2026-04-07T14:03:53.999Z</time></trkpt><trkpt lat="45.86175447775934" lon="9.26645825314845"><ele>427.0</ele><time>2026-04-07T14:03:54.999Z</time></trkpt><trkpt lat="45.86184418614247" lon="9.266480608118812"><ele>427.0</ele><time>2026-04-07T14:03:55.999Z</time></trkpt><trkpt lat="45.86195528413611" lon="9.266503639448715"><ele>426.5</ele><time>2026-04-07T14:03:56.999Z</time></trkpt><trkpt lat="45.8620684064866" lon="9.26649356703708"><ele>426.0</ele><time>2026-04-07T14:03:57.999Z</time></trkpt><trkpt lat="45.86221555762001" lon="9.266467902197904"><ele>425.5</ele><time>2026-04-07T14:03:58.999Z</time></trkpt><trkpt lat="45.86235141352533" lon="9.266451102006698"><ele>425.0</ele><time>2026-04-07T14:03:59.999Z</time></trkpt><trkpt lat="45.862480539719186" lon="9.266432633852924"><ele>427.4</ele><time>2026-04-07T14:04:00.999Z</time></trkpt><trkpt lat="45.86262444378458" lon="9.266389204103131"><ele>429.8</ele><time>2026-04-07T14:04:02.999Z</time></trkpt><trkpt lat="45.86273100596136" lon="9.266335142192004"><ele>432.20000000000005</ele><time>2026-04-07T14:04:03.999Z</time></trkpt><trkpt lat="45.86281217218092" lon="9.266288615124758"><ele>434.6</ele><time>2026-04-07T14:04:04.999Z</time></trkpt><trkpt lat="45.86289411419346" lon="9.266234493504122"><ele>437.0</ele><time>2026-04-07T14:04:05.999Z</time></trkpt><trkpt lat="45.862964928129365" lon="9.266186130980797"><ele>436.99999999999994</ele><time>2026-04-07T14:04:06.999Z</time></trkpt><trkpt lat="45.863027085673295" lon="9.266165644067577"><ele>437.0</ele><time>2026-04-07T14:04:09.999Z</time></trkpt><trkpt lat="45.86310477991774" lon="9.266107898792676"><ele>437.0</ele><time>2026-04-07T14:04:13.999Z</time></trkpt><trkpt lat="45.863181689619225" lon="9.266077559459566"><ele>437.0</ele><time>2026-04-07T14:04:14.999Z</time></trkpt><trkpt lat="45.863252824497806" lon="9.266023100717097"><ele>436.99999999999994</ele><time>2026-04-07T14:04:15.999Z</time></trkpt><trkpt lat="45.86333924677115" lon="9.26601079876177"><ele>437.0</ele><time>2026-04-07T14:04:17.999Z</time></trkpt><trkpt lat="45.86340253551887" lon="9.266003360822905"><ele>437.0</ele><time>2026-04-07T14:04:20.999Z</time></trkpt><trkpt lat="45.863317808115184" lon="9.265883741728127"><ele>437.00000000000006</ele><time>2026-04-07T14:04:23.999Z</time></trkpt><trkpt lat="45.86322297681032" lon="9.265861868384793"><ele>437.00000000000006</ele><time>2026-04-07T14:04:24.999Z</time></trkpt><trkpt lat="45.863111325122105" lon="9.265855076717031"><ele>437.0</ele><time>2026-04-07T14:04:25.999Z</time></trkpt><trkpt lat="45.86301975271519" lon="9.265842397701128"><ele>437.0</ele><time>2026-04-07T14:04:26.999Z</time></trkpt><trkpt lat="45.862921953114046" lon="9.26579426088944"><ele>437.0</ele><time>2026-04-07T14:04:27.999Z</time></trkpt><trkpt lat="45.86283182276219" lon="9.265750253506162"><ele>437.00000000000006</ele><time>2026-04-07T14:04:28.999Z</time></trkpt><trkpt lat="45.862729533153235" lon="9.265709605686933"><ele>437.00000000000006</ele><time>2026-04-07T14:04:29.999Z</time></trkpt><trkpt lat="45.86261450028217" lon="9.265684854300718"><ele>437.0</ele><time>2026-04-07T14:04:30.999Z</time></trkpt><trkpt lat="45.862535176471255" lon="9.265674425581345"><ele>437.0</ele><time>2026-04-07T14:04:31.999Z</time></trkpt><trkpt lat="45.862446323230635" lon="9.265647962652505"><ele>445.0</ele><time>2026-04-07T14:04:32.999Z</time></trkpt><trkpt lat="45.862343412054855" lon="9.265591399891234"><ele>453.00000000000006</ele><time>2026-04-07T14:04:35.999Z</time></trkpt><trkpt lat="45.862244946073524" lon="9.265493024031716"><ele>461.00000000000006</ele><time>2026-04-07T14:04:37.999Z</time></trkpt><trkpt lat="45.86229982074149" lon="9.265549450670012"><ele>469.0</ele><time>2026-04-07T14:04:38.999Z</time></trkpt><trkpt lat="45.862233095342994" lon="9.265474089500877"><ele>477.0</ele><time>2026-04-07T14:04:39.999Z</time></trkpt><trkpt lat="45.86230890075121" lon="9.265319418614792"><ele>477.0</ele><time>2026-04-07T14:04:41.999Z</time></trkpt><trkpt lat="45.8624033960762" lon="9.26523704253608"><ele>477.0</ele><time>2026-04-07T14:04:43.999Z</time></trkpt><trkpt lat="45.862481511688294" lon="9.265231624138517"><ele>477.0</ele><time>2026-04-07T14:04:44.999Z</time></trkpt><trkpt lat="45.86253719705923" lon="9.26516631907637"><ele>477.0</ele><time>2026-04-07T14:04:45.999Z</time></trkpt><trkpt lat="45.86261139657496" lon="9.265118941984213"><ele>477.0</ele><time>2026-04-07T14:04:46.999Z</time></trkpt><trkpt lat="45.86268249083092" lon="9.265064205337916"><ele>477.0</ele><time>2026-04-07T14:04:47.999Z</time></trkpt><trkpt lat="45.86276030704412" lon="9.265022920533363"><ele>475.0</ele><time>2026-04-07T14:04:48.999Z</time></trkpt><trkpt lat="45.862841795826135" lon="9.26495649578194"><ele>473.0</ele><time>2026-04-07T14:04:50Z</time></trkpt><trkpt lat="45.86290051510062" lon="9.264901611087131"><ele>471.0</ele><time>2026-04-07T14:04:51Z</time></trkpt><trkpt lat="45.8629622559927" lon="9.264840368535308"><ele>469.0</ele><time>2026-04-07T14:04:52Z</time></trkpt><trkpt lat="45.863010884435305" lon="9.264776691029997"><ele>467.0</ele><time>2026-04-07T14:04:53Z</time></trkpt><trkpt lat="45.86306955985384" lon="9.264705423173604"><ele>465.0</ele><time>2026-04-07T14:04:54Z</time></trkpt><trkpt lat="45.86313254243979" lon="9.264633501313778"><ele>470.1666666666667</ele><time>2026-04-07T14:04:55Z</time></trkpt><trkpt lat="45.8632165282216" lon="9.264537595229903"><ele>475.33333333333337</ele><time>2026-04-07T14:04:57Z</time></trkpt><trkpt lat="45.86327457461117" lon="9.264473654864636"><ele>480.5</ele><time>2026-04-07T14:04:58Z</time></trkpt><trkpt lat="45.863351059051624" lon="9.264394710128661"><ele>485.6666666666667</ele><time>2026-04-07T14:04:59Z</time></trkpt><trkpt lat="45.86340808161401" lon="9.26431225831998"><ele>490.83333333333337</ele><time>2026-04-07T14:05:00Z</time></trkpt><trkpt lat="45.86346867222673" lon="9.264282869345472"><ele>496.0</ele><time>2026-04-07T14:05:01Z</time></trkpt><trkpt lat="45.86357943186886" lon="9.264150600828717"><ele>496.00000000000006</ele><time>2026-04-07T14:05:03Z</time></trkpt><trkpt lat="45.86363852993689" lon="9.264081102313819"><ele>496.0</ele><time>2026-04-07T14:05:04Z</time></trkpt><trkpt lat="45.86370934225414" lon="9.264003429303399"><ele>496.0</ele><time>2026-04-07T14:05:04.999Z</time></trkpt><trkpt lat="45.86378016788428" lon="9.263929879043092"><ele>496.0</ele><time>2026-04-07T14:05:05.999Z</time></trkpt><trkpt lat="45.86384703900734" lon="9.263870263306387"><ele>496.00000000000006</ele><time>2026-04-07T14:05:06.999Z</time></trkpt><trkpt lat="45.86390322521984" lon="9.263804339738007"><ele>496.0</ele><time>2026-04-07T14:05:07.999Z</time></trkpt><trkpt lat="45.86397161555206" lon="9.263759264241905"><ele>501.8</ele><time>2026-04-07T14:05:08.999Z</time></trkpt><trkpt lat="45.86409297545705" lon="9.263703559302103"><ele>507.6</ele><time>2026-04-07T14:05:10.999Z</time></trkpt><trkpt lat="45.86415608754644" lon="9.263651513372192"><ele>513.4</ele><time>2026-04-07T14:05:11.999Z</time></trkpt><trkpt lat="45.86427033630038" lon="9.263637430658372"><ele>519.2</ele><time>2026-04-07T14:05:13.999Z</time></trkpt><trkpt lat="45.86435691308922" lon="9.263597929701033"><ele>525.0</ele><time>2026-04-07T14:05:15.999Z</time></trkpt><trkpt lat="45.86440389385407" lon="9.26348247342672"><ele>525.0</ele><time>2026-04-07T14:05:19.999Z</time></trkpt><trkpt lat="45.86446030042" lon="9.263335384917674"><ele>525.0</ele><time>2026-04-07T14:05:20.999Z</time></trkpt><trkpt lat="45.864511434123074" lon="9.26324440379809"><ele>525.0</ele><time>2026-04-07T14:05:21.999Z</time></trkpt><trkpt lat="45.864561584749524" lon="9.263180868473189"><ele>525.0</ele><time>2026-04-07T14:05:22.999Z</time></trkpt><trkpt lat="45.86465151807895" lon="9.263094637172202"><ele>525.0</ele><time>2026-04-07T14:05:24.999Z</time></trkpt><trkpt lat="45.86474704519907" lon="9.262997755534936"><ele>528.0</ele><time>2026-04-07T14:05:26.999Z</time></trkpt><trkpt lat="45.86481929910376" lon="9.26295849995378"><ele>531.0</ele><time>2026-04-07T14:05:28.999Z</time></trkpt><trkpt lat="45.86488806793244" lon="9.262897906336264"><ele>534.0</ele><time>2026-04-07T14:05:29.999Z</time></trkpt><trkpt lat="45.86496837302946" lon="9.262867680802003"><ele>537.0</ele><time>2026-04-07T14:05:30.999Z</time></trkpt><trkpt lat="45.86503042295889" lon="9.262830375849038"><ele>540.0</ele><time>2026-04-07T14:05:31.999Z</time></trkpt><trkpt lat="45.86508273068068" lon="9.262724479814162"><ele>543.0</ele><time>2026-04-07T14:05:33.999Z</time></trkpt><trkpt lat="45.86506844452147" lon="9.262625620913614"><ele>543.0</ele><time>2026-04-07T14:05:34.999Z</time></trkpt><trkpt lat="45.86504802096567" lon="9.26249182469576"><ele>543.0</ele><time>2026-04-07T14:05:43.999Z</time></trkpt><trkpt lat="45.865000331729796" lon="9.262361850861554"><ele>543.0</ele><time>2026-04-07T14:05:45.999Z</time></trkpt><trkpt lat="45.86494421583882" lon="9.262241430560186"><ele>543.0</ele><time>2026-04-07T14:05:47.999Z</time></trkpt><trkpt lat="45.86489759156889" lon="9.262129182297791"><ele>543.0</ele><time>2026-04-07T14:05:49.999Z</time></trkpt><trkpt lat="45.86484059754499" lon="9.261997681560949"><ele>544.6</ele><time>2026-04-07T14:05:51.999Z</time></trkpt><trkpt lat="45.86479233528118" lon="9.26185295073925"><ele>546.1999999999999</ele><time>2026-04-07T14:05:53.999Z</time></trkpt><trkpt lat="45.86472747993771" lon="9.261723015055306"><ele>547.8</ele><time>2026-04-07T14:05:55.999Z</time></trkpt><trkpt lat="45.86466142146195" lon="9.261624507353575"><ele>549.4</ele><time>2026-04-07T14:05:57.999Z</time></trkpt><trkpt lat="45.86460330247287" lon="9.26151293665677"><ele>551.0</ele><time>2026-04-07T14:05:59.999Z</time></trkpt><trkpt lat="45.864547800886626" lon="9.261404531709994"><ele>552.4</ele><time>2026-04-07T14:06:01.999Z</time></trkpt><trkpt lat="45.86449593402962" lon="9.26130697105172"><ele>553.8</ele><time>2026-04-07T14:06:03.999Z</time></trkpt><trkpt lat="45.8644472654219" lon="9.26121998453998"><ele>555.1999999999999</ele><time>2026-04-07T14:06:04.999Z</time></trkpt><trkpt lat="45.86437104702335" lon="9.26106400151147"><ele>556.6</ele><time>2026-04-07T14:06:06.999Z</time></trkpt><trkpt lat="45.86433046308379" lon="9.2609558425469"><ele>558.0</ele><time>2026-04-07T14:06:08.999Z</time></trkpt><trkpt lat="45.86429345101899" lon="9.260856357593424"><ele>558.0</ele><time>2026-04-07T14:06:09.999Z</time></trkpt><trkpt lat="45.86428519924215" lon="9.26065964256839"><ele>558.0</ele><time>2026-04-07T14:06:11.999Z</time></trkpt><trkpt lat="45.86429273908412" lon="9.260555527067032"><ele>558.0</ele><time>2026-04-07T14:06:12.999Z</time></trkpt><trkpt lat="45.86426559475881" lon="9.260453300791646"><ele>558.0</ele><time>2026-04-07T14:06:13.999Z</time></trkpt><trkpt lat="45.864263952778266" lon="9.260334410754274"><ele>558.0</ele><time>2026-04-07T14:06:15.999Z</time></trkpt><trkpt lat="45.864150755597656" lon="9.260268546970424"><ele>560.0</ele><time>2026-04-07T14:06:18.999Z</time></trkpt><trkpt lat="45.864065349645486" lon="9.260222482322966"><ele>562.0</ele><time>2026-04-07T14:06:20.999Z</time></trkpt><trkpt lat="45.86401818259058" lon="9.26011474268925"><ele>564.0</ele><time>2026-04-07T14:06:22.999Z</time></trkpt><trkpt lat="45.86398849583253" lon="9.259962860994161"><ele>566.0</ele><time>2026-04-07T14:06:24.999Z</time></trkpt><trkpt lat="45.863968165684994" lon="9.259857442471475"><ele>568.0</ele><time>2026-04-07T14:06:25.999Z</time></trkpt><trkpt lat="45.86396306953479" lon="9.2597320459189"><ele>569.0</ele><time>2026-04-07T14:06:28Z</time></trkpt><trkpt lat="45.863967184867896" lon="9.259579846161998"><ele>570.0</ele><time>2026-04-07T14:06:30Z</time></trkpt><trkpt lat="45.86393173083844" lon="9.259415705171806"><ele>571.0</ele><time>2026-04-07T14:06:32Z</time></trkpt><trkpt lat="45.86390552650852" lon="9.259285224832434"><ele>572.0</ele><time>2026-04-07T14:06:34Z</time></trkpt><trkpt lat="45.86386298450809" lon="9.259173807190166"><ele>573.0</ele><time>2026-04-07T14:06:36Z</time></trkpt><trkpt lat="45.86386025088516" lon="9.259041575370455"><ele>574.8</ele><time>2026-04-07T14:06:38Z</time></trkpt><trkpt lat="45.86384096530456" lon="9.258922211148391"><ele>576.5999999999999</ele><time>2026-04-07T14:06:40Z</time></trkpt><trkpt lat="45.86383709334646" lon="9.258814927945249"><ele>578.4000000000001</ele><time>2026-04-07T14:06:42Z</time></trkpt><trkpt lat="45.863818622588845" lon="9.25866618823495"><ele>580.2</ele><time>2026-04-07T14:06:44Z</time></trkpt><trkpt lat="45.863771355391506" lon="9.25850282455258"><ele>582.0</ele><time>2026-04-07T14:06:46Z</time></trkpt><trkpt lat="45.86376432802451" lon="9.25834892778468"><ele>582.0</ele><time>2026-04-07T14:06:48Z</time></trkpt><trkpt lat="45.863771370562134" lon="9.25818749058469"><ele>582.0</ele><time>2026-04-07T14:06:50Z</time></trkpt><trkpt lat="45.863728364318476" lon="9.2580531809343"><ele>582.0</ele><time>2026-04-07T14:06:51Z</time></trkpt><trkpt lat="45.86374665661614" lon="9.257965264044202"><ele>582.0</ele><time>2026-04-07T14:06:52Z</time></trkpt><trkpt lat="45.863768109770504" lon="9.257880011481225"><ele>582.0</ele><time>2026-04-07T14:06:53Z</time></trkpt><trkpt lat="45.86376498457738" lon="9.257752780536258"><ele>582.0</ele><time>2026-04-07T14:06:54Z</time></trkpt><trkpt lat="45.8637661143005" lon="9.257605407830455"><ele>584.3333333333334</ele><time>2026-04-07T14:06:55Z</time></trkpt><trkpt lat="45.86377709241607" lon="9.257492879078237"><ele>586.6666666666666</ele><time>2026-04-07T14:06:56Z</time></trkpt><trkpt lat="45.86380604453394" lon="9.257395788913884"><ele>589.0</ele><time>2026-04-07T14:06:57Z</time></trkpt><trkpt lat="45.86379052225338" lon="9.257296037397396"><ele>591.3333333333333</ele><time>2026-04-07T14:06:58Z</time></trkpt><trkpt lat="45.863799624305834" lon="9.257184200098834"><ele>593.6666666666666</ele><time>2026-04-07T14:06:59Z</time></trkpt><trkpt lat="45.86383651308736" lon="9.257009056700959"><ele>596.0</ele><time>2026-04-07T14:07:01Z</time></trkpt><trkpt lat="45.86384036270279" lon="9.256867628707345"><ele>597.5</ele><time>2026-04-07T14:07:03Z</time></trkpt><trkpt lat="45.863848957745525" lon="9.256715257334315"><ele>599.0</ele><time>2026-04-07T14:07:05Z</time></trkpt><trkpt lat="45.863805427241516" lon="9.256632959663333"><ele>600.5</ele><time>2026-04-07T14:07:06Z</time></trkpt><trkpt lat="45.8637624367422" lon="9.25652325700477"><ele>602.0</ele><time>2026-04-07T14:07:08Z</time></trkpt><trkpt lat="45.86371266391261" lon="9.256451688368468"><ele>603.5</ele><time>2026-04-07T14:07:10Z</time></trkpt><trkpt lat="45.86367804660433" lon="9.256332529182083"><ele>605.0</ele><time>2026-04-07T14:07:12Z</time></trkpt><trkpt lat="45.86369105640829" lon="9.256189467683978"><ele>605.0</ele><time>2026-04-07T14:07:14Z</time></trkpt><trkpt lat="45.863693101777606" lon="9.25602655777458"><ele>605.0</ele><time>2026-04-07T14:07:16Z</time></trkpt><trkpt lat="45.86365248206949" lon="9.255938919196625"><ele>605.0</ele><time>2026-04-07T14:07:17Z</time></trkpt><trkpt lat="45.86354349058535" lon="9.255854548075611"><ele>605.0</ele><time>2026-04-07T14:07:18Z</time></trkpt><trkpt lat="45.86350441575417" lon="9.255711286649827"><ele>605.0</ele><time>2026-04-07T14:07:20Z</time></trkpt><trkpt lat="45.86351326772688" lon="9.255613704811925"><ele>604.6</ele><time>2026-04-07T14:07:21Z</time></trkpt><trkpt lat="45.86352154607945" lon="9.25539538307564"><ele>604.2</ele><time>2026-04-07T14:07:23Z</time></trkpt><trkpt lat="45.86351948600391" lon="9.255300550433388"><ele>603.8</ele><time>2026-04-07T14:07:24Z</time></trkpt><trkpt lat="45.863475555706906" lon="9.255203212590407"><ele>603.4</ele><time>2026-04-07T14:07:25Z</time></trkpt><trkpt lat="45.863448296351244" lon="9.25509957565703"><ele>603.0</ele><time>2026-04-07T14:07:26Z</time></trkpt><trkpt lat="45.86340105555137" lon="9.254976033104134"><ele>606.6666666666666</ele><time>2026-04-07T14:07:28Z</time></trkpt><trkpt lat="45.86335432090725" lon="9.254858078487603"><ele>610.3333333333334</ele><time>2026-04-07T14:07:30Z</time></trkpt><trkpt lat="45.863316240331336" lon="9.25476464097775"><ele>614.0</ele><time>2026-04-07T14:07:31Z</time></trkpt><trkpt lat="45.863219980449145" lon="9.254672945698411"><ele>617.6666666666667</ele><time>2026-04-07T14:07:32Z</time></trkpt><trkpt lat="45.86317508059672" lon="9.25459406911956"><ele>621.3333333333334</ele><time>2026-04-07T14:07:33Z</time></trkpt><trkpt lat="45.86316292059545" lon="9.254500411717123"><ele>625.0</ele><time>2026-04-07T14:07:34Z</time></trkpt><trkpt lat="45.86313047318823" lon="9.254410589933102"><ele>625.0</ele><time>2026-04-07T14:07:35Z</time></trkpt><trkpt lat="45.86310075952781" lon="9.254302777753425"><ele>625.0</ele><time>2026-04-07T14:07:36Z</time></trkpt><trkpt lat="45.86310071261046" lon="9.25414063054145"><ele>625.0</ele><time>2026-04-07T14:07:37Z</time></trkpt><trkpt lat="45.86302338333836" lon="9.254021923364014"><ele>625.0</ele><time>2026-04-07T14:07:38Z</time></trkpt><trkpt lat="45.862983066133985" lon="9.253870483124892"><ele>625.0</ele><time>2026-04-07T14:07:39Z</time></trkpt><trkpt lat="45.86290848960003" lon="9.253797672066039"><ele>623.8</ele><time>2026-04-07T14:07:40Z</time></trkpt><trkpt lat="45.862872314890645" lon="9.253691496721029"><ele>622.6</ele><time>2026-04-07T14:07:41Z</time></trkpt><trkpt lat="45.862831150706576" lon="9.253603407380968"><ele>621.4</ele><time>2026-04-07T14:07:42Z</time></trkpt><trkpt lat="45.86276661941633" lon="9.253470974154004"><ele>620.2</ele><time>2026-04-07T14:07:44Z</time></trkpt><trkpt lat="45.86267576601789" lon="9.253340179027807"><ele>619.0</ele><time>2026-04-07T14:07:47Z</time></trkpt><trkpt lat="45.862646285385146" lon="9.253163149786852"><ele>622.4</ele><time>2026-04-07T14:07:49Z</time></trkpt><trkpt lat="45.86260412982534" lon="9.25300927661618"><ele>625.8</ele><time>2026-04-07T14:07:51Z</time></trkpt><trkpt lat="45.86252761041914" lon="9.252925145638095"><ele>629.2</ele><time>2026-04-07T14:07:53Z</time></trkpt><trkpt lat="45.8624462581992" lon="9.25284622769141"><ele>632.6</ele><time>2026-04-07T14:07:55Z</time></trkpt><trkpt lat="45.86238963273615" lon="9.25280521027549"><ele>636.0</ele><time>2026-04-07T14:07:56Z</time></trkpt><trkpt lat="45.86230219959428" lon="9.252738513147554"><ele>636.0</ele><time>2026-04-07T14:07:57Z</time></trkpt><trkpt lat="45.86223135273566" lon="9.25265794039324"><ele>636.0</ele><time>2026-04-07T14:07:58Z</time></trkpt><trkpt lat="45.862166989960116" lon="9.252580259736336"><ele>636.0</ele><time>2026-04-07T14:07:59Z</time></trkpt><trkpt lat="45.8621106524643" lon="9.25249738557258"><ele>636.0</ele><time>2026-04-07T14:08:00Z</time></trkpt><trkpt lat="45.862047468557655" lon="9.252358375404617"><ele>636.0</ele><time>2026-04-07T14:08:02Z</time></trkpt><trkpt lat="45.86196757867294" lon="9.252216247028231"><ele>634.8</ele><time>2026-04-07T14:08:04Z</time></trkpt><trkpt lat="45.861905600599464" lon="9.252094657312172"><ele>633.6</ele><time>2026-04-07T14:08:06Z</time></trkpt><trkpt lat="45.86180197370799" lon="9.252007842992473"><ele>632.4</ele><time>2026-04-07T14:08:08Z</time></trkpt><trkpt lat="45.861722196623106" lon="9.251929205786094"><ele>631.2</ele><time>2026-04-07T14:08:10Z</time></trkpt><trkpt lat="45.86165876644707" lon="9.251882547637418"><ele>630.0</ele><time>2026-04-07T14:08:12Z</time></trkpt><trkpt lat="45.861614149408666" lon="9.251790939973274"><ele>635.2</ele><time>2026-04-07T14:08:20Z</time></trkpt><trkpt lat="45.86154936997643" lon="9.251715587942988"><ele>640.4</ele><time>2026-04-07T14:08:22Z</time></trkpt><trkpt lat="45.861473638247055" lon="9.251652087096026"><ele>645.5999999999999</ele><time>2026-04-07T14:08:24Z</time></trkpt><trkpt lat="45.86138990130983" lon="9.251562498415343"><ele>650.8</ele><time>2026-04-07T14:08:26Z</time></trkpt><trkpt lat="45.861324647742535" lon="9.251475197699214"><ele>656.0</ele><time>2026-04-07T14:08:27Z</time></trkpt><trkpt lat="45.861252687473026" lon="9.25140069647956"><ele>656.0</ele><time>2026-04-07T14:08:28Z</time></trkpt><trkpt lat="45.86116544398499" lon="9.251310157038947"><ele>656.0</ele><time>2026-04-07T14:08:29Z</time></trkpt><trkpt lat="45.86111359316169" lon="9.251250009935292"><ele>656.0</ele><time>2026-04-07T14:08:30Z</time></trkpt><trkpt lat="45.861034656889466" lon="9.251147390170573"><ele>656.0</ele><time>2026-04-07T14:08:32Z</time></trkpt><trkpt lat="45.861002406814414" lon="9.25101313679895"><ele>656.0</ele><time>2026-04-07T14:08:34Z</time></trkpt><trkpt lat="45.860943984570255" lon="9.250843058265875"><ele>662.0</ele><time>2026-04-07T14:08:36Z</time></trkpt><trkpt lat="45.86088688908653" lon="9.250639531363612"><ele>668.0</ele><time>2026-04-07T14:08:38Z</time></trkpt><trkpt lat="45.860828468985254" lon="9.250547225967503"><ele>674.0</ele><time>2026-04-07T14:08:39Z</time></trkpt><trkpt lat="45.8607785418312" lon="9.25038420630114"><ele>680.0</ele><time>2026-04-07T14:08:41Z</time></trkpt><trkpt lat="45.860746203852415" lon="9.250297638743248"><ele>686.0</ele><time>2026-04-07T14:08:42Z</time></trkpt><trkpt lat="45.86065394658854" lon="9.250166562318636"><ele>686.8</ele><time>2026-04-07T14:08:43Z</time></trkpt><trkpt lat="45.86052594174599" lon="9.25008174201432"><ele>687.5999999999999</ele><time>2026-04-07T14:08:44Z</time></trkpt><trkpt lat="45.86045179143042" lon="9.249980573125432"><ele>688.4</ele><time>2026-04-07T14:08:45Z</time></trkpt><trkpt lat="45.86038755844917" lon="9.249917404316157"><ele>689.2</ele><time>2026-04-07T14:08:46Z</time></trkpt><trkpt lat="45.860337156592266" lon="9.249837499885999"><ele>690.0</ele><time>2026-04-07T14:08:47Z</time></trkpt><trkpt lat="45.860286179431306" lon="9.249753648525331"><ele>690.6</ele><time>2026-04-07T14:08:48Z</time></trkpt><trkpt lat="45.860241547011185" lon="9.249616962175192"><ele>691.2</ele><time>2026-04-07T14:08:49Z</time></trkpt><trkpt lat="45.860262718807604" lon="9.24952691220913"><ele>691.8</ele><time>2026-04-07T14:08:50Z</time></trkpt><trkpt lat="45.8601747698055" lon="9.249416484396658"><ele>692.4</ele><time>2026-04-07T14:08:52Z</time></trkpt><trkpt lat="45.86012338520432" lon="9.249288837693223"><ele>693.0</ele><time>2026-04-07T14:08:54Z</time></trkpt><trkpt lat="45.860073940792994" lon="9.249227815328565"><ele>697.4</ele><time>2026-04-07T14:08:55Z</time></trkpt><trkpt lat="45.860034613174435" lon="9.249113277468956"><ele>701.8</ele><time>2026-04-07T14:08:57Z</time></trkpt><trkpt lat="45.859969607815906" lon="9.249087384728773"><ele>706.2</ele><time>2026-04-07T14:08:59Z</time></trkpt><trkpt lat="45.85984512097834" lon="9.24900559083538"><ele>710.6</ele><time>2026-04-07T14:09:01Z</time></trkpt><trkpt lat="45.85978452578757" lon="9.24891080999312"><ele>715.0</ele><time>2026-04-07T14:09:02Z</time></trkpt><trkpt lat="45.85972402776359" lon="9.248832979778797"><ele>715.0</ele><time>2026-04-07T14:09:03Z</time></trkpt><trkpt lat="45.85963769126477" lon="9.248711626154318"><ele>715.0</ele><time>2026-04-07T14:09:05Z</time></trkpt><trkpt lat="45.85959616542782" lon="9.248555962946842"><ele>715.0</ele><time>2026-04-07T14:09:07Z</time></trkpt><trkpt lat="45.859453976721156" lon="9.248511153255645"><ele>715.0</ele><time>2026-04-07T14:09:09Z</time></trkpt><trkpt lat="45.85938133042635" lon="9.248396215937527"><ele>715.0</ele><time>2026-04-07T14:09:12Z</time></trkpt><trkpt lat="45.85931449545707" lon="9.248329571255987"><ele>715.0</ele><time>2026-04-07T14:09:14Z</time></trkpt><trkpt lat="45.85926680753754" lon="9.248268048099504"><ele>715.0</ele><time>2026-04-07T14:09:15Z</time></trkpt><trkpt lat="45.85921532990386" lon="9.248127483380133"><ele>715.0</ele><time>2026-04-07T14:09:17Z</time></trkpt><trkpt lat="45.85915366653319" lon="9.248061338014319"><ele>715.0</ele><time>2026-04-07T14:09:18Z</time></trkpt><trkpt lat="45.8590962757773" lon="9.247938115214314"><ele>715.0</ele><time>2026-04-07T14:09:20Z</time></trkpt><trkpt lat="45.859025590568336" lon="9.247918768240186"><ele>720.0</ele><time>2026-04-07T14:09:21Z</time></trkpt><trkpt lat="45.858963307875584" lon="9.247819915857093"><ele>725.0</ele><time>2026-04-07T14:09:22Z</time></trkpt><trkpt lat="45.8588944545794" lon="9.247683957694703"><ele>730.0</ele><time>2026-04-07T14:09:24Z</time></trkpt><trkpt lat="45.85884446731714" lon="9.247603973508909"><ele>735.0</ele><time>2026-04-07T14:09:25Z</time></trkpt><trkpt lat="45.85878608685068" lon="9.247437426368501"><ele>740.0</ele><time>2026-04-07T14:09:27Z</time></trkpt><trkpt lat="45.85871923213147" lon="9.247275350977285"><ele>740.3333333333333</ele><time>2026-04-07T14:09:29Z</time></trkpt><trkpt lat="45.85869834040657" lon="9.247158205116879"><ele>740.6666666666666</ele><time>2026-04-07T14:09:31Z</time></trkpt><trkpt lat="45.85862968843085" lon="9.247114310552671"><ele>741.0</ele><time>2026-04-07T14:09:32Z</time></trkpt><trkpt lat="45.85854375528529" lon="9.247038477396291"><ele>741.3333333333334</ele><time>2026-04-07T14:09:34Z</time></trkpt><trkpt lat="45.858487088251344" lon="9.24696096703463"><ele>741.6666666666667</ele><time>2026-04-07T14:09:36Z</time></trkpt><trkpt lat="45.858425094536855" lon="9.24689382304909"><ele>742.0</ele><time>2026-04-07T14:09:38Z</time></trkpt><trkpt lat="45.85843321536995" lon="9.246797819345248"><ele>742.0</ele><time>2026-04-07T14:09:41Z</time></trkpt><trkpt lat="45.85850925275373" lon="9.246655662793886"><ele>742.0</ele><time>2026-04-07T14:09:43Z</time></trkpt><trkpt lat="45.85851343129058" lon="9.2465253336315"><ele>742.0</ele><time>2026-04-07T14:09:45Z</time></trkpt><trkpt lat="45.858478903621624" lon="9.246390509548176"><ele>742.0</ele><time>2026-04-07T14:09:48Z</time></trkpt><trkpt lat="45.85846812472785" lon="9.246270175248318"><ele>742.0</ele><time>2026-04-07T14:09:49Z</time></trkpt><trkpt lat="45.85844823119608" lon="9.246130335456463"><ele>742.6</ele><time>2026-04-07T14:09:51Z</time></trkpt><trkpt lat="45.8584709986969" lon="9.245968037252574"><ele>743.2</ele><time>2026-04-07T14:09:53Z</time></trkpt><trkpt lat="45.85841237838891" lon="9.24583164707119"><ele>743.8</ele><time>2026-04-07T14:09:55Z</time></trkpt><trkpt lat="45.85842639480187" lon="9.245643067902943"><ele>744.4</ele><time>2026-04-07T14:09:57Z</time></trkpt><trkpt lat="45.85842166801942" lon="9.24554891336438"><ele>745.0</ele><time>2026-04-07T14:09:58Z</time></trkpt><trkpt lat="45.858405229888255" lon="9.245401979139826"><ele>749.1428571428571</ele><time>2026-04-07T14:09:59Z</time></trkpt><trkpt lat="45.85838595248167" lon="9.245264253455941"><ele>753.2857142857142</ele><time>2026-04-07T14:10:01Z</time></trkpt><trkpt lat="45.858372142378464" lon="9.245157431190902"><ele>757.4285714285714</ele><time>2026-04-07T14:10:02Z</time></trkpt><trkpt lat="45.85836640765067" lon="9.245065065711907"><ele>761.5714285714286</ele><time>2026-04-07T14:10:06Z</time></trkpt><trkpt lat="45.85837206787561" lon="9.244966080517194"><ele>765.7142857142858</ele><time>2026-04-07T14:10:09Z</time></trkpt><trkpt lat="45.858353074558316" lon="9.244879032919927"><ele>769.8571428571429</ele><time>2026-04-07T14:10:11Z</time></trkpt><trkpt lat="45.85831611994973" lon="9.24480292032324"><ele>774.0</ele><time>2026-04-07T14:10:13Z</time></trkpt><trkpt lat="45.858272995604665" lon="9.244736641256674"><ele>774.8000000000001</ele><time>2026-04-07T14:10:15Z</time></trkpt><trkpt lat="45.858201851531945" lon="9.244652946769047"><ele>775.6</ele><time>2026-04-07T14:10:18Z</time></trkpt><trkpt lat="45.85810767137684" lon="9.244577074266749"><ele>776.4</ele><time>2026-04-07T14:10:20Z</time></trkpt><trkpt lat="45.8580042682406" lon="9.24450280802028"><ele>777.2</ele><time>2026-04-07T14:10:22Z</time></trkpt><trkpt lat="45.857923821480114" lon="9.244463434602894"><ele>778.0</ele><time>2026-04-07T14:10:25Z</time></trkpt><trkpt lat="45.85786237097568" lon="9.24440463545238"><ele>778.0</ele><time>2026-04-07T14:10:27Z</time></trkpt><trkpt lat="45.857802356690286" lon="9.2443343944057"><ele>778.0</ele><time>2026-04-07T14:10:30Z</time></trkpt><trkpt lat="45.85771561375592" lon="9.2441929057641"><ele>778.0</ele><time>2026-04-07T14:10:33Z</time></trkpt><trkpt lat="45.85772453556956" lon="9.244066611937955"><ele>778.0</ele><time>2026-04-07T14:10:35Z</time></trkpt><trkpt lat="45.85770515389395" lon="9.243929543523908"><ele>778.0</ele><time>2026-04-07T14:10:37Z</time></trkpt><trkpt lat="45.857718007614245" lon="9.243829074586591"><ele>778.3333333333333</ele><time>2026-04-07T14:10:38Z</time></trkpt><trkpt lat="45.85770686064804" lon="9.243725472998062"><ele>778.6666666666666</ele><time>2026-04-07T14:10:39Z</time></trkpt><trkpt lat="45.85764986611826" lon="9.243628740626615"><ele>779.0</ele><time>2026-04-07T14:10:40Z</time></trkpt><trkpt lat="45.85765579387625" lon="9.243518834618781"><ele>779.3333333333333</ele><time>2026-04-07T14:10:41Z</time></trkpt><trkpt lat="45.85763041084424" lon="9.243342690220919"><ele>779.6666666666666</ele><time>2026-04-07T14:10:42Z</time></trkpt><trkpt lat="45.85762545285965" lon="9.243225148029621"><ele>780.0</ele><time>2026-04-07T14:10:43Z</time></trkpt><trkpt lat="45.85762376153925" lon="9.243102817159093"><ele>781.0</ele><time>2026-04-07T14:10:44Z</time></trkpt><trkpt lat="45.857622090555" lon="9.242860199474832"><ele>782.0</ele><time>2026-04-07T14:10:46Z</time></trkpt><trkpt lat="45.85762483390459" lon="9.242727890431464"><ele>783.0</ele><time>2026-04-07T14:10:47Z</time></trkpt><trkpt lat="45.85764667884793" lon="9.242561195203248"><ele>784.0</ele><time>2026-04-07T14:10:49Z</time></trkpt><trkpt lat="45.85766166325558" lon="9.242460920458608"><ele>784.0</ele><time>2026-04-07T14:10:50Z</time></trkpt><trkpt lat="45.85768710138711" lon="9.242367683542362"><ele>784.0</ele><time>2026-04-07T14:10:51Z</time></trkpt><trkpt lat="45.85775717951193" lon="9.242181019804207"><ele>784.0</ele><time>2026-04-07T14:10:53Z</time></trkpt><trkpt lat="45.85780194818092" lon="9.24207255418875"><ele>784.0</ele><time>2026-04-07T14:10:54Z</time></trkpt><trkpt lat="45.857843273884065" lon="9.241927058668994"><ele>784.0</ele><time>2026-04-07T14:10:55Z</time></trkpt><trkpt lat="45.85790457947109" lon="9.241817064180875"><ele>785.0</ele><time>2026-04-07T14:10:57Z</time></trkpt><trkpt lat="45.85796550683708" lon="9.241684409309633"><ele>786.0</ele><time>2026-04-07T14:10:59Z</time></trkpt><trkpt lat="45.858060987286194" lon="9.241534213336054"><ele>787.0</ele><time>2026-04-07T14:11:01Z</time></trkpt><trkpt lat="45.85811435453073" lon="9.24145601506973"><ele>788.0</ele><time>2026-04-07T14:11:02Z</time></trkpt><trkpt lat="45.85821312752263" lon="9.24135544605602"><ele>788.3333333333334</ele><time>2026-04-07T14:11:04Z</time></trkpt><trkpt lat="45.85825753043434" lon="9.241276332295227"><ele>788.6666666666667</ele><time>2026-04-07T14:11:05Z</time></trkpt><trkpt lat="45.85829638472838" lon="9.241159871087383"><ele>789.0</ele><time>2026-04-07T14:11:06Z</time></trkpt><trkpt lat="45.85834754604131" lon="9.24105936932861"><ele>789.3333333333333</ele><time>2026-04-07T14:11:07Z</time></trkpt><trkpt lat="45.85838275186311" lon="9.240961957260394"><ele>789.6666666666666</ele><time>2026-04-07T14:11:08Z</time></trkpt><trkpt lat="45.85841945921935" lon="9.240865849861796"><ele>790.0</ele><time>2026-04-07T14:11:10Z</time></trkpt><trkpt lat="45.85843167828051" lon="9.240753338578124"><ele>788.6</ele><time>2026-04-07T14:11:14Z</time></trkpt><trkpt lat="45.85846085399107" lon="9.240622960244213"><ele>787.2</ele><time>2026-04-07T14:11:16Z</time></trkpt><trkpt lat="45.858478290648065" lon="9.240485416369294"><ele>785.8</ele><time>2026-04-07T14:11:18Z</time></trkpt><trkpt lat="45.858532394255995" lon="9.240338655234572"><ele>784.4</ele><time>2026-04-07T14:11:21Z</time></trkpt><trkpt lat="45.858578583995424" lon="9.240259893588318"><ele>783.0</ele><time>2026-04-07T14:11:22Z</time></trkpt><trkpt lat="45.85863132527553" lon="9.240151530908514"><ele>783.0</ele><time>2026-04-07T14:11:23Z</time></trkpt><trkpt lat="45.85865708889404" lon="9.240033318052381"><ele>783.0</ele><time>2026-04-07T14:11:24Z</time></trkpt><trkpt lat="45.85869638127438" lon="9.239951993858702"><ele>783.0</ele><time>2026-04-07T14:11:25Z</time></trkpt><trkpt lat="45.85873302053061" lon="9.239829902188111"><ele>783.0</ele><time>2026-04-07T14:11:28Z</time></trkpt><trkpt lat="45.858743415491006" lon="9.239738947414283"><ele>783.0</ele><time>2026-04-07T14:11:31Z</time></trkpt><trkpt lat="45.85874218365834" lon="9.23959373509333"><ele>783.0</ele><time>2026-04-07T14:11:34Z</time></trkpt><trkpt lat="45.858772956974924" lon="9.239494290294225"><ele>784.5999999999999</ele><time>2026-04-07T14:11:36Z</time></trkpt><trkpt lat="45.85880965889332" lon="9.239403762751275"><ele>786.1999999999999</ele><time>2026-04-07T14:11:38Z</time></trkpt><trkpt lat="45.85886527876166" lon="9.239298581736259"><ele>787.8</ele><time>2026-04-07T14:11:40Z</time></trkpt><trkpt lat="45.85893985087927" lon="9.23925167147277"><ele>789.4</ele><time>2026-04-07T14:11:41Z</time></trkpt><trkpt lat="45.859032801776934" lon="9.239143462437157"><ele>791.0</ele><time>2026-04-07T14:11:43Z</time></trkpt><trkpt lat="45.859107206467876" lon="9.23902329536714"><ele>791.0000000000001</ele><time>2026-04-07T14:11:45Z</time></trkpt><trkpt lat="45.859153129309504" lon="9.238957421341189"><ele>791.0</ele><time>2026-04-07T14:11:46Z</time></trkpt><trkpt lat="45.859210009259904" lon="9.23883011305499"><ele>791.0</ele><time>2026-04-07T14:11:48Z</time></trkpt><trkpt lat="45.85926773407526" lon="9.238759979017507"><ele>791.0</ele><time>2026-04-07T14:11:50Z</time></trkpt><trkpt lat="45.85934335941077" lon="9.238697354225673"><ele>791.0000000000001</ele><time>2026-04-07T14:11:52Z</time></trkpt><trkpt lat="45.85944257393244" lon="9.238648945671002"><ele>791.0</ele><time>2026-04-07T14:11:54Z</time></trkpt><trkpt lat="45.859511113253255" lon="9.23861702567247"><ele>791.0</ele><time>2026-04-07T14:11:56Z</time></trkpt><trkpt lat="45.85958449692315" lon="9.23861165617416"><ele>791.0</ele><time>2026-04-07T14:11:57Z</time></trkpt><trkpt lat="45.859648360067574" lon="9.23860850482009"><ele>791.0</ele><time>2026-04-07T14:11:58Z</time></trkpt><trkpt lat="45.8597398628101" lon="9.23859616895525"><ele>791.0</ele><time>2026-04-07T14:11:59Z</time></trkpt><trkpt lat="45.85991749512768" lon="9.238544924149434"><ele>791.0</ele><time>2026-04-07T14:12:01Z</time></trkpt><trkpt lat="45.86001396033692" lon="9.238575956352204"><ele>791.0</ele><time>2026-04-07T14:12:02Z</time></trkpt><trkpt lat="45.86011154843943" lon="9.238567590673322"><ele>791.0</ele><time>2026-04-07T14:12:03Z</time></trkpt><trkpt lat="45.86022893313351" lon="9.238556789038766"><ele>791.0</ele><time>2026-04-07T14:12:04Z</time></trkpt><trkpt lat="45.86033298210046" lon="9.238537261989105"><ele>791.0</ele><time>2026-04-07T14:12:05Z</time></trkpt><trkpt lat="45.860418180185164" lon="9.238551486039405"><ele>791.0</ele><time>2026-04-07T14:12:06Z</time></trkpt><trkpt lat="45.86049759444336" lon="9.238548372017886"><ele>790.0</ele><time>2026-04-07T14:12:07Z</time></trkpt><trkpt lat="45.86056371233038" lon="9.238541366712434"><ele>789.0</ele><time>2026-04-07T14:12:08Z</time></trkpt><trkpt lat="45.86066624443788" lon="9.238486307196089"><ele>788.0</ele><time>2026-04-07T14:12:10Z</time></trkpt><trkpt lat="45.860734686744735" lon="9.238382989871905"><ele>787.0</ele><time>2026-04-07T14:12:12Z</time></trkpt><trkpt lat="45.860755479925956" lon="9.23825642711893"><ele>786.0</ele><time>2026-04-07T14:12:13Z</time></trkpt><trkpt lat="45.86079667903629" lon="9.238109360884705"><ele>785.8</ele><time>2026-04-07T14:12:14Z</time></trkpt><trkpt lat="45.86087172456815" lon="9.23810393676446"><ele>785.5999999999999</ele><time>2026-04-07T14:12:17Z</time></trkpt><trkpt lat="45.860960732074616" lon="9.238220354333517"><ele>785.4</ele><time>2026-04-07T14:12:19Z</time></trkpt><trkpt lat="45.8610147421264" lon="9.238332691744592"><ele>785.2</ele><time>2026-04-07T14:12:20Z</time></trkpt><trkpt lat="45.86108951246456" lon="9.238418497748953"><ele>785.0</ele><time>2026-04-07T14:12:21Z</time></trkpt><trkpt lat="45.861174432499276" lon="9.23847365228129"><ele>785.0</ele><time>2026-04-07T14:12:22Z</time></trkpt><trkpt lat="45.86128598035574" lon="9.238463169137441"><ele>785.0</ele><time>2026-04-07T14:12:23Z</time></trkpt><trkpt lat="45.86137020570348" lon="9.238517845372723"><ele>785.0</ele><time>2026-04-07T14:12:24Z</time></trkpt><trkpt lat="45.86149492955473" lon="9.23860381749632"><ele>785.0</ele><time>2026-04-07T14:12:26Z</time></trkpt><trkpt lat="45.86159558829043" lon="9.23860376768669"><ele>785.0</ele><time>2026-04-07T14:12:27Z</time></trkpt><trkpt lat="45.86171840767227" lon="9.238623932513637"><ele>784.0</ele><time>2026-04-07T14:12:29Z</time></trkpt><trkpt lat="45.86183288107913" lon="9.238622062718314"><ele>783.0</ele><time>2026-04-07T14:12:30Z</time></trkpt><trkpt lat="45.861910849261236" lon="9.238602285232258"><ele>782.0</ele><time>2026-04-07T14:12:31Z</time></trkpt><trkpt lat="45.86199953657752" lon="9.238622418694902"><ele>781.0</ele><time>2026-04-07T14:12:32Z</time></trkpt><trkpt lat="45.862078946797986" lon="9.238656968006714"><ele>780.0</ele><time>2026-04-07T14:12:33Z</time></trkpt><trkpt lat="45.86223473652353" lon="9.238697662137497"><ele>780.0</ele><time>2026-04-07T14:12:35Z</time></trkpt><trkpt lat="45.86233581669636" lon="9.23873039895633"><ele>780.0</ele><time>2026-04-07T14:12:37Z</time></trkpt><trkpt lat="45.862440110431415" lon="9.238690271981358"><ele>780.0</ele><time>2026-04-07T14:12:39.001Z</time></trkpt><trkpt lat="45.862538721753225" lon="9.238656663408035"><ele>780.0</ele><time>2026-04-07T14:12:40Z</time></trkpt><trkpt lat="45.86262906950863" lon="9.238625957260657"><ele>780.0</ele><time>2026-04-07T14:12:41Z</time></trkpt><trkpt lat="45.86275561170405" lon="9.238596778538755"><ele>777.5</ele><time>2026-04-07T14:12:42Z</time></trkpt><trkpt lat="45.86287734150806" lon="9.238521359060686"><ele>775.0</ele><time>2026-04-07T14:12:43Z</time></trkpt><trkpt lat="45.8630173944124" lon="9.238460143064923"><ele>772.5</ele><time>2026-04-07T14:12:44Z</time></trkpt><trkpt lat="45.86311885123062" lon="9.238394575312512"><ele>770.0</ele><time>2026-04-07T14:12:45Z</time></trkpt><trkpt lat="45.863214547267674" lon="9.238349225197533"><ele>770.0</ele><time>2026-04-07T14:12:46Z</time></trkpt><trkpt lat="45.86332156951808" lon="9.23828033348962"><ele>770.0</ele><time>2026-04-07T14:12:47Z</time></trkpt><trkpt lat="45.86341497496521" lon="9.23823348104072"><ele>770.0</ele><time>2026-04-07T14:12:48Z</time></trkpt><trkpt lat="45.86348459678432" lon="9.23818766254271"><ele>770.0</ele><time>2026-04-07T14:12:49Z</time></trkpt><trkpt lat="45.86357681126134" lon="9.23816443122866"><ele>770.0</ele><time>2026-04-07T14:12:50Z</time></trkpt><trkpt lat="45.863661884595636" lon="9.23812968956385"><ele>770.2</ele><time>2026-04-07T14:12:51Z</time></trkpt><trkpt lat="45.86375432649148" lon="9.238076544697682"><ele>770.4</ele><time>2026-04-07T14:12:53Z</time></trkpt><trkpt lat="45.86384040890107" lon="9.238073292699923"><ele>770.5999999999999</ele><time>2026-04-07T14:12:54Z</time></trkpt><trkpt lat="45.86391176758934" lon="9.238058069429714"><ele>770.8</ele><time>2026-04-07T14:12:56Z</time></trkpt><trkpt lat="45.86397961478228" lon="9.23802014240407"><ele>771.0</ele><time>2026-04-07T14:13:00Z</time></trkpt><trkpt lat="45.86401622642134" lon="9.237565066469589"><ele>771.0</ele><time>2026-04-07T14:13:04Z</time></trkpt><trkpt lat="45.864019899336846" lon="9.237425500710897"><ele>771.0</ele><time>2026-04-07T14:13:06Z</time></trkpt><trkpt lat="45.86399679726678" lon="9.237237866306353"><ele>771.0</ele><time>2026-04-07T14:13:08Z</time></trkpt><trkpt lat="45.86399459376609" lon="9.237125047950896"><ele>771.0</ele><time>2026-04-07T14:13:09Z</time></trkpt><trkpt lat="45.86398632101809" lon="9.237014407733344"><ele>771.0</ele><time>2026-04-07T14:13:10Z</time></trkpt><trkpt lat="45.86396991529278" lon="9.236900892371384"><ele>772.3333333333334</ele><time>2026-04-07T14:13:11Z</time></trkpt><trkpt lat="45.86395279901532" lon="9.236801969215199"><ele>773.6666666666667</ele><time>2026-04-07T14:13:12Z</time></trkpt><trkpt lat="45.863889923627866" lon="9.236702226736787"><ele>775.0</ele><time>2026-04-07T14:13:13Z</time></trkpt><trkpt lat="45.863825568971315" lon="9.236645074003201"><ele>776.3333333333334</ele><time>2026-04-07T14:13:14Z</time></trkpt><trkpt lat="45.86375911958198" lon="9.236581321361763"><ele>777.6666666666667</ele><time>2026-04-07T14:13:15Z</time></trkpt><trkpt lat="45.863682972782186" lon="9.236534679245642"><ele>779.0</ele><time>2026-04-07T14:13:16Z</time></trkpt><trkpt lat="45.863570801790765" lon="9.236466848380784"><ele>780.8000000000001</ele><time>2026-04-07T14:13:17Z</time></trkpt><trkpt lat="45.86350294514343" lon="9.236408495662113"><ele>782.6</ele><time>2026-04-07T14:13:18Z</time></trkpt><trkpt lat="45.863451858653576" lon="9.236329161455982"><ele>784.4</ele><time>2026-04-07T14:13:19Z</time></trkpt><trkpt lat="45.86344339865408" lon="9.236173198978877"><ele>786.2</ele><time>2026-04-07T14:13:21Z</time></trkpt><trkpt lat="45.863503562303286" lon="9.236014748862948"><ele>788.0</ele><time>2026-04-07T14:13:23Z</time></trkpt><trkpt lat="45.86356665712547" lon="9.23586924852563"><ele>788.0</ele><time>2026-04-07T14:13:24Z</time></trkpt><trkpt lat="45.863599269804" lon="9.235707646592285"><ele>788.0</ele><time>2026-04-07T14:13:25Z</time></trkpt><trkpt lat="45.86365670673811" lon="9.235489817306293"><ele>788.0</ele><time>2026-04-07T14:13:26Z</time></trkpt><trkpt lat="45.86370072095239" lon="9.235290579835652"><ele>788.0</ele><time>2026-04-07T14:13:27Z</time></trkpt><trkpt lat="45.86375492076608" lon="9.235148326170917"><ele>792.0</ele><time>2026-04-07T14:13:28Z</time></trkpt><trkpt lat="45.86379127654186" lon="9.234967873625028"><ele>796.0</ele><time>2026-04-07T14:13:29Z</time></trkpt><trkpt lat="45.86384937430283" lon="9.234826914771075"><ele>800.0</ele><time>2026-04-07T14:13:30Z</time></trkpt><trkpt lat="45.86389963485124" lon="9.234659342276203"><ele>804.0</ele><time>2026-04-07T14:13:31Z</time></trkpt><trkpt lat="45.86393772929597" lon="9.234488825959335"><ele>807.6</ele><time>2026-04-07T14:13:32Z</time></trkpt><trkpt lat="45.86397171242429" lon="9.234342877639715"><ele>811.2</ele><time>2026-04-07T14:13:33Z</time></trkpt><trkpt lat="45.8640098876393" lon="9.234198941837759"><ele>814.8000000000001</ele><time>2026-04-07T14:13:34Z</time></trkpt><trkpt lat="45.864043072788185" lon="9.234087542632556"><ele>818.4000000000001</ele><time>2026-04-07T14:13:35Z</time></trkpt><trkpt lat="45.86406998567729" lon="9.23395034921784"><ele>822.0</ele><time>2026-04-07T14:13:36Z</time></trkpt><trkpt lat="45.86409337308109" lon="9.233783655049697"><ele>824.4000000000001</ele><time>2026-04-07T14:13:37Z</time></trkpt><trkpt lat="45.864141934633295" lon="9.233614392702426"><ele>826.8000000000001</ele><time>2026-04-07T14:13:38Z</time></trkpt><trkpt lat="45.86413443091499" lon="9.233452009928127"><ele>829.2</ele><time>2026-04-07T14:13:39Z</time></trkpt><trkpt lat="45.86414127106228" lon="9.233328413964541"><ele>831.6</ele><time>2026-04-07T14:13:40Z</time></trkpt><trkpt lat="45.86415374058885" lon="9.233186640209611"><ele>834.0</ele><time>2026-04-07T14:13:41Z</time></trkpt><trkpt lat="45.86423609112704" lon="9.233076520953853"><ele>836.2</ele><time>2026-04-07T14:13:42Z</time></trkpt><trkpt lat="45.86428538721086" lon="9.232964465811246"><ele>838.4000000000001</ele><time>2026-04-07T14:13:43Z</time></trkpt><trkpt lat="45.86440017760302" lon="9.23285531294348"><ele>840.6</ele><time>2026-04-07T14:13:44Z</time></trkpt><trkpt lat="45.86447880708563" lon="9.23279137015035"><ele>842.8</ele><time>2026-04-07T14:13:45Z</time></trkpt><trkpt lat="45.86457453505643" lon="9.232737451883024"><ele>845.0</ele><time>2026-04-07T14:13:46Z</time></trkpt><trkpt lat="45.864660343969845" lon="9.232655679103306"><ele>845.0</ele><time>2026-04-07T14:13:47Z</time></trkpt><trkpt lat="45.86473670966457" lon="9.232536610842489"><ele>845.0</ele><time>2026-04-07T14:13:48Z</time></trkpt><trkpt lat="45.86480758396994" lon="9.23247352198277"><ele>845.0</ele><time>2026-04-07T14:13:49Z</time></trkpt><trkpt lat="45.86488410684609" lon="9.232429456829124"><ele>845.0</ele><time>2026-04-07T14:13:50Z</time></trkpt><trkpt lat="45.8649617507395" lon="9.232325402625614"><ele>845.0</ele><time>2026-04-07T14:13:52Z</time></trkpt><trkpt lat="45.86504157193724" lon="9.232243017732113"><ele>844.0000000000001</ele><time>2026-04-07T14:13:53Z</time></trkpt><trkpt lat="45.865108522639446" lon="9.23219290966095"><ele>843.0</ele><time>2026-04-07T14:13:54Z</time></trkpt><trkpt lat="45.86515916755246" lon="9.232122409417203"><ele>842.0</ele><time>2026-04-07T14:13:55Z</time></trkpt><trkpt lat="45.865234448874745" lon="9.232057435402119"><ele>841.0</ele><time>2026-04-07T14:13:57Z</time></trkpt><trkpt lat="45.86525802233332" lon="9.231910174187103"><ele>840.0000000000001</ele><time>2026-04-07T14:13:58Z</time></trkpt><trkpt lat="45.86526825687864" lon="9.231758724729005"><ele>839.0</ele><time>2026-04-07T14:13:59Z</time></trkpt><trkpt lat="45.86527284389608" lon="9.231653424202541"><ele>839.0</ele><time>2026-04-07T14:14:00Z</time></trkpt><trkpt lat="45.86531083460518" lon="9.23148006582936"><ele>839.0</ele><time>2026-04-07T14:14:02Z</time></trkpt><trkpt lat="45.86535986733296" lon="9.23138848579133"><ele>839.0</ele><time>2026-04-07T14:14:03Z</time></trkpt><trkpt lat="45.86540781385851" lon="9.231296665784884"><ele>839.0</ele><time>2026-04-07T14:14:04Z</time></trkpt><trkpt lat="45.8654512575396" lon="9.231184219838577"><ele>839.0</ele><time>2026-04-07T14:14:05Z</time></trkpt><trkpt lat="45.865505999950884" lon="9.231090361869951"><ele>840.6666666666667</ele><time>2026-04-07T14:14:06Z</time></trkpt><trkpt lat="45.86550523379293" lon="9.230981391760137"><ele>842.3333333333334</ele><time>2026-04-07T14:14:07Z</time></trkpt><trkpt lat="45.86551572944451" lon="9.230881468876872"><ele>844.0</ele><time>2026-04-07T14:14:08Z</time></trkpt><trkpt lat="45.86552683216439" lon="9.230743981978673"><ele>845.6666666666667</ele><time>2026-04-07T14:14:10Z</time></trkpt><trkpt lat="45.86552742411256" lon="9.230630253511919"><ele>847.3333333333334</ele><time>2026-04-07T14:14:11Z</time></trkpt><trkpt lat="45.86550521115848" lon="9.230517275470161"><ele>849.0</ele><time>2026-04-07T14:14:12Z</time></trkpt><trkpt lat="45.865479698111486" lon="9.230392791755985"><ele>849.2</ele><time>2026-04-07T14:14:13Z</time></trkpt><trkpt lat="45.865433001800284" lon="9.230244596875481"><ele>849.4000000000001</ele><time>2026-04-07T14:14:14Z</time></trkpt><trkpt lat="45.865390017996276" lon="9.230101946729794"><ele>849.6</ele><time>2026-04-07T14:14:15Z</time></trkpt><trkpt lat="45.86532591043923" lon="9.229971618402361"><ele>849.8</ele><time>2026-04-07T14:14:16Z</time></trkpt><trkpt lat="45.865286159733756" lon="9.229848002124813"><ele>850.0</ele><time>2026-04-07T14:14:17Z</time></trkpt><trkpt lat="45.86525897236162" lon="9.229746948141518"><ele>849.6</ele><time>2026-04-07T14:14:18Z</time></trkpt><trkpt lat="45.86526829465796" lon="9.22965553891328"><ele>849.2</ele><time>2026-04-07T14:14:21Z</time></trkpt><trkpt lat="45.86533226556471" lon="9.229488754456208"><ele>848.8</ele><time>2026-04-07T14:14:29Z</time></trkpt><trkpt lat="45.865295418588275" lon="9.22937167018626"><ele>848.4</ele><time>2026-04-07T14:14:31Z</time></trkpt><trkpt lat="45.86527288288071" lon="9.229198539676004"><ele>848.0</ele><time>2026-04-07T14:14:33Z</time></trkpt><trkpt lat="45.86527947974903" lon="9.229098692134764"><ele>848.0000000000001</ele><time>2026-04-07T14:14:34Z</time></trkpt><trkpt lat="45.865254985204686" lon="9.228996887854596"><ele>848.0</ele><time>2026-04-07T14:14:35Z</time></trkpt><trkpt lat="45.86522302751503" lon="9.228904228709565"><ele>848.0</ele><time>2026-04-07T14:14:36Z</time></trkpt><trkpt lat="45.865199477349314" lon="9.22880706851159"><ele>848.0</ele><time>2026-04-07T14:14:37Z</time></trkpt><trkpt lat="45.8651864302533" lon="9.228689678131095"><ele>848.0000000000001</ele><time>2026-04-07T14:14:38Z</time></trkpt><trkpt lat="45.86519054439165" lon="9.22857641149323"><ele>848.0</ele><time>2026-04-07T14:14:39Z</time></trkpt><trkpt lat="45.865165775870146" lon="9.228419442898225"><ele>847.5000000000001</ele><time>2026-04-07T14:14:40Z</time></trkpt><trkpt lat="45.86514817171437" lon="9.228315716552142"><ele>847.0</ele><time>2026-04-07T14:14:41Z</time></trkpt><trkpt lat="45.86514622210483" lon="9.228205064793272"><ele>846.5</ele><time>2026-04-07T14:14:42Z</time></trkpt><trkpt lat="45.865129823122146" lon="9.228082114157703"><ele>846.0</ele><time>2026-04-07T14:14:43Z</time></trkpt><trkpt lat="45.86514017769333" lon="9.227955820783736"><ele>845.5000000000001</ele><time>2026-04-07T14:14:44Z</time></trkpt><trkpt lat="45.865151975360625" lon="9.227817599990288"><ele>845.0</ele><time>2026-04-07T14:14:45Z</time></trkpt><trkpt lat="45.86514336433332" lon="9.227679520807305"><ele>843.8333333333334</ele><time>2026-04-07T14:14:46Z</time></trkpt><trkpt lat="45.86518106252835" lon="9.227558332299239"><ele>842.6666666666667</ele><time>2026-04-07T14:14:47Z</time></trkpt><trkpt lat="45.86518061110646" lon="9.22746074385887"><ele>841.5</ele><time>2026-04-07T14:14:48Z</time></trkpt><trkpt lat="45.86519767458633" lon="9.227365950191846"><ele>840.3333333333333</ele><time>2026-04-07T14:14:49Z</time></trkpt><trkpt lat="45.865200452955364" lon="9.22727224716048"><ele>839.1666666666666</ele><time>2026-04-07T14:14:50Z</time></trkpt><trkpt lat="45.86522172881005" lon="9.22716539083375"><ele>838.0</ele><time>2026-04-07T14:14:51Z</time></trkpt><trkpt lat="45.86525196061397" lon="9.22705123583775"><ele>837.8333333333333</ele><time>2026-04-07T14:14:52Z</time></trkpt><trkpt lat="45.86528031089665" lon="9.226939147044638"><ele>837.6666666666666</ele><time>2026-04-07T14:14:53Z</time></trkpt><trkpt lat="45.86530199117034" lon="9.226835980758281"><ele>837.5</ele><time>2026-04-07T14:14:54Z</time></trkpt><trkpt lat="45.86531716842389" lon="9.226698189694057"><ele>837.3333333333333</ele><time>2026-04-07T14:14:56Z</time></trkpt><trkpt lat="45.86536856746009" lon="9.226641680823937"><ele>837.1666666666666</ele><time>2026-04-07T14:14:58Z</time></trkpt><trkpt lat="45.86543835950798" lon="9.226625350728758"><ele>837.0</ele><time>2026-04-07T14:15:01Z</time></trkpt><trkpt lat="45.86543604231627" lon="9.226722054118806"><ele>837.0</ele><time>2026-04-07T14:15:04Z</time></trkpt><trkpt lat="45.8655245288457" lon="9.226864295246216"><ele>837.0</ele><time>2026-04-07T14:15:06Z</time></trkpt><trkpt lat="45.86556479900855" lon="9.22704513312183"><ele>837.0</ele><time>2026-04-07T14:15:07Z</time></trkpt><trkpt lat="45.865620332700566" lon="9.22716505505456"><ele>837.0</ele><time>2026-04-07T14:15:08Z</time></trkpt><trkpt lat="45.86567306128211" lon="9.227255123478033"><ele>837.0</ele><time>2026-04-07T14:15:09Z</time></trkpt><trkpt lat="45.86571776081307" lon="9.227333930844642"><ele>837.1666666666666</ele><time>2026-04-07T14:15:10Z</time></trkpt><trkpt lat="45.86577532207216" lon="9.227426117328644"><ele>837.3333333333333</ele><time>2026-04-07T14:15:11Z</time></trkpt><trkpt lat="45.865804365831046" lon="9.227515402611203"><ele>837.5</ele><time>2026-04-07T14:15:12Z</time></trkpt><trkpt lat="45.86583940095136" lon="9.227605651798058"><ele>837.6666666666666</ele><time>2026-04-07T14:15:13Z</time></trkpt><trkpt lat="45.86589409383813" lon="9.227745280104987"><ele>837.8333333333333</ele><time>2026-04-07T14:15:14Z</time></trkpt><trkpt lat="45.86595176841271" lon="9.227833723671186"><ele>838.0</ele><time>2026-04-07T14:15:15Z</time></trkpt><trkpt lat="45.866045928579105" lon="9.227927556229398"><ele>836.4999999999999</ele><time>2026-04-07T14:15:17Z</time></trkpt><trkpt lat="45.866107648880345" lon="9.227978813786155"><ele>835.0</ele><time>2026-04-07T14:15:18Z</time></trkpt><trkpt lat="45.86622938133899" lon="9.227986120645273"><ele>833.5</ele><time>2026-04-07T14:15:20Z</time></trkpt><trkpt lat="45.86629207414933" lon="9.227970058341826"><ele>832.0</ele><time>2026-04-07T14:15:21Z</time></trkpt><trkpt lat="45.866363790753" lon="9.227931170465297"><ele>830.4999999999999</ele><time>2026-04-07T14:15:22Z</time></trkpt><trkpt lat="45.86645077620484" lon="9.227871211348328"><ele>829.0</ele><time>2026-04-07T14:15:23Z</time></trkpt><trkpt lat="45.86653808497512" lon="9.227846500249935"><ele>829.0</ele><time>2026-04-07T14:15:24Z</time></trkpt><trkpt lat="45.86661170866342" lon="9.227842688866362"><ele>829.0</ele><time>2026-04-07T14:15:25Z</time></trkpt><trkpt lat="45.866723587858885" lon="9.227807558847811"><ele>829.0</ele><time>2026-04-07T14:15:27Z</time></trkpt><trkpt lat="45.866814587868916" lon="9.227715690614971"><ele>829.0</ele><time>2026-04-07T14:15:29Z</time></trkpt><trkpt lat="45.866872486378504" lon="9.22776454968888"><ele>829.0</ele><time>2026-04-07T14:15:30Z</time></trkpt><trkpt lat="45.86698389011455" lon="9.227802926539281"><ele>826.8333333333333</ele><time>2026-04-07T14:15:32Z</time></trkpt><trkpt lat="45.86707118336223" lon="9.227822299586114"><ele>824.6666666666666</ele><time>2026-04-07T14:15:34Z</time></trkpt><trkpt lat="45.86714491125533" lon="9.22779576766625"><ele>822.5</ele><time>2026-04-07T14:15:37Z</time></trkpt><trkpt lat="45.86722613918249" lon="9.227785907438502"><ele>820.3333333333333</ele><time>2026-04-07T14:15:39Z</time></trkpt><trkpt lat="45.8672541389032" lon="9.227720501657837"><ele>818.1666666666666</ele><time>2026-04-07T14:23:40Z</time></trkpt><trkpt lat="45.86720201803677" lon="9.22777802375942"><ele>816.0</ele><time>2026-04-07T14:23:44Z</time></trkpt><trkpt lat="45.86710608327674" lon="9.227766659076506"><ele>816.0</ele><time>2026-04-07T14:23:46Z</time></trkpt><trkpt lat="45.86703035756939" lon="9.227755202742564"><ele>816.0</ele><time>2026-04-07T14:23:47Z</time></trkpt><trkpt lat="45.8669647161178" lon="9.227776036160908"><ele>816.0</ele><time>2026-04-07T14:23:48Z</time></trkpt><trkpt lat="45.86688353095621" lon="9.227782564687864"><ele>816.0</ele><time>2026-04-07T14:23:49Z</time></trkpt><trkpt lat="45.86676297832144" lon="9.227780055701869"><ele>816.0</ele><time>2026-04-07T14:23:50Z</time></trkpt><trkpt lat="45.86668526694813" lon="9.22779765585313"><ele>816.0</ele><time>2026-04-07T14:23:51Z</time></trkpt><trkpt lat="45.86659180754194" lon="9.227842108866497"><ele>819.25</ele><time>2026-04-07T14:23:53Z</time></trkpt><trkpt lat="45.86645211694178" lon="9.227881694402788"><ele>822.5</ele><time>2026-04-07T14:23:55Z</time></trkpt><trkpt lat="45.86635330580068" lon="9.227937537310634"><ele>825.75</ele><time>2026-04-07T14:23:58Z</time></trkpt><trkpt lat="45.86626152807165" lon="9.227998873426953"><ele>829.0</ele><time>2026-04-07T14:24:00Z</time></trkpt><trkpt lat="45.8661516501625" lon="9.227993587989358"><ele>829.0</ele><time>2026-04-07T14:24:02Z</time></trkpt><trkpt lat="45.86604768266292" lon="9.227933127226796"><ele>829.0</ele><time>2026-04-07T14:24:04Z</time></trkpt><trkpt lat="45.86595745248072" lon="9.227844925553788"><ele>829.0</ele><time>2026-04-07T14:24:06Z</time></trkpt><trkpt lat="45.865890166790145" lon="9.227702475291824"><ele>829.0</ele><time>2026-04-07T14:24:08Z</time></trkpt><trkpt lat="45.865846246298034" lon="9.227599475228413"><ele>829.0</ele><time>2026-04-07T14:24:10Z</time></trkpt><trkpt lat="45.865791478625525" lon="9.22745178195165"><ele>830.6</ele><time>2026-04-07T14:24:12Z</time></trkpt><trkpt lat="45.86574861802122" lon="9.227366243945015"><ele>832.2</ele><time>2026-04-07T14:24:14Z</time></trkpt><trkpt lat="45.8656894847725" lon="9.227223472985065"><ele>833.8000000000001</ele><time>2026-04-07T14:24:16Z</time></trkpt><trkpt lat="45.865620389626386" lon="9.227106047620584"><ele>835.4000000000001</ele><time>2026-04-07T14:24:17Z</time></trkpt><trkpt lat="45.86555783241261" lon="9.226967139037535"><ele>837.0</ele><time>2026-04-07T14:24:18Z</time></trkpt><trkpt lat="45.86550865759892" lon="9.226848457434611"><ele>837.0</ele><time>2026-04-07T14:24:19Z</time></trkpt><trkpt lat="45.86545498897486" lon="9.22672897314073"><ele>837.0</ele><time>2026-04-07T14:24:20Z</time></trkpt><trkpt lat="45.865412699119204" lon="9.22663180193808"><ele>837.0</ele><time>2026-04-07T14:24:21Z</time></trkpt><trkpt lat="45.86536192670058" lon="9.226494128919102"><ele>837.0</ele><time>2026-04-07T14:24:23Z</time></trkpt><trkpt lat="45.86533687317067" lon="9.22640363415432"><ele>837.0</ele><time>2026-04-07T14:24:24Z</time></trkpt><trkpt lat="45.865327188778316" lon="9.226284837927086"><ele>837.0</ele><time>2026-04-07T14:24:26Z</time></trkpt><trkpt lat="45.865328036495306" lon="9.226188865813057"><ele>836.8333333333334</ele><time>2026-04-07T14:24:27Z</time></trkpt><trkpt lat="45.86534995824998" lon="9.226030160083894"><ele>836.6666666666667</ele><time>2026-04-07T14:24:28Z</time></trkpt><trkpt lat="45.86536897010724" lon="9.22590789215935"><ele>836.5</ele><time>2026-04-07T14:24:29Z</time></trkpt><trkpt lat="45.865392584420505" lon="9.225802856087958"><ele>836.3333333333334</ele><time>2026-04-07T14:24:30Z</time></trkpt><trkpt lat="45.86541358146133" lon="9.225695291324962"><ele>836.1666666666667</ele><time>2026-04-07T14:24:31Z</time></trkpt><trkpt lat="45.86545262164837" lon="9.225596948296111"><ele>836.0</ele><time>2026-04-07T14:24:32Z</time></trkpt><trkpt lat="45.86548299837252" lon="9.225457692555603"><ele>835.4</ele><time>2026-04-07T14:24:33Z</time></trkpt><trkpt lat="45.86550031047201" lon="9.225345115201788"><ele>834.8</ele><time>2026-04-07T14:24:34Z</time></trkpt><trkpt lat="45.86552263019269" lon="9.225170603042733"><ele>834.1999999999999</ele><time>2026-04-07T14:24:35.999Z</time></trkpt><trkpt lat="45.86548556849501" lon="9.225048392157843"><ele>833.5999999999999</ele><time>2026-04-07T14:24:36.999Z</time></trkpt><trkpt lat="45.86543842634136" lon="9.22492705726598"><ele>833.0</ele><time>2026-04-07T14:24:37.999Z</time></trkpt><trkpt lat="45.86539282158999" lon="9.224798632836555"><ele>832.1666666666667</ele><time>2026-04-07T14:24:38.999Z</time></trkpt><trkpt lat="45.865352858827784" lon="9.224700556708486"><ele>831.3333333333334</ele><time>2026-04-07T14:24:39.999Z</time></trkpt><trkpt lat="45.86530362220656" lon="9.224565280408203"><ele>830.5</ele><time>2026-04-07T14:24:41.999Z</time></trkpt><trkpt lat="45.865256064855366" lon="9.224464813847117"><ele>829.6666666666667</ele><time>2026-04-07T14:24:43.999Z</time></trkpt><trkpt lat="45.865282890622915" lon="9.22436336023039"><ele>828.8333333333334</ele><time>2026-04-07T14:24:46.999Z</time></trkpt><trkpt lat="45.8652760117484" lon="9.224253037441372"><ele>828.0</ele><time>2026-04-07T14:24:48.999Z</time></trkpt><trkpt lat="45.8652841714108" lon="9.22412283480691"><ele>828.4</ele><time>2026-04-07T14:24:51.999Z</time></trkpt><trkpt lat="45.8652691015956" lon="9.223961226119886"><ele>828.8</ele><time>2026-04-07T14:24:53.999Z</time></trkpt><trkpt lat="45.86525539235086" lon="9.223868941653356"><ele>829.2</ele><time>2026-04-07T14:24:54.999Z</time></trkpt><trkpt lat="45.865213977990834" lon="9.223778903574836"><ele>829.6</ele><time>2026-04-07T14:24:56.999Z</time></trkpt><trkpt lat="45.86518946184988" lon="9.223657341219281"><ele>830.0</ele><time>2026-04-07T14:24:59.999Z</time></trkpt><trkpt lat="45.86514976530522" lon="9.223508811519064"><ele>830.0</ele><time>2026-04-07T14:25:01.999Z</time></trkpt><trkpt lat="45.865117334116185" lon="9.223295265496082"><ele>830.0</ele><time>2026-04-07T14:25:03.999Z</time></trkpt><trkpt lat="45.865096897867225" lon="9.223186093249405"><ele>830.0</ele><time>2026-04-07T14:25:04.999Z</time></trkpt><trkpt lat="45.86508382058202" lon="9.223067802771201"><ele>830.0</ele><time>2026-04-07T14:25:05.999Z</time></trkpt><trkpt lat="45.865041600619065" lon="9.222968336410503"><ele>830.0</ele><time>2026-04-07T14:25:06.999Z</time></trkpt><trkpt lat="45.86501641994735" lon="9.222858701690074"><ele>831.0000000000001</ele><time>2026-04-07T14:25:07.999Z</time></trkpt><trkpt lat="45.864980652627445" lon="9.222736790989126"><ele>832.0</ele><time>2026-04-07T14:25:08.999Z</time></trkpt><trkpt lat="45.86497146898539" lon="9.222578006262017"><ele>833.0</ele><time>2026-04-07T14:25:10.999Z</time></trkpt><trkpt lat="45.8649931143831" lon="9.222445109500594"><ele>834.0</ele><time>2026-04-07T14:25:12.999Z</time></trkpt><trkpt lat="45.865039242213136" lon="9.222367500329028"><ele>835.0000000000001</ele><time>2026-04-07T14:25:15Z</time></trkpt><trkpt lat="45.86506913741394" lon="9.222280631473575"><ele>836.0</ele><time>2026-04-07T14:25:16Z</time></trkpt><trkpt lat="45.86514801040133" lon="9.222204251154693"><ele>837.1999999999999</ele><time>2026-04-07T14:25:17Z</time></trkpt><trkpt lat="45.86525041807792" lon="9.222150689485948"><ele>838.4</ele><time>2026-04-07T14:25:19Z</time></trkpt><trkpt lat="45.86534612553105" lon="9.22212393290045"><ele>839.6</ele><time>2026-04-07T14:25:21Z</time></trkpt><trkpt lat="45.865448805702584" lon="9.22217165878732"><ele>840.8</ele><time>2026-04-07T14:25:23Z</time></trkpt><trkpt lat="45.86539956962997" lon="9.222256009914213"><ele>842.0</ele><time>2026-04-07T14:25:24Z</time></trkpt><trkpt lat="45.86538680885717" lon="9.222410384002094"><ele>842.0000000000001</ele><time>2026-04-07T14:25:26Z</time></trkpt><trkpt lat="45.86539907704403" lon="9.222545063575318"><ele>842.0</ele><time>2026-04-07T14:25:27Z</time></trkpt><trkpt lat="45.8654220247033" lon="9.222631137360548"><ele>842.0</ele><time>2026-04-07T14:25:28Z</time></trkpt><trkpt lat="45.86545966076345" lon="9.222720373578866"><ele>842.0</ele><time>2026-04-07T14:25:29Z</time></trkpt><trkpt lat="45.86554761031833" lon="9.222817552111273"><ele>842.0000000000001</ele><time>2026-04-07T14:25:31Z</time></trkpt><trkpt lat="45.86564876202353" lon="9.222836627130444"><ele>842.0</ele><time>2026-04-07T14:25:32Z</time></trkpt><trkpt lat="45.86572681592052" lon="9.222861313132581"><ele>842.0</ele><time>2026-04-07T14:25:33Z</time></trkpt><trkpt lat="45.86586351353877" lon="9.222930671347687"><ele>842.0</ele><time>2026-04-07T14:25:34Z</time></trkpt><trkpt lat="45.86595730254105" lon="9.223021850507438"><ele>842.0</ele><time>2026-04-07T14:25:35Z</time></trkpt><trkpt lat="45.86603672025904" lon="9.223094845547609"><ele>842.0</ele><time>2026-04-07T14:25:36Z</time></trkpt><trkpt lat="45.86612870294342" lon="9.223130887826889"><ele>842.0</ele><time>2026-04-07T14:25:37Z</time></trkpt><trkpt lat="45.866196788042984" lon="9.223180536682213"><ele>841.25</ele><time>2026-04-07T14:25:47Z</time></trkpt><trkpt lat="45.86629878355352" lon="9.223231291589812"><ele>840.5</ele><time>2026-04-07T14:25:49Z</time></trkpt><trkpt lat="45.86644044086955" lon="9.223267318758353"><ele>839.75</ele><time>2026-04-07T14:25:51Z</time></trkpt><trkpt lat="45.86654302641269" lon="9.223328148313387"><ele>839.0</ele><time>2026-04-07T14:25:53Z</time></trkpt><trkpt lat="45.86663122261732" lon="9.223394438323815"><ele>839.0</ele><time>2026-04-07T14:25:54Z</time></trkpt><trkpt lat="45.86676186735206" lon="9.223572485988496"><ele>839.0</ele><time>2026-04-07T14:25:56Z</time></trkpt><trkpt lat="45.86682378854297" lon="9.22364432167832"><ele>839.0</ele><time>2026-04-07T14:25:57Z</time></trkpt><trkpt lat="45.86691397894555" lon="9.223710427390188"><ele>839.0</ele><time>2026-04-07T14:25:58Z</time></trkpt><trkpt lat="45.867027729523834" lon="9.223772289349801"><ele>839.6666666666667</ele><time>2026-04-07T14:25:59Z</time></trkpt><trkpt lat="45.867085928716975" lon="9.223842753325895"><ele>840.3333333333334</ele><time>2026-04-07T14:26:00Z</time></trkpt><trkpt lat="45.86716016885183" lon="9.223901295794272"><ele>841.0</ele><time>2026-04-07T14:26:01Z</time></trkpt><trkpt lat="45.867255172216396" lon="9.223904952997744"><ele>841.6666666666667</ele><time>2026-04-07T14:26:02Z</time></trkpt><trkpt lat="45.86734274988493" lon="9.223937783958956"><ele>842.3333333333334</ele><time>2026-04-07T14:26:03Z</time></trkpt><trkpt lat="45.8674267055924" lon="9.223964643950772"><ele>843.0</ele><time>2026-04-07T14:26:04Z</time></trkpt><trkpt lat="45.86750286618416" lon="9.223922042736822"><ele>843.0</ele><time>2026-04-07T14:26:05Z</time></trkpt><trkpt lat="45.86756853048786" lon="9.223921123015613"><ele>843.0</ele><time>2026-04-07T14:26:06Z</time></trkpt><trkpt lat="45.867667287450224" lon="9.2239269326151"><ele>843.0</ele><time>2026-04-07T14:26:07Z</time></trkpt><trkpt lat="45.867738655506194" lon="9.223919544110696"><ele>843.0</ele><time>2026-04-07T14:26:08Z</time></trkpt><trkpt lat="45.86781624099246" lon="9.223887018899003"><ele>843.0</ele><time>2026-04-07T14:26:09Z</time></trkpt><trkpt lat="45.86786964829848" lon="9.223821222550455"><ele>843.0</ele><time>2026-04-07T14:26:10Z</time></trkpt><trkpt lat="45.86795418739262" lon="9.22373715000776"><ele>839.75</ele><time>2026-04-07T14:26:11Z</time></trkpt><trkpt lat="45.86803022126771" lon="9.223631313838183"><ele>836.5</ele><time>2026-04-07T14:26:12Z</time></trkpt><trkpt lat="45.86809452083349" lon="9.223547882303555"><ele>833.25</ele><time>2026-04-07T14:26:13Z</time></trkpt><trkpt lat="45.86815453628131" lon="9.223399969950824"><ele>830.0</ele><time>2026-04-07T14:26:14Z</time></trkpt><trkpt lat="45.86819710846783" lon="9.223207801018388"><ele>832.0</ele><time>2026-04-07T14:26:15Z</time></trkpt><trkpt lat="45.86822295897457" lon="9.223113365241355"><ele>834.0</ele><time>2026-04-07T14:26:16Z</time></trkpt><trkpt lat="45.86830624515757" lon="9.223007014188251"><ele>836.0</ele><time>2026-04-07T14:26:17Z</time></trkpt><trkpt lat="45.868337300896435" lon="9.222915838589879"><ele>838.0</ele><time>2026-04-07T14:26:18Z</time></trkpt><trkpt lat="45.868445975686896" lon="9.22274264871548"><ele>840.0</ele><time>2026-04-07T14:26:20Z</time></trkpt><trkpt lat="45.86848871995038" lon="9.222667002314015"><ele>840.0</ele><time>2026-04-07T14:26:20.999Z</time></trkpt><trkpt lat="45.86859198617827" lon="9.222519117484003"><ele>840.0</ele><time>2026-04-07T14:26:22.999Z</time></trkpt><trkpt lat="45.868647463236734" lon="9.22243002044474"><ele>840.0</ele><time>2026-04-07T14:26:23.999Z</time></trkpt><trkpt lat="45.86871156895023" lon="9.222349351273905"><ele>840.0</ele><time>2026-04-07T14:26:24.999Z</time></trkpt><trkpt lat="45.86876356580016" lon="9.222290662551343"><ele>840.0</ele><time>2026-04-07T14:26:25.999Z</time></trkpt><trkpt lat="45.86884819551613" lon="9.222232741243069"><ele>840.0</ele><time>2026-04-07T14:26:27.999Z</time></trkpt><trkpt lat="45.86891315325831" lon="9.222198285104565"><ele>840.0</ele><time>2026-04-07T14:26:30.999Z</time></trkpt><trkpt lat="45.8689861892436" lon="9.222197670847393"><ele>840.0</ele><time>2026-04-07T14:26:32.999Z</time></trkpt><trkpt lat="45.86904802833106" lon="9.222244865874048"><ele>840.0</ele><time>2026-04-07T14:26:34.999Z</time></trkpt><trkpt lat="45.86906378775918" lon="9.22238661202728"><ele>840.0</ele><time>2026-04-07T14:26:36.999Z</time></trkpt><trkpt lat="45.869036616794176" lon="9.222476730556501"><ele>840.0</ele><time>2026-04-07T14:26:37.999Z</time></trkpt><trkpt lat="45.86901258234089" lon="9.222571706198597"><ele>840.0</ele><time>2026-04-07T14:26:38.999Z</time></trkpt><trkpt lat="45.86897991987771" lon="9.222770734838296"><ele>840.0</ele><time>2026-04-07T14:26:39.999Z</time></trkpt><trkpt lat="45.8689918383965" lon="9.22294566269175"><ele>840.0</ele><time>2026-04-07T14:26:40.999Z</time></trkpt><trkpt lat="45.86899126523062" lon="9.22310446586629"><ele>840.0</ele><time>2026-04-07T14:26:41.999Z</time></trkpt><trkpt lat="45.868990462166266" lon="9.223196121563834"><ele>840.0</ele><time>2026-04-07T14:26:42.999Z</time></trkpt><trkpt lat="45.86900828774268" lon="9.223300880326349"><ele>840.25</ele><time>2026-04-07T14:26:43.999Z</time></trkpt><trkpt lat="45.86901149317403" lon="9.223456575744517"><ele>840.5</ele><time>2026-04-07T14:26:44.999Z</time></trkpt><trkpt lat="45.869050341252176" lon="9.223630578524473"><ele>840.75</ele><time>2026-04-07T14:26:45.999Z</time></trkpt><trkpt lat="45.869093868548156" lon="9.223794642193205"><ele>841.0</ele><time>2026-04-07T14:26:46.999Z</time></trkpt><trkpt lat="45.869123354312606" lon="9.223952439326844"><ele>838.8</ele><time>2026-04-07T14:26:47.999Z</time></trkpt><trkpt lat="45.86917580481091" lon="9.224116478653135"><ele>836.5999999999999</ele><time>2026-04-07T14:26:48.999Z</time></trkpt><trkpt lat="45.869211821090474" lon="9.224265116222124"><ele>834.4</ele><time>2026-04-07T14:26:49.999Z</time></trkpt><trkpt lat="45.869244688475106" lon="9.224370679723972"><ele>832.2</ele><time>2026-04-07T14:26:50.999Z</time></trkpt><trkpt lat="45.86932056337854" lon="9.224494291851595"><ele>830.0</ele><time>2026-04-07T14:26:52.999Z</time></trkpt><trkpt lat="45.86937395047598" lon="9.224555287408112"><ele>834.8333333333334</ele><time>2026-04-07T14:26:53.999Z</time></trkpt><trkpt lat="45.86943518570673" lon="9.224583989772949"><ele>839.6666666666667</ele><time>2026-04-07T14:26:54.999Z</time></trkpt><trkpt lat="45.869500302876546" lon="9.224613101955052"><ele>844.5</ele><time>2026-04-07T14:26:55.999Z</time></trkpt><trkpt lat="45.86956450225397" lon="9.224668071987336"><ele>849.3333333333333</ele><time>2026-04-07T14:26:56.999Z</time></trkpt><trkpt lat="45.86965464673145" lon="9.224688100698371"><ele>854.1666666666666</ele><time>2026-04-07T14:26:57.999Z</time></trkpt><trkpt lat="45.869734930295586" lon="9.224715210327197"><ele>859.0</ele><time>2026-04-07T14:26:58.999Z</time></trkpt><trkpt lat="45.86980050688529" lon="9.224747740031047"><ele>858.9999999999999</ele><time>2026-04-07T14:26:59.999Z</time></trkpt><trkpt lat="45.8698598818107" lon="9.224781216579006"><ele>859.0</ele><time>2026-04-07T14:27:00.999Z</time></trkpt><trkpt lat="45.86993946461314" lon="9.224867242066864"><ele>859.0</ele><time>2026-04-07T14:27:02.999Z</time></trkpt><trkpt lat="45.870030727231914" lon="9.224927289640076"><ele>859.0</ele><time>2026-04-07T14:27:04.999Z</time></trkpt><trkpt lat="45.87009051420735" lon="9.224965024782426"><ele>858.9999999999999</ele><time>2026-04-07T14:27:05.999Z</time></trkpt><trkpt lat="45.87019270893923" lon="9.225015172787192"><ele>859.0</ele><time>2026-04-07T14:27:07.999Z</time></trkpt><trkpt lat="45.87027034128855" lon="9.225056523050378"><ele>857.9999999999999</ele><time>2026-04-07T14:27:08.999Z</time></trkpt><trkpt lat="45.87034837826438" lon="9.225085889098281"><ele>857.0</ele><time>2026-04-07T14:27:09.999Z</time></trkpt><trkpt lat="45.87043493284659" lon="9.22511304465619"><ele>856.0</ele><time>2026-04-07T14:27:10.999Z</time></trkpt><trkpt lat="45.870537568696115" lon="9.225105839177843"><ele>855.0</ele><time>2026-04-07T14:27:11.999Z</time></trkpt><trkpt lat="45.87063067325357" lon="9.225091004113075"><ele>853.9999999999999</ele><time>2026-04-07T14:27:12.999Z</time></trkpt><trkpt lat="45.870706564523545" lon="9.225066519724987"><ele>853.0</ele><time>2026-04-07T14:27:13.999Z</time></trkpt><trkpt lat="45.870780499075394" lon="9.225049724882338"><ele>853.0</ele><time>2026-04-07T14:27:14.999Z</time></trkpt><trkpt lat="45.87084833024591" lon="9.225031504085525"><ele>853.0</ele><time>2026-04-07T14:27:15.999Z</time></trkpt><trkpt lat="45.87093396031654" lon="9.225115519945781"><ele>853.0</ele><time>2026-04-07T14:27:18.999Z</time></trkpt><trkpt lat="45.87093843698511" lon="9.225252918764395"><ele>853.0</ele><time>2026-04-07T14:27:20Z</time></trkpt><trkpt lat="45.87093956877173" lon="9.225381091531101"><ele>853.0</ele><time>2026-04-07T14:27:21Z</time></trkpt><trkpt lat="45.87093983167098" lon="9.225565963892317"><ele>864.0</ele><time>2026-04-07T14:27:22Z</time></trkpt><trkpt lat="45.87104281187057" lon="9.225763357063222"><ele>875.0</ele><time>2026-04-07T14:27:23Z</time></trkpt><trkpt lat="45.87113381654946" lon="9.225955552618482"><ele>886.0</ele><time>2026-04-07T14:27:24Z</time></trkpt><trkpt lat="45.87121801056168" lon="9.226151589864878"><ele>886.0</ele><time>2026-04-07T14:27:25Z</time></trkpt><trkpt lat="45.8712997993684" lon="9.226361739264343"><ele>886.0</ele><time>2026-04-07T14:27:26Z</time></trkpt><trkpt lat="45.871259048455" lon="9.226219059890564"><ele>886.0</ele><time>2026-04-07T14:27:27Z</time></trkpt><trkpt lat="45.87129751390481" lon="9.226351735797206"><ele>886.0</ele><time>2026-04-07T14:27:28Z</time></trkpt><trkpt lat="45.87133605570483" lon="9.226484675335653"><ele>882.0</ele><time>2026-04-07T14:27:29Z</time></trkpt><trkpt lat="45.871375611493654" lon="9.226625786805654"><ele>877.9999999999999</ele><time>2026-04-07T14:27:30Z</time></trkpt><trkpt lat="45.87140714539774" lon="9.226767760842794"><ele>873.9999999999999</ele><time>2026-04-07T14:27:31Z</time></trkpt><trkpt lat="45.871422006236784" lon="9.226894500788578"><ele>870.0</ele><time>2026-04-07T14:27:32Z</time></trkpt><trkpt lat="45.87142875871035" lon="9.226996914538677"><ele>866.0</ele><time>2026-04-07T14:27:33Z</time></trkpt><trkpt lat="45.871427512181434" lon="9.227139533660386"><ele>866.0</ele><time>2026-04-07T14:27:34Z</time></trkpt><trkpt lat="45.87142326934073" lon="9.227279092884087"><ele>865.9999999999999</ele><time>2026-04-07T14:27:35Z</time></trkpt><trkpt lat="45.87143797983248" lon="9.227413764578714"><ele>865.9999999999999</ele><time>2026-04-07T14:27:36Z</time></trkpt><trkpt lat="45.87145054118845" lon="9.227549892720615"><ele>866.0</ele><time>2026-04-07T14:27:37Z</time></trkpt><trkpt lat="45.871491341752545" lon="9.227668896353181"><ele>866.0</ele><time>2026-04-07T14:27:38Z</time></trkpt><trkpt lat="45.87152453947883" lon="9.227781710593058"><ele>863.0</ele><time>2026-04-07T14:27:39Z</time></trkpt><trkpt lat="45.87157124247751" lon="9.227912023228503"><ele>859.9999999999999</ele><time>2026-04-07T14:27:40Z</time></trkpt><trkpt lat="45.87162166954375" lon="9.228056291652114"><ele>857.0</ele><time>2026-04-07T14:27:42Z</time></trkpt><trkpt lat="45.87169218364561" lon="9.228178520230578"><ele>854.0</ele><time>2026-04-07T14:27:43Z</time></trkpt><trkpt lat="45.87176061150009" lon="9.228277774671445"><ele>851.0</ele><time>2026-04-07T14:27:44Z</time></trkpt><trkpt lat="45.871827578335505" lon="9.228358430372314"><ele>850.4</ele><time>2026-04-07T14:27:45Z</time></trkpt><trkpt lat="45.87189960485232" lon="9.228380039517788"><ele>849.8</ele><time>2026-04-07T14:27:46Z</time></trkpt><trkpt lat="45.871991406406764" lon="9.228396671044072"><ele>849.1999999999999</ele><time>2026-04-07T14:27:47Z</time></trkpt><trkpt lat="45.87206926378241" lon="9.228380129085137"><ele>848.5999999999999</ele><time>2026-04-07T14:27:48Z</time></trkpt><trkpt lat="45.872189465232076" lon="9.228325744821507"><ele>848.0</ele><time>2026-04-07T14:27:50Z</time></trkpt><trkpt lat="45.87233930235133" lon="9.228407383455316"><ele>848.0</ele><time>2026-04-07T14:27:54Z</time></trkpt><trkpt lat="45.87236416280715" lon="9.228556021082374"><ele>848.0</ele><time>2026-04-07T14:27:55Z</time></trkpt><trkpt lat="45.87235091565186" lon="9.228701711369641"><ele>848.0</ele><time>2026-04-07T14:27:56Z</time></trkpt><trkpt lat="45.87222960977694" lon="9.228805618827435"><ele>848.0</ele><time>2026-04-07T14:27:57Z</time></trkpt><trkpt lat="45.872164655629774" lon="9.22889526470178"><ele>848.0</ele><time>2026-04-07T14:27:58Z</time></trkpt><trkpt lat="45.87209645674192" lon="9.229013098237962"><ele>849.25</ele><time>2026-04-07T14:27:59Z</time></trkpt><trkpt lat="45.872039899591336" lon="9.229136836385415"><ele>850.5</ele><time>2026-04-07T14:28:00Z</time></trkpt><trkpt lat="45.87196649258493" lon="9.22920138992915"><ele>851.75</ele><time>2026-04-07T14:28:01Z</time></trkpt><trkpt lat="45.87185077966515" lon="9.22936874124723"><ele>853.0</ele><time>2026-04-07T14:28:02Z</time></trkpt><trkpt lat="45.87174647681915" lon="9.229448156106798"><ele>849.25</ele><time>2026-04-07T14:28:03Z</time></trkpt><trkpt lat="45.87160450251537" lon="9.229499522589826"><ele>845.5</ele><time>2026-04-07T14:28:04Z</time></trkpt><trkpt lat="45.8714730090841" lon="9.229567161761636"><ele>841.75</ele><time>2026-04-07T14:28:05Z</time></trkpt><trkpt lat="45.87135376829886" lon="9.22960265241786"><ele>838.0</ele><time>2026-04-07T14:28:06Z</time></trkpt><trkpt lat="45.871204073809395" lon="9.229671718411113"><ele>838.0</ele><time>2026-04-07T14:28:07Z</time></trkpt><trkpt lat="45.87109365176487" lon="9.229765544398672"><ele>838.0</ele><time>2026-04-07T14:28:08Z</time></trkpt><trkpt lat="45.87099270010225" lon="9.229885167130355"><ele>838.0</ele><time>2026-04-07T14:28:10Z</time></trkpt><trkpt lat="45.870918199785564" lon="9.229995260289849"><ele>838.0</ele><time>2026-04-07T14:28:11Z</time></trkpt><trkpt lat="45.8707994668713" lon="9.230158109031342"><ele>838.0</ele><time>2026-04-07T14:28:12Z</time></trkpt><trkpt lat="45.870693536944614" lon="9.230363459426918"><ele>838.0</ele><time>2026-04-07T14:28:13Z</time></trkpt><trkpt lat="45.870576849617194" lon="9.230527769629514"><ele>838.0</ele><time>2026-04-07T14:28:14Z</time></trkpt><trkpt lat="45.87044111854604" lon="9.23064973364633"><ele>837.75</ele><time>2026-04-07T14:28:16Z</time></trkpt><trkpt lat="45.87035415907145" lon="9.230710153428262"><ele>837.5</ele><time>2026-04-07T14:28:17Z</time></trkpt><trkpt lat="45.87028143620013" lon="9.230788593519454"><ele>837.25</ele><time>2026-04-07T14:28:18Z</time></trkpt><trkpt lat="45.870168862070535" lon="9.230897850520535"><ele>837.0</ele><time>2026-04-07T14:28:19Z</time></trkpt><trkpt lat="45.87004982117937" lon="9.230989044721875"><ele>837.0</ele><time>2026-04-07T14:28:20Z</time></trkpt><trkpt lat="45.86998658601483" lon="9.231067537415779"><ele>837.0</ele><time>2026-04-07T14:28:21Z</time></trkpt><trkpt lat="45.86990450294014" lon="9.231200127546078"><ele>837.0</ele><time>2026-04-07T14:28:23Z</time></trkpt><trkpt lat="45.86985360867018" lon="9.231263818621294"><ele>837.0</ele><time>2026-04-07T14:28:24Z</time></trkpt><trkpt lat="45.86981637609766" lon="9.23134396979724"><ele>837.0</ele><time>2026-04-07T14:28:25Z</time></trkpt><trkpt lat="45.86979410542466" lon="9.231494964129388"><ele>837.0</ele><time>2026-04-07T14:28:26.999Z</time></trkpt><trkpt lat="45.86980099317946" lon="9.231604584184964"><ele>837.0</ele><time>2026-04-07T14:28:30.999Z</time></trkpt><trkpt lat="45.86994828933901" lon="9.231558595349524"><ele>837.0</ele><time>2026-04-07T14:28:32.999Z</time></trkpt><trkpt lat="45.870012578775714" lon="9.231459133610928"><ele>837.0</ele><time>2026-04-07T14:28:34.999Z</time></trkpt><trkpt lat="45.870081962093295" lon="9.231392826088582"><ele>837.0</ele><time>2026-04-07T14:28:36.999Z</time></trkpt><trkpt lat="45.87016456288454" lon="9.231448133345811"><ele>837.0</ele><time>2026-04-07T14:28:38.999Z</time></trkpt><trkpt lat="45.87021691090799" lon="9.231527612891218"><ele>839.8</ele><time>2026-04-07T14:28:40.999Z</time></trkpt><trkpt lat="45.87029422072508" lon="9.231644991881177"><ele>842.6</ele><time>2026-04-07T14:28:41.999Z</time></trkpt><trkpt lat="45.87037697857097" lon="9.23176819831066"><ele>845.4</ele><time>2026-04-07T14:28:42.999Z</time></trkpt><trkpt lat="45.87046097051012" lon="9.231858238673363"><ele>848.1999999999999</ele><time>2026-04-07T14:28:43.999Z</time></trkpt><trkpt lat="45.87052810483548" lon="9.231978340019703"><ele>851.0</ele><time>2026-04-07T14:28:44.999Z</time></trkpt><trkpt lat="45.87057379198077" lon="9.232098801421532"><ele>851.0</ele><time>2026-04-07T14:28:45.999Z</time></trkpt><trkpt lat="45.870609633302216" lon="9.23224159566142"><ele>851.0</ele><time>2026-04-07T14:28:46.999Z</time></trkpt><trkpt lat="45.870644703848164" lon="9.23239090385562"><ele>851.0</ele><time>2026-04-07T14:28:48.999Z</time></trkpt><trkpt lat="45.87087556990278" lon="9.232444558684328"><ele>851.0</ele><time>2026-04-07T14:28:50.999Z</time></trkpt><trkpt lat="45.87102231556866" lon="9.232446917102093"><ele>852.25</ele><time>2026-04-07T14:28:51.999Z</time></trkpt><trkpt lat="45.87116021594234" lon="9.232432046978747"><ele>853.5</ele><time>2026-04-07T14:28:52.999Z</time></trkpt><trkpt lat="45.87131063415758" lon="9.232431410721958"><ele>854.75</ele><time>2026-04-07T14:28:53.999Z</time></trkpt><trkpt lat="45.871400576373034" lon="9.232413484634732"><ele>856.0</ele><time>2026-04-07T14:28:54.999Z</time></trkpt><trkpt lat="45.871491637215996" lon="9.232373382546658"><ele>857.4</ele><time>2026-04-07T14:28:55.999Z</time></trkpt><trkpt lat="45.87156758876288" lon="9.232297926714487"><ele>858.8</ele><time>2026-04-07T14:28:56.999Z</time></trkpt><trkpt lat="45.8716492841284" lon="9.232226647774647"><ele>860.1999999999999</ele><time>2026-04-07T14:28:57.999Z</time></trkpt><trkpt lat="45.871719651908094" lon="9.232116859703785"><ele>861.5999999999999</ele><time>2026-04-07T14:28:58.999Z</time></trkpt><trkpt lat="45.871782884657094" lon="9.232016250422706"><ele>863.0</ele><time>2026-04-07T14:28:59.999Z</time></trkpt><trkpt lat="45.87183778022438" lon="9.231932082620082"><ele>863.1666666666667</ele><time>2026-04-07T14:29:00.999Z</time></trkpt><trkpt lat="45.87189174333455" lon="9.231853060540647"><ele>863.3333333333334</ele><time>2026-04-07T14:29:01.999Z</time></trkpt><trkpt lat="45.87194755851497" lon="9.231794986973824"><ele>863.5</ele><time>2026-04-07T14:29:02.999Z</time></trkpt><trkpt lat="45.87201129288484" lon="9.231750103136477"><ele>863.6666666666667</ele><time>2026-04-07T14:29:03.999Z</time></trkpt><trkpt lat="45.87207447848501" lon="9.231707364281283"><ele>863.8333333333334</ele><time>2026-04-07T14:29:04.999Z</time></trkpt><trkpt lat="45.87215282285554" lon="9.231731281134913"><ele>864.0</ele><time>2026-04-07T14:29:05.999Z</time></trkpt><trkpt lat="45.8722440722659" lon="9.23174769124721"><ele>864.0</ele><time>2026-04-07T14:29:06.999Z</time></trkpt><trkpt lat="45.872307488415125" lon="9.231765614794698"><ele>864.0</ele><time>2026-04-07T14:29:07.999Z</time></trkpt><trkpt lat="45.87240063694233" lon="9.231800190534194"><ele>864.0</ele><time>2026-04-07T14:29:09.999Z</time></trkpt><trkpt lat="45.87247982290848" lon="9.231842155719148"><ele>864.0</ele><time>2026-04-07T14:29:13.999Z</time></trkpt><trkpt lat="45.872523849628216" lon="9.231734600664483"><ele>864.0</ele><time>2026-04-07T14:29:14.999Z</time></trkpt><trkpt lat="45.87256247634094" lon="9.23166256450575"><ele>864.0</ele><time>2026-04-07T14:29:15.999Z</time></trkpt><trkpt lat="45.87264710540903" lon="9.231514042170652"><ele>866.2857142857142</ele><time>2026-04-07T14:29:17.999Z</time></trkpt><trkpt lat="45.87270125691121" lon="9.231453370393197"><ele>868.5714285714286</ele><time>2026-04-07T14:29:18.999Z</time></trkpt><trkpt lat="45.872746921197" lon="9.231376985872112"><ele>870.8571428571429</ele><time>2026-04-07T14:29:19.999Z</time></trkpt><trkpt lat="45.87280499944754" lon="9.231314788959624"><ele>873.1428571428571</ele><time>2026-04-07T14:29:20.999Z</time></trkpt><trkpt lat="45.87285700707533" lon="9.231247823873012"><ele>875.4285714285714</ele><time>2026-04-07T14:29:21.999Z</time></trkpt><trkpt lat="45.87290529392699" lon="9.231181440399954"><ele>877.7142857142857</ele><time>2026-04-07T14:29:22.999Z</time></trkpt><trkpt lat="45.872951395931" lon="9.231118060601018"><ele>880.0</ele><time>2026-04-07T14:29:23.999Z</time></trkpt><trkpt lat="45.8729997060318" lon="9.23103214587346"><ele>880.0</ele><time>2026-04-07T14:29:24.999Z</time></trkpt><trkpt lat="45.87306985620619" lon="9.230967564004846"><ele>880.0</ele><time>2026-04-07T14:29:26Z</time></trkpt><trkpt lat="45.873169234495094" lon="9.230868314359698"><ele>880.0</ele><time>2026-04-07T14:29:27Z</time></trkpt><trkpt lat="45.87326222169969" lon="9.23077131370788"><ele>880.0</ele><time>2026-04-07T14:29:28Z</time></trkpt><trkpt lat="45.87335508079886" lon="9.230660978053002"><ele>880.0</ele><time>2026-04-07T14:29:29Z</time></trkpt><trkpt lat="45.87342934328167" lon="9.230587321996307"><ele>884.8</ele><time>2026-04-07T14:29:30Z</time></trkpt><trkpt lat="45.87351971500065" lon="9.23052205668614"><ele>889.6</ele><time>2026-04-07T14:29:31Z</time></trkpt><trkpt lat="45.873587248737984" lon="9.23044229903239"><ele>894.4000000000001</ele><time>2026-04-07T14:29:32Z</time></trkpt><trkpt lat="45.873659968809136" lon="9.230374277804865"><ele>899.2</ele><time>2026-04-07T14:29:33Z</time></trkpt><trkpt lat="45.87373399950439" lon="9.230305180371923"><ele>904.0</ele><time>2026-04-07T14:29:34Z</time></trkpt><trkpt lat="45.87382853286885" lon="9.230243900031127"><ele>903.9999999999999</ele><time>2026-04-07T14:29:36Z</time></trkpt><trkpt lat="45.87393990805495" lon="9.230207080859277"><ele>904.0</ele><time>2026-04-07T14:29:38Z</time></trkpt><trkpt lat="45.87400530192735" lon="9.230196683792837"><ele>904.0</ele><time>2026-04-07T14:29:39Z</time></trkpt><trkpt lat="45.874051150693106" lon="9.230295982610055"><ele>904.0</ele><time>2026-04-07T14:29:40Z</time></trkpt><trkpt lat="45.874103379779925" lon="9.230374801859506"><ele>903.9999999999999</ele><time>2026-04-07T14:29:41Z</time></trkpt><trkpt lat="45.8741831977261" lon="9.230476648850418"><ele>904.0</ele><time>2026-04-07T14:29:42Z</time></trkpt><trkpt lat="45.874290667747225" lon="9.230568897158115"><ele>907.4000000000001</ele><time>2026-04-07T14:29:43Z</time></trkpt><trkpt lat="45.87437405129272" lon="9.230692377082503"><ele>910.8000000000001</ele><time>2026-04-07T14:29:44Z</time></trkpt><trkpt lat="45.87446838332206" lon="9.230782106052354"><ele>914.1999999999999</ele><time>2026-04-07T14:29:45Z</time></trkpt><trkpt lat="45.8745439861794" lon="9.230868896674844"><ele>917.5999999999999</ele><time>2026-04-07T14:29:46Z</time></trkpt><trkpt lat="45.874612565113125" lon="9.230932654628136"><ele>921.0</ele><time>2026-04-07T14:29:47Z</time></trkpt><trkpt lat="45.87470782228298" lon="9.231026591809082"><ele>921.0</ele><time>2026-04-07T14:29:48Z</time></trkpt><trkpt lat="45.87480232639998" lon="9.231154357965664"><ele>921.0</ele><time>2026-04-07T14:29:49Z</time></trkpt><trkpt lat="45.87491161628723" lon="9.231260530911072"><ele>921.0</ele><time>2026-04-07T14:29:50Z</time></trkpt><trkpt lat="45.875005877241" lon="9.23134705576015"><ele>921.0</ele><time>2026-04-07T14:29:51Z</time></trkpt><trkpt lat="45.87507912990677" lon="9.23140598799817"><ele>923.4</ele><time>2026-04-07T14:29:52Z</time></trkpt><trkpt lat="45.87514687728158" lon="9.231485062002665"><ele>925.8</ele><time>2026-04-07T14:29:53Z</time></trkpt><trkpt lat="45.875215984966594" lon="9.231539651925495"><ele>928.1999999999999</ele><time>2026-04-07T14:29:54Z</time></trkpt><trkpt lat="45.87531793343108" lon="9.231553831375342"><ele>930.5999999999999</ele><time>2026-04-07T14:29:55Z</time></trkpt><trkpt lat="45.87538250337066" lon="9.23161594170156"><ele>933.0</ele><time>2026-04-07T14:29:56Z</time></trkpt><trkpt lat="45.8754113546978" lon="9.231771302259004"><ele>933.0</ele><time>2026-04-07T14:29:57Z</time></trkpt><trkpt lat="45.875447227008294" lon="9.231882626532908"><ele>933.0</ele><time>2026-04-07T14:30:00Z</time></trkpt><trkpt lat="45.8755496850975" lon="9.231882071281328"><ele>933.0</ele><time>2026-04-07T14:30:02Z</time></trkpt><trkpt lat="45.87563089756217" lon="9.231846211668655"><ele>933.0</ele><time>2026-04-07T14:30:04Z</time></trkpt><trkpt lat="45.87559671367946" lon="9.231716792573076"><ele>933.0</ele><time>2026-04-07T14:30:05Z</time></trkpt><trkpt lat="45.8755639370856" lon="9.23157914263368"><ele>936.0</ele><time>2026-04-07T14:30:06Z</time></trkpt><trkpt lat="45.87552749438304" lon="9.231465235756596"><ele>939.0</ele><time>2026-04-07T14:30:07Z</time></trkpt><trkpt lat="45.875482456908664" lon="9.23133116832088"><ele>942.0</ele><time>2026-04-07T14:30:08Z</time></trkpt><trkpt lat="45.87544530482812" lon="9.231235033261518"><ele>945.0</ele><time>2026-04-07T14:30:09Z</time></trkpt><trkpt lat="45.87538404573436" lon="9.231137539511083"><ele>948.0</ele><time>2026-04-07T14:30:10Z</time></trkpt><trkpt lat="45.875317085286255" lon="9.230937243052471"><ele>948.0</ele><time>2026-04-07T14:30:11Z</time></trkpt><trkpt lat="45.87525914222647" lon="9.230809760966443"><ele>948.0</ele><time>2026-04-07T14:30:12Z</time></trkpt><trkpt lat="45.875212692675845" lon="9.23067882957904"><ele>948.0</ele><time>2026-04-07T14:30:13Z</time></trkpt><trkpt lat="45.87517217219961" lon="9.230544241605449"><ele>948.0</ele><time>2026-04-07T14:30:14Z</time></trkpt><trkpt lat="45.875126560309134" lon="9.230383881302286"><ele>948.0</ele><time>2026-04-07T14:30:15Z</time></trkpt><trkpt lat="45.875103536568965" lon="9.230227398713055"><ele>949.0</ele><time>2026-04-07T14:30:16Z</time></trkpt><trkpt lat="45.87509268772621" lon="9.230085031298593"><ele>950.0</ele><time>2026-04-07T14:30:17Z</time></trkpt><trkpt lat="45.875102375069154" lon="9.229925243294556"><ele>951.0</ele><time>2026-04-07T14:30:19Z</time></trkpt><trkpt lat="45.87514081952596" lon="9.229832984744412"><ele>952.0</ele><time>2026-04-07T14:30:20Z</time></trkpt><trkpt lat="45.87517986303088" lon="9.229662778748297"><ele>953.0</ele><time>2026-04-07T14:30:22Z</time></trkpt><trkpt lat="45.87521207587607" lon="9.229527364700232"><ele>953.0</ele><time>2026-04-07T14:30:23Z</time></trkpt><trkpt lat="45.87524432967371" lon="9.22938268676195"><ele>953.0</ele><time>2026-04-07T14:30:24Z</time></trkpt><trkpt lat="45.87527041507269" lon="9.229281716780893"><ele>953.0</ele><time>2026-04-07T14:30:25Z</time></trkpt><trkpt lat="45.875325941578375" lon="9.229128193419255"><ele>953.0</ele><time>2026-04-07T14:30:27Z</time></trkpt><trkpt lat="45.87539867460886" lon="9.229028838091947"><ele>953.0</ele><time>2026-04-07T14:30:28Z</time></trkpt><trkpt lat="45.87550311935306" lon="9.228911564549714"><ele>953.0</ele><time>2026-04-07T14:30:29Z</time></trkpt><trkpt lat="45.87558389371767" lon="9.228846181361186"><ele>953.0</ele><time>2026-04-07T14:30:30Z</time></trkpt><trkpt lat="45.875645627871506" lon="9.228804291122051"><ele>953.0</ele><time>2026-04-07T14:30:30.999Z</time></trkpt><trkpt lat="45.87571805371509" lon="9.228793653260706"><ele>953.0</ele><time>2026-04-07T14:30:31.999Z</time></trkpt><trkpt lat="45.875750978288536" lon="9.228871992337709"><ele>953.0</ele><time>2026-04-07T14:30:33.999Z</time></trkpt><trkpt lat="45.87567799211351" lon="9.228906519997526"><ele>953.0</ele><time>2026-04-07T14:30:36.999Z</time></trkpt><trkpt lat="45.875627479080954" lon="9.228850393048761"><ele>953.0</ele><time>2026-04-07T14:30:40.999Z</time></trkpt><trkpt lat="45.87557851781273" lon="9.228981187167347"><ele>953.0</ele><time>2026-04-07T14:30:42.999Z</time></trkpt><trkpt lat="45.87554052225549" lon="9.229120907426084"><ele>953.0</ele><time>2026-04-07T14:30:44.999Z</time></trkpt><trkpt lat="45.875532813284664" lon="9.229254370176593"><ele>953.0</ele><time>2026-04-07T14:30:45.999Z</time></trkpt><trkpt lat="45.8755357206428" lon="9.229393791441261"><ele>953.0</ele><time>2026-04-07T14:30:46.999Z</time></trkpt><trkpt lat="45.87554299828903" lon="9.22950418501913"><ele>953.0</ele><time>2026-04-07T14:30:47.999Z</time></trkpt><trkpt lat="45.875585985434874" lon="9.229649296322984"><ele>953.0</ele><time>2026-04-07T14:30:48.999Z</time></trkpt><trkpt lat="45.87563594726697" lon="9.229776603394686"><ele>953.0</ele><time>2026-04-07T14:30:49.999Z</time></trkpt><trkpt lat="45.875699828952804" lon="9.229907625391919"><ele>953.0</ele><time>2026-04-07T14:30:50.999Z</time></trkpt><trkpt lat="45.8757483942426" lon="9.230047304488993"><ele>953.0</ele><time>2026-04-07T14:30:51.999Z</time></trkpt><trkpt lat="45.87582029576301" lon="9.230186355244319"><ele>953.0</ele><time>2026-04-07T14:30:52.999Z</time></trkpt><trkpt lat="45.875859343039814" lon="9.230314090792543"><ele>953.3333333333334</ele><time>2026-04-07T14:30:53.999Z</time></trkpt><trkpt lat="45.875898852924735" lon="9.230400744505392"><ele>953.6666666666667</ele><time>2026-04-07T14:30:54.999Z</time></trkpt><trkpt lat="45.87593764859152" lon="9.230478598292766"><ele>954.0</ele><time>2026-04-07T14:30:55.999Z</time></trkpt><trkpt lat="45.87597572723631" lon="9.230581079210653"><ele>954.3333333333333</ele><time>2026-04-07T14:30:56.999Z</time></trkpt><trkpt lat="45.876025682469525" lon="9.230697902252322"><ele>954.6666666666666</ele><time>2026-04-07T14:30:57.999Z</time></trkpt><trkpt lat="45.87606833670995" lon="9.230816316715746"><ele>955.0</ele><time>2026-04-07T14:30:58.999Z</time></trkpt><trkpt lat="45.87610210872964" lon="9.230930284001312"><ele>959.8</ele><time>2026-04-07T14:30:59.999Z</time></trkpt><trkpt lat="45.87618607729457" lon="9.230950627722187"><ele>964.6</ele><time>2026-04-07T14:31:01.999Z</time></trkpt><trkpt lat="45.87625671884602" lon="9.230834410950065"><ele>969.4000000000001</ele><time>2026-04-07T14:31:04.999Z</time></trkpt><trkpt lat="45.876167012152834" lon="9.23067173818647"><ele>974.2</ele><time>2026-04-07T14:31:06.999Z</time></trkpt><trkpt lat="45.87614189274382" lon="9.230582405564475"><ele>979.0</ele><time>2026-04-07T14:31:07.999Z</time></trkpt><trkpt lat="45.87612990045993" lon="9.23048471197903"><ele>979.8000000000001</ele><time>2026-04-07T14:31:08.999Z</time></trkpt><trkpt lat="45.87612461275911" lon="9.230268704995106"><ele>980.6000000000001</ele><time>2026-04-07T14:31:10.999Z</time></trkpt><trkpt lat="45.8761551077253" lon="9.230166816764553"><ele>981.4</ele><time>2026-04-07T14:31:11.999Z</time></trkpt><trkpt lat="45.87618683303131" lon="9.2300478510581"><ele>982.2</ele><time>2026-04-07T14:31:12.999Z</time></trkpt><trkpt lat="45.876208787807414" lon="9.229913714715025"><ele>983.0</ele><time>2026-04-07T14:31:13.999Z</time></trkpt><trkpt lat="45.87626647905162" lon="9.229826651883492"><ele>981.8</ele><time>2026-04-07T14:31:14.999Z</time></trkpt><trkpt lat="45.876312444574644" lon="9.229750853624614"><ele>980.5999999999999</ele><time>2026-04-07T14:31:15.999Z</time></trkpt><trkpt lat="45.87637767048937" lon="9.22966822850564"><ele>979.4000000000001</ele><time>2026-04-07T14:31:16.999Z</time></trkpt><trkpt lat="45.87643429039531" lon="9.229574627939407"><ele>978.2</ele><time>2026-04-07T14:31:18.999Z</time></trkpt><trkpt lat="45.87655042586416" lon="9.229390780488787"><ele>977.0</ele><time>2026-04-07T14:31:21.999Z</time></trkpt><trkpt lat="45.87660215103047" lon="9.229279595208414"><ele>977.0000000000001</ele><time>2026-04-07T14:31:22.999Z</time></trkpt><trkpt lat="45.87665472424672" lon="9.22916255378025"><ele>977.0</ele><time>2026-04-07T14:31:23.999Z</time></trkpt><trkpt lat="45.87671156419537" lon="9.229082205363959"><ele>977.0</ele><time>2026-04-07T14:31:24.999Z</time></trkpt><trkpt lat="45.87678512968375" lon="9.229019385685678"><ele>977.0</ele><time>2026-04-07T14:31:25.999Z</time></trkpt><trkpt lat="45.87685632816223" lon="9.22900506333046"><ele>977.0000000000001</ele><time>2026-04-07T14:31:28.999Z</time></trkpt><trkpt lat="45.87691129951022" lon="9.229142656618833"><ele>977.0</ele><time>2026-04-07T14:31:33Z</time></trkpt><trkpt lat="45.87693188467486" lon="9.22937435771164"><ele>985.75</ele><time>2026-04-07T14:31:34Z</time></trkpt><trkpt lat="45.876926589448644" lon="9.229488761654817"><ele>994.5</ele><time>2026-04-07T14:31:35Z</time></trkpt><trkpt lat="45.87691580390862" lon="9.229626590418754"><ele>1003.25</ele><time>2026-04-07T14:31:36Z</time></trkpt><trkpt lat="45.87687389335491" lon="9.229844743664504"><ele>1012.0</ele><time>2026-04-07T14:31:37Z</time></trkpt><trkpt lat="45.87685194629408" lon="9.230028422072687"><ele>1012.0</ele><time>2026-04-07T14:31:38Z</time></trkpt><trkpt lat="45.8768009116676" lon="9.2302518451632"><ele>1012.0</ele><time>2026-04-07T14:31:40Z</time></trkpt><trkpt lat="45.87680354984277" lon="9.230399665437918"><ele>1012.0</ele><time>2026-04-07T14:31:41Z</time></trkpt><trkpt lat="45.876829721244064" lon="9.230525805547707"><ele>1012.0</ele><time>2026-04-07T14:31:43Z</time></trkpt><trkpt lat="45.876856605837894" lon="9.230658438875212"><ele>1010.2</ele><time>2026-04-07T14:31:44Z</time></trkpt><trkpt lat="45.87693599044635" lon="9.23075074949988"><ele>1008.4000000000001</ele><time>2026-04-07T14:31:45Z</time></trkpt><trkpt lat="45.877017719691345" lon="9.230770700019596"><ele>1006.5999999999999</ele><time>2026-04-07T14:31:47Z</time></trkpt><trkpt lat="45.877178289379096" lon="9.230824333411972"><ele>1004.8</ele><time>2026-04-07T14:31:49Z</time></trkpt><trkpt lat="45.87726780873688" lon="9.230852421566263"><ele>1003.0</ele><time>2026-04-07T14:31:50Z</time></trkpt><trkpt lat="45.87735844143184" lon="9.230840973405082"><ele>1002.9999999999999</ele><time>2026-04-07T14:31:52Z</time></trkpt><trkpt lat="45.87744545676325" lon="9.230882980346292"><ele>1003.0</ele><time>2026-04-07T14:31:54Z</time></trkpt><trkpt lat="45.87741592505104" lon="9.23075956131912"><ele>1003.0</ele><time>2026-04-07T14:31:55Z</time></trkpt><trkpt lat="45.877358685927895" lon="9.230643328188334"><ele>1003.0</ele><time>2026-04-07T14:31:59Z</time></trkpt><trkpt lat="45.87733608500987" lon="9.230557434910047"><ele>1002.9999999999999</ele><time>2026-04-07T14:32:00Z</time></trkpt><trkpt lat="45.87732098230607" lon="9.230465775673885"><ele>1003.0</ele><time>2026-04-07T14:32:03Z</time></trkpt><trkpt lat="45.8774314814942" lon="9.230600615503041"><ele>1003.0</ele><time>2026-04-07T14:32:07Z</time></trkpt><trkpt lat="45.87754760290929" lon="9.230666426177818"><ele>1003.0</ele><time>2026-04-07T14:32:09Z</time></trkpt><trkpt lat="45.877680879288526" lon="9.230748674197676"><ele>1003.0</ele><time>2026-04-07T14:32:10Z</time></trkpt><trkpt lat="45.87776892237837" lon="9.230788797776691"><ele>1003.0</ele><time>2026-04-07T14:32:11Z</time></trkpt><trkpt lat="45.877864208967004" lon="9.230818854047444"><ele>1005.2</ele><time>2026-04-07T14:32:12Z</time></trkpt><trkpt lat="45.8779695910058" lon="9.230778346108243"><ele>1007.4</ele><time>2026-04-07T14:32:13Z</time></trkpt><trkpt lat="45.878057649211385" lon="9.230773126371435"><ele>1009.6000000000001</ele><time>2026-04-07T14:32:14Z</time></trkpt><trkpt lat="45.878109719609164" lon="9.2307200003796"><ele>1011.8000000000001</ele><time>2026-04-07T14:32:15Z</time></trkpt><trkpt lat="45.8780445048157" lon="9.230602512758567"><ele>1014.0</ele><time>2026-04-07T14:32:18Z</time></trkpt><trkpt lat="45.877936687382615" lon="9.230761306962862"><ele>1014.0</ele><time>2026-04-07T14:32:19Z</time></trkpt><trkpt lat="45.87798858768399" lon="9.230708176508031"><ele>1014.0</ele><time>2026-04-07T14:32:21Z</time></trkpt><trkpt lat="45.877926591650905" lon="9.230613321340623"><ele>1014.0</ele><time>2026-04-07T14:32:23Z</time></trkpt><trkpt lat="45.87787503346661" lon="9.230550300357764"><ele>1014.0</ele><time>2026-04-07T14:32:24Z</time></trkpt><trkpt lat="45.8778112114145" lon="9.230456164727332"><ele>1014.0</ele><time>2026-04-07T14:32:25Z</time></trkpt><trkpt lat="45.8777524443356" lon="9.230360723456434"><ele>1014.0</ele><time>2026-04-07T14:32:26Z</time></trkpt><trkpt lat="45.877699463284955" lon="9.23028428927298"><ele>1020.25</ele><time>2026-04-07T14:32:27Z</time></trkpt><trkpt lat="45.87764578541581" lon="9.230141369300433"><ele>1026.5</ele><time>2026-04-07T14:32:29Z</time></trkpt><trkpt lat="45.87761291346194" lon="9.229997680145887"><ele>1032.75</ele><time>2026-04-07T14:32:30Z</time></trkpt><trkpt lat="45.87761820642671" lon="9.229802585404306"><ele>1039.0</ele><time>2026-04-07T14:32:31Z</time></trkpt><trkpt lat="45.877623687185704" lon="9.22965926828142"><ele>1040.8333333333333</ele><time>2026-04-07T14:32:31.999Z</time></trkpt><trkpt lat="45.8776454195634" lon="9.229550023519376"><ele>1042.6666666666665</ele><time>2026-04-07T14:32:32.999Z</time></trkpt><trkpt lat="45.87769015897635" lon="9.229429617036462"><ele>1044.5</ele><time>2026-04-07T14:32:33.999Z</time></trkpt><trkpt lat="45.87772679643009" lon="9.229311085372865"><ele>1046.3333333333333</ele><time>2026-04-07T14:32:34.999Z</time></trkpt><trkpt lat="45.87775157292946" lon="9.229221000879463"><ele>1048.1666666666667</ele><time>2026-04-07T14:32:35.999Z</time></trkpt><trkpt lat="45.87778516312979" lon="9.229106679784412"><ele>1050.0</ele><time>2026-04-07T14:32:36.999Z</time></trkpt><trkpt lat="45.87782075061163" lon="9.228985560965336"><ele>1050.6666666666667</ele><time>2026-04-07T14:32:37.999Z</time></trkpt><trkpt lat="45.87788108032619" lon="9.228809523847612"><ele>1051.3333333333333</ele><time>2026-04-07T14:32:38.999Z</time></trkpt><trkpt lat="45.8779077761056" lon="9.228711961885306"><ele>1052.0</ele><time>2026-04-07T14:32:39.999Z</time></trkpt><trkpt lat="45.877941066590004" lon="9.228599796096336"><ele>1052.6666666666665</ele><time>2026-04-07T14:32:40.999Z</time></trkpt><trkpt lat="45.877958115823716" lon="9.22850304262012"><ele>1053.3333333333333</ele><time>2026-04-07T14:32:41.999Z</time></trkpt><trkpt lat="45.8779997601463" lon="9.228420449648866"><ele>1054.0</ele><time>2026-04-07T14:32:42.999Z</time></trkpt><trkpt lat="45.8780333623934" lon="9.228277367369099"><ele>1054.0</ele><time>2026-04-07T14:32:44.999Z</time></trkpt><trkpt lat="45.87806123201197" lon="9.228184376785986"><ele>1054.0</ele><time>2026-04-07T14:32:45.999Z</time></trkpt><trkpt lat="45.87809506127842" lon="9.22807150112596"><ele>1054.0</ele><time>2026-04-07T14:32:46.999Z</time></trkpt><trkpt lat="45.87815938621632" lon="9.227858483158778"><ele>1054.0</ele><time>2026-04-07T14:32:48.999Z</time></trkpt><trkpt lat="45.87820149417502" lon="9.227721446225354"><ele>1054.0</ele><time>2026-04-07T14:32:49.999Z</time></trkpt><trkpt lat="45.87822727931917" lon="9.227637530494523"><ele>1053.3333333333333</ele><time>2026-04-07T14:32:50.999Z</time></trkpt><trkpt lat="45.878267038513236" lon="9.227503263155873"><ele>1052.6666666666665</ele><time>2026-04-07T14:32:52.999Z</time></trkpt><trkpt lat="45.87831503098459" lon="9.227320433013112"><ele>1052.0</ele><time>2026-04-07T14:32:54.999Z</time></trkpt><trkpt lat="45.87833576474333" lon="9.227233050376645"><ele>1051.3333333333333</ele><time>2026-04-07T14:32:55.999Z</time></trkpt><trkpt lat="45.87835468500936" lon="9.227134071882947"><ele>1050.6666666666667</ele><time>2026-04-07T14:32:56.999Z</time></trkpt><trkpt lat="45.87836526556085" lon="9.227040575573943"><ele>1050.0</ele><time>2026-04-07T14:32:57.999Z</time></trkpt><trkpt lat="45.87836734119751" lon="9.226942133984647"><ele>1049.6</ele><time>2026-04-07T14:32:58.999Z</time></trkpt><trkpt lat="45.87837432527081" lon="9.226757234715956"><ele>1049.2</ele><time>2026-04-07T14:33:00.999Z</time></trkpt><trkpt lat="45.87838538684898" lon="9.226651434839544"><ele>1048.8</ele><time>2026-04-07T14:33:02.999Z</time></trkpt><trkpt lat="45.878406391545305" lon="9.226544158791802"><ele>1048.4</ele><time>2026-04-07T14:33:04.999Z</time></trkpt><trkpt lat="45.87846799303958" lon="9.226331039599968"><ele>1048.0</ele><time>2026-04-07T14:33:06.999Z</time></trkpt><trkpt lat="45.878497227761486" lon="9.226248000790946"><ele>1055.4</ele><time>2026-04-07T14:33:07.999Z</time></trkpt><trkpt lat="45.878538953116134" lon="9.226137964285249"><ele>1062.8</ele><time>2026-04-07T14:33:08.999Z</time></trkpt><trkpt lat="45.878588779985265" lon="9.226036268125632"><ele>1070.2</ele><time>2026-04-07T14:33:10.999Z</time></trkpt><trkpt lat="45.87863896382166" lon="9.22590558232067"><ele>1077.6</ele><time>2026-04-07T14:33:12.999Z</time></trkpt><trkpt lat="45.87870528447367" lon="9.225778614918832"><ele>1085.0</ele><time>2026-04-07T14:33:14.999Z</time></trkpt><trkpt lat="45.87876254708489" lon="9.225672655797947"><ele>1084.4</ele><time>2026-04-07T14:33:15.999Z</time></trkpt><trkpt lat="45.8788383393888" lon="9.22553240909408"><ele>1083.8</ele><time>2026-04-07T14:33:17.999Z</time></trkpt><trkpt lat="45.87889470603542" lon="9.225447894055057"><ele>1083.2</ele><time>2026-04-07T14:33:18.999Z</time></trkpt><trkpt lat="45.87893554132365" lon="9.2253441100409"><ele>1082.6</ele><time>2026-04-07T14:33:19.999Z</time></trkpt><trkpt lat="45.87899131488248" lon="9.225244934720484"><ele>1082.0</ele><time>2026-04-07T14:33:21.999Z</time></trkpt><trkpt lat="45.879014754082704" lon="9.22513085519732"><ele>1082.0</ele><time>2026-04-07T14:33:22.999Z</time></trkpt><trkpt lat="45.87904773474834" lon="9.224986164515277"><ele>1082.0</ele><time>2026-04-07T14:33:23.999Z</time></trkpt><trkpt lat="45.87906068383571" lon="9.224861227451782"><ele>1082.0</ele><time>2026-04-07T14:33:24.999Z</time></trkpt><trkpt lat="45.87904801659085" lon="9.224741660580708"><ele>1082.0</ele><time>2026-04-07T14:33:25.999Z</time></trkpt><trkpt lat="45.87903286487904" lon="9.224630637852455"><ele>1082.0</ele><time>2026-04-07T14:33:26.999Z</time></trkpt><trkpt lat="45.87902552292819" lon="9.224527356756495"><ele>1082.0</ele><time>2026-04-07T14:33:27.999Z</time></trkpt><trkpt lat="45.87909682593153" lon="9.224736731337012"><ele>1082.0</ele><time>2026-04-07T14:33:49Z</time></trkpt><trkpt lat="45.87913526899115" lon="9.224881569818919"><ele>1082.0</ele><time>2026-04-07T14:33:51Z</time></trkpt><trkpt lat="45.87913357557129" lon="9.225011665951198"><ele>1082.0</ele><time>2026-04-07T14:33:52Z</time></trkpt><trkpt lat="45.879129245471056" lon="9.22513320321535"><ele>1082.0</ele><time>2026-04-07T14:33:53Z</time></trkpt><trkpt lat="45.879111748914276" lon="9.225224390113418"><ele>1082.0</ele><time>2026-04-07T14:33:56Z</time></trkpt><trkpt lat="45.87906910117263" lon="9.225375586916917"><ele>1082.0</ele><time>2026-04-07T14:33:59Z</time></trkpt><trkpt lat="45.87904708617209" lon="9.225471538478747"><ele>1082.0</ele><time>2026-04-07T14:34:00Z</time></trkpt><trkpt lat="45.8790269789869" lon="9.22557132329875"><ele>1082.0</ele><time>2026-04-07T14:34:01Z</time></trkpt><trkpt lat="45.87899053259332" lon="9.225745224288842"><ele>1082.0</ele><time>2026-04-07T14:34:03Z</time></trkpt><trkpt lat="45.87894744412138" lon="9.22592966532641"><ele>1082.0</ele><time>2026-04-07T14:34:05Z</time></trkpt><trkpt lat="45.87891146008165" lon="9.22610475788931"><ele>1082.6</ele><time>2026-04-07T14:34:07Z</time></trkpt><trkpt lat="45.87890365089488" lon="9.226253545633996"><ele>1083.2</ele><time>2026-04-07T14:34:09Z</time></trkpt><trkpt lat="45.878901916007756" lon="9.226344631604915"><ele>1083.8</ele><time>2026-04-07T14:34:10Z</time></trkpt><trkpt lat="45.8789079501968" lon="9.226542738044579"><ele>1084.4</ele><time>2026-04-07T14:34:12Z</time></trkpt><trkpt lat="45.8789561647832" lon="9.226717376165615"><ele>1085.0</ele><time>2026-04-07T14:34:14Z</time></trkpt><trkpt lat="45.87897582439623" lon="9.226847407239882"><ele>1085.6</ele><time>2026-04-07T14:34:15Z</time></trkpt><trkpt lat="45.878985874569054" lon="9.226996501370055"><ele>1086.2</ele><time>2026-04-07T14:34:16Z</time></trkpt><trkpt lat="45.87899585867009" lon="9.22711874733237"><ele>1086.8</ele><time>2026-04-07T14:34:17Z</time></trkpt><trkpt lat="45.879017314589916" lon="9.22725034457005"><ele>1087.4</ele><time>2026-04-07T14:34:18Z</time></trkpt><trkpt lat="45.879034619217286" lon="9.227413268920644"><ele>1088.0</ele><time>2026-04-07T14:34:19Z</time></trkpt><trkpt lat="45.879052450807336" lon="9.227560307348304"><ele>1088.0</ele><time>2026-04-07T14:34:20Z</time></trkpt><trkpt lat="45.87904280870272" lon="9.227662230516733"><ele>1088.0</ele><time>2026-04-07T14:34:21Z</time></trkpt><trkpt lat="45.87906962377262" lon="9.22774533796861"><ele>1088.0</ele><time>2026-04-07T14:34:22Z</time></trkpt><trkpt lat="45.879086608619524" lon="9.227846216364279"><ele>1088.0</ele><time>2026-04-07T14:34:24Z</time></trkpt><trkpt lat="45.87911967095961" lon="9.227988291102312"><ele>1088.0</ele><time>2026-04-07T14:34:26Z</time></trkpt><trkpt lat="45.879179192870296" lon="9.228061883975009"><ele>1088.0</ele><time>2026-04-07T14:34:28Z</time></trkpt><trkpt lat="45.879282875623836" lon="9.228096410940921"><ele>1088.0</ele><time>2026-04-07T14:34:30Z</time></trkpt><trkpt lat="45.879348407415954" lon="9.228084198237209"><ele>1088.0</ele><time>2026-04-07T14:34:31Z</time></trkpt><trkpt lat="45.87942788152531" lon="9.22803748251012"><ele>1088.0</ele><time>2026-04-07T14:34:33Z</time></trkpt><trkpt lat="45.87940483918513" lon="9.227928040032179"><ele>1088.0</ele><time>2026-04-07T14:34:35Z</time></trkpt><trkpt lat="45.87929320768467" lon="9.227920412561458"><ele>1088.0</ele><time>2026-04-07T14:34:37Z</time></trkpt><trkpt lat="45.879250243925945" lon="9.227806392356516"><ele>1088.0</ele><time>2026-04-07T14:34:39Z</time></trkpt><trkpt lat="45.879287531728046" lon="9.227606350255831"><ele>1091.3333333333335</ele><time>2026-04-07T14:34:41Z</time></trkpt><trkpt lat="45.879300906555834" lon="9.227471987924726"><ele>1094.6666666666667</ele><time>2026-04-07T14:34:42Z</time></trkpt><trkpt lat="45.87932168791335" lon="9.227368034940332"><ele>1098.0</ele><time>2026-04-07T14:34:44Z</time></trkpt><trkpt lat="45.87935656611827" lon="9.227271938050736"><ele>1101.3333333333333</ele><time>2026-04-07T14:34:45Z</time></trkpt><trkpt lat="45.87936869656835" lon="9.227147820518267"><ele>1104.6666666666665</ele><time>2026-04-07T14:34:46Z</time></trkpt><trkpt lat="45.87939243534342" lon="9.227015979092922"><ele>1108.0</ele><time>2026-04-07T14:34:47Z</time></trkpt><trkpt lat="45.87941808384882" lon="9.22688198966309"><ele>1110.6</ele><time>2026-04-07T14:34:48Z</time></trkpt><trkpt lat="45.879431536655204" lon="9.226767330674605"><ele>1113.1999999999998</ele><time>2026-04-07T14:34:49Z</time></trkpt><trkpt lat="45.87944474270121" lon="9.226598857242307"><ele>1115.8</ele><time>2026-04-07T14:34:50Z</time></trkpt><trkpt lat="45.87947029514575" lon="9.226424793936863"><ele>1118.3999999999999</ele><time>2026-04-07T14:34:51Z</time></trkpt><trkpt lat="45.87949514816068" lon="9.226326166220844"><ele>1121.0</ele><time>2026-04-07T14:34:52Z</time></trkpt><trkpt lat="45.879531151091" lon="9.22620415147126"><ele>1121.8</ele><time>2026-04-07T14:34:53Z</time></trkpt><trkpt lat="45.87955526670946" lon="9.226110381493509"><ele>1122.6</ele><time>2026-04-07T14:34:54Z</time></trkpt><trkpt lat="45.87961113690675" lon="9.225964679517924"><ele>1123.4</ele><time>2026-04-07T14:34:56Z</time></trkpt><trkpt lat="45.879686483576" lon="9.225825398743545"><ele>1124.2</ele><time>2026-04-07T14:34:57Z</time></trkpt><trkpt lat="45.87974834453893" lon="9.225677633694742"><ele>1125.0</ele><time>2026-04-07T14:34:58Z</time></trkpt><trkpt lat="45.87978996621797" lon="9.225582717769454"><ele>1125.0</ele><time>2026-04-07T14:34:59Z</time></trkpt><trkpt lat="45.87983043572348" lon="9.225483011628306"><ele>1125.0</ele><time>2026-04-07T14:35:00Z</time></trkpt><trkpt lat="45.879859808539216" lon="9.225387010812009"><ele>1125.0</ele><time>2026-04-07T14:35:01Z</time></trkpt><trkpt lat="45.879874511316984" lon="9.22524443593566"><ele>1125.0</ele><time>2026-04-07T14:35:02Z</time></trkpt><trkpt lat="45.879899640527334" lon="9.225093820765062"><ele>1125.0</ele><time>2026-04-07T14:35:02.999Z</time></trkpt><trkpt lat="45.879896399400685" lon="9.224951603650837"><ele>1125.0</ele><time>2026-04-07T14:35:03.999Z</time></trkpt><trkpt lat="45.87991089313403" lon="9.224841954671641"><ele>1125.0</ele><time>2026-04-07T14:35:04.999Z</time></trkpt><trkpt lat="45.879911510154415" lon="9.224721570423235"><ele>1125.0</ele><time>2026-04-07T14:35:05.999Z</time></trkpt><trkpt lat="45.87993518359894" lon="9.224591051265415"><ele>1125.0</ele><time>2026-04-07T14:35:06.999Z</time></trkpt><trkpt lat="45.87996262750681" lon="9.224438564999893"><ele>1125.0</ele><time>2026-04-07T14:35:07.999Z</time></trkpt><trkpt lat="45.8799933038712" lon="9.22428946805388"><ele>1124.8333333333333</ele><time>2026-04-07T14:35:08.999Z</time></trkpt><trkpt lat="45.880032465449304" lon="9.224181288962042"><ele>1124.6666666666667</ele><time>2026-04-07T14:35:09.999Z</time></trkpt><trkpt lat="45.88004020129025" lon="9.224069071505623"><ele>1124.5</ele><time>2026-04-07T14:35:12.999Z</time></trkpt><trkpt lat="45.88006627581332" lon="9.223915388373012"><ele>1124.3333333333335</ele><time>2026-04-07T14:35:14.999Z</time></trkpt><trkpt lat="45.88010630147914" lon="9.223809214853471"><ele>1124.1666666666667</ele><time>2026-04-07T14:35:15.999Z</time></trkpt><trkpt lat="45.88013185297809" lon="9.22372004867029"><ele>1124.0</ele><time>2026-04-07T14:35:16.999Z</time></trkpt><trkpt lat="45.880160644401066" lon="9.22360341167416"><ele>1123.8</ele><time>2026-04-07T14:35:19.999Z</time></trkpt><trkpt lat="45.880315704409114" lon="9.223576108259673"><ele>1123.6000000000001</ele><time>2026-04-07T14:35:34.999Z</time></trkpt><trkpt lat="45.880407406520916" lon="9.223577892038259"><ele>1123.4</ele><time>2026-04-07T14:35:35.999Z</time></trkpt><trkpt lat="45.880504555158176" lon="9.22356147967417"><ele>1123.2</ele><time>2026-04-07T14:35:36.999Z</time></trkpt><trkpt lat="45.8805977393346" lon="9.22354944240901"><ele>1123.0</ele><time>2026-04-07T14:35:37.999Z</time></trkpt><trkpt lat="45.88072015284119" lon="9.223581039586746"><ele>1123.0</ele><time>2026-04-07T14:35:38.999Z</time></trkpt><trkpt lat="45.88084272290968" lon="9.223621738781686"><ele>1123.0</ele><time>2026-04-07T14:35:39.999Z</time></trkpt><trkpt lat="45.88095406754771" lon="9.223663230742305"><ele>1123.0</ele><time>2026-04-07T14:35:40.999Z</time></trkpt><trkpt lat="45.88105688098684" lon="9.223705312311052"><ele>1123.0</ele><time>2026-04-07T14:35:41.999Z</time></trkpt><trkpt lat="45.88116762032156" lon="9.22376596027989"><ele>1120.5</ele><time>2026-04-07T14:35:42.999Z</time></trkpt><trkpt lat="45.88128909871842" lon="9.223818674118183"><ele>1118.0</ele><time>2026-04-07T14:35:44Z</time></trkpt><trkpt lat="45.88141711950731" lon="9.223914641275334"><ele>1115.5</ele><time>2026-04-07T14:35:45Z</time></trkpt><trkpt lat="45.881537328060254" lon="9.223971319710667"><ele>1113.0</ele><time>2026-04-07T14:35:46Z</time></trkpt><trkpt lat="45.88167064013069" lon="9.224013313184338"><ele>1113.6666666666667</ele><time>2026-04-07T14:35:47Z</time></trkpt><trkpt lat="45.88177533061161" lon="9.224011809171888"><ele>1114.3333333333333</ele><time>2026-04-07T14:35:48Z</time></trkpt><trkpt lat="45.88184366941387" lon="9.223994834392377"><ele>1115.0</ele><time>2026-04-07T14:35:49Z</time></trkpt><trkpt lat="45.881908603064076" lon="9.224019384249594"><ele>1115.6666666666665</ele><time>2026-04-07T14:35:50Z</time></trkpt><trkpt lat="45.881996368922046" lon="9.22404892659122"><ele>1116.3333333333333</ele><time>2026-04-07T14:35:51Z</time></trkpt><trkpt lat="45.882060117774564" lon="9.223936112069161"><ele>1117.0</ele><time>2026-04-07T14:35:53Z</time></trkpt><trkpt lat="45.88213021392011" lon="9.22384773827548"><ele>1117.0</ele><time>2026-04-07T14:35:55Z</time></trkpt><trkpt lat="45.88220088285533" lon="9.223823335233945"><ele>1117.0</ele><time>2026-04-07T14:35:57Z</time></trkpt><trkpt lat="45.882266633519855" lon="9.223827672095931"><ele>1117.0</ele><time>2026-04-07T14:36:00Z</time></trkpt><trkpt lat="45.882326245328485" lon="9.223790953569846"><ele>1117.0</ele><time>2026-04-07T14:36:02Z</time></trkpt><trkpt lat="45.88240424489697" lon="9.22380025042139"><ele>1117.0</ele><time>2026-04-07T14:36:04Z</time></trkpt><trkpt lat="45.882487498142474" lon="9.223790358192486"><ele>1117.0</ele><time>2026-04-07T14:36:06Z</time></trkpt><trkpt lat="45.88258128838013" lon="9.223789871119378"><ele>1118.2</ele><time>2026-04-07T14:36:08Z</time></trkpt><trkpt lat="45.882665446542255" lon="9.223838583115835"><ele>1119.4</ele><time>2026-04-07T14:36:10Z</time></trkpt><trkpt lat="45.8827300901598" lon="9.223859461347653"><ele>1120.6</ele><time>2026-04-07T14:36:12Z</time></trkpt><trkpt lat="45.88280323968968" lon="9.223924948450378"><ele>1121.8</ele><time>2026-04-07T14:36:14Z</time></trkpt><trkpt lat="45.882907936285676" lon="9.224057576916474"><ele>1123.0</ele><time>2026-04-07T14:36:16Z</time></trkpt><trkpt lat="45.88295136118034" lon="9.224165426311142"><ele>1123.0</ele><time>2026-04-07T14:36:18Z</time></trkpt><trkpt lat="45.882950205469086" lon="9.22428876054143"><ele>1123.0</ele><time>2026-04-07T14:36:20Z</time></trkpt><trkpt lat="45.88295867912327" lon="9.22449652835139"><ele>1123.0</ele><time>2026-04-07T14:36:22Z</time></trkpt><trkpt lat="45.88296357984147" lon="9.224606025466514"><ele>1123.0</ele><time>2026-04-07T14:36:23Z</time></trkpt><trkpt lat="45.88294256531004" lon="9.224706431127343"><ele>1123.0</ele><time>2026-04-07T14:36:24Z</time></trkpt><trkpt lat="45.882876998879865" lon="9.224840276918203"><ele>1122.75</ele><time>2026-04-07T14:36:26Z</time></trkpt><trkpt lat="45.88285015098908" lon="9.224994548227853"><ele>1122.5</ele><time>2026-04-07T14:36:27Z</time></trkpt><trkpt lat="45.882870905523085" lon="9.225119865606205"><ele>1122.25</ele><time>2026-04-07T14:36:29Z</time></trkpt><trkpt lat="45.88278506630257" lon="9.225373348477092"><ele>1122.0</ele><time>2026-04-07T14:36:31Z</time></trkpt><trkpt lat="45.88276968254943" lon="9.225532180656279"><ele>1120.8333333333333</ele><time>2026-04-07T14:36:32Z</time></trkpt><trkpt lat="45.882746423330694" lon="9.22565425277103"><ele>1119.6666666666667</ele><time>2026-04-07T14:36:33Z</time></trkpt><trkpt lat="45.882701597442036" lon="9.225743078339638"><ele>1118.5</ele><time>2026-04-07T14:36:34Z</time></trkpt><trkpt lat="45.882676383785196" lon="9.225847056865002"><ele>1117.3333333333335</ele><time>2026-04-07T14:36:35Z</time></trkpt><trkpt lat="45.882657518265404" lon="9.226000091618209"><ele>1116.1666666666667</ele><time>2026-04-07T14:36:37Z</time></trkpt><trkpt lat="45.882650614547906" lon="9.22609490560846"><ele>1115.0</ele><time>2026-04-07T14:36:38Z</time></trkpt><trkpt lat="45.882645614051086" lon="9.226187053417153"><ele>1115.0</ele><time>2026-04-07T14:36:39Z</time></trkpt><trkpt lat="45.882673891068436" lon="9.22630930595915"><ele>1115.0</ele><time>2026-04-07T14:36:40Z</time></trkpt><trkpt lat="45.88266014303236" lon="9.226441343154214"><ele>1115.0</ele><time>2026-04-07T14:36:42Z</time></trkpt><trkpt lat="45.882685529397854" lon="9.22652642640783"><ele>1115.0</ele><time>2026-04-07T14:36:43Z</time></trkpt><trkpt lat="45.882693528083045" lon="9.22669639427029"><ele>1115.0</ele><time>2026-04-07T14:36:45Z</time></trkpt><trkpt lat="45.8826787550554" lon="9.22686004256779"><ele>1114.6</ele><time>2026-04-07T14:36:46Z</time></trkpt><trkpt lat="45.882659012717575" lon="9.22705263653801"><ele>1114.2</ele><time>2026-04-07T14:36:47Z</time></trkpt><trkpt lat="45.88260604229658" lon="9.227222445173544"><ele>1113.8</ele><time>2026-04-07T14:36:48Z</time></trkpt><trkpt lat="45.88264154870949" lon="9.227311978635578"><ele>1113.4</ele><time>2026-04-07T14:36:49Z</time></trkpt><trkpt lat="45.88263517872111" lon="9.227456359197662"><ele>1113.0</ele><time>2026-04-07T14:36:51Z</time></trkpt><trkpt lat="45.882687493127705" lon="9.227525207869856"><ele>1113.7142857142858</ele><time>2026-04-07T14:36:55Z</time></trkpt><trkpt lat="45.88274311274727" lon="9.227595978791896"><ele>1114.4285714285716</ele><time>2026-04-07T14:36:58Z</time></trkpt><trkpt lat="45.882794580182" lon="9.227662156072013"><ele>1115.142857142857</ele><time>2026-04-07T14:37:02Z</time></trkpt><trkpt lat="45.882831854172565" lon="9.22777747102962"><ele>1115.857142857143</ele><time>2026-04-07T14:37:22Z</time></trkpt><trkpt lat="45.882838846904406" lon="9.227872912640786"><ele>1116.5714285714287</ele><time>2026-04-07T14:37:33.999Z</time></trkpt><trkpt lat="45.88287107223917" lon="9.2279529667718"><ele>1117.2857142857142</ele><time>2026-04-07T14:37:37.999Z</time></trkpt><trkpt lat="45.88288142171219" lon="9.228048092982629"><ele>1118.0</ele><time>2026-04-07T14:37:43.999Z</time></trkpt><trkpt lat="45.88296157425585" lon="9.228131216455491"><ele>1118.6</ele><time>2026-04-07T14:37:50Z</time></trkpt><trkpt lat="45.883028313578755" lon="9.228191079095996"><ele>1119.1999999999998</ele><time>2026-04-07T14:37:52Z</time></trkpt><trkpt lat="45.883087401895786" lon="9.228324161984002"><ele>1119.8</ele><time>2026-04-07T14:37:54Z</time></trkpt><trkpt lat="45.8831372385387" lon="9.228450638024864"><ele>1120.3999999999999</ele><time>2026-04-07T14:37:55Z</time></trkpt><trkpt lat="45.88313290250871" lon="9.228613983529673"><ele>1121.0</ele><time>2026-04-07T14:37:57Z</time></trkpt><trkpt lat="45.8831292172368" lon="9.228737930497973"><ele>1121.0</ele><time>2026-04-07T14:37:58Z</time></trkpt><trkpt lat="45.88311764887407" lon="9.228833921316685"><ele>1121.0</ele><time>2026-04-07T14:38:00Z</time></trkpt><trkpt lat="45.883024016211735" lon="9.228948208664788"><ele>1121.0</ele><time>2026-04-07T14:38:02Z</time></trkpt><trkpt lat="45.88294052112254" lon="9.229022992003392"><ele>1121.0</ele><time>2026-04-07T14:38:03Z</time></trkpt><trkpt lat="45.88287473490908" lon="9.22909926580137"><ele>1121.0</ele><time>2026-04-07T14:38:04Z</time></trkpt><trkpt lat="45.88278420092107" lon="9.229213172661321"><ele>1121.5</ele><time>2026-04-07T14:38:06Z</time></trkpt><trkpt lat="45.882720060893064" lon="9.22927942885045"><ele>1122.0</ele><time>2026-04-07T14:38:08Z</time></trkpt><trkpt lat="45.88280114231054" lon="9.2294191222886"><ele>1122.5</ele><time>2026-04-07T14:44:20Z</time></trkpt><trkpt lat="45.88281373268368" lon="9.229535970651405"><ele>1123.0</ele><time>2026-04-07T14:44:21Z</time></trkpt><trkpt lat="45.882837352410796" lon="9.229631608838652"><ele>1123.5</ele><time>2026-04-07T14:44:22Z</time></trkpt><trkpt lat="45.882865438078916" lon="9.229721870196798"><ele>1124.0</ele><time>2026-04-07T14:44:23Z</time></trkpt><trkpt lat="45.882893413563" lon="9.229803003280898"><ele>1124.4</ele><time>2026-04-07T14:44:25Z</time></trkpt><trkpt lat="45.882932322298316" lon="9.229916735026967"><ele>1124.8000000000002</ele><time>2026-04-07T14:44:27Z</time></trkpt><trkpt lat="45.88300947704006" lon="9.230054674933752"><ele>1125.1999999999998</ele><time>2026-04-07T14:44:29Z</time></trkpt><trkpt lat="45.883062919095124" lon="9.230165665920376"><ele>1125.6</ele><time>2026-04-07T14:44:31Z</time></trkpt><trkpt lat="45.883079740271285" lon="9.2303016055137"><ele>1126.0</ele><time>2026-04-07T14:44:33Z</time></trkpt><trkpt lat="45.883085411750294" lon="9.230498148027374"><ele>1126.0</ele><time>2026-04-07T14:44:35Z</time></trkpt><trkpt lat="45.8830961142056" lon="9.230612766154007"><ele>1126.0</ele><time>2026-04-07T14:44:36Z</time></trkpt><trkpt lat="45.88310288708811" lon="9.230724991732645"><ele>1126.0</ele><time>2026-04-07T14:44:37Z</time></trkpt><trkpt lat="45.88312592213492" lon="9.230813920222008"><ele>1126.0</ele><time>2026-04-07T14:44:38Z</time></trkpt><trkpt lat="45.883145095330015" lon="9.230940390574366"><ele>1126.0</ele><time>2026-04-07T14:44:40Z</time></trkpt><trkpt lat="45.883175288876906" lon="9.23102304526691"><ele>1126.0</ele><time>2026-04-07T14:44:41Z</time></trkpt><trkpt lat="45.88321014411272" lon="9.23110827459898"><ele>1126.0</ele><time>2026-04-07T14:44:42Z</time></trkpt><trkpt lat="45.88325567590373" lon="9.231181198529901"><ele>1126.8333333333333</ele><time>2026-04-07T14:44:43Z</time></trkpt><trkpt lat="45.883319711664264" lon="9.231238697798277"><ele>1127.6666666666665</ele><time>2026-04-07T14:44:44Z</time></trkpt><trkpt lat="45.88338317952888" lon="9.231292590091178"><ele>1128.5</ele><time>2026-04-07T14:44:45Z</time></trkpt><trkpt lat="45.88348182623572" lon="9.231345956096364"><ele>1129.3333333333333</ele><time>2026-04-07T14:44:47Z</time></trkpt><trkpt lat="45.88356297007571" lon="9.23135867353027"><ele>1130.1666666666667</ele><time>2026-04-07T14:44:49Z</time></trkpt><trkpt lat="45.88366088577384" lon="9.231378938139137"><ele>1131.0</ele><time>2026-04-07T14:44:51Z</time></trkpt><trkpt lat="45.88379294247349" lon="9.231389277513061"><ele>1131.0</ele><time>2026-04-07T14:44:53Z</time></trkpt><trkpt lat="45.883872514520974" lon="9.23137242283303"><ele>1131.0</ele><time>2026-04-07T14:44:54Z</time></trkpt><trkpt lat="45.88394923295421" lon="9.23132075627314"><ele>1131.0</ele><time>2026-04-07T14:44:55Z</time></trkpt><trkpt lat="45.88401994349881" lon="9.23127344573932"><ele>1131.0</ele><time>2026-04-07T14:44:56Z</time></trkpt><trkpt lat="45.88410820728585" lon="9.23122025969561"><ele>1131.0</ele><time>2026-04-07T14:44:57Z</time></trkpt><trkpt lat="45.884185255889314" lon="9.231186157616468"><ele>1131.0</ele><time>2026-04-07T14:44:58Z</time></trkpt><trkpt lat="45.88424923405027" lon="9.231139454891224"><ele>1131.6666666666667</ele><time>2026-04-07T14:44:59Z</time></trkpt><trkpt lat="45.88431243243385" lon="9.23110371490425"><ele>1132.3333333333333</ele><time>2026-04-07T14:45:00Z</time></trkpt><trkpt lat="45.88438851567512" lon="9.231068171155577"><ele>1133.0</ele><time>2026-04-07T14:45:01Z</time></trkpt><trkpt lat="45.88446745134106" lon="9.231045420203117"><ele>1133.6666666666665</ele><time>2026-04-07T14:45:02Z</time></trkpt><trkpt lat="45.884578203443816" lon="9.23103326898892"><ele>1134.3333333333333</ele><time>2026-04-07T14:45:04Z</time></trkpt><trkpt lat="45.88467924508783" lon="9.231015389545094"><ele>1135.0</ele><time>2026-04-07T14:45:06Z</time></trkpt><trkpt lat="45.884787106853096" lon="9.231040298170816"><ele>1135.0</ele><time>2026-04-07T14:45:08Z</time></trkpt><trkpt lat="45.88485225236818" lon="9.231057235346737"><ele>1135.0</ele><time>2026-04-07T14:45:09Z</time></trkpt><trkpt lat="45.88492566880365" lon="9.231092812599622"><ele>1135.0</ele><time>2026-04-07T14:45:10Z</time></trkpt><trkpt lat="45.88505112827051" lon="9.231156990079656"><ele>1135.0</ele><time>2026-04-07T14:45:11Z</time></trkpt><trkpt lat="45.885203650961685" lon="9.231183653822354"><ele>1135.0</ele><time>2026-04-07T14:45:12Z</time></trkpt><trkpt lat="45.885338216775" lon="9.231249496484677"><ele>1138.5</ele><time>2026-04-07T14:45:13Z</time></trkpt><trkpt lat="45.88548898576614" lon="9.231261216816238"><ele>1142.0</ele><time>2026-04-07T14:45:14Z</time></trkpt><trkpt lat="45.885655476036234" lon="9.231302130795102"><ele>1145.5</ele><time>2026-04-07T14:45:15Z</time></trkpt><trkpt lat="45.8857574546496" lon="9.231385254774018"><ele>1149.0</ele><time>2026-04-07T14:45:16Z</time></trkpt><trkpt lat="45.88586902835493" lon="9.231393154886614"><ele>1150.2</ele><time>2026-04-07T14:45:17Z</time></trkpt><trkpt lat="45.88595198279051" lon="9.231414040873393"><ele>1151.4</ele><time>2026-04-07T14:45:18Z</time></trkpt><trkpt lat="45.88603762105224" lon="9.231434744012294"><ele>1152.6</ele><time>2026-04-07T14:45:19Z</time></trkpt><trkpt lat="45.88613624199658" lon="9.23145174526539"><ele>1153.8</ele><time>2026-04-07T14:45:20Z</time></trkpt><trkpt lat="45.88622180668396" lon="9.231456054473217"><ele>1155.0</ele><time>2026-04-07T14:45:21Z</time></trkpt><trkpt lat="45.886357616230356" lon="9.23143213094627"><ele>1155.0</ele><time>2026-04-07T14:45:22Z</time></trkpt><trkpt lat="45.886492533557515" lon="9.231386969617127"><ele>1155.0</ele><time>2026-04-07T14:45:23Z</time></trkpt><trkpt lat="45.88661746718333" lon="9.231341854107162"><ele>1155.0</ele><time>2026-04-07T14:45:24Z</time></trkpt><trkpt lat="45.88673709041686" lon="9.231308567443952"><ele>1155.0</ele><time>2026-04-07T14:45:25Z</time></trkpt><trkpt lat="45.886886362537915" lon="9.231295642410101"><ele>1156.6</ele><time>2026-04-07T14:45:26.999Z</time></trkpt><trkpt lat="45.88694955020068" lon="9.23129699527592"><ele>1158.2</ele><time>2026-04-07T14:45:27.999Z</time></trkpt><trkpt lat="45.88701363684575" lon="9.231290294601273"><ele>1159.8</ele><time>2026-04-07T14:45:28.999Z</time></trkpt><trkpt lat="45.88713233634499" lon="9.231308472165248"><ele>1161.4</ele><time>2026-04-07T14:45:30.999Z</time></trkpt><trkpt lat="45.88720071355493" lon="9.231313683189715"><ele>1163.0</ele><time>2026-04-07T14:45:33.999Z</time></trkpt><trkpt lat="45.88736339584362" lon="9.231327064035048"><ele>1163.0</ele><time>2026-04-07T14:45:35.999Z</time></trkpt><trkpt lat="45.88743488060887" lon="9.231341327315906"><ele>1163.0</ele><time>2026-04-07T14:45:36.999Z</time></trkpt><trkpt lat="45.88750550592274" lon="9.231360817972103"><ele>1163.0</ele><time>2026-04-07T14:45:37.999Z</time></trkpt><trkpt lat="45.887648432355235" lon="9.231416657702166"><ele>1163.0</ele><time>2026-04-07T14:45:38.999Z</time></trkpt><trkpt lat="45.88772859221179" lon="9.231462359423972"><ele>1163.0</ele><time>2026-04-07T14:45:39.999Z</time></trkpt><trkpt lat="45.88782892237471" lon="9.231545677606729"><ele>1164.6666666666667</ele><time>2026-04-07T14:45:41.999Z</time></trkpt><trkpt lat="45.887893579958934" lon="9.231615289409302"><ele>1166.3333333333335</ele><time>2026-04-07T14:45:42.999Z</time></trkpt><trkpt lat="45.88795067238069" lon="9.231708471972096"><ele>1168.0</ele><time>2026-04-07T14:45:43.999Z</time></trkpt><trkpt lat="45.88801049824897" lon="9.231781686319119"><ele>1169.6666666666667</ele><time>2026-04-07T14:45:44.999Z</time></trkpt><trkpt lat="45.88807403465334" lon="9.231851907485858"><ele>1171.3333333333333</ele><time>2026-04-07T14:45:45.999Z</time></trkpt><trkpt lat="45.88814176011971" lon="9.231941788516496"><ele>1173.0</ele><time>2026-04-07T14:45:46.999Z</time></trkpt><trkpt lat="45.88821061161919" lon="9.23202158066167"><ele>1173.0</ele><time>2026-04-07T14:45:47.999Z</time></trkpt><trkpt lat="45.888269075400785" lon="9.232118091047449"><ele>1173.0</ele><time>2026-04-07T14:45:48.999Z</time></trkpt><trkpt lat="45.888408750847915" lon="9.23234364755543"><ele>1173.0</ele><time>2026-04-07T14:45:50.999Z</time></trkpt><trkpt lat="45.888484058571336" lon="9.232495487364192"><ele>1173.0</ele><time>2026-04-07T14:45:51.999Z</time></trkpt><trkpt lat="45.88854994550967" lon="9.232621951128625"><ele>1172.3333333333333</ele><time>2026-04-07T14:45:52.999Z</time></trkpt><trkpt lat="45.8885979013805" lon="9.232703181507038"><ele>1171.6666666666667</ele><time>2026-04-07T14:45:53.999Z</time></trkpt><trkpt lat="45.88864547065258" lon="9.232766699173622"><ele>1171.0</ele><time>2026-04-07T14:45:54.999Z</time></trkpt><trkpt lat="45.888689441525926" lon="9.232852163337865"><ele>1170.3333333333335</ele><time>2026-04-07T14:45:55.999Z</time></trkpt><trkpt lat="45.88875762899364" lon="9.232977267982173"><ele>1169.6666666666667</ele><time>2026-04-07T14:45:56.999Z</time></trkpt><trkpt lat="45.88884232152672" lon="9.233107588143287"><ele>1169.0</ele><time>2026-04-07T14:45:57.999Z</time></trkpt><trkpt lat="45.888909858004155" lon="9.233245025301057"><ele>1169.0</ele><time>2026-04-07T14:45:58.999Z</time></trkpt><trkpt lat="45.888968033775434" lon="9.233359825394308"><ele>1169.0</ele><time>2026-04-07T14:45:59.999Z</time></trkpt><trkpt lat="45.88901626594837" lon="9.233455756530153"><ele>1169.0</ele><time>2026-04-07T14:46:00.999Z</time></trkpt><trkpt lat="45.88905358529152" lon="9.233581888962346"><ele>1169.0</ele><time>2026-04-07T14:46:01.999Z</time></trkpt><trkpt lat="45.88910632998406" lon="9.233725161755332"><ele>1169.0</ele><time>2026-04-07T14:46:02.999Z</time></trkpt><trkpt lat="45.88915185236336" lon="9.233889625767203"><ele>1172.5</ele><time>2026-04-07T14:46:03.999Z</time></trkpt><trkpt lat="45.88918595834741" lon="9.234020739020941"><ele>1176.0</ele><time>2026-04-07T14:46:04.999Z</time></trkpt><trkpt lat="45.889221866975895" lon="9.234126068532703"><ele>1179.5</ele><time>2026-04-07T14:46:05.999Z</time></trkpt><trkpt lat="45.889255521496494" lon="9.234228083297019"><ele>1183.0</ele><time>2026-04-07T14:46:06.999Z</time></trkpt><trkpt lat="45.889289215989166" lon="9.234321368020304"><ele>1186.5</ele><time>2026-04-07T14:46:07.999Z</time></trkpt><trkpt lat="45.889308378344325" lon="9.234413503356985"><ele>1190.0</ele><time>2026-04-07T14:46:08.999Z</time></trkpt><trkpt lat="45.889339829424436" lon="9.234498460993182"><ele>1190.0</ele><time>2026-04-07T14:46:09.999Z</time></trkpt><trkpt lat="45.889407428177236" lon="9.234654698890253"><ele>1190.0</ele><time>2026-04-07T14:46:11.999Z</time></trkpt><trkpt lat="45.889450597663995" lon="9.23473806246173"><ele>1190.0</ele><time>2026-04-07T14:46:12.999Z</time></trkpt><trkpt lat="45.88954168994665" lon="9.234844178938474"><ele>1190.0</ele><time>2026-04-07T14:46:15Z</time></trkpt><trkpt lat="45.88960211053763" lon="9.234911463076882"><ele>1190.0</ele><time>2026-04-07T14:46:16Z</time></trkpt><trkpt lat="45.88968185664985" lon="9.234961681369853"><ele>1188.3333333333335</ele><time>2026-04-07T14:46:17Z</time></trkpt><trkpt lat="45.889772343680775" lon="9.23499693074863"><ele>1186.6666666666667</ele><time>2026-04-07T14:46:18Z</time></trkpt><trkpt lat="45.889853092484174" lon="9.235040324855824"><ele>1185.0</ele><time>2026-04-07T14:46:19Z</time></trkpt><trkpt lat="45.889928616163225" lon="9.235089104648457"><ele>1183.3333333333333</ele><time>2026-04-07T14:46:20Z</time></trkpt><trkpt lat="45.89000503591447" lon="9.235131882614404"><ele>1181.6666666666665</ele><time>2026-04-07T14:46:21Z</time></trkpt><trkpt lat="45.89007586218208" lon="9.235178525588687"><ele>1180.0</ele><time>2026-04-07T14:46:22Z</time></trkpt><trkpt lat="45.89013701914223" lon="9.23524163270982"><ele>1180.0</ele><time>2026-04-07T14:46:23Z</time></trkpt><trkpt lat="45.890270564775626" lon="9.235331286221278"><ele>1180.0</ele><time>2026-04-07T14:46:25Z</time></trkpt><trkpt lat="45.890355600435534" lon="9.235411988976141"><ele>1180.0</ele><time>2026-04-07T14:46:26Z</time></trkpt><trkpt lat="45.890459924667205" lon="9.235456494617079"><ele>1180.0</ele><time>2026-04-07T14:46:27Z</time></trkpt><trkpt lat="45.890563834689104" lon="9.235504200668776"><ele>1180.0</ele><time>2026-04-07T14:46:28Z</time></trkpt><trkpt lat="45.89065031192946" lon="9.235533403288466"><ele>1180.0</ele><time>2026-04-07T14:46:30Z</time></trkpt><trkpt lat="45.890729510315005" lon="9.235546831111172"><ele>1180.0</ele><time>2026-04-07T14:46:31Z</time></trkpt><trkpt lat="45.8908362761839" lon="9.235586973798698"><ele>1180.0</ele><time>2026-04-07T14:46:32Z</time></trkpt><trkpt lat="45.89093423342811" lon="9.235637104435353"><ele>1180.0</ele><time>2026-04-07T14:46:33Z</time></trkpt><trkpt lat="45.89102882238569" lon="9.235705595870451"><ele>1179.8333333333333</ele><time>2026-04-07T14:46:34Z</time></trkpt><trkpt lat="45.89109875829183" lon="9.235743707255676"><ele>1179.6666666666665</ele><time>2026-04-07T14:46:35Z</time></trkpt><trkpt lat="45.891172017565474" lon="9.23578726849399"><ele>1179.5</ele><time>2026-04-07T14:46:36Z</time></trkpt><trkpt lat="45.89123683399007" lon="9.235801907736981"><ele>1179.3333333333333</ele><time>2026-04-07T14:46:37Z</time></trkpt><trkpt lat="45.89131633281121" lon="9.23580231647404"><ele>1179.1666666666667</ele><time>2026-04-07T14:46:38Z</time></trkpt><trkpt lat="45.891397521792086" lon="9.235804847358906"><ele>1179.0</ele><time>2026-04-07T14:46:39Z</time></trkpt><trkpt lat="45.891485500045725" lon="9.235776489796486"><ele>1179.0</ele><time>2026-04-07T14:46:40Z</time></trkpt><trkpt lat="45.89158034528099" lon="9.235779158729311"><ele>1179.0</ele><time>2026-04-07T14:46:41Z</time></trkpt><trkpt lat="45.89168233536375" lon="9.235788144279802"><ele>1179.0</ele><time>2026-04-07T14:46:42Z</time></trkpt><trkpt lat="45.89176030876898" lon="9.235792168677094"><ele>1179.0</ele><time>2026-04-07T14:46:43Z</time></trkpt><trkpt lat="45.891835368812536" lon="9.235771979511268"><ele>1179.0</ele><time>2026-04-07T14:46:44Z</time></trkpt><trkpt lat="45.89197011157899" lon="9.23575639403394"><ele>1179.5</ele><time>2026-04-07T14:46:46Z</time></trkpt><trkpt lat="45.892066404641625" lon="9.235732249764077"><ele>1180.0</ele><time>2026-04-07T14:46:47Z</time></trkpt><trkpt lat="45.892180666035095" lon="9.235761917159985"><ele>1180.5</ele><time>2026-04-07T14:46:48Z</time></trkpt><trkpt lat="45.89230877364147" lon="9.235774543351868"><ele>1181.0</ele><time>2026-04-07T14:46:49Z</time></trkpt><trkpt lat="45.892426853372754" lon="9.235760054534726"><ele>1181.0</ele><time>2026-04-07T14:46:50Z</time></trkpt><trkpt lat="45.89253894568246" lon="9.23574158492343"><ele>1181.0</ele><time>2026-04-07T14:46:51Z</time></trkpt><trkpt lat="45.89265258268562" lon="9.235756563393355"><ele>1181.0</ele><time>2026-04-07T14:46:52Z</time></trkpt><trkpt lat="45.89275628805077" lon="9.235783019313718"><ele>1181.0</ele><time>2026-04-07T14:46:53Z</time></trkpt><trkpt lat="45.89284049375849" lon="9.2357872229135"><ele>1181.0</ele><time>2026-04-07T14:46:54Z</time></trkpt><trkpt lat="45.89290813697653" lon="9.235800980531728"><ele>1182.8</ele><time>2026-04-07T14:46:55Z</time></trkpt><trkpt lat="45.892987486595445" lon="9.235822750441493"><ele>1184.6</ele><time>2026-04-07T14:46:57Z</time></trkpt><trkpt lat="45.89314113732409" lon="9.235873699345484"><ele>1186.4</ele><time>2026-04-07T14:46:59Z</time></trkpt><trkpt lat="45.89322371199559" lon="9.235903252744873"><ele>1188.2</ele><time>2026-04-07T14:47:00Z</time></trkpt><trkpt lat="45.89330508868934" lon="9.235928509306596"><ele>1190.0</ele><time>2026-04-07T14:47:01Z</time></trkpt><trkpt lat="45.89339330153371" lon="9.235947674185844"><ele>1192.4</ele><time>2026-04-07T14:47:02Z</time></trkpt><trkpt lat="45.89351123640129" lon="9.235962173764674"><ele>1194.8</ele><time>2026-04-07T14:47:03Z</time></trkpt><trkpt lat="45.893624475667124" lon="9.235968592180026"><ele>1197.2</ele><time>2026-04-07T14:47:04Z</time></trkpt><trkpt lat="45.89372632411905" lon="9.235970186653828"><ele>1199.6</ele><time>2026-04-07T14:47:05Z</time></trkpt><trkpt lat="45.8938202409736" lon="9.235985126823694"><ele>1202.0</ele><time>2026-04-07T14:47:06Z</time></trkpt><trkpt lat="45.89391941935341" lon="9.236034005106555"><ele>1202.0</ele><time>2026-04-07T14:47:07Z</time></trkpt><trkpt lat="45.894022396049635" lon="9.236074327077159"><ele>1202.0</ele><time>2026-04-07T14:47:08Z</time></trkpt><trkpt lat="45.89414971670743" lon="9.236106941137706"><ele>1202.0</ele><time>2026-04-07T14:47:09Z</time></trkpt><trkpt lat="45.89425768486146" lon="9.236185428556002"><ele>1202.0</ele><time>2026-04-07T14:47:10Z</time></trkpt><trkpt lat="45.894364556756265" lon="9.236243534403725"><ele>1202.0</ele><time>2026-04-07T14:47:11Z</time></trkpt><trkpt lat="45.8944380397247" lon="9.236287530581523"><ele>1202.0</ele><time>2026-04-07T14:47:12Z</time></trkpt><trkpt lat="45.89450777606306" lon="9.236372145733181"><ele>1202.0</ele><time>2026-04-07T14:47:13Z</time></trkpt><trkpt lat="45.89458372965523" lon="9.236448327403744"><ele>1202.0</ele><time>2026-04-07T14:47:14Z</time></trkpt><trkpt lat="45.89464715021931" lon="9.236506722642963"><ele>1202.0</ele><time>2026-04-07T14:47:15Z</time></trkpt><trkpt lat="45.8947011749496" lon="9.236557148466416"><ele>1202.0</ele><time>2026-04-07T14:47:16Z</time></trkpt><trkpt lat="45.89475230096896" lon="9.236614621026018"><ele>1202.5</ele><time>2026-04-07T14:47:17Z</time></trkpt><trkpt lat="45.89485031475449" lon="9.236682999439147"><ele>1203.0</ele><time>2026-04-07T14:47:17.999Z</time></trkpt><trkpt lat="45.89497156891317" lon="9.236755346061818"><ele>1203.5</ele><time>2026-04-07T14:47:18.999Z</time></trkpt><trkpt lat="45.895079417971075" lon="9.236830125652373"><ele>1204.0</ele><time>2026-04-07T14:47:19.999Z</time></trkpt><trkpt lat="45.89519459582476" lon="9.236912286715688"><ele>1202.6666666666665</ele><time>2026-04-07T14:47:20.999Z</time></trkpt><trkpt lat="45.89529096059658" lon="9.236991795052015"><ele>1201.3333333333333</ele><time>2026-04-07T14:47:21.999Z</time></trkpt><trkpt lat="45.895367590234585" lon="9.237057007361427"><ele>1200.0</ele><time>2026-04-07T14:47:22.999Z</time></trkpt><trkpt lat="45.89544511170569" lon="9.237125192848982"><ele>1198.6666666666667</ele><time>2026-04-07T14:47:23.999Z</time></trkpt><trkpt lat="45.89550311036308" lon="9.237178734470445"><ele>1197.3333333333335</ele><time>2026-04-07T14:47:24.999Z</time></trkpt><trkpt lat="45.89556098364238" lon="9.23724118283104"><ele>1196.0</ele><time>2026-04-07T14:47:26.999Z</time></trkpt><trkpt lat="45.89562158260662" lon="9.237299267289858"><ele>1195.8333333333335</ele><time>2026-04-07T14:47:28.999Z</time></trkpt><trkpt lat="45.89568732073324" lon="9.237414093746121"><ele>1195.6666666666667</ele><time>2026-04-07T14:47:30.999Z</time></trkpt><trkpt lat="45.895732708402434" lon="9.237478828759139"><ele>1195.5</ele><time>2026-04-07T14:47:31.999Z</time></trkpt><trkpt lat="45.8957809853323" lon="9.237545536190233"><ele>1195.3333333333333</ele><time>2026-04-07T14:47:32.999Z</time></trkpt><trkpt lat="45.89583827532287" lon="9.237619331246828"><ele>1195.1666666666665</ele><time>2026-04-07T14:47:33.999Z</time></trkpt><trkpt lat="45.89588653642728" lon="9.237678168939542"><ele>1195.0</ele><time>2026-04-07T14:47:34.999Z</time></trkpt><trkpt lat="45.895962189894654" lon="9.237765232361932"><ele>1195.0</ele><time>2026-04-07T14:47:35.999Z</time></trkpt><trkpt lat="45.896043826471704" lon="9.237855609369806"><ele>1195.0</ele><time>2026-04-07T14:47:36.999Z</time></trkpt><trkpt lat="45.896125674410946" lon="9.237944924483557"><ele>1195.0</ele><time>2026-04-07T14:47:37.999Z</time></trkpt><trkpt lat="45.89620161137076" lon="9.23804026728185"><ele>1195.0</ele><time>2026-04-07T14:47:38.999Z</time></trkpt><trkpt lat="45.89628153591484" lon="9.238122780013919"><ele>1195.0</ele><time>2026-04-07T14:47:39.999Z</time></trkpt><trkpt lat="45.896341590662665" lon="9.238216057717077"><ele>1197.2</ele><time>2026-04-07T14:47:40.999Z</time></trkpt><trkpt lat="45.89640731789103" lon="9.23829027322127"><ele>1199.4</ele><time>2026-04-07T14:47:41.999Z</time></trkpt><trkpt lat="45.89648487980291" lon="9.238378522146036"><ele>1201.6</ele><time>2026-04-07T14:47:42.999Z</time></trkpt><trkpt lat="45.89655703456198" lon="9.238460319075267"><ele>1203.8</ele><time>2026-04-07T14:47:43.999Z</time></trkpt><trkpt lat="45.89663730088502" lon="9.238528338493568"><ele>1206.0</ele><time>2026-04-07T14:47:44.999Z</time></trkpt><trkpt lat="45.896690690607414" lon="9.238636777545272"><ele>1206.0</ele><time>2026-04-07T14:47:45.999Z</time></trkpt><trkpt lat="45.89673209663624" lon="9.23871433652332"><ele>1206.0</ele><time>2026-04-07T14:47:46.999Z</time></trkpt><trkpt lat="45.89677904506821" lon="9.23879764017027"><ele>1206.0</ele><time>2026-04-07T14:47:47.999Z</time></trkpt><trkpt lat="45.896813715035535" lon="9.238914135146038"><ele>1206.0</ele><time>2026-04-07T14:47:48.999Z</time></trkpt><trkpt lat="45.89683861265842" lon="9.239034631701141"><ele>1206.0</ele><time>2026-04-07T14:47:49.999Z</time></trkpt><trkpt lat="45.89688037190872" lon="9.239173524730395"><ele>1206.0</ele><time>2026-04-07T14:47:50.999Z</time></trkpt><trkpt lat="45.89691987081537" lon="9.239301929243805"><ele>1211.5</ele><time>2026-04-07T14:47:51.999Z</time></trkpt><trkpt lat="45.89699214070022" lon="9.239470575900471"><ele>1217.0</ele><time>2026-04-07T14:47:52.999Z</time></trkpt><trkpt lat="45.89706074008285" lon="9.239646671547641"><ele>1222.5</ele><time>2026-04-07T14:47:53.999Z</time></trkpt><trkpt lat="45.897123332684934" lon="9.239766167445373"><ele>1228.0</ele><time>2026-04-07T14:47:54.999Z</time></trkpt><trkpt lat="45.8971829782394" lon="9.239884626301203"><ele>1228.0</ele><time>2026-04-07T14:47:55.999Z</time></trkpt><trkpt lat="45.89726206992562" lon="9.240015483837919"><ele>1228.0</ele><time>2026-04-07T14:47:56.999Z</time></trkpt><trkpt lat="45.8973525102422" lon="9.240121913385245"><ele>1228.0</ele><time>2026-04-07T14:47:57.999Z</time></trkpt><trkpt lat="45.89745195316639" lon="9.24026863917155"><ele>1228.0</ele><time>2026-04-07T14:47:58.999Z</time></trkpt><trkpt lat="45.897516849867955" lon="9.240425692577276"><ele>1228.0</ele><time>2026-04-07T14:47:59.999Z</time></trkpt><trkpt lat="45.89757388786246" lon="9.240537826593261"><ele>1228.0</ele><time>2026-04-07T14:48:00.999Z</time></trkpt><trkpt lat="45.89761593847128" lon="9.240631848217904"><ele>1228.0</ele><time>2026-04-07T14:48:02.999Z</time></trkpt><trkpt lat="45.897657984114296" lon="9.240732992698835"><ele>1228.0</ele><time>2026-04-07T14:48:04.999Z</time></trkpt><trkpt lat="45.897695380983315" lon="9.240873950062198"><ele>1228.0</ele><time>2026-04-07T14:48:06.999Z</time></trkpt><trkpt lat="45.89773670750334" lon="9.24106662505692"><ele>1231.0</ele><time>2026-04-07T14:48:08.999Z</time></trkpt><trkpt lat="45.89775547029832" lon="9.241170236770222"><ele>1234.0</ele><time>2026-04-07T14:48:09.999Z</time></trkpt><trkpt lat="45.89780243860733" lon="9.241251953307376"><ele>1237.0</ele><time>2026-04-07T14:48:10.999Z</time></trkpt><trkpt lat="45.89784050308962" lon="9.241363682407533"><ele>1240.0</ele><time>2026-04-07T14:48:11.999Z</time></trkpt><trkpt lat="45.89788985175735" lon="9.241494004313541"><ele>1243.0</ele><time>2026-04-07T14:48:12.999Z</time></trkpt><trkpt lat="45.89793870864565" lon="9.24159927338867"><ele>1246.0</ele><time>2026-04-07T14:48:13.999Z</time></trkpt><trkpt lat="45.89796805069605" lon="9.241757223531987"><ele>1246.0</ele><time>2026-04-07T14:48:14.999Z</time></trkpt><trkpt lat="45.898017909642434" lon="9.241960787392987"><ele>1246.0</ele><time>2026-04-07T14:48:15.999Z</time></trkpt><trkpt lat="45.89809373104813" lon="9.24212039002437"><ele>1246.0</ele><time>2026-04-07T14:48:16.999Z</time></trkpt><trkpt lat="45.89813513177995" lon="9.24224355096134"><ele>1246.0</ele><time>2026-04-07T14:48:17.999Z</time></trkpt><trkpt lat="45.89816995366174" lon="9.24242788307282"><ele>1244.6666666666665</ele><time>2026-04-07T14:48:20Z</time></trkpt><trkpt lat="45.89818998752252" lon="9.242534908412553"><ele>1243.3333333333333</ele><time>2026-04-07T14:48:21Z</time></trkpt><trkpt lat="45.89822404537356" lon="9.242684977567471"><ele>1242.0</ele><time>2026-04-07T14:48:23Z</time></trkpt><trkpt lat="45.89823766784928" lon="9.242781840419275"><ele>1240.6666666666667</ele><time>2026-04-07T14:48:24Z</time></trkpt><trkpt lat="45.89824371668046" lon="9.242897817195084"><ele>1239.3333333333335</ele><time>2026-04-07T14:48:26Z</time></trkpt><trkpt lat="45.8982676849835" lon="9.24299385107655"><ele>1238.0</ele><time>2026-04-07T14:48:28Z</time></trkpt><trkpt lat="45.89829679299572" lon="9.243108750950572"><ele>1235.8</ele><time>2026-04-07T14:48:30Z</time></trkpt><trkpt lat="45.89830015564966" lon="9.243252346092257"><ele>1233.6</ele><time>2026-04-07T14:48:33Z</time></trkpt><trkpt lat="45.898336733630664" lon="9.243350396929428"><ele>1231.4</ele><time>2026-04-07T14:48:35Z</time></trkpt><trkpt lat="45.898391889679985" lon="9.243395939008614"><ele>1229.2</ele><time>2026-04-07T14:48:37Z</time></trkpt><trkpt lat="45.89844754271834" lon="9.243522230873193"><ele>1227.0</ele><time>2026-04-07T14:48:39Z</time></trkpt><trkpt lat="45.89851471763257" lon="9.243675704953707"><ele>1228.4285714285716</ele><time>2026-04-07T14:48:41Z</time></trkpt><trkpt lat="45.8985600809401" lon="9.243758344439854"><ele>1229.8571428571427</ele><time>2026-04-07T14:48:42Z</time></trkpt><trkpt lat="45.898595587292085" lon="9.243839616604536"><ele>1231.2857142857142</ele><time>2026-04-07T14:48:43Z</time></trkpt><trkpt lat="45.89866294447932" lon="9.243907179741091"><ele>1232.7142857142858</ele><time>2026-04-07T14:48:44Z</time></trkpt><trkpt lat="45.898719409036445" lon="9.243976813264814"><ele>1234.1428571428573</ele><time>2026-04-07T14:48:45Z</time></trkpt><trkpt lat="45.89878990834437" lon="9.244025737769684"><ele>1235.5714285714284</ele><time>2026-04-07T14:48:46Z</time></trkpt><trkpt lat="45.8988353993829" lon="9.244102802387431"><ele>1237.0</ele><time>2026-04-07T14:48:47Z</time></trkpt><trkpt lat="45.89888644734844" lon="9.244198108449952"><ele>1237.0</ele><time>2026-04-07T14:48:48Z</time></trkpt><trkpt lat="45.8989255063161" lon="9.244281367393475"><ele>1237.0</ele><time>2026-04-07T14:48:49Z</time></trkpt><trkpt lat="45.898965297436845" lon="9.244380418223944"><ele>1237.0</ele><time>2026-04-07T14:48:50Z</time></trkpt><trkpt lat="45.89901383643971" lon="9.24455165948806"><ele>1237.0</ele><time>2026-04-07T14:48:52Z</time></trkpt><trkpt lat="45.89903117182163" lon="9.244682545882279"><ele>1237.0</ele><time>2026-04-07T14:48:53Z</time></trkpt><trkpt lat="45.899026179796074" lon="9.244782263741133"><ele>1237.0</ele><time>2026-04-07T14:48:54Z</time></trkpt><trkpt lat="45.89903518104388" lon="9.24493774960713"><ele>1235.6666666666665</ele><time>2026-04-07T14:48:56Z</time></trkpt><trkpt lat="45.899089766315235" lon="9.244995721682224"><ele>1234.3333333333333</ele><time>2026-04-07T14:48:59Z</time></trkpt><trkpt lat="45.89913502478335" lon="9.245087124691773"><ele>1233.0</ele><time>2026-04-07T14:49:02Z</time></trkpt><trkpt lat="45.89916658782752" lon="9.245179810114347"><ele>1231.6666666666667</ele><time>2026-04-07T14:49:26Z</time></trkpt><trkpt lat="45.899201820611964" lon="9.245272337287657"><ele>1230.3333333333335</ele><time>2026-04-07T14:49:27Z</time></trkpt><trkpt lat="45.89923507041846" lon="9.245362092099286"><ele>1229.0</ele><time>2026-04-07T14:49:28Z</time></trkpt><trkpt lat="45.89929151302304" lon="9.245508730471634"><ele>1230.1666666666667</ele><time>2026-04-07T14:49:29Z</time></trkpt><trkpt lat="45.89935047697438" lon="9.245610987524712"><ele>1231.3333333333335</ele><time>2026-04-07T14:49:30Z</time></trkpt><trkpt lat="45.89941840957313" lon="9.245685503538144"><ele>1232.5</ele><time>2026-04-07T14:49:31Z</time></trkpt><trkpt lat="45.89948328598166" lon="9.245735462788316"><ele>1233.6666666666667</ele><time>2026-04-07T14:49:32Z</time></trkpt><trkpt lat="45.89955324466711" lon="9.245794020214573"><ele>1234.8333333333333</ele><time>2026-04-07T14:49:33Z</time></trkpt><trkpt lat="45.899624365753525" lon="9.245824837680784"><ele>1236.0</ele><time>2026-04-07T14:49:33.999Z</time></trkpt><trkpt lat="45.899690126860264" lon="9.24585756402656"><ele>1236.0</ele><time>2026-04-07T14:49:34.999Z</time></trkpt><trkpt lat="45.8997599670543" lon="9.245870569981781"><ele>1236.0</ele><time>2026-04-07T14:49:35.999Z</time></trkpt><trkpt lat="45.89983301468687" lon="9.24590734563068"><ele>1236.0</ele><time>2026-04-07T14:49:36.999Z</time></trkpt><trkpt lat="45.89994812822471" lon="9.246036366970024"><ele>1236.0</ele><time>2026-04-07T14:49:37.999Z</time></trkpt><trkpt lat="45.90003580004928" lon="9.24610094848092"><ele>1236.0</ele><time>2026-04-07T14:49:38.999Z</time></trkpt><trkpt lat="45.900096706548304" lon="9.246194874580995"><ele>1234.0</ele><time>2026-04-07T14:49:39.999Z</time></trkpt><trkpt lat="45.90012103174183" lon="9.246362475121371"><ele>1232.0</ele><time>2026-04-07T14:49:40.999Z</time></trkpt><trkpt lat="45.900191728206075" lon="9.246483350409733"><ele>1230.0</ele><time>2026-04-07T14:49:41.999Z</time></trkpt><trkpt lat="45.90031049880385" lon="9.246664288264911"><ele>1228.0</ele><time>2026-04-07T14:49:42.999Z</time></trkpt><trkpt lat="45.90042190080259" lon="9.246803783119322"><ele>1228.0</ele><time>2026-04-07T14:49:43.999Z</time></trkpt><trkpt lat="45.9005121335552" lon="9.24693279558147"><ele>1228.0</ele><time>2026-04-07T14:49:44.999Z</time></trkpt><trkpt lat="45.90058220770482" lon="9.247060892113463"><ele>1228.0</ele><time>2026-04-07T14:49:45.999Z</time></trkpt><trkpt lat="45.900647869359794" lon="9.247208066439637"><ele>1228.0</ele><time>2026-04-07T14:49:46.999Z</time></trkpt><trkpt lat="45.90071565202004" lon="9.247359523195264"><ele>1229.0</ele><time>2026-04-07T14:49:48.999Z</time></trkpt><trkpt lat="45.90075250017297" lon="9.24744779075772"><ele>1230.0</ele><time>2026-04-07T14:49:49.999Z</time></trkpt><trkpt lat="45.90083373966892" lon="9.247635181416937"><ele>1231.0</ele><time>2026-04-07T14:49:51.999Z</time></trkpt><trkpt lat="45.90089193879097" lon="9.247745513795016"><ele>1232.0</ele><time>2026-04-07T14:49:52.999Z</time></trkpt><trkpt lat="45.900924372847776" lon="9.247837306457146"><ele>1233.0</ele><time>2026-04-07T14:49:53.999Z</time></trkpt><trkpt lat="45.900970275138455" lon="9.247931257778172"><ele>1233.0</ele><time>2026-04-07T14:49:54.999Z</time></trkpt><trkpt lat="45.90104744137431" lon="9.248029043790744"><ele>1233.0</ele><time>2026-04-07T14:49:55.999Z</time></trkpt><trkpt lat="45.901104385858666" lon="9.24813381068398"><ele>1233.0</ele><time>2026-04-07T14:49:56.999Z</time></trkpt><trkpt lat="45.901149963450905" lon="9.248236462832764"><ele>1233.0</ele><time>2026-04-07T14:49:57.999Z</time></trkpt><trkpt lat="45.90117566453432" lon="9.248347175250826"><ele>1233.0</ele><time>2026-04-07T14:49:58.999Z</time></trkpt><trkpt lat="45.901232076747085" lon="9.24843615451879"><ele>1233.0</ele><time>2026-04-07T14:49:59.999Z</time></trkpt><trkpt lat="45.90131623395037" lon="9.248513939489982"><ele>1237.4</ele><time>2026-04-07T14:50:00.999Z</time></trkpt><trkpt lat="45.90142203392306" lon="9.248541772714983"><ele>1241.8</ele><time>2026-04-07T14:50:01.999Z</time></trkpt><trkpt lat="45.90152121193564" lon="9.24856767431993"><ele>1246.2</ele><time>2026-04-07T14:50:02.999Z</time></trkpt><trkpt lat="45.901618235838704" lon="9.248573040663487"><ele>1250.6</ele><time>2026-04-07T14:50:03.999Z</time></trkpt><trkpt lat="45.90170399480935" lon="9.248528676052812"><ele>1255.0</ele><time>2026-04-07T14:50:04.999Z</time></trkpt><trkpt lat="45.90179144045588" lon="9.24855154556967"><ele>1256.6</ele><time>2026-04-07T14:50:05.999Z</time></trkpt><trkpt lat="45.90185837036611" lon="9.248547972462385"><ele>1258.2</ele><time>2026-04-07T14:50:06.999Z</time></trkpt><trkpt lat="45.901970256378156" lon="9.248530305237841"><ele>1259.8</ele><time>2026-04-07T14:50:08.999Z</time></trkpt><trkpt lat="45.9020469178405" lon="9.248532741286057"><ele>1261.4</ele><time>2026-04-07T14:50:09.999Z</time></trkpt><trkpt lat="45.90214534112144" lon="9.24842841211807"><ele>1263.0</ele><time>2026-04-07T14:50:10.999Z</time></trkpt><trkpt lat="45.90221681011329" lon="9.248370436357058"><ele>1263.0</ele><time>2026-04-07T14:50:11.999Z</time></trkpt><trkpt lat="45.90228068052149" lon="9.248331015819467"><ele>1263.0</ele><time>2026-04-07T14:50:12.999Z</time></trkpt><trkpt lat="45.90236495654593" lon="9.248279741227863"><ele>1263.0</ele><time>2026-04-07T14:50:13.999Z</time></trkpt><trkpt lat="45.9024326580921" lon="9.248265687996305"><ele>1263.0</ele><time>2026-04-07T14:50:14.999Z</time></trkpt><trkpt lat="45.90251116923443" lon="9.248227685753772"><ele>1263.0</ele><time>2026-04-07T14:50:15.999Z</time></trkpt><trkpt lat="45.902578404796785" lon="9.248181481618332"><ele>1263.0</ele><time>2026-04-07T14:50:16.999Z</time></trkpt><trkpt lat="45.902639424178204" lon="9.248152151391535"><ele>1261.0</ele><time>2026-04-07T14:50:17.999Z</time></trkpt><trkpt lat="45.90277398446148" lon="9.248103502161204"><ele>1259.0</ele><time>2026-04-07T14:50:19.999Z</time></trkpt><trkpt lat="45.90290513670414" lon="9.248079549535856"><ele>1257.0</ele><time>2026-04-07T14:50:20.999Z</time></trkpt><trkpt lat="45.90299814317669" lon="9.248046221256748"><ele>1255.0</ele><time>2026-04-07T14:50:21.999Z</time></trkpt><trkpt lat="45.903080994891816" lon="9.248000182056286"><ele>1255.0</ele><time>2026-04-07T14:50:22.999Z</time></trkpt><trkpt lat="45.90311778376332" lon="9.247908343185333"><ele>1255.0</ele><time>2026-04-07T14:50:23.999Z</time></trkpt><trkpt lat="45.903186717615036" lon="9.247875609435575"><ele>1255.0</ele><time>2026-04-07T14:50:26Z</time></trkpt><trkpt lat="45.9032679323149" lon="9.247764757121331"><ele>1255.0</ele><time>2026-04-07T14:50:29Z</time></trkpt><trkpt lat="45.9033202449576" lon="9.247692942264045"><ele>1255.0</ele><time>2026-04-07T14:50:31Z</time></trkpt><trkpt lat="45.90338132858042" lon="9.247631307493931"><ele>1255.0</ele><time>2026-04-07T14:50:33Z</time></trkpt><trkpt lat="45.90344512506606" lon="9.247561028289425"><ele>1255.0</ele><time>2026-04-07T14:50:36Z</time></trkpt><trkpt lat="45.90348237744337" lon="9.247468379139626"><ele>1255.0</ele><time>2026-04-07T14:50:38Z</time></trkpt><trkpt lat="45.90353670115317" lon="9.24740638089831"><ele>1255.0</ele><time>2026-04-07T14:50:39Z</time></trkpt><trkpt lat="45.903592301169695" lon="9.247318296472136"><ele>1255.0</ele><time>2026-04-07T14:50:41Z</time></trkpt><trkpt lat="45.90366259954459" lon="9.247190369327233"><ele>1255.0</ele><time>2026-04-07T14:50:43Z</time></trkpt><trkpt lat="45.90370035965984" lon="9.247111176406937"><ele>1255.0</ele><time>2026-04-07T14:50:44Z</time></trkpt><trkpt lat="45.90375177611998" lon="9.247045613520571"><ele>1255.0</ele><time>2026-04-07T14:50:45Z</time></trkpt><trkpt lat="45.90382264982644" lon="9.246988456677597"><ele>1255.0</ele><time>2026-04-07T14:50:46Z</time></trkpt><trkpt lat="45.903889298949125" lon="9.24694844346155"><ele>1255.0</ele><time>2026-04-07T14:50:47Z</time></trkpt><trkpt lat="45.9039944330676" lon="9.246924311418951"><ele>1255.0</ele><time>2026-04-07T14:50:49Z</time></trkpt><trkpt lat="45.90405714049955" lon="9.246895070525884"><ele>1255.0</ele><time>2026-04-07T14:50:55Z</time></trkpt><trkpt lat="45.904140024459856" lon="9.246889421600235"><ele>1255.0</ele><time>2026-04-07T14:50:57Z</time></trkpt><trkpt lat="45.90423404641897" lon="9.246874252772951"><ele>1255.1666666666665</ele><time>2026-04-07T14:50:59Z</time></trkpt><trkpt lat="45.9043202995018" lon="9.246848800225452"><ele>1255.3333333333333</ele><time>2026-04-07T14:51:00Z</time></trkpt><trkpt lat="45.90438643275439" lon="9.246836149987153"><ele>1255.5</ele><time>2026-04-07T14:51:01Z</time></trkpt><trkpt lat="45.90449569408105" lon="9.24681568801392"><ele>1255.6666666666667</ele><time>2026-04-07T14:51:03Z</time></trkpt><trkpt lat="45.90456360037999" lon="9.246783904139644"><ele>1255.8333333333335</ele><time>2026-04-07T14:51:04Z</time></trkpt><trkpt lat="45.904635827797044" lon="9.246716002071366"><ele>1256.0</ele><time>2026-04-07T14:51:05Z</time></trkpt><trkpt lat="45.90469329133361" lon="9.246645388815661"><ele>1256.0</ele><time>2026-04-07T14:51:06Z</time></trkpt><trkpt lat="45.90479717481181" lon="9.246570803472812"><ele>1256.0</ele><time>2026-04-07T14:51:08Z</time></trkpt><trkpt lat="45.9048941311072" lon="9.246536851162936"><ele>1256.0</ele><time>2026-04-07T14:51:10Z</time></trkpt><trkpt lat="45.9049929255714" lon="9.24651266114252"><ele>1256.0</ele><time>2026-04-07T14:51:29Z</time></trkpt><trkpt lat="45.9050618681849" lon="9.246551287877638"><ele>1256.0</ele><time>2026-04-07T14:51:30Z</time></trkpt><trkpt lat="45.90513597843326" lon="9.246605747966559"><ele>1255.2</ele><time>2026-04-07T14:51:31Z</time></trkpt><trkpt lat="45.90521033350117" lon="9.246672376089167"><ele>1254.3999999999999</ele><time>2026-04-07T14:51:32Z</time></trkpt><trkpt lat="45.90529289667214" lon="9.24673666965986"><ele>1253.6</ele><time>2026-04-07T14:51:33Z</time></trkpt><trkpt lat="45.905376660366585" lon="9.246823383472544"><ele>1252.8</ele><time>2026-04-07T14:51:34Z</time></trkpt><trkpt lat="45.90544323555385" lon="9.246907462049718"><ele>1252.0</ele><time>2026-04-07T14:51:35Z</time></trkpt><trkpt lat="45.905498769121984" lon="9.246984649498081"><ele>1252.0</ele><time>2026-04-07T14:51:36Z</time></trkpt><trkpt lat="45.90555242979688" lon="9.24704815399816"><ele>1252.0</ele><time>2026-04-07T14:51:37Z</time></trkpt><trkpt lat="45.90562975601433" lon="9.247063249586988"><ele>1252.0</ele><time>2026-04-07T14:51:38Z</time></trkpt><trkpt lat="45.90571146093173" lon="9.247046382789318"><ele>1252.0</ele><time>2026-04-07T14:51:39Z</time></trkpt><trkpt lat="45.905811862725805" lon="9.247014555147794"><ele>1252.0</ele><time>2026-04-07T14:51:40Z</time></trkpt><trkpt lat="45.905914150923586" lon="9.246981841450818"><ele>1252.0</ele><time>2026-04-07T14:51:41Z</time></trkpt><trkpt lat="45.906024276585896" lon="9.246924322534948"><ele>1252.0</ele><time>2026-04-07T14:51:42Z</time></trkpt><trkpt lat="45.90607951171734" lon="9.246878953403607"><ele>1252.0</ele><time>2026-04-07T14:51:43Z</time></trkpt><trkpt lat="45.90616276026024" lon="9.246842126598043"><ele>1252.0</ele><time>2026-04-07T14:51:44.999Z</time></trkpt><trkpt lat="45.906284262457866" lon="9.246891616358363"><ele>1252.0</ele><time>2026-04-07T14:51:46.999Z</time></trkpt><trkpt lat="45.90637527049503" lon="9.24694591720278"><ele>1252.0</ele><time>2026-04-07T14:51:47.999Z</time></trkpt><trkpt lat="45.9064443229097" lon="9.246978867104414"><ele>1252.0</ele><time>2026-04-07T14:51:48.999Z</time></trkpt><trkpt lat="45.90651848462252" lon="9.246970511743696"><ele>1252.0</ele><time>2026-04-07T14:51:49.999Z</time></trkpt><trkpt lat="45.90659465245531" lon="9.246928065184948"><ele>1252.0</ele><time>2026-04-07T14:51:50.999Z</time></trkpt><trkpt lat="45.906660959441936" lon="9.246869579164073"><ele>1252.0</ele><time>2026-04-07T14:51:51.999Z</time></trkpt><trkpt lat="45.90673312590385" lon="9.24684298342697"><ele>1252.0</ele><time>2026-04-07T14:51:52.999Z</time></trkpt><trkpt lat="45.906820907824056" lon="9.246819845670977"><ele>1252.0</ele><time>2026-04-07T14:51:53.999Z</time></trkpt><trkpt lat="45.906896550152545" lon="9.246797303296471"><ele>1252.0</ele><time>2026-04-07T14:51:54.999Z</time></trkpt><trkpt lat="45.90698172050133" lon="9.24679657892765"><ele>1251.0</ele><time>2026-04-07T14:51:55.999Z</time></trkpt><trkpt lat="45.90705090802356" lon="9.246771865521572"><ele>1250.0</ele><time>2026-04-07T14:51:56.999Z</time></trkpt><trkpt lat="45.9071155088374" lon="9.24672515025845"><ele>1249.0</ele><time>2026-04-07T14:51:57.999Z</time></trkpt><trkpt lat="45.90723451461752" lon="9.24668556718933"><ele>1248.0</ele><time>2026-04-07T14:51:59.999Z</time></trkpt><trkpt lat="45.907300358712334" lon="9.246668939497189"><ele>1247.0</ele><time>2026-04-07T14:52:00.999Z</time></trkpt><trkpt lat="45.907406621659845" lon="9.246643887580648"><ele>1246.0</ele><time>2026-04-07T14:52:01.999Z</time></trkpt><trkpt lat="45.907486287418386" lon="9.246580611494872"><ele>1245.0</ele><time>2026-04-07T14:52:02.999Z</time></trkpt><trkpt lat="45.907580823074916" lon="9.246571430402534"><ele>1244.0</ele><time>2026-04-07T14:52:03.999Z</time></trkpt><trkpt lat="45.90768753662492" lon="9.246558735840527"><ele>1243.0</ele><time>2026-04-07T14:52:04.999Z</time></trkpt><trkpt lat="45.907770985817635" lon="9.24656219396716"><ele>1242.0</ele><time>2026-04-07T14:52:05.999Z</time></trkpt><trkpt lat="45.90783019458751" lon="9.24652082521143"><ele>1241.0</ele><time>2026-04-07T14:52:06.999Z</time></trkpt><trkpt lat="45.907898287522215" lon="9.246487459665069"><ele>1240.0</ele><time>2026-04-07T14:52:07.999Z</time></trkpt><trkpt lat="45.90799244641339" lon="9.246452449516264"><ele>1240.25</ele><time>2026-04-07T14:52:08.999Z</time></trkpt><trkpt lat="45.908086228731655" lon="9.246418110043328"><ele>1240.5</ele><time>2026-04-07T14:52:09.999Z</time></trkpt><trkpt lat="45.90817330121645" lon="9.246394187433774"><ele>1240.75</ele><time>2026-04-07T14:52:10.999Z</time></trkpt><trkpt lat="45.908312810753166" lon="9.246409047825061"><ele>1241.0</ele><time>2026-04-07T14:52:11.999Z</time></trkpt><trkpt lat="45.908441586042905" lon="9.246375791086864"><ele>1241.0</ele><time>2026-04-07T14:52:12.999Z</time></trkpt><trkpt lat="45.90858368640932" lon="9.246332903062143"><ele>1241.0</ele><time>2026-04-07T14:52:13.999Z</time></trkpt><trkpt lat="45.90871670398409" lon="9.246287166636904"><ele>1241.0</ele><time>2026-04-07T14:52:14.999Z</time></trkpt><trkpt lat="45.9088126954626" lon="9.246256724682539"><ele>1241.0</ele><time>2026-04-07T14:52:15.999Z</time></trkpt><trkpt lat="45.908906230288466" lon="9.2462440988776"><ele>1241.0</ele><time>2026-04-07T14:52:16.999Z</time></trkpt><trkpt lat="45.90903262134853" lon="9.246186061839529"><ele>1241.0</ele><time>2026-04-07T14:52:17.999Z</time></trkpt><trkpt lat="45.90914404997484" lon="9.24616661374933"><ele>1241.0</ele><time>2026-04-07T14:52:18.999Z</time></trkpt><trkpt lat="45.909229268153865" lon="9.246151946240678"><ele>1241.0</ele><time>2026-04-07T14:52:19.999Z</time></trkpt><trkpt lat="45.90929347848175" lon="9.246121083249816"><ele>1241.0</ele><time>2026-04-07T14:52:20.999Z</time></trkpt><trkpt lat="45.90940983467767" lon="9.246062374714322"><ele>1244.1666666666667</ele><time>2026-04-07T14:52:22.999Z</time></trkpt><trkpt lat="45.90948342071522" lon="9.246045217988847"><ele>1247.3333333333335</ele><time>2026-04-07T14:52:23.999Z</time></trkpt><trkpt lat="45.909561085847656" lon="9.246039681739695"><ele>1250.5</ele><time>2026-04-07T14:52:24.999Z</time></trkpt><trkpt lat="45.909634736905474" lon="9.24605161344044"><ele>1253.6666666666667</ele><time>2026-04-07T14:52:25.999Z</time></trkpt><trkpt lat="45.90973130790322" lon="9.246065263918327"><ele>1256.8333333333333</ele><time>2026-04-07T14:52:26.999Z</time></trkpt><trkpt lat="45.90984862796783" lon="9.246038978210308"><ele>1260.0</ele><time>2026-04-07T14:52:28.999Z</time></trkpt><trkpt lat="45.909924892552056" lon="9.245999388339666"><ele>1260.0</ele><time>2026-04-07T14:52:29.999Z</time></trkpt><trkpt lat="45.909999158442645" lon="9.245945523833662"><ele>1260.0</ele><time>2026-04-07T14:52:30.999Z</time></trkpt><trkpt lat="45.91005974529862" lon="9.245863983871553"><ele>1260.0</ele><time>2026-04-07T14:52:32Z</time></trkpt><trkpt lat="45.91010236234762" lon="9.245758128301212"><ele>1260.0</ele><time>2026-04-07T14:52:33Z</time></trkpt><trkpt lat="45.91012428400069" lon="9.245645601847338"><ele>1260.0</ele><time>2026-04-07T14:52:34Z</time></trkpt><trkpt lat="45.91013248079369" lon="9.245501134438463"><ele>1260.0</ele><time>2026-04-07T14:52:35Z</time></trkpt><trkpt lat="45.910138114860295" lon="9.24536837488209"><ele>1266.0</ele><time>2026-04-07T14:52:36Z</time></trkpt><trkpt lat="45.91013887065626" lon="9.245227425551288"><ele>1272.0</ele><time>2026-04-07T14:52:37Z</time></trkpt><trkpt lat="45.91014844429868" lon="9.245119317001993"><ele>1278.0</ele><time>2026-04-07T14:52:38Z</time></trkpt><trkpt lat="45.910155323100255" lon="9.2450208960098"><ele>1284.0</ele><time>2026-04-07T14:52:39Z</time></trkpt><trkpt lat="45.91016340012951" lon="9.24490582833514"><ele>1290.0</ele><time>2026-04-07T14:52:40Z</time></trkpt><trkpt lat="45.9101621034114" lon="9.244767105987664"><ele>1296.0</ele><time>2026-04-07T14:52:41Z</time></trkpt><trkpt lat="45.910158575099636" lon="9.244652376759092"><ele>1298.0</ele><time>2026-04-07T14:52:42Z</time></trkpt><trkpt lat="45.91014803558591" lon="9.244559205121154"><ele>1300.0</ele><time>2026-04-07T14:52:43Z</time></trkpt><trkpt lat="45.91014713598139" lon="9.244465125531114"><ele>1302.0</ele><time>2026-04-07T14:52:44Z</time></trkpt><trkpt lat="45.91013825147346" lon="9.244351705953404"><ele>1304.0</ele><time>2026-04-07T14:52:45Z</time></trkpt><trkpt lat="45.91013337169438" lon="9.244257969381373"><ele>1306.0</ele><time>2026-04-07T14:52:46Z</time></trkpt><trkpt lat="45.91011417879579" lon="9.244171422889709"><ele>1308.0</ele><time>2026-04-07T14:52:47Z</time></trkpt><trkpt lat="45.91009776550321" lon="9.2440802393123"><ele>1310.0</ele><time>2026-04-07T14:52:48Z</time></trkpt><trkpt lat="45.910089286878225" lon="9.24396596080277"><ele>1306.3333333333335</ele><time>2026-04-07T14:52:50Z</time></trkpt><trkpt lat="45.910038001415344" lon="9.243906602028675"><ele>1302.6666666666667</ele><time>2026-04-07T14:53:17Z</time></trkpt><trkpt lat="45.91002716133152" lon="9.243754208072877"><ele>1299.0</ele><time>2026-04-07T14:53:25Z</time></trkpt><trkpt lat="45.91000279729064" lon="9.24366843035187"><ele>1295.3333333333333</ele><time>2026-04-07T14:53:26Z</time></trkpt><trkpt lat="45.909992511732604" lon="9.24357026364276"><ele>1291.6666666666665</ele><time>2026-04-07T14:53:27Z</time></trkpt><trkpt lat="45.90998025222639" lon="9.243446738933448"><ele>1288.0</ele><time>2026-04-07T14:53:28Z</time></trkpt><trkpt lat="45.90996388927012" lon="9.243334993419726"><ele>1288.0</ele><time>2026-04-07T14:53:29Z</time></trkpt><trkpt lat="45.909954348701945" lon="9.243243303589514"><ele>1288.0</ele><time>2026-04-07T14:53:30Z</time></trkpt><trkpt lat="45.90993889770211" lon="9.243148466335727"><ele>1288.0</ele><time>2026-04-07T14:53:31Z</time></trkpt><trkpt lat="45.90992846476533" lon="9.243055417243182"><ele>1288.0</ele><time>2026-04-07T14:53:32Z</time></trkpt><trkpt lat="45.909905441135905" lon="9.242968628468583"><ele>1288.0</ele><time>2026-04-07T14:53:33Z</time></trkpt><trkpt lat="45.90988241856422" lon="9.242862467029358"><ele>1288.0</ele><time>2026-04-07T14:53:34Z</time></trkpt><trkpt lat="45.90985608283056" lon="9.24277261421094"><ele>1288.0</ele><time>2026-04-07T14:53:35Z</time></trkpt><trkpt lat="45.90984749168221" lon="9.242668687591856"><ele>1289.5</ele><time>2026-04-07T14:53:36Z</time></trkpt><trkpt lat="45.90983570623281" lon="9.242559338512658"><ele>1291.0</ele><time>2026-04-07T14:53:37Z</time></trkpt><trkpt lat="45.90983322426717" lon="9.242440715413643"><ele>1292.5</ele><time>2026-04-07T14:53:38Z</time></trkpt><trkpt lat="45.9098308848996" lon="9.242329926030687"><ele>1294.0</ele><time>2026-04-07T14:53:39Z</time></trkpt><trkpt lat="45.90984231075017" lon="9.242216345037031"><ele>1295.5</ele><time>2026-04-07T14:53:40Z</time></trkpt><trkpt lat="45.90984595726103" lon="9.242067732619182"><ele>1297.0</ele><time>2026-04-07T14:53:42Z</time></trkpt><trkpt lat="45.909867613232414" lon="9.241944672537471"><ele>1297.0</ele><time>2026-04-07T14:53:44Z</time></trkpt><trkpt lat="45.90992513320716" lon="9.241804228739664"><ele>1297.0</ele><time>2026-04-07T14:53:46Z</time></trkpt><trkpt lat="45.909988433803754" lon="9.24168161790401"><ele>1297.0</ele><time>2026-04-07T14:53:48Z</time></trkpt><trkpt lat="45.91005204394817" lon="9.241598269037585"><ele>1297.0</ele><time>2026-04-07T14:53:49.999Z</time></trkpt><trkpt lat="45.91010499515667" lon="9.241508726231842"><ele>1297.0</ele><time>2026-04-07T14:53:51.999Z</time></trkpt><trkpt lat="45.9101593137207" lon="9.241374409168005"><ele>1307.75</ele><time>2026-04-07T14:53:53.999Z</time></trkpt><trkpt lat="45.91021726039752" lon="9.241224800267187"><ele>1318.5</ele><time>2026-04-07T14:53:55.999Z</time></trkpt><trkpt lat="45.910270253172754" lon="9.241087542291215"><ele>1329.25</ele><time>2026-04-07T14:53:57.999Z</time></trkpt><trkpt lat="45.91032675900779" lon="9.240930312584952"><ele>1340.0</ele><time>2026-04-07T14:53:59.999Z</time></trkpt><trkpt lat="45.910382115161326" lon="9.240773286382526"><ele>1336.75</ele><time>2026-04-07T14:54:01.999Z</time></trkpt><trkpt lat="45.910439644610385" lon="9.240628115882194"><ele>1333.5</ele><time>2026-04-07T14:54:03.999Z</time></trkpt><trkpt lat="45.910504010166065" lon="9.240498404583688"><ele>1330.25</ele><time>2026-04-07T14:54:05.999Z</time></trkpt><trkpt lat="45.91056625273176" lon="9.24035779385633"><ele>1327.0</ele><time>2026-04-07T14:54:07.999Z</time></trkpt><trkpt lat="45.910626515478576" lon="9.24021908082803"><ele>1327.0</ele><time>2026-04-07T14:54:09.999Z</time></trkpt><trkpt lat="45.91066079690555" lon="9.240140337115438"><ele>1327.0</ele><time>2026-04-07T14:54:10.999Z</time></trkpt><trkpt lat="45.910707862185085" lon="9.24004116059031"><ele>1327.0</ele><time>2026-04-07T14:54:11.999Z</time></trkpt><trkpt lat="45.91075540967577" lon="9.23994551566905"><ele>1327.0</ele><time>2026-04-07T14:54:12.999Z</time></trkpt><trkpt lat="45.910807366475666" lon="9.239859458450406"><ele>1327.0</ele><time>2026-04-07T14:54:13.999Z</time></trkpt><trkpt lat="45.91086334458037" lon="9.239789664864436"><ele>1327.0</ele><time>2026-04-07T14:54:14.999Z</time></trkpt><trkpt lat="45.91092846181264" lon="9.23971233109043"><ele>1327.0</ele><time>2026-04-07T14:54:15.999Z</time></trkpt><trkpt lat="45.91099143773396" lon="9.239641642267097"><ele>1327.0</ele><time>2026-04-07T14:54:17.999Z</time></trkpt><trkpt lat="45.91105420780297" lon="9.239700621916278"><ele>1327.0</ele><time>2026-04-07T14:54:20.999Z</time></trkpt><trkpt lat="45.91100378327281" lon="9.239818554041232"><ele>1327.0</ele><time>2026-04-07T14:54:22.999Z</time></trkpt><trkpt lat="45.91094815096616" lon="9.239915656910105"><ele>1327.0</ele><time>2026-04-07T14:54:23.999Z</time></trkpt><trkpt lat="45.91090641733134" lon="9.240079153806658"><ele>1327.0</ele><time>2026-04-07T14:54:25.999Z</time></trkpt><trkpt lat="45.91089503065378" lon="9.240183030439704"><ele>1327.0</ele><time>2026-04-07T14:54:26.999Z</time></trkpt><trkpt lat="45.910885317388015" lon="9.240295852223054"><ele>1327.0</ele><time>2026-04-07T14:54:27.999Z</time></trkpt><trkpt lat="45.910881439014936" lon="9.240392431631909"><ele>1327.0</ele><time>2026-04-07T14:54:28.999Z</time></trkpt><trkpt lat="45.9108812711086" lon="9.240509077125697"><ele>1327.0</ele><time>2026-04-07T14:54:29.999Z</time></trkpt><trkpt lat="45.91089137357514" lon="9.240622649172995"><ele>1327.0</ele><time>2026-04-07T14:54:30.999Z</time></trkpt><trkpt lat="45.91092086496911" lon="9.240806673414584"><ele>1329.6</ele><time>2026-04-07T14:54:31.999Z</time></trkpt><trkpt lat="45.91093847744042" lon="9.240977487798592"><ele>1332.1999999999998</ele><time>2026-04-07T14:54:32.999Z</time></trkpt><trkpt lat="45.91093151764436" lon="9.241081651021068"><ele>1334.8</ele><time>2026-04-07T14:54:33.999Z</time></trkpt><trkpt lat="45.91092032815772" lon="9.24120373714106"><ele>1337.4</ele><time>2026-04-07T14:54:34.999Z</time></trkpt><trkpt lat="45.91090574010594" lon="9.24136055015533"><ele>1340.0</ele><time>2026-04-07T14:54:35.999Z</time></trkpt><trkpt lat="45.910897158929195" lon="9.241497151974167"><ele>1341.1666666666667</ele><time>2026-04-07T14:54:36.999Z</time></trkpt><trkpt lat="45.91089567306574" lon="9.241632006853518"><ele>1342.3333333333335</ele><time>2026-04-07T14:54:38Z</time></trkpt><trkpt lat="45.91088881267139" lon="9.241762472005824"><ele>1343.5</ele><time>2026-04-07T14:54:39Z</time></trkpt><trkpt lat="45.91087804519317" lon="9.24186152382328"><ele>1344.6666666666667</ele><time>2026-04-07T14:54:40Z</time></trkpt><trkpt lat="45.91086229143759" lon="9.24196511214884"><ele>1345.8333333333333</ele><time>2026-04-07T14:54:42Z</time></trkpt><trkpt lat="45.91092515744195" lon="9.241973022817852"><ele>1347.0</ele><time>2026-04-07T14:54:46Z</time></trkpt><trkpt lat="45.91094630313616" lon="9.241846518085094"><ele>1350.8333333333333</ele><time>2026-04-07T14:54:48Z</time></trkpt><trkpt lat="45.91096113921512" lon="9.241748734918518"><ele>1354.6666666666667</ele><time>2026-04-07T14:54:49Z</time></trkpt><trkpt lat="45.911005423677004" lon="9.241597261828847"><ele>1358.5</ele><time>2026-04-07T14:54:51Z</time></trkpt><trkpt lat="45.911045080547424" lon="9.241501349148889"><ele>1362.3333333333335</ele><time>2026-04-07T14:54:52Z</time></trkpt><trkpt lat="45.91109241849862" lon="9.241388739563073"><ele>1366.1666666666667</ele><time>2026-04-07T14:54:53Z</time></trkpt><trkpt lat="45.91112836788638" lon="9.241300322640338"><ele>1370.0</ele><time>2026-04-07T14:54:54Z</time></trkpt><trkpt lat="45.91116039054507" lon="9.241209310127504"><ele>1370.0</ele><time>2026-04-07T14:54:55Z</time></trkpt><trkpt lat="45.911189240662075" lon="9.241121257791294"><ele>1370.0</ele><time>2026-04-07T14:54:56Z</time></trkpt><trkpt lat="45.91123513575684" lon="9.24102960191703"><ele>1370.0</ele><time>2026-04-07T14:54:57Z</time></trkpt><trkpt lat="45.91127945493975" lon="9.240934724101214"><ele>1370.0</ele><time>2026-04-07T14:54:58Z</time></trkpt><trkpt lat="45.91132223458727" lon="9.240846076306214"><ele>1370.0</ele><time>2026-04-07T14:54:59Z</time></trkpt><trkpt lat="45.91139743987345" lon="9.240727049870468"><ele>1370.0</ele><time>2026-04-07T14:55:01Z</time></trkpt><trkpt lat="45.91149267616078" lon="9.24062317369158"><ele>1370.4</ele><time>2026-04-07T14:55:03Z</time></trkpt><trkpt lat="45.91156682795765" lon="9.240533980037368"><ele>1370.8</ele><time>2026-04-07T14:55:05Z</time></trkpt><trkpt lat="45.91165699738438" lon="9.240475954320019"><ele>1371.1999999999998</ele><time>2026-04-07T14:55:07Z</time></trkpt><trkpt lat="45.91176845370974" lon="9.240469468199194"><ele>1371.6</ele><time>2026-04-07T14:55:09Z</time></trkpt><trkpt lat="45.91183818654084" lon="9.240499775721837"><ele>1372.0</ele><time>2026-04-07T14:55:10Z</time></trkpt><trkpt lat="45.91190544602059" lon="9.240544817008775"><ele>1372.0</ele><time>2026-04-07T14:55:11Z</time></trkpt><trkpt lat="45.911953102058774" lon="9.240614845568809"><ele>1372.0</ele><time>2026-04-07T14:55:12Z</time></trkpt><trkpt lat="45.91198338757862" lon="9.240721544377843"><ele>1372.0</ele><time>2026-04-07T14:55:14Z</time></trkpt><trkpt lat="45.91207892633165" lon="9.240833143032114"><ele>1372.0</ele><time>2026-04-07T14:55:16Z</time></trkpt><trkpt lat="45.91219554707767" lon="9.24084663436339"><ele>1372.0</ele><time>2026-04-07T14:55:18Z</time></trkpt><trkpt lat="45.912323480136216" lon="9.240842009928455"><ele>1375.1999999999998</ele><time>2026-04-07T14:55:20Z</time></trkpt><trkpt lat="45.91243304485315" lon="9.24078223772256"><ele>1378.4</ele><time>2026-04-07T14:55:22Z</time></trkpt><trkpt lat="45.91249940949391" lon="9.240697378538451"><ele>1381.6</ele><time>2026-04-07T14:55:24Z</time></trkpt><trkpt lat="45.912568818834195" lon="9.240662034728619"><ele>1384.8000000000002</ele><time>2026-04-07T14:55:26Z</time></trkpt><trkpt lat="45.9126717247315" lon="9.240592239975493"><ele>1388.0</ele><time>2026-04-07T14:55:28Z</time></trkpt><trkpt lat="45.91273337552301" lon="9.240553283315808"><ele>1390.4</ele><time>2026-04-07T14:55:29Z</time></trkpt><trkpt lat="45.9128196968135" lon="9.240501026050607"><ele>1392.8000000000002</ele><time>2026-04-07T14:55:31Z</time></trkpt><trkpt lat="45.91292378163273" lon="9.240442416187278"><ele>1395.2</ele><time>2026-04-07T14:55:33Z</time></trkpt><trkpt lat="45.91298652340377" lon="9.240390991140746"><ele>1397.6</ele><time>2026-04-07T14:55:34Z</time></trkpt><trkpt lat="45.913051599156574" lon="9.240327790944406"><ele>1400.0</ele><time>2026-04-07T14:55:35Z</time></trkpt><trkpt lat="45.913158450482356" lon="9.240207364466414"><ele>1400.0</ele><time>2026-04-07T14:55:37Z</time></trkpt><trkpt lat="45.91320862878995" lon="9.240136271991654"><ele>1400.0</ele><time>2026-04-07T14:55:38Z</time></trkpt><trkpt lat="45.91327653246194" lon="9.240068013010829"><ele>1400.0</ele><time>2026-04-07T14:55:39Z</time></trkpt><trkpt lat="45.913350463029076" lon="9.239999092971447"><ele>1400.0</ele><time>2026-04-07T14:55:40Z</time></trkpt><trkpt lat="45.913419123265804" lon="9.239934323058696"><ele>1400.0</ele><time>2026-04-07T14:55:41Z</time></trkpt><trkpt lat="45.91349165277228" lon="9.239868323105725"><ele>1400.0</ele><time>2026-04-07T14:55:42Z</time></trkpt><trkpt lat="45.913568383332674" lon="9.239812867829102"><ele>1402.8333333333335</ele><time>2026-04-07T14:55:43Z</time></trkpt><trkpt lat="45.913648415734805" lon="9.23975765978865"><ele>1405.6666666666667</ele><time>2026-04-07T14:55:44Z</time></trkpt><trkpt lat="45.91372914606968" lon="9.239696009614164"><ele>1408.5</ele><time>2026-04-07T14:55:45Z</time></trkpt><trkpt lat="45.91380634026799" lon="9.239629231016057"><ele>1411.3333333333333</ele><time>2026-04-07T14:55:46Z</time></trkpt><trkpt lat="45.913883708637066" lon="9.239563487008557"><ele>1414.1666666666665</ele><time>2026-04-07T14:55:47Z</time></trkpt><trkpt lat="45.91393290331403" lon="9.239506683898188"><ele>1417.0</ele><time>2026-04-07T14:55:48Z</time></trkpt><trkpt lat="45.913980640633895" lon="9.239439918384068"><ele>1417.0</ele><time>2026-04-07T14:55:49Z</time></trkpt><trkpt lat="45.91403579314781" lon="9.239375325755004"><ele>1417.0</ele><time>2026-04-07T14:55:50Z</time></trkpt><trkpt lat="45.91410304077374" lon="9.239287856426762"><ele>1417.0</ele><time>2026-04-07T14:55:51Z</time></trkpt><trkpt lat="45.91416417051019" lon="9.23920127772244"><ele>1417.0</ele><time>2026-04-07T14:55:52Z</time></trkpt><trkpt lat="45.91422426443961" lon="9.239125391507711"><ele>1417.0</ele><time>2026-04-07T14:55:53Z</time></trkpt><trkpt lat="45.91427808839051" lon="9.239036825672448"><ele>1417.0</ele><time>2026-04-07T14:55:54Z</time></trkpt><trkpt lat="45.91431709329137" lon="9.238946867691764"><ele>1417.6666666666665</ele><time>2026-04-07T14:55:55Z</time></trkpt><trkpt lat="45.914353582251024" lon="9.238843638246996"><ele>1418.3333333333333</ele><time>2026-04-07T14:55:56Z</time></trkpt><trkpt lat="45.91436673089575" lon="9.238738630010923"><ele>1419.0</ele><time>2026-04-07T14:55:57Z</time></trkpt><trkpt lat="45.9143582559686" lon="9.238615745240411"><ele>1419.6666666666667</ele><time>2026-04-07T14:55:57.999Z</time></trkpt><trkpt lat="45.91436226192568" lon="9.23846875954657"><ele>1420.3333333333335</ele><time>2026-04-07T14:55:58.999Z</time></trkpt><trkpt lat="45.91436458845179" lon="9.238345130422521"><ele>1421.0</ele><time>2026-04-07T14:55:59.999Z</time></trkpt><trkpt lat="45.914354630178096" lon="9.238217843731695"><ele>1419.4</ele><time>2026-04-07T14:56:00.999Z</time></trkpt><trkpt lat="45.914334776108205" lon="9.238093973819685"><ele>1417.8</ele><time>2026-04-07T14:56:01.999Z</time></trkpt><trkpt lat="45.91431887300178" lon="9.23796338521246"><ele>1416.2</ele><time>2026-04-07T14:56:02.999Z</time></trkpt><trkpt lat="45.914309383507415" lon="9.237810363305593"><ele>1414.6000000000001</ele><time>2026-04-07T14:56:03.999Z</time></trkpt><trkpt lat="45.914306335525616" lon="9.237663128379054"><ele>1413.0</ele><time>2026-04-07T14:56:04.999Z</time></trkpt><trkpt lat="45.91425627867282" lon="9.23750949436163"><ele>1414.4</ele><time>2026-04-07T14:56:06.999Z</time></trkpt><trkpt lat="45.91421681274777" lon="9.237380167907464"><ele>1415.8000000000002</ele><time>2026-04-07T14:56:07.999Z</time></trkpt><trkpt lat="45.91418650962804" lon="9.237266639828254"><ele>1417.2</ele><time>2026-04-07T14:56:08.999Z</time></trkpt><trkpt lat="45.91416049197302" lon="9.23716407169185"><ele>1418.6</ele><time>2026-04-07T14:56:09.999Z</time></trkpt><trkpt lat="45.914142824644976" lon="9.237069456158832"><ele>1420.0</ele><time>2026-04-07T14:56:10.999Z</time></trkpt><trkpt lat="45.914103637359666" lon="9.236864743085231"><ele>1421.2</ele><time>2026-04-07T14:56:12.999Z</time></trkpt><trkpt lat="45.91409729525586" lon="9.236767646071389"><ele>1422.4</ele><time>2026-04-07T14:56:13.999Z</time></trkpt><trkpt lat="45.91409961434284" lon="9.236609493071043"><ele>1423.6</ele><time>2026-04-07T14:56:15.999Z</time></trkpt><trkpt lat="45.91411971964883" lon="9.236459553775685"><ele>1424.8</ele><time>2026-04-07T14:56:17.999Z</time></trkpt><trkpt lat="45.914148691496216" lon="9.236315029525207"><ele>1426.0</ele><time>2026-04-07T14:56:19.999Z</time></trkpt><trkpt lat="45.91416132298332" lon="9.236223415633601"><ele>1426.0</ele><time>2026-04-07T14:56:20.999Z</time></trkpt><trkpt lat="45.9141750191237" lon="9.236104877964017"><ele>1426.0</ele><time>2026-04-07T14:56:21.999Z</time></trkpt><trkpt lat="45.91419442436306" lon="9.235999992605617"><ele>1426.0</ele><time>2026-04-07T14:56:22.999Z</time></trkpt><trkpt lat="45.91420950223698" lon="9.235898282700308"><ele>1426.0</ele><time>2026-04-07T14:56:23.999Z</time></trkpt><trkpt lat="45.91420305192251" lon="9.235775602058837"><ele>1426.0</ele><time>2026-04-07T14:56:24.999Z</time></trkpt><trkpt lat="45.91418961475402" lon="9.235635286665017"><ele>1426.0</ele><time>2026-04-07T14:56:26.999Z</time></trkpt><trkpt lat="45.914179263418674" lon="9.235505052357993"><ele>1427.1666666666665</ele><time>2026-04-07T14:56:28.999Z</time></trkpt><trkpt lat="45.914155113517246" lon="9.235396713532534"><ele>1428.3333333333333</ele><time>2026-04-07T14:56:31.999Z</time></trkpt><trkpt lat="45.91409421641287" lon="9.235338344698565"><ele>1429.5</ele><time>2026-04-07T14:56:33.999Z</time></trkpt><trkpt lat="45.91401044682721" lon="9.235226222351663"><ele>1430.6666666666667</ele><time>2026-04-07T14:56:35.999Z</time></trkpt><trkpt lat="45.913957549150616" lon="9.235150467823436"><ele>1431.8333333333335</ele><time>2026-04-07T14:56:36.999Z</time></trkpt><trkpt lat="45.91391514873047" lon="9.235058698006048"><ele>1433.0</ele><time>2026-04-07T14:56:37.999Z</time></trkpt><trkpt lat="45.913872067447635" lon="9.23495801084241"><ele>1433.0</ele><time>2026-04-07T14:56:38.999Z</time></trkpt><trkpt lat="45.91381114222858" lon="9.234886961175139"><ele>1433.0</ele><time>2026-04-07T14:56:39.999Z</time></trkpt><trkpt lat="45.91375510462672" lon="9.234808989844984"><ele>1433.0</ele><time>2026-04-07T14:56:40.999Z</time></trkpt><trkpt lat="45.91368542878759" lon="9.234701736821824"><ele>1433.0</ele><time>2026-04-07T14:56:41.999Z</time></trkpt><trkpt lat="45.91363153556374" lon="9.23461280750022"><ele>1433.0</ele><time>2026-04-07T14:56:42.999Z</time></trkpt><trkpt lat="45.91358243360458" lon="9.234528379412842"><ele>1433.0</ele><time>2026-04-07T14:56:44Z</time></trkpt><trkpt lat="45.91350147686814" lon="9.234436039992543"><ele>1435.5</ele><time>2026-04-07T14:56:45Z</time></trkpt><trkpt lat="45.91344245782809" lon="9.234351287205309"><ele>1438.0</ele><time>2026-04-07T14:56:46Z</time></trkpt><trkpt lat="45.913375521532004" lon="9.23426746159342"><ele>1440.5</ele><time>2026-04-07T14:56:47Z</time></trkpt><trkpt lat="45.913308047735775" lon="9.234193639328035"><ele>1443.0</ele><time>2026-04-07T14:56:48Z</time></trkpt><trkpt lat="45.91324992107067" lon="9.23411247513841"><ele>1445.5</ele><time>2026-04-07T14:56:49Z</time></trkpt><trkpt lat="45.913189474188066" lon="9.234035125968967"><ele>1448.0</ele><time>2026-04-07T14:56:50Z</time></trkpt><trkpt lat="45.913113337574465" lon="9.23397189505419"><ele>1452.0</ele><time>2026-04-07T14:56:51Z</time></trkpt><trkpt lat="45.91305536181597" lon="9.233906850225225"><ele>1456.0</ele><time>2026-04-07T14:56:52Z</time></trkpt><trkpt lat="45.912987097704324" lon="9.233856028501206"><ele>1460.0</ele><time>2026-04-07T14:56:53Z</time></trkpt><trkpt lat="45.91293181406254" lon="9.233794121447984"><ele>1464.0</ele><time>2026-04-07T14:56:54Z</time></trkpt><trkpt lat="45.91285927359015" lon="9.233706130040423"><ele>1468.0</ele><time>2026-04-07T14:56:55Z</time></trkpt><trkpt lat="45.91279163931957" lon="9.233646542891684"><ele>1472.0</ele><time>2026-04-07T14:56:56Z</time></trkpt><trkpt lat="45.9127046372645" lon="9.233599197900778"><ele>1472.0</ele><time>2026-04-07T14:56:57Z</time></trkpt><trkpt lat="45.912629971422646" lon="9.233544301686038"><ele>1472.0</ele><time>2026-04-07T14:56:58Z</time></trkpt><trkpt lat="45.912570518240976" lon="9.233435486170514"><ele>1472.0</ele><time>2026-04-07T14:56:59Z</time></trkpt><trkpt lat="45.91249104770883" lon="9.233319173780032"><ele>1472.0</ele><time>2026-04-07T14:57:00Z</time></trkpt><trkpt lat="45.912449619056495" lon="9.23324236975631"><ele>1472.0</ele><time>2026-04-07T14:57:01Z</time></trkpt><trkpt lat="45.91236271230928" lon="9.233274010327483"><ele>1474.1666666666667</ele><time>2026-04-07T14:57:02Z</time></trkpt><trkpt lat="45.91229903456879" lon="9.233206923720687"><ele>1476.3333333333335</ele><time>2026-04-07T14:57:04Z</time></trkpt><trkpt lat="45.91223074864997" lon="9.233160580238453"><ele>1478.5</ele><time>2026-04-07T14:57:05Z</time></trkpt><trkpt lat="45.91216904361429" lon="9.233132293839539"><ele>1480.6666666666667</ele><time>2026-04-07T14:57:06Z</time></trkpt><trkpt lat="45.91206842592144" lon="9.233062516868001"><ele>1482.8333333333333</ele><time>2026-04-07T14:57:08Z</time></trkpt><trkpt lat="45.911993692565986" lon="9.233011639439237"><ele>1485.0</ele><time>2026-04-07T14:57:09Z</time></trkpt><trkpt lat="45.91192879329567" lon="9.232973195134553"><ele>1485.0</ele><time>2026-04-07T14:57:10Z</time></trkpt><trkpt lat="45.91185327022558" lon="9.232929101633353"><ele>1485.0</ele><time>2026-04-07T14:57:11Z</time></trkpt><trkpt lat="45.911776608932705" lon="9.23290358488538"><ele>1485.0</ele><time>2026-04-07T14:57:12Z</time></trkpt><trkpt lat="45.9117138272839" lon="9.23285689965966"><ele>1485.0</ele><time>2026-04-07T14:57:13Z</time></trkpt><trkpt lat="45.91162743267512" lon="9.232810215169794"><ele>1485.0</ele><time>2026-04-07T14:57:15Z</time></trkpt><trkpt lat="45.91152589092508" lon="9.232750252319185"><ele>1485.0</ele><time>2026-04-07T14:57:17Z</time></trkpt><trkpt lat="45.911429377473276" lon="9.232698028000359"><ele>1483.6666666666667</ele><time>2026-04-07T14:57:19Z</time></trkpt><trkpt lat="45.91134409137911" lon="9.232637749728198"><ele>1482.3333333333333</ele><time>2026-04-07T14:57:21Z</time></trkpt><trkpt lat="45.91125740624816" lon="9.232572140175227"><ele>1481.0</ele><time>2026-04-07T14:57:24Z</time></trkpt><trkpt lat="45.91118939217252" lon="9.232486113267601"><ele>1479.6666666666665</ele><time>2026-04-07T14:57:27Z</time></trkpt><trkpt lat="45.91115549177769" lon="9.232403506406651"><ele>1478.3333333333333</ele><time>2026-04-07T14:57:29Z</time></trkpt><trkpt lat="45.91112338336206" lon="9.23231253922108"><ele>1477.0</ele><time>2026-04-07T14:57:31Z</time></trkpt><trkpt lat="45.91112138325204" lon="9.232198526483687"><ele>1477.0</ele><time>2026-04-07T14:57:33Z</time></trkpt><trkpt lat="45.91114377254573" lon="9.232083052950024"><ele>1477.0</ele><time>2026-04-07T14:57:35Z</time></trkpt><trkpt lat="45.91120253560498" lon="9.23199998485084"><ele>1477.0</ele><time>2026-04-07T14:57:37Z</time></trkpt><trkpt lat="45.911276886687965" lon="9.231895461073629"><ele>1477.0</ele><time>2026-04-07T14:57:39Z</time></trkpt><trkpt lat="45.911345793696285" lon="9.231804317693364"><ele>1477.0</ele><time>2026-04-07T14:57:41Z</time></trkpt><trkpt lat="45.911404171725" lon="9.231718663187722"><ele>1477.0</ele><time>2026-04-07T14:57:43Z</time></trkpt><trkpt lat="45.911462913343385" lon="9.23161925107984"><ele>1477.0</ele><time>2026-04-07T14:57:45Z</time></trkpt><trkpt lat="45.911531334933535" lon="9.23152894282857"><ele>1477.0</ele><time>2026-04-07T14:57:47Z</time></trkpt><trkpt lat="45.91159727211058" lon="9.231459982322159"><ele>1477.0</ele><time>2026-04-07T14:57:49Z</time></trkpt><trkpt lat="45.91166381453647" lon="9.231385972816993"><ele>1477.0</ele><time>2026-04-07T14:57:51Z</time></trkpt><trkpt lat="45.91171821678664" lon="9.231304723460635"><ele>1477.0</ele><time>2026-04-07T14:57:53Z</time></trkpt><trkpt lat="45.91179353725604" lon="9.231164879726416"><ele>1482.0</ele><time>2026-04-07T14:57:55Z</time></trkpt><trkpt lat="45.911837454180386" lon="9.231095134255169"><ele>1487.0</ele><time>2026-04-07T14:57:56Z</time></trkpt><trkpt lat="45.91188493827962" lon="9.231010878317136"><ele>1492.0</ele><time>2026-04-07T14:57:57Z</time></trkpt><trkpt lat="45.91192782052418" lon="9.230925023371782"><ele>1497.0</ele><time>2026-04-07T14:57:58Z</time></trkpt><trkpt lat="45.911982274671644" lon="9.23083566535514"><ele>1502.0</ele><time>2026-04-07T14:57:59Z</time></trkpt><trkpt lat="45.91203296171443" lon="9.230729227826167"><ele>1507.0</ele><time>2026-04-07T14:58:00Z</time></trkpt><trkpt lat="45.912081401424395" lon="9.230617759409528"><ele>1507.0</ele><time>2026-04-07T14:58:01Z</time></trkpt><trkpt lat="45.912131498482694" lon="9.230478466850686"><ele>1507.0</ele><time>2026-04-07T14:58:02Z</time></trkpt><trkpt lat="45.912179186375496" lon="9.23033923458859"><ele>1507.0</ele><time>2026-04-07T14:58:03Z</time></trkpt><trkpt lat="45.912221505615854" lon="9.230185534134637"><ele>1507.0</ele><time>2026-04-07T14:58:04Z</time></trkpt><trkpt lat="45.91225313716948" lon="9.230055404162254"><ele>1507.0</ele><time>2026-04-07T14:58:05Z</time></trkpt><trkpt lat="45.91226183912893" lon="9.229946721283959"><ele>1507.0</ele><time>2026-04-07T14:58:05.999Z</time></trkpt><trkpt lat="45.9122566557701" lon="9.229829398470041"><ele>1507.0</ele><time>2026-04-07T14:58:06.999Z</time></trkpt><trkpt lat="45.912232713089594" lon="9.229717897976919"><ele>1507.0</ele><time>2026-04-07T14:58:07.999Z</time></trkpt><trkpt lat="45.91221055957433" lon="9.229612546211433"><ele>1507.0</ele><time>2026-04-07T14:58:08.999Z</time></trkpt><trkpt lat="45.91217025651818" lon="9.229411704370738"><ele>1507.0</ele><time>2026-04-07T14:58:09.999Z</time></trkpt><trkpt lat="45.912123046210716" lon="9.229239290753675"><ele>1507.8</ele><time>2026-04-07T14:58:10.999Z</time></trkpt><trkpt lat="45.912083291620995" lon="9.229103849881906"><ele>1508.6</ele><time>2026-04-07T14:58:11.999Z</time></trkpt><trkpt lat="45.91205058272106" lon="9.228990672495778"><ele>1509.3999999999999</ele><time>2026-04-07T14:58:12.999Z</time></trkpt><trkpt lat="45.9120192658017" lon="9.228882422253363"><ele>1510.1999999999998</ele><time>2026-04-07T14:58:13.999Z</time></trkpt><trkpt lat="45.91198643233506" lon="9.228794219285806"><ele>1511.0</ele><time>2026-04-07T14:58:14.999Z</time></trkpt><trkpt lat="45.91192230159628" lon="9.228643505868162"><ele>1511.8333333333335</ele><time>2026-04-07T14:58:16.999Z</time></trkpt><trkpt lat="45.911906281323205" lon="9.228549279817198"><ele>1512.6666666666667</ele><time>2026-04-07T14:58:17.999Z</time></trkpt><trkpt lat="45.91190838896224" lon="9.228436370294965"><ele>1513.5</ele><time>2026-04-07T14:58:18.999Z</time></trkpt><trkpt lat="45.91192876100025" lon="9.228338841988506"><ele>1514.3333333333333</ele><time>2026-04-07T14:58:19.999Z</time></trkpt><trkpt lat="45.911958745047606" lon="9.228241527015385"><ele>1515.1666666666665</ele><time>2026-04-07T14:58:20.999Z</time></trkpt><trkpt lat="45.9119879695101" lon="9.228138484731094"><ele>1516.0</ele><time>2026-04-07T14:58:21.999Z</time></trkpt><trkpt lat="45.912027981384796" lon="9.228032383783168"><ele>1516.4</ele><time>2026-04-07T14:58:22.999Z</time></trkpt><trkpt lat="45.91206291995978" lon="9.227902093380399"><ele>1516.8</ele><time>2026-04-07T14:58:23.999Z</time></trkpt><trkpt lat="45.912101245578725" lon="9.22778994209591"><ele>1517.2</ele><time>2026-04-07T14:58:24.999Z</time></trkpt><trkpt lat="45.91212467638174" lon="9.227698066288243"><ele>1517.6000000000001</ele><time>2026-04-07T14:58:25.999Z</time></trkpt><trkpt lat="45.912136341915" lon="9.227594691991138"><ele>1518.0</ele><time>2026-04-07T14:58:26.999Z</time></trkpt><trkpt lat="45.91212827006693" lon="9.227383002182606"><ele>1521.4</ele><time>2026-04-07T14:58:28.999Z</time></trkpt><trkpt lat="45.91210712576885" lon="9.227263779902552"><ele>1524.8000000000002</ele><time>2026-04-07T14:58:29.999Z</time></trkpt><trkpt lat="45.9120777148721" lon="9.227154869133225"><ele>1528.2</ele><time>2026-04-07T14:58:30.999Z</time></trkpt><trkpt lat="45.912035697687585" lon="9.227054545785746"><ele>1531.6</ele><time>2026-04-07T14:58:31.999Z</time></trkpt><trkpt lat="45.91198188432368" lon="9.226886518897391"><ele>1535.0</ele><time>2026-04-07T14:58:33.999Z</time></trkpt><trkpt lat="45.91196330392036" lon="9.22677867667778"><ele>1535.0</ele><time>2026-04-07T14:58:34.999Z</time></trkpt><trkpt lat="45.911913570696335" lon="9.226590808012059"><ele>1535.0</ele><time>2026-04-07T14:58:36.999Z</time></trkpt><trkpt lat="45.91187272391373" lon="9.226479565382318"><ele>1535.0</ele><time>2026-04-07T14:58:37.999Z</time></trkpt><trkpt lat="45.91182646952335" lon="9.226394236408595"><ele>1535.0</ele><time>2026-04-07T14:58:38.999Z</time></trkpt><trkpt lat="45.91177573282592" lon="9.226299892967084"><ele>1535.0</ele><time>2026-04-07T14:58:39.999Z</time></trkpt><trkpt lat="45.91173692261338" lon="9.226206420555656"><ele>1532.6</ele><time>2026-04-07T14:58:40.999Z</time></trkpt><trkpt lat="45.91169158871382" lon="9.22608575061118"><ele>1530.2</ele><time>2026-04-07T14:58:41.999Z</time></trkpt><trkpt lat="45.91163164984207" lon="9.225991535853092"><ele>1527.8000000000002</ele><time>2026-04-07T14:58:42.999Z</time></trkpt><trkpt lat="45.91156403739917" lon="9.225860264195363"><ele>1525.4</ele><time>2026-04-07T14:58:44.999Z</time></trkpt><trkpt lat="45.91154703788158" lon="9.225696588066228"><ele>1523.0</ele><time>2026-04-07T14:58:46.999Z</time></trkpt><trkpt lat="45.911557633008584" lon="9.22558411027957"><ele>1523.0</ele><time>2026-04-07T14:58:47.999Z</time></trkpt><trkpt lat="45.91157179238367" lon="9.225442374238964"><ele>1523.0</ele><time>2026-04-07T14:58:48.999Z</time></trkpt><trkpt lat="45.911586326138895" lon="9.225272413555809"><ele>1523.0</ele><time>2026-04-07T14:58:50Z</time></trkpt><trkpt lat="45.911580207456936" lon="9.225105701724125"><ele>1523.0</ele><time>2026-04-07T14:58:51Z</time></trkpt><trkpt lat="45.91153831990865" lon="9.224969459493733"><ele>1523.0</ele><time>2026-04-07T14:58:52Z</time></trkpt><trkpt lat="45.91147621379297" lon="9.22481710683534"><ele>1526.0</ele><time>2026-04-07T14:58:53Z</time></trkpt><trkpt lat="45.91143437488724" lon="9.224672385584258"><ele>1529.0</ele><time>2026-04-07T14:58:54Z</time></trkpt><trkpt lat="45.911385061006335" lon="9.224570462421728"><ele>1532.0</ele><time>2026-04-07T14:58:55Z</time></trkpt><trkpt lat="45.91135263828173" lon="9.22448463585682"><ele>1535.0</ele><time>2026-04-07T14:58:56Z</time></trkpt><trkpt lat="45.911303127019046" lon="9.224389005405206"><ele>1537.9999999999998</ele><time>2026-04-07T14:58:57Z</time></trkpt><trkpt lat="45.9112591717581" lon="9.224267602525272"><ele>1541.0</ele><time>2026-04-07T14:58:58Z</time></trkpt><trkpt lat="45.91120351369939" lon="9.22412279718821"><ele>1540.9999999999998</ele><time>2026-04-07T14:58:59Z</time></trkpt><trkpt lat="45.91114574798305" lon="9.22398345310308"><ele>1541.0</ele><time>2026-04-07T14:59:00Z</time></trkpt><trkpt lat="45.91108970144415" lon="9.223878155584467"><ele>1541.0</ele><time>2026-04-07T14:59:01Z</time></trkpt><trkpt lat="45.91105167065972" lon="9.223804342179823"><ele>1541.0</ele><time>2026-04-07T14:59:02Z</time></trkpt><trkpt lat="45.91100533603027" lon="9.223685627169228"><ele>1540.9999999999998</ele><time>2026-04-07T14:59:04Z</time></trkpt><trkpt lat="45.91097539187855" lon="9.223591259703124"><ele>1541.0</ele><time>2026-04-07T14:59:06Z</time></trkpt><trkpt lat="45.91094914515308" lon="9.223497523460496"><ele>1543.6</ele><time>2026-04-07T14:59:08Z</time></trkpt><trkpt lat="45.910944465432614" lon="9.223369684951816"><ele>1546.1999999999998</ele><time>2026-04-07T14:59:10Z</time></trkpt><trkpt lat="45.91095332390076" lon="9.223217265246115"><ele>1548.8000000000002</ele><time>2026-04-07T14:59:12Z</time></trkpt><trkpt lat="45.910983563177695" lon="9.223032092720771"><ele>1551.4</ele><time>2026-04-07T14:59:14Z</time></trkpt><trkpt lat="45.911000591112334" lon="9.22293453539254"><ele>1554.0</ele><time>2026-04-07T14:59:15Z</time></trkpt><trkpt lat="45.91105073921897" lon="9.222784711038178"><ele>1554.0</ele><time>2026-04-07T14:59:17Z</time></trkpt><trkpt lat="45.911108265894704" lon="9.222648794375887"><ele>1554.0</ele><time>2026-04-07T14:59:19Z</time></trkpt><trkpt lat="45.91106896511255" lon="9.222442428044117"><ele>1554.0</ele><time>2026-04-07T14:59:21Z</time></trkpt><trkpt lat="45.9110212622528" lon="9.222295806067397"><ele>1554.0</ele><time>2026-04-07T14:59:22Z</time></trkpt><trkpt lat="45.910984023440385" lon="9.222142463128575"><ele>1555.5</ele><time>2026-04-07T14:59:23Z</time></trkpt><trkpt lat="45.910954352329696" lon="9.221986214527798"><ele>1557.0</ele><time>2026-04-07T14:59:24Z</time></trkpt><trkpt lat="45.91091881048714" lon="9.221827374976602"><ele>1558.5</ele><time>2026-04-07T14:59:25Z</time></trkpt><trkpt lat="45.91087121461736" lon="9.221650453943619"><ele>1560.0</ele><time>2026-04-07T14:59:26Z</time></trkpt><trkpt lat="45.91081452775636" lon="9.221459236364623"><ele>1552.8</ele><time>2026-04-07T14:59:27Z</time></trkpt><trkpt lat="45.91076955716808" lon="9.221298866749342"><ele>1545.6</ele><time>2026-04-07T14:59:28Z</time></trkpt><trkpt lat="45.91072257128533" lon="9.221190979910554"><ele>1538.4</ele><time>2026-04-07T14:59:29Z</time></trkpt><trkpt lat="45.91066522954935" lon="9.221090084323176"><ele>1531.2</ele><time>2026-04-07T14:59:30Z</time></trkpt><trkpt lat="45.91062119348363" lon="9.221002988519103"><ele>1524.0</ele><time>2026-04-07T14:59:31Z</time></trkpt><trkpt lat="45.910581976074205" lon="9.22089711143658"><ele>1524.0</ele><time>2026-04-07T14:59:32Z</time></trkpt><trkpt lat="45.910557292177195" lon="9.220798592260797"><ele>1524.0</ele><time>2026-04-07T14:59:33Z</time></trkpt><trkpt lat="45.910521256249005" lon="9.22066308368636"><ele>1524.0</ele><time>2026-04-07T14:59:35Z</time></trkpt><trkpt lat="45.910596303340604" lon="9.220534260640699"><ele>1524.0</ele><time>2026-04-07T14:59:38Z</time></trkpt><trkpt lat="45.91070263629698" lon="9.220443761236373"><ele>1524.0</ele><time>2026-04-07T14:59:40Z</time></trkpt><trkpt lat="45.91080114563285" lon="9.220362331673549"><ele>1522.2</ele><time>2026-04-07T14:59:42Z</time></trkpt><trkpt lat="45.910878894557385" lon="9.220266144691546"><ele>1520.4</ele><time>2026-04-07T14:59:44Z</time></trkpt><trkpt lat="45.91095091358042" lon="9.220145656320797"><ele>1518.6</ele><time>2026-04-07T14:59:46Z</time></trkpt><trkpt lat="45.911015781808295" lon="9.220040386114668"><ele>1516.8</ele><time>2026-04-07T14:59:48Z</time></trkpt><trkpt lat="45.911089520032824" lon="9.219952732189375"><ele>1515.0</ele><time>2026-04-07T14:59:50Z</time></trkpt><trkpt lat="45.9111623832592" lon="9.21985499074618"><ele>1520.1666666666667</ele><time>2026-04-07T14:59:52Z</time></trkpt><trkpt lat="45.91123063133293" lon="9.219843919563957"><ele>1525.3333333333335</ele><time>2026-04-07T14:59:54Z</time></trkpt><trkpt lat="45.9113030535524" lon="9.21984573596495"><ele>1530.5</ele><time>2026-04-07T14:59:57Z</time></trkpt><trkpt lat="45.91138175351581" lon="9.21987076649647"><ele>1535.6666666666667</ele><time>2026-04-07T14:59:59Z</time></trkpt><trkpt lat="45.911491506661285" lon="9.219877550573749"><ele>1540.8333333333335</ele><time>2026-04-07T15:00:02Z</time></trkpt><trkpt lat="45.91158748195392" lon="9.21986438873003"><ele>1546.0</ele><time>2026-04-07T15:00:04Z</time></trkpt><trkpt lat="45.91165980021185" lon="9.219855792436448"><ele>1547.0</ele><time>2026-04-07T15:00:06Z</time></trkpt><trkpt lat="45.91176771495341" lon="9.219789948292515"><ele>1548.0</ele><time>2026-04-07T15:00:07.999Z</time></trkpt><trkpt lat="45.91185835439621" lon="9.219781541737943"><ele>1549.0</ele><time>2026-04-07T15:00:09.999Z</time></trkpt><trkpt lat="45.911926837909235" lon="9.219731724789723"><ele>1550.0</ele><time>2026-04-07T15:00:11.999Z</time></trkpt><trkpt lat="45.91202289454166" lon="9.21968885868143"><ele>1551.0</ele><time>2026-04-07T15:00:13.999Z</time></trkpt><trkpt lat="45.91211550252302" lon="9.219646328689791"><ele>1551.0</ele><time>2026-04-07T15:00:15.999Z</time></trkpt><trkpt lat="45.91220435714128" lon="9.219598326218481"><ele>1551.0</ele><time>2026-04-07T15:00:17.999Z</time></trkpt><trkpt lat="45.912324807611355" lon="9.219545527481097"><ele>1551.0</ele><time>2026-04-07T15:00:19.999Z</time></trkpt><trkpt lat="45.91241894155175" lon="9.219489803255788"><ele>1551.0</ele><time>2026-04-07T15:00:21.999Z</time></trkpt><trkpt lat="45.91251153808338" lon="9.219422729498017"><ele>1551.0</ele><time>2026-04-07T15:00:23.999Z</time></trkpt><trkpt lat="45.912574176860744" lon="9.219396828403534"><ele>1554.6</ele><time>2026-04-07T15:00:24.999Z</time></trkpt><trkpt lat="45.912683452286245" lon="9.219344581669972"><ele>1558.1999999999998</ele><time>2026-04-07T15:00:26.999Z</time></trkpt><trkpt lat="45.912765505373606" lon="9.219223348145"><ele>1561.8000000000002</ele><time>2026-04-07T15:00:28.999Z</time></trkpt><trkpt lat="45.912844337309544" lon="9.219097093454259"><ele>1565.4</ele><time>2026-04-07T15:00:30.999Z</time></trkpt><trkpt lat="45.91287302391387" lon="9.218991904584938"><ele>1569.0</ele><time>2026-04-07T15:00:31.999Z</time></trkpt><trkpt lat="45.91292521322935" lon="9.21883116631963"><ele>1569.5</ele><time>2026-04-07T15:00:33.999Z</time></trkpt><trkpt lat="45.91298052995257" lon="9.218674657669194"><ele>1570.0</ele><time>2026-04-07T15:00:35.999Z</time></trkpt><trkpt lat="45.9130371050814" lon="9.218522565684305"><ele>1570.5</ele><time>2026-04-07T15:00:37.999Z</time></trkpt><trkpt lat="45.913113759495985" lon="9.218405867280657"><ele>1571.0</ele><time>2026-04-07T15:00:39.999Z</time></trkpt><trkpt lat="45.913179037332874" lon="9.218292558055289"><ele>1571.0</ele><time>2026-04-07T15:00:41.999Z</time></trkpt><trkpt lat="45.91326023876873" lon="9.218185569085051"><ele>1571.0</ele><time>2026-04-07T15:00:43.999Z</time></trkpt><trkpt lat="45.91336051019578" lon="9.218089144693304"><ele>1571.0</ele><time>2026-04-07T15:00:45.999Z</time></trkpt><trkpt lat="45.913415966237146" lon="9.218028378784508"><ele>1571.0</ele><time>2026-04-07T15:00:46.999Z</time></trkpt><trkpt lat="45.91348147753547" lon="9.217928238790764"><ele>1571.0</ele><time>2026-04-07T15:00:48.999Z</time></trkpt><trkpt lat="45.91355321286929" lon="9.2178235187909"><ele>1571.8</ele><time>2026-04-07T15:00:50.999Z</time></trkpt><trkpt lat="45.913610686544416" lon="9.217710052306185"><ele>1572.6</ele><time>2026-04-07T15:00:52.999Z</time></trkpt><trkpt lat="45.91365401236537" lon="9.217603595555945"><ele>1573.4</ele><time>2026-04-07T15:00:54.999Z</time></trkpt><trkpt lat="45.91368535317619" lon="9.217486175888862"><ele>1574.2</ele><time>2026-04-07T15:00:57Z</time></trkpt><trkpt lat="45.91371244308157" lon="9.217354149288791"><ele>1575.0</ele><time>2026-04-07T15:00:59Z</time></trkpt><trkpt lat="45.9137505408628" lon="9.217219769330129"><ele>1575.0</ele><time>2026-04-07T15:01:01Z</time></trkpt><trkpt lat="45.91378091420788" lon="9.217050571964727"><ele>1575.0</ele><time>2026-04-07T15:01:03Z</time></trkpt><trkpt lat="45.91382359796866" lon="9.216923255098527"><ele>1575.0</ele><time>2026-04-07T15:01:05Z</time></trkpt><trkpt lat="45.91386945424119" lon="9.2167699953992"><ele>1575.0</ele><time>2026-04-07T15:01:12Z</time></trkpt><trkpt lat="45.91389178520226" lon="9.2166745727983"><ele>1575.0</ele><time>2026-04-07T15:01:13Z</time></trkpt><trkpt lat="45.91390758470713" lon="9.216526782505209"><ele>1576.6</ele><time>2026-04-07T15:01:15Z</time></trkpt><trkpt lat="45.91391934314671" lon="9.216376944506486"><ele>1578.2</ele><time>2026-04-07T15:01:17Z</time></trkpt><trkpt lat="45.91392871955332" lon="9.216236141625412"><ele>1579.8000000000002</ele><time>2026-04-07T15:01:19Z</time></trkpt><trkpt lat="45.913931486771276" lon="9.216116655687605"><ele>1581.4</ele><time>2026-04-07T15:01:21Z</time></trkpt><trkpt lat="45.913949951561804" lon="9.216008772254243"><ele>1583.0</ele><time>2026-04-07T15:01:24Z</time></trkpt><trkpt lat="45.91399191251281" lon="9.215900730652704"><ele>1582.9999999999998</ele><time>2026-04-07T15:01:26Z</time></trkpt><trkpt lat="45.91405983860297" lon="9.215751895713428"><ele>1583.0</ele><time>2026-04-07T15:01:28Z</time></trkpt><trkpt lat="45.91409974741419" lon="9.215675925356328"><ele>1583.0</ele><time>2026-04-07T15:01:29Z</time></trkpt><trkpt lat="45.91414695644266" lon="9.215591899561364"><ele>1583.0</ele><time>2026-04-07T15:01:30Z</time></trkpt><trkpt lat="45.91419502266996" lon="9.215495035305844"><ele>1582.9999999999998</ele><time>2026-04-07T15:01:31Z</time></trkpt><trkpt lat="45.91425122599662" lon="9.215388018709032"><ele>1583.0</ele><time>2026-04-07T15:01:32Z</time></trkpt><trkpt lat="45.914300643612805" lon="9.215258516861125"><ele>1582.4999999999998</ele><time>2026-04-07T15:01:33Z</time></trkpt><trkpt lat="45.91433492970134" lon="9.215148411110569"><ele>1582.0</ele><time>2026-04-07T15:01:34Z</time></trkpt><trkpt lat="45.9143821891956" lon="9.215048338729773"><ele>1581.5</ele><time>2026-04-07T15:01:35Z</time></trkpt><trkpt lat="45.914422985413346" lon="9.214941137297467"><ele>1581.0</ele><time>2026-04-07T15:01:36Z</time></trkpt><trkpt lat="45.91446229552356" lon="9.214805349919693"><ele>1580.4999999999998</ele><time>2026-04-07T15:01:37Z</time></trkpt><trkpt lat="45.914493597686416" lon="9.214679737922499"><ele>1580.0</ele><time>2026-04-07T15:01:38Z</time></trkpt><trkpt lat="45.91450532717465" lon="9.214566494062094"><ele>1579.9999999999998</ele><time>2026-04-07T15:01:39Z</time></trkpt><trkpt lat="45.91451536275206" lon="9.214455558712922"><ele>1580.0</ele><time>2026-04-07T15:01:40Z</time></trkpt><trkpt lat="45.914533111551016" lon="9.21435422176098"><ele>1580.0</ele><time>2026-04-07T15:01:41Z</time></trkpt><trkpt lat="45.91456212191039" lon="9.214266419119141"><ele>1580.0</ele><time>2026-04-07T15:01:42Z</time></trkpt><trkpt lat="45.91459352600394" lon="9.21418273824326"><ele>1579.9999999999998</ele><time>2026-04-07T15:01:43Z</time></trkpt><trkpt lat="45.914678008654654" lon="9.214011012824797"><ele>1580.0</ele><time>2026-04-07T15:01:45Z</time></trkpt><trkpt lat="45.914715421786234" lon="9.213908515173499"><ele>1598.0</ele><time>2026-04-07T15:01:46Z</time></trkpt><trkpt lat="45.9147368689348" lon="9.213818219412545"><ele>1598.0</ele><time>2026-04-07T15:01:47Z</time></trkpt><trkpt lat="45.91476231237354" lon="9.213662078965557"><ele>1598.0</ele><time>2026-04-07T15:01:49Z</time></trkpt><trkpt lat="45.91478424059846" lon="9.213546425992572"><ele>1598.0</ele><time>2026-04-07T15:01:51Z</time></trkpt></trkseg><trkseg><trkpt lat="45.910873906729655" lon="9.241528864958548"><ele>1345.6</ele><time>2026-04-07T15:40:48Z</time></trkpt><trkpt lat="45.91090624227255" lon="9.241373972305562"><ele>1344.1999999999998</ele><time>2026-04-07T15:41:16Z</time></trkpt><trkpt lat="45.910912856541096" lon="9.241244377933274"><ele>1342.8</ele><time>2026-04-07T15:41:17Z</time></trkpt><trkpt lat="45.91092299002049" lon="9.241108344467943"><ele>1341.4</ele><time>2026-04-07T15:41:18Z</time></trkpt><trkpt lat="45.91093051769813" lon="9.24098386674555"><ele>1340.0</ele><time>2026-04-07T15:41:19Z</time></trkpt><trkpt lat="45.9109323698325" lon="9.240863673017127"><ele>1341.8333333333335</ele><time>2026-04-07T15:41:20Z</time></trkpt><trkpt lat="45.91092060672185" lon="9.240741208828547"><ele>1343.6666666666667</ele><time>2026-04-07T15:41:21Z</time></trkpt><trkpt lat="45.91091044233518" lon="9.240631280097423"><ele>1345.5</ele><time>2026-04-07T15:41:22Z</time></trkpt><trkpt lat="45.91090219507835" lon="9.240523498515929"><ele>1347.3333333333333</ele><time>2026-04-07T15:41:23Z</time></trkpt><trkpt lat="45.9108931493754" lon="9.240416870683182"><ele>1349.1666666666665</ele><time>2026-04-07T15:41:24Z</time></trkpt><trkpt lat="45.91089377952388" lon="9.240321292890492"><ele>1351.0</ele><time>2026-04-07T15:41:25Z</time></trkpt><trkpt lat="45.910897723067464" lon="9.240220481856127"><ele>1351.0</ele><time>2026-04-07T15:41:26Z</time></trkpt><trkpt lat="45.910910324798195" lon="9.240115851917329"><ele>1351.0</ele><time>2026-04-07T15:41:27Z</time></trkpt><trkpt lat="45.9109573452054" lon="9.239909189256673"><ele>1351.0</ele><time>2026-04-07T15:41:29Z</time></trkpt><trkpt lat="45.91099312432622" lon="9.239825834258223"><ele>1351.0</ele><time>2026-04-07T15:41:30Z</time></trkpt><trkpt lat="45.91106209730298" lon="9.239723493136248"><ele>1351.0</ele><time>2026-04-07T15:41:32Z</time></trkpt><trkpt lat="45.911002730680806" lon="9.23964880076082"><ele>1346.1999999999998</ele><time>2026-04-07T15:41:35Z</time></trkpt><trkpt lat="45.91088766369454" lon="9.239772869058289"><ele>1341.3999999999999</ele><time>2026-04-07T15:41:36.999Z</time></trkpt><trkpt lat="45.91082361321" lon="9.239882872156885"><ele>1336.6</ele><time>2026-04-07T15:41:37.999Z</time></trkpt><trkpt lat="45.91076148688036" lon="9.239978102923095"><ele>1331.8</ele><time>2026-04-07T15:41:38.999Z</time></trkpt><trkpt lat="45.91070095791018" lon="9.240080638879322"><ele>1327.0</ele><time>2026-04-07T15:41:39.999Z</time></trkpt><trkpt lat="45.91065819037426" lon="9.240190734499745"><ele>1327.0</ele><time>2026-04-07T15:41:40.999Z</time></trkpt><trkpt lat="45.910617664861185" lon="9.240289002581488"><ele>1327.0</ele><time>2026-04-07T15:41:41.999Z</time></trkpt><trkpt lat="45.91057524626501" lon="9.240387264550646"><ele>1327.0</ele><time>2026-04-07T15:41:42.999Z</time></trkpt><trkpt lat="45.91051542654645" lon="9.24049895925052"><ele>1327.0</ele><time>2026-04-07T15:41:43.999Z</time></trkpt><trkpt lat="45.91045367582143" lon="9.240620620100286"><ele>1327.0</ele><time>2026-04-07T15:41:44.999Z</time></trkpt><trkpt lat="45.91039821262263" lon="9.240736738696096"><ele>1329.1666666666665</ele><time>2026-04-07T15:41:45.999Z</time></trkpt><trkpt lat="45.910356730125876" lon="9.24085040125079"><ele>1331.3333333333333</ele><time>2026-04-07T15:41:46.999Z</time></trkpt><trkpt lat="45.91032155457389" lon="9.240968856451135"><ele>1333.5</ele><time>2026-04-07T15:41:47.999Z</time></trkpt><trkpt lat="45.91027915156937" lon="9.241085375703623"><ele>1335.6666666666667</ele><time>2026-04-07T15:41:48.999Z</time></trkpt><trkpt lat="45.910242159026055" lon="9.241201103829981"><ele>1337.8333333333335</ele><time>2026-04-07T15:41:49.999Z</time></trkpt><trkpt lat="45.91020435174341" lon="9.241307279947936"><ele>1340.0</ele><time>2026-04-07T15:41:50.999Z</time></trkpt><trkpt lat="45.91012611281689" lon="9.241475416054977"><ele>1341.4</ele><time>2026-04-07T15:41:52.999Z</time></trkpt><trkpt lat="45.910081261842535" lon="9.241561461810276"><ele>1342.8</ele><time>2026-04-07T15:41:53.999Z</time></trkpt><trkpt lat="45.91002978897489" lon="9.241652269524886"><ele>1344.1999999999998</ele><time>2026-04-07T15:41:54.999Z</time></trkpt><trkpt lat="45.909978303063625" lon="9.241745389080807"><ele>1345.6</ele><time>2026-04-07T15:41:55.999Z</time></trkpt><trkpt lat="45.90991844722561" lon="9.241877720834157"><ele>1347.0</ele><time>2026-04-07T15:41:57.999Z</time></trkpt><trkpt lat="45.90985485078833" lon="9.242025057321557"><ele>1337.0</ele><time>2026-04-07T15:41:59.999Z</time></trkpt><trkpt lat="45.909841252156134" lon="9.242132214303268"><ele>1327.0</ele><time>2026-04-07T15:42:00.999Z</time></trkpt><trkpt lat="45.90983941153699" lon="9.242352656296303"><ele>1317.0</ele><time>2026-04-07T15:42:02.999Z</time></trkpt><trkpt lat="45.90984271351246" lon="9.242490084762048"><ele>1307.0</ele><time>2026-04-07T15:42:03.999Z</time></trkpt><trkpt lat="45.909857714292706" lon="9.242616825707163"><ele>1297.0</ele><time>2026-04-07T15:42:04.999Z</time></trkpt><trkpt lat="45.90987257966864" lon="9.242725595881307"><ele>1297.0</ele><time>2026-04-07T15:42:05.999Z</time></trkpt><trkpt lat="45.90989771439589" lon="9.242834735235261"><ele>1297.0</ele><time>2026-04-07T15:42:06.999Z</time></trkpt><trkpt lat="45.90991868670831" lon="9.242992312090847"><ele>1297.0</ele><time>2026-04-07T15:42:08.999Z</time></trkpt><trkpt lat="45.90994752646635" lon="9.243127802934698"><ele>1297.0</ele><time>2026-04-07T15:42:10.999Z</time></trkpt><trkpt lat="45.90997682739777" lon="9.243261710107472"><ele>1297.0</ele><time>2026-04-07T15:42:11.999Z</time></trkpt><trkpt lat="45.90999578335755" lon="9.243367639377734"><ele>1295.1999999999998</ele><time>2026-04-07T15:42:12.999Z</time></trkpt><trkpt lat="45.910008532677594" lon="9.2435568155957"><ele>1293.4</ele><time>2026-04-07T15:42:14.999Z</time></trkpt><trkpt lat="45.91005105145832" lon="9.243687187774661"><ele>1291.6</ele><time>2026-04-07T15:42:16.999Z</time></trkpt><trkpt lat="45.91005320383068" lon="9.243803342037394"><ele>1289.8000000000002</ele><time>2026-04-07T15:42:18.999Z</time></trkpt><trkpt lat="45.9100591928865" lon="9.243921610795676"><ele>1288.0</ele><time>2026-04-07T15:42:51Z</time></trkpt><trkpt lat="45.910106228079314" lon="9.244017350253289"><ele>1292.4</ele><time>2026-04-07T15:42:57Z</time></trkpt><trkpt lat="45.91010517152145" lon="9.244134636623594"><ele>1296.8000000000002</ele><time>2026-04-07T15:43:02Z</time></trkpt><trkpt lat="45.91011546086487" lon="9.24423868683967"><ele>1301.2</ele><time>2026-04-07T15:43:04Z</time></trkpt><trkpt lat="45.9101356094303" lon="9.244325730408047"><ele>1305.6</ele><time>2026-04-07T15:43:05Z</time></trkpt><trkpt lat="45.910159031575944" lon="9.244508285680311"><ele>1310.0</ele><time>2026-04-07T15:43:07Z</time></trkpt><trkpt lat="45.910160532310904" lon="9.244655371875673"><ele>1310.0</ele><time>2026-04-07T15:43:09Z</time></trkpt><trkpt lat="45.9101791138482" lon="9.244794513481045"><ele>1310.0</ele><time>2026-04-07T15:43:11Z</time></trkpt><trkpt lat="45.91016539270408" lon="9.24492563944323"><ele>1310.0</ele><time>2026-04-07T15:43:14Z</time></trkpt><trkpt lat="45.91015619406697" lon="9.245024843342641"><ele>1310.0</ele><time>2026-04-07T15:43:16Z</time></trkpt><trkpt lat="45.91015303477063" lon="9.245129471029975"><ele>1310.0</ele><time>2026-04-07T15:43:18Z</time></trkpt><trkpt lat="45.910146939185275" lon="9.24523545223943"><ele>1310.0</ele><time>2026-04-07T15:43:20Z</time></trkpt><trkpt lat="45.9101379465478" lon="9.245347530881894"><ele>1307.2</ele><time>2026-04-07T15:43:22Z</time></trkpt><trkpt lat="45.9101482055839" lon="9.245487221844032"><ele>1304.4</ele><time>2026-04-07T15:43:24Z</time></trkpt><trkpt lat="45.91012997947301" lon="9.245574572368357"><ele>1301.6</ele><time>2026-04-07T15:43:25Z</time></trkpt><trkpt lat="45.9101081996771" lon="9.245711375165007"><ele>1298.8</ele><time>2026-04-07T15:43:27Z</time></trkpt><trkpt lat="45.91005628554972" lon="9.245844387917108"><ele>1296.0</ele><time>2026-04-07T15:43:29Z</time></trkpt><trkpt lat="45.909942375117794" lon="9.24595990028419"><ele>1290.0</ele><time>2026-04-07T15:43:31Z</time></trkpt><trkpt lat="45.90987237994016" lon="9.245986000114328"><ele>1284.0</ele><time>2026-04-07T15:43:32Z</time></trkpt><trkpt lat="45.90979497960987" lon="9.246020210271613"><ele>1278.0</ele><time>2026-04-07T15:43:33Z</time></trkpt><trkpt lat="45.90970926626651" lon="9.24608694318567"><ele>1272.0</ele><time>2026-04-07T15:43:34Z</time></trkpt><trkpt lat="45.909623036785256" lon="9.246153556796287"><ele>1266.0</ele><time>2026-04-07T15:43:35Z</time></trkpt><trkpt lat="45.909566488319456" lon="9.246225535890755"><ele>1260.0</ele><time>2026-04-07T15:43:36Z</time></trkpt><trkpt lat="45.90947914706827" lon="9.246319763237183"><ele>1260.0</ele><time>2026-04-07T15:43:38Z</time></trkpt><trkpt lat="45.90941764021823" lon="9.246346238790775"><ele>1260.0</ele><time>2026-04-07T15:43:39Z</time></trkpt><trkpt lat="45.90931462639149" lon="9.246387684267766"><ele>1260.0</ele><time>2026-04-07T15:43:41Z</time></trkpt><trkpt lat="45.90920537358277" lon="9.246385599165247"><ele>1260.0</ele><time>2026-04-07T15:43:43Z</time></trkpt><trkpt lat="45.909097338647165" lon="9.246361505568348"><ele>1260.0</ele><time>2026-04-07T15:43:45Z</time></trkpt><trkpt lat="45.909031842702575" lon="9.246350861429034"><ele>1257.1666666666667</ele><time>2026-04-07T15:43:47Z</time></trkpt><trkpt lat="45.90896258720327" lon="9.246353659713497"><ele>1254.3333333333333</ele><time>2026-04-07T15:43:49Z</time></trkpt><trkpt lat="45.90888287508451" lon="9.246388431457964"><ele>1251.5</ele><time>2026-04-07T15:43:51Z</time></trkpt><trkpt lat="45.90881061817679" lon="9.246458780192633"><ele>1248.6666666666665</ele><time>2026-04-07T15:43:53Z</time></trkpt><trkpt lat="45.908706209944114" lon="9.246529443994174"><ele>1245.8333333333333</ele><time>2026-04-07T15:43:54.999Z</time></trkpt><trkpt lat="45.90861459752548" lon="9.246542113220732"><ele>1243.0</ele><time>2026-04-07T15:43:56.999Z</time></trkpt><trkpt lat="45.90850111469026" lon="9.246588734234791"><ele>1243.0</ele><time>2026-04-07T15:43:58.999Z</time></trkpt><trkpt lat="45.908433381411506" lon="9.246614363732384"><ele>1243.0</ele><time>2026-04-07T15:43:59.999Z</time></trkpt><trkpt lat="45.90836070374288" lon="9.24659343672269"><ele>1243.0</ele><time>2026-04-07T15:44:01.999Z</time></trkpt><trkpt lat="45.90828992519213" lon="9.246490268182727"><ele>1243.0</ele><time>2026-04-07T15:44:03.999Z</time></trkpt><trkpt lat="45.90818993972402" lon="9.246396545571251"><ele>1243.0</ele><time>2026-04-07T15:44:05.999Z</time></trkpt><trkpt lat="45.90812202715711" lon="9.246382457290633"><ele>1243.0</ele><time>2026-04-07T15:44:06.999Z</time></trkpt><trkpt lat="45.90803805902662" lon="9.246406744945304"><ele>1242.4</ele><time>2026-04-07T15:44:07.999Z</time></trkpt><trkpt lat="45.90794240183082" lon="9.246435602581947"><ele>1241.8</ele><time>2026-04-07T15:44:08.999Z</time></trkpt><trkpt lat="45.90784450884656" lon="9.246477369592828"><ele>1241.2</ele><time>2026-04-07T15:44:09.999Z</time></trkpt><trkpt lat="45.907746221165574" lon="9.246507990283698"><ele>1240.6</ele><time>2026-04-07T15:44:10.999Z</time></trkpt><trkpt lat="45.907664499709156" lon="9.246557998676325"><ele>1240.0</ele><time>2026-04-07T15:44:11.999Z</time></trkpt><trkpt lat="45.90756529889167" lon="9.246610463059309"><ele>1241.2</ele><time>2026-04-07T15:44:12.999Z</time></trkpt><trkpt lat="45.9074536273424" lon="9.246625466508323"><ele>1242.4</ele><time>2026-04-07T15:44:13.999Z</time></trkpt><trkpt lat="45.90730861632045" lon="9.24664330627588"><ele>1243.6</ele><time>2026-04-07T15:44:14.999Z</time></trkpt><trkpt lat="45.90722249149751" lon="9.24664003172625"><ele>1244.8</ele><time>2026-04-07T15:44:15.999Z</time></trkpt><trkpt lat="45.90714759386855" lon="9.24665497237269"><ele>1246.0</ele><time>2026-04-07T15:44:16.999Z</time></trkpt><trkpt lat="45.90705731909578" lon="9.246709675182242"><ele>1246.0</ele><time>2026-04-07T15:44:17.999Z</time></trkpt><trkpt lat="45.90694296500029" lon="9.246750685851396"><ele>1246.0</ele><time>2026-04-07T15:44:18.999Z</time></trkpt><trkpt lat="45.90683273725463" lon="9.246784546551103"><ele>1246.0</ele><time>2026-04-07T15:44:19.999Z</time></trkpt><trkpt lat="45.906712840854105" lon="9.246806101822868"><ele>1246.0</ele><time>2026-04-07T15:44:20.999Z</time></trkpt><trkpt lat="45.90661397233968" lon="9.246826846812938"><ele>1247.0</ele><time>2026-04-07T15:44:21.999Z</time></trkpt><trkpt lat="45.906533470298456" lon="9.246841685435289"><ele>1248.0</ele><time>2026-04-07T15:44:22.999Z</time></trkpt><trkpt lat="45.90645863672837" lon="9.246863319168948"><ele>1249.0</ele><time>2026-04-07T15:44:23.999Z</time></trkpt><trkpt lat="45.906395699909446" lon="9.246857821241244"><ele>1250.0</ele><time>2026-04-07T15:44:24.999Z</time></trkpt><trkpt lat="45.906324688223044" lon="9.246832683272544"><ele>1251.0</ele><time>2026-04-07T15:44:25.999Z</time></trkpt><trkpt lat="45.906242685299084" lon="9.246792003336541"><ele>1252.0</ele><time>2026-04-07T15:44:26.999Z</time></trkpt><trkpt lat="45.906171824463314" lon="9.246757374804996"><ele>1252.0</ele><time>2026-04-07T15:44:27.999Z</time></trkpt><trkpt lat="45.90610550520249" lon="9.246755638200412"><ele>1252.0</ele><time>2026-04-07T15:44:28.999Z</time></trkpt><trkpt lat="45.90603060208491" lon="9.246797033110724"><ele>1252.0</ele><time>2026-04-07T15:44:29.999Z</time></trkpt><trkpt lat="45.90594652660651" lon="9.246890631179328"><ele>1252.0</ele><time>2026-04-07T15:44:30.999Z</time></trkpt><trkpt lat="45.905829363513526" lon="9.246973076748207"><ele>1252.0</ele><time>2026-04-07T15:44:31.999Z</time></trkpt><trkpt lat="45.90573247584003" lon="9.247021080874093"><ele>1252.0</ele><time>2026-04-07T15:44:32.999Z</time></trkpt><trkpt lat="45.90563675230568" lon="9.24704496300708"><ele>1252.0</ele><time>2026-04-07T15:44:33.999Z</time></trkpt><trkpt lat="45.90552820839213" lon="9.246990658429644"><ele>1252.0</ele><time>2026-04-07T15:44:35.999Z</time></trkpt><trkpt lat="45.90546289444412" lon="9.246899518623984"><ele>1252.0</ele><time>2026-04-07T15:44:36.999Z</time></trkpt><trkpt lat="45.90538813936507" lon="9.246799712103618"><ele>1252.0</ele><time>2026-04-07T15:44:37.999Z</time></trkpt><trkpt lat="45.90525536525282" lon="9.246685650377211"><ele>1252.0</ele><time>2026-04-07T15:44:38.999Z</time></trkpt><trkpt lat="45.90515491472451" lon="9.246591447994382"><ele>1252.0</ele><time>2026-04-07T15:44:39.999Z</time></trkpt><trkpt lat="45.90505306844723" lon="9.246520461859454"><ele>1252.0</ele><time>2026-04-07T15:44:40.999Z</time></trkpt><trkpt lat="45.90496707189704" lon="9.246484745527244"><ele>1252.0</ele><time>2026-04-07T15:44:41.999Z</time></trkpt><trkpt lat="45.904884481087585" lon="9.246492810235516"><ele>1252.0</ele><time>2026-04-07T15:44:42.999Z</time></trkpt><trkpt lat="45.904754971175215" lon="9.246548646068312"><ele>1252.8</ele><time>2026-04-07T15:44:44.999Z</time></trkpt><trkpt lat="45.90468575651826" lon="9.246595831688266"><ele>1253.6</ele><time>2026-04-07T15:44:45.999Z</time></trkpt><trkpt lat="45.90462051073246" lon="9.246686059835582"><ele>1254.3999999999999</ele><time>2026-04-07T15:44:46.999Z</time></trkpt><trkpt lat="45.90454296915565" lon="9.246758479858869"><ele>1255.2</ele><time>2026-04-07T15:44:47.999Z</time></trkpt><trkpt lat="45.904426220321405" lon="9.246809668204348"><ele>1256.0</ele><time>2026-04-07T15:44:48.999Z</time></trkpt><trkpt lat="45.90427767624567" lon="9.246833927042557"><ele>1255.8</ele><time>2026-04-07T15:44:49.999Z</time></trkpt><trkpt lat="45.9041595762102" lon="9.246834623782402"><ele>1255.6</ele><time>2026-04-07T15:44:50.999Z</time></trkpt><trkpt lat="45.904057433733605" lon="9.246853815293386"><ele>1255.4</ele><time>2026-04-07T15:44:51.999Z</time></trkpt><trkpt lat="45.90394523931681" lon="9.246900880578757"><ele>1255.2</ele><time>2026-04-07T15:44:52.999Z</time></trkpt><trkpt lat="45.90385040047639" lon="9.24694420041388"><ele>1255.0</ele><time>2026-04-07T15:44:53.999Z</time></trkpt><trkpt lat="45.90379711048919" lon="9.246996224092284"><ele>1255.0</ele><time>2026-04-07T15:44:54.999Z</time></trkpt><trkpt lat="45.90369966009539" lon="9.247148379952662"><ele>1255.0</ele><time>2026-04-07T15:44:57Z</time></trkpt><trkpt lat="45.903637819248566" lon="9.247286829796618"><ele>1255.0</ele><time>2026-04-07T15:44:58Z</time></trkpt><trkpt lat="45.90354338730203" lon="9.247430725901832"><ele>1255.0</ele><time>2026-04-07T15:44:59Z</time></trkpt><trkpt lat="45.903435360904375" lon="9.247550419241467"><ele>1255.0</ele><time>2026-04-07T15:45:00Z</time></trkpt><trkpt lat="45.90332567928032" lon="9.247645785623199"><ele>1255.0</ele><time>2026-04-07T15:45:01Z</time></trkpt><trkpt lat="45.90322237609946" lon="9.247760431477577"><ele>1255.0</ele><time>2026-04-07T15:45:02Z</time></trkpt><trkpt lat="45.90313709341559" lon="9.247870379094996"><ele>1255.0</ele><time>2026-04-07T15:45:03Z</time></trkpt><trkpt lat="45.903038798210325" lon="9.247960844287396"><ele>1255.0</ele><time>2026-04-07T15:45:04Z</time></trkpt><trkpt lat="45.90294293606304" lon="9.24804141859819"><ele>1255.0</ele><time>2026-04-07T15:45:05Z</time></trkpt><trkpt lat="45.90281799756634" lon="9.24807995324304"><ele>1255.0</ele><time>2026-04-07T15:45:06Z</time></trkpt><trkpt lat="45.90264394510168" lon="9.248098600008523"><ele>1255.0</ele><time>2026-04-07T15:45:07Z</time></trkpt><trkpt lat="45.90248829205953" lon="9.248170591580308"><ele>1257.6666666666665</ele><time>2026-04-07T15:45:08Z</time></trkpt><trkpt lat="45.9023142563854" lon="9.248258336558274"><ele>1260.3333333333333</ele><time>2026-04-07T15:45:09Z</time></trkpt><trkpt lat="45.90213571014099" lon="9.248337860184687"><ele>1263.0</ele><time>2026-04-07T15:45:10Z</time></trkpt><trkpt lat="45.90199834684283" lon="9.248422720430558"><ele>1263.0</ele><time>2026-04-07T15:45:11Z</time></trkpt><trkpt lat="45.901885379222634" lon="9.24847898295584"><ele>1263.0</ele><time>2026-04-07T15:45:12Z</time></trkpt><trkpt lat="45.901768565354566" lon="9.248514968258005"><ele>1263.0</ele><time>2026-04-07T15:45:13Z</time></trkpt><trkpt lat="45.90164185456175" lon="9.248542340471289"><ele>1263.0</ele><time>2026-04-07T15:45:14Z</time></trkpt><trkpt lat="45.901549201235234" lon="9.248517339585987"><ele>1261.6666666666667</ele><time>2026-04-07T15:45:15Z</time></trkpt><trkpt lat="45.9014599123959" lon="9.248524393408747"><ele>1260.3333333333333</ele><time>2026-04-07T15:45:16Z</time></trkpt><trkpt lat="45.90138484404102" lon="9.248496026339323"><ele>1259.0</ele><time>2026-04-07T15:45:17Z</time></trkpt><trkpt lat="45.90129607439018" lon="9.248430590881533"><ele>1257.6666666666665</ele><time>2026-04-07T15:45:18Z</time></trkpt><trkpt lat="45.901220615352884" lon="9.248343143527999"><ele>1256.3333333333333</ele><time>2026-04-07T15:45:19Z</time></trkpt><trkpt lat="45.901167970079854" lon="9.248273377992351"><ele>1255.0</ele><time>2026-04-07T15:45:20Z</time></trkpt><trkpt lat="45.901124466471146" lon="9.248187365460295"><ele>1253.5</ele><time>2026-04-07T15:45:21Z</time></trkpt><trkpt lat="45.9010710908466" lon="9.248043234458851"><ele>1252.0</ele><time>2026-04-07T15:45:23Z</time></trkpt><trkpt lat="45.90103588810122" lon="9.247937214261555"><ele>1250.5</ele><time>2026-04-07T15:45:25Z</time></trkpt><trkpt lat="45.90099473837525" lon="9.247857025858037"><ele>1249.0</ele><time>2026-04-07T15:45:27Z</time></trkpt><trkpt lat="45.90094413181656" lon="9.247769394000986"><ele>1247.5</ele><time>2026-04-07T15:45:29Z</time></trkpt><trkpt lat="45.90089736830365" lon="9.247641660163467"><ele>1246.0</ele><time>2026-04-07T15:45:31Z</time></trkpt><trkpt lat="45.900848387464" lon="9.24755589793752"><ele>1246.0</ele><time>2026-04-07T15:45:32Z</time></trkpt><trkpt lat="45.9007951402359" lon="9.24744773923117"><ele>1246.0</ele><time>2026-04-07T15:45:33Z</time></trkpt><trkpt lat="45.90074851011529" lon="9.247318963075069"><ele>1246.0</ele><time>2026-04-07T15:45:34Z</time></trkpt><trkpt lat="45.900711474105954" lon="9.247201727341167"><ele>1246.0</ele><time>2026-04-07T15:45:35Z</time></trkpt><trkpt lat="45.90065109925517" lon="9.247131124749048"><ele>1246.0</ele><time>2026-04-07T15:45:36Z</time></trkpt><trkpt lat="45.90053575264613" lon="9.246984087960731"><ele>1241.5</ele><time>2026-04-07T15:45:37Z</time></trkpt><trkpt lat="45.90041940901777" lon="9.24685626578529"><ele>1237.0</ele><time>2026-04-07T15:45:38Z</time></trkpt><trkpt lat="45.90034207494821" lon="9.2467427011871"><ele>1232.5</ele><time>2026-04-07T15:45:39Z</time></trkpt><trkpt lat="45.900291406211885" lon="9.246628235151585"><ele>1228.0</ele><time>2026-04-07T15:45:40Z</time></trkpt><trkpt lat="45.90021272584506" lon="9.246491369364028"><ele>1229.3333333333333</ele><time>2026-04-07T15:45:41Z</time></trkpt><trkpt lat="45.90016653548065" lon="9.24637988260148"><ele>1230.6666666666665</ele><time>2026-04-07T15:45:42Z</time></trkpt><trkpt lat="45.90013799281893" lon="9.246269600346215"><ele>1232.0</ele><time>2026-04-07T15:45:43Z</time></trkpt><trkpt lat="45.900093249497196" lon="9.246160032025251"><ele>1233.3333333333333</ele><time>2026-04-07T15:45:44Z</time></trkpt><trkpt lat="45.90004207616326" lon="9.246060272647425"><ele>1234.6666666666667</ele><time>2026-04-07T15:45:45Z</time></trkpt><trkpt lat="45.8999779412168" lon="9.245969497609215"><ele>1236.0</ele><time>2026-04-07T15:45:46Z</time></trkpt><trkpt lat="45.899913247082395" lon="9.2458766536392"><ele>1236.0</ele><time>2026-04-07T15:45:47Z</time></trkpt><trkpt lat="45.89984734102668" lon="9.245794800032687"><ele>1236.0</ele><time>2026-04-07T15:45:48Z</time></trkpt><trkpt lat="45.89977014585541" lon="9.245713598658105"><ele>1236.0</ele><time>2026-04-07T15:45:49Z</time></trkpt><trkpt lat="45.89968382072677" lon="9.245691580352332"><ele>1236.0</ele><time>2026-04-07T15:45:50Z</time></trkpt><trkpt lat="45.89958318670528" lon="9.245647127886947"><ele>1236.0</ele><time>2026-04-07T15:45:51Z</time></trkpt><trkpt lat="45.89948522981729" lon="9.24560959994881"><ele>1234.8333333333333</ele><time>2026-04-07T15:45:52Z</time></trkpt><trkpt lat="45.899410447464504" lon="9.245590687500464"><ele>1233.6666666666667</ele><time>2026-04-07T15:45:53Z</time></trkpt><trkpt lat="45.89935925960594" lon="9.245521080399236"><ele>1232.5</ele><time>2026-04-07T15:45:54Z</time></trkpt><trkpt lat="45.89931010870655" lon="9.245462880873985"><ele>1231.3333333333335</ele><time>2026-04-07T15:45:55Z</time></trkpt><trkpt lat="45.89924042936097" lon="9.245349724546669"><ele>1230.1666666666667</ele><time>2026-04-07T15:45:56Z</time></trkpt><trkpt lat="45.89921119843336" lon="9.245232697783692"><ele>1229.0</ele><time>2026-04-07T15:45:57Z</time></trkpt><trkpt lat="45.8991744079727" lon="9.245139335821788"><ele>1229.0</ele><time>2026-04-07T15:45:58Z</time></trkpt><trkpt lat="45.899140538992334" lon="9.245036758431148"><ele>1229.0</ele><time>2026-04-07T15:46:00Z</time></trkpt><trkpt lat="45.89907002312945" lon="9.244873246283865"><ele>1229.0</ele><time>2026-04-07T15:46:02Z</time></trkpt><trkpt lat="45.89903769854368" lon="9.24473302961093"><ele>1229.0</ele><time>2026-04-07T15:46:02.999Z</time></trkpt><trkpt lat="45.89902022560109" lon="9.24459466865118"><ele>1229.0</ele><time>2026-04-07T15:46:03.999Z</time></trkpt><trkpt lat="45.898985946052036" lon="9.244466662595942"><ele>1230.3333333333335</ele><time>2026-04-07T15:46:04.999Z</time></trkpt><trkpt lat="45.898951218545754" lon="9.244345781251551"><ele>1231.6666666666667</ele><time>2026-04-07T15:46:05.999Z</time></trkpt><trkpt lat="45.898919974952754" lon="9.244243213702173"><ele>1233.0</ele><time>2026-04-07T15:46:06.999Z</time></trkpt><trkpt lat="45.898891106203685" lon="9.244146869138504"><ele>1234.3333333333333</ele><time>2026-04-07T15:46:07.999Z</time></trkpt><trkpt lat="45.89885336687183" lon="9.244034737777676"><ele>1235.6666666666665</ele><time>2026-04-07T15:46:08.999Z</time></trkpt><trkpt lat="45.89877102145402" lon="9.244027306442261"><ele>1237.0</ele><time>2026-04-07T15:46:09.999Z</time></trkpt><trkpt lat="45.89868295762328" lon="9.24390588784874"><ele>1234.5</ele><time>2026-04-07T15:46:10.999Z</time></trkpt><trkpt lat="45.89859060551961" lon="9.24374552986715"><ele>1232.0</ele><time>2026-04-07T15:46:11.999Z</time></trkpt><trkpt lat="45.89849153588763" lon="9.243622835548335"><ele>1229.5</ele><time>2026-04-07T15:46:12.999Z</time></trkpt><trkpt lat="45.898421846317575" lon="9.243503275453843"><ele>1227.0</ele><time>2026-04-07T15:46:13.999Z</time></trkpt><trkpt lat="45.89836025375775" lon="9.243387364146384"><ele>1227.0</ele><time>2026-04-07T15:46:14.999Z</time></trkpt><trkpt lat="45.898305662091275" lon="9.243213087977106"><ele>1227.0</ele><time>2026-04-07T15:46:16.999Z</time></trkpt><trkpt lat="45.898280985265096" lon="9.243118099444603"><ele>1227.0</ele><time>2026-04-07T15:46:17.999Z</time></trkpt><trkpt lat="45.898266717267234" lon="9.242994598317937"><ele>1227.0</ele><time>2026-04-07T15:46:18.999Z</time></trkpt><trkpt lat="45.8982472255203" lon="9.242902606695704"><ele>1227.0</ele><time>2026-04-07T15:46:19.999Z</time></trkpt><trkpt lat="45.89821253672979" lon="9.24279684683897"><ele>1227.0</ele><time>2026-04-07T15:46:20.999Z</time></trkpt><trkpt lat="45.89819679867799" lon="9.242691861318281"><ele>1229.2</ele><time>2026-04-07T15:46:21.999Z</time></trkpt><trkpt lat="45.898177198979084" lon="9.242590190911642"><ele>1231.4</ele><time>2026-04-07T15:46:22.999Z</time></trkpt><trkpt lat="45.89814832360565" lon="9.242420106458589"><ele>1233.6</ele><time>2026-04-07T15:46:23.999Z</time></trkpt><trkpt lat="45.89810743829838" lon="9.242274325539372"><ele>1235.8</ele><time>2026-04-07T15:46:24.999Z</time></trkpt><trkpt lat="45.89807465648022" lon="9.242160971809605"><ele>1238.0</ele><time>2026-04-07T15:46:25.999Z</time></trkpt><trkpt lat="45.89802031326187" lon="9.242022642478231"><ele>1240.0</ele><time>2026-04-07T15:46:26.999Z</time></trkpt><trkpt lat="45.89800427892613" lon="9.241783178994233"><ele>1242.0</ele><time>2026-04-07T15:46:27.999Z</time></trkpt><trkpt lat="45.89796801595865" lon="9.241651415637044"><ele>1244.0</ele><time>2026-04-07T15:46:28.999Z</time></trkpt><trkpt lat="45.89791937147434" lon="9.241474746097683"><ele>1246.0</ele><time>2026-04-07T15:46:29.999Z</time></trkpt><trkpt lat="45.897865106733114" lon="9.241278612631667"><ele>1248.8</ele><time>2026-04-07T15:46:30.999Z</time></trkpt><trkpt lat="45.89779328825991" lon="9.241111494761512"><ele>1251.6</ele><time>2026-04-07T15:46:31.999Z</time></trkpt><trkpt lat="45.897726996121136" lon="9.240957285026761"><ele>1254.4</ele><time>2026-04-07T15:46:32.999Z</time></trkpt><trkpt lat="45.89767750091492" lon="9.240825125320761"><ele>1257.2</ele><time>2026-04-07T15:46:33.999Z</time></trkpt><trkpt lat="45.89765028742882" lon="9.240733741247483"><ele>1260.0</ele><time>2026-04-07T15:46:34.999Z</time></trkpt><trkpt lat="45.89761006738749" lon="9.240599573288668"><ele>1252.0</ele><time>2026-04-07T15:46:35.999Z</time></trkpt><trkpt lat="45.89755897547592" lon="9.240462106593219"><ele>1244.0</ele><time>2026-04-07T15:46:36.999Z</time></trkpt><trkpt lat="45.8974445855311" lon="9.240303971303511"><ele>1236.0</ele><time>2026-04-07T15:46:37.999Z</time></trkpt><trkpt lat="45.89734342758604" lon="9.24012506526584"><ele>1228.0</ele><time>2026-04-07T15:46:38.999Z</time></trkpt><trkpt lat="45.897267127295216" lon="9.240001704201987"><ele>1228.0</ele><time>2026-04-07T15:46:39.999Z</time></trkpt><trkpt lat="45.89719815724757" lon="9.239885040017889"><ele>1228.0</ele><time>2026-04-07T15:46:40.999Z</time></trkpt><trkpt lat="45.89711993057061" lon="9.23974535549272"><ele>1228.0</ele><time>2026-04-07T15:46:41.999Z</time></trkpt><trkpt lat="45.89704985722936" lon="9.239607633901551"><ele>1228.0</ele><time>2026-04-07T15:46:42.999Z</time></trkpt><trkpt lat="45.896969017067356" lon="9.239464883189441"><ele>1227.4</ele><time>2026-04-07T15:46:43.999Z</time></trkpt><trkpt lat="45.89690274811208" lon="9.239292143460174"><ele>1226.8</ele><time>2026-04-07T15:46:44.999Z</time></trkpt><trkpt lat="45.89684426896627" lon="9.239174048634828"><ele>1226.2</ele><time>2026-04-07T15:46:45.999Z</time></trkpt><trkpt lat="45.89681585674676" lon="9.239017423078707"><ele>1225.6</ele><time>2026-04-07T15:46:46.999Z</time></trkpt><trkpt lat="45.896781421833474" lon="9.238909328322029"><ele>1225.0</ele><time>2026-04-07T15:46:47.999Z</time></trkpt><trkpt lat="45.896758914826066" lon="9.238786007611623"><ele>1220.25</ele><time>2026-04-07T15:46:48.999Z</time></trkpt><trkpt lat="45.89670540351978" lon="9.23867019118994"><ele>1215.5</ele><time>2026-04-07T15:46:49.999Z</time></trkpt><trkpt lat="45.896607130136374" lon="9.238514675768828"><ele>1210.75</ele><time>2026-04-07T15:46:50.999Z</time></trkpt><trkpt lat="45.89652358416398" lon="9.238391034145952"><ele>1206.0</ele><time>2026-04-07T15:46:51.999Z</time></trkpt><trkpt lat="45.89643828720426" lon="9.238331180867252"><ele>1206.0</ele><time>2026-04-07T15:46:53.999Z</time></trkpt><trkpt lat="45.89637314147296" lon="9.23828248328163"><ele>1206.0</ele><time>2026-04-07T15:46:55.999Z</time></trkpt><trkpt lat="45.89629610022304" lon="9.23816739625477"><ele>1206.0</ele><time>2026-04-07T15:46:57.999Z</time></trkpt><trkpt lat="45.896248813689596" lon="9.238106044569086"><ele>1206.0</ele><time>2026-04-07T15:46:58.999Z</time></trkpt><trkpt lat="45.89616767584831" lon="9.238003780148581"><ele>1206.0</ele><time>2026-04-07T15:47:00.999Z</time></trkpt><trkpt lat="45.89610375255002" lon="9.237929735363565"><ele>1206.0</ele><time>2026-04-07T15:47:03Z</time></trkpt><trkpt lat="45.89604332564317" lon="9.23786740549174"><ele>1205.0</ele><time>2026-04-07T15:47:05Z</time></trkpt><trkpt lat="45.89597430563311" lon="9.23777458923387"><ele>1204.0</ele><time>2026-04-07T15:47:07Z</time></trkpt><trkpt lat="45.895921288533096" lon="9.237705287636881"><ele>1203.0</ele><time>2026-04-07T15:47:09Z</time></trkpt><trkpt lat="45.8958540786786" lon="9.237628136127142"><ele>1202.0</ele><time>2026-04-07T15:47:12Z</time></trkpt><trkpt lat="45.895787962782585" lon="9.237533596280874"><ele>1201.0</ele><time>2026-04-07T15:47:16Z</time></trkpt><trkpt lat="45.89573690175118" lon="9.23745850488049"><ele>1200.0</ele><time>2026-04-07T15:47:19Z</time></trkpt><trkpt lat="45.89567324849813" lon="9.237381288406374"><ele>1199.2</ele><time>2026-04-07T15:47:21Z</time></trkpt><trkpt lat="45.89560793644448" lon="9.237276376105262"><ele>1198.4</ele><time>2026-04-07T15:47:23Z</time></trkpt><trkpt lat="45.89552557569302" lon="9.237147672376617"><ele>1197.6</ele><time>2026-04-07T15:47:25Z</time></trkpt><trkpt lat="45.89544349646002" lon="9.237093618205202"><ele>1196.8</ele><time>2026-04-07T15:47:26Z</time></trkpt><trkpt lat="45.895353004661295" lon="9.237028642132342"><ele>1196.0</ele><time>2026-04-07T15:47:27Z</time></trkpt><trkpt lat="45.89526857839374" lon="9.236965970403235"><ele>1196.0</ele><time>2026-04-07T15:47:28Z</time></trkpt><trkpt lat="45.895197261687564" lon="9.23690178957784"><ele>1196.0</ele><time>2026-04-07T15:47:29Z</time></trkpt><trkpt lat="45.89509578101249" lon="9.236829333747242"><ele>1196.0</ele><time>2026-04-07T15:47:30Z</time></trkpt><trkpt lat="45.894998364613" lon="9.236750422967207"><ele>1196.0</ele><time>2026-04-07T15:47:31Z</time></trkpt><trkpt lat="45.894883415313565" lon="9.236680580395445"><ele>1196.0</ele><time>2026-04-07T15:47:32Z</time></trkpt><trkpt lat="45.89478775466819" lon="9.23662567655833"><ele>1197.2</ele><time>2026-04-07T15:47:33Z</time></trkpt><trkpt lat="45.894685670046485" lon="9.236603283836459"><ele>1198.3999999999999</ele><time>2026-04-07T15:47:34Z</time></trkpt><trkpt lat="45.89462146938897" lon="9.236508170253341"><ele>1199.6</ele><time>2026-04-07T15:47:35Z</time></trkpt><trkpt lat="45.89455739103025" lon="9.236437464555818"><ele>1200.8</ele><time>2026-04-07T15:47:36Z</time></trkpt><trkpt lat="45.89447850853015" lon="9.23633311414003"><ele>1202.0</ele><time>2026-04-07T15:47:37Z</time></trkpt><trkpt lat="45.894380731959416" lon="9.236245548796115"><ele>1202.0</ele><time>2026-04-07T15:47:38Z</time></trkpt><trkpt lat="45.89427310689514" lon="9.23616384037501"><ele>1202.0</ele><time>2026-04-07T15:47:39Z</time></trkpt><trkpt lat="45.89416226278073" lon="9.236102546869256"><ele>1202.0</ele><time>2026-04-07T15:47:40Z</time></trkpt><trkpt lat="45.89405579120132" lon="9.23605069381832"><ele>1202.0</ele><time>2026-04-07T15:47:41Z</time></trkpt><trkpt lat="45.89395340727631" lon="9.236011407750397"><ele>1202.0</ele><time>2026-04-07T15:47:42Z</time></trkpt><trkpt lat="45.89383361562794" lon="9.235974141363931"><ele>1202.0</ele><time>2026-04-07T15:47:43Z</time></trkpt><trkpt lat="45.893716859281085" lon="9.235957340173076"><ele>1202.0</ele><time>2026-04-07T15:47:44Z</time></trkpt><trkpt lat="45.89360699227694" lon="9.23594829871378"><ele>1202.0</ele><time>2026-04-07T15:47:45Z</time></trkpt><trkpt lat="45.89351907321" lon="9.235956045553097"><ele>1202.0</ele><time>2026-04-07T15:47:46Z</time></trkpt><trkpt lat="45.893427418729246" lon="9.235940351550237"><ele>1199.6</ele><time>2026-04-07T15:47:47Z</time></trkpt><trkpt lat="45.89328142683723" lon="9.235881958690728"><ele>1197.2</ele><time>2026-04-07T15:47:49Z</time></trkpt><trkpt lat="45.89319697014881" lon="9.235868476527315"><ele>1194.8</ele><time>2026-04-07T15:47:50Z</time></trkpt><trkpt lat="45.893113252080624" lon="9.235830958171098"><ele>1192.4</ele><time>2026-04-07T15:47:51Z</time></trkpt><trkpt lat="45.89304930459577" lon="9.235825056660639"><ele>1190.0</ele><time>2026-04-07T15:47:52Z</time></trkpt><trkpt lat="45.89295558525792" lon="9.235778081970187"><ele>1190.0</ele><time>2026-04-07T15:47:54Z</time></trkpt><trkpt lat="45.89288062094992" lon="9.235788125163161"><ele>1190.0</ele><time>2026-04-07T15:47:55Z</time></trkpt><trkpt lat="45.892798672618476" lon="9.235776685871127"><ele>1190.0</ele><time>2026-04-07T15:47:56Z</time></trkpt><trkpt lat="45.89270889834255" lon="9.235749850193281"><ele>1190.0</ele><time>2026-04-07T15:47:57Z</time></trkpt><trkpt lat="45.89259870350365" lon="9.235732483473573"><ele>1190.0</ele><time>2026-04-07T15:47:58Z</time></trkpt><trkpt lat="45.89248307022315" lon="9.235714470567826"><ele>1188.5</ele><time>2026-04-07T15:47:59Z</time></trkpt><trkpt lat="45.89238987904922" lon="9.235721205353016"><ele>1187.0</ele><time>2026-04-07T15:48:00Z</time></trkpt><trkpt lat="45.89229846595739" lon="9.23576050865561"><ele>1185.5</ele><time>2026-04-07T15:48:01Z</time></trkpt><trkpt lat="45.89221756794182" lon="9.235760002999008"><ele>1184.0</ele><time>2026-04-07T15:48:02Z</time></trkpt><trkpt lat="45.89214058487322" lon="9.235747932559695"><ele>1182.5</ele><time>2026-04-07T15:48:03Z</time></trkpt><trkpt lat="45.89205103955996" lon="9.235737589213828"><ele>1181.0</ele><time>2026-04-07T15:48:04Z</time></trkpt><trkpt lat="45.89194066092383" lon="9.235726220357401"><ele>1181.0</ele><time>2026-04-07T15:48:05Z</time></trkpt><trkpt lat="45.89187279531556" lon="9.235760696358412"><ele>1181.0</ele><time>2026-04-07T15:48:06Z</time></trkpt><trkpt lat="45.89173315340449" lon="9.235738329272776"><ele>1181.0</ele><time>2026-04-07T15:48:08Z</time></trkpt><trkpt lat="45.89165824145035" lon="9.235715225411598"><ele>1181.0</ele><time>2026-04-07T15:48:09Z</time></trkpt><trkpt lat="45.891591635965675" lon="9.235720764537383"><ele>1181.0</ele><time>2026-04-07T15:48:10Z</time></trkpt><trkpt lat="45.891520088312525" lon="9.235741718829615"><ele>1181.0</ele><time>2026-04-07T15:48:11Z</time></trkpt><trkpt lat="45.891456776474534" lon="9.235757480730399"><ele>1180.6666666666667</ele><time>2026-04-07T15:48:12Z</time></trkpt><trkpt lat="45.89133878332516" lon="9.235771562174223"><ele>1180.3333333333335</ele><time>2026-04-07T15:48:14Z</time></trkpt><trkpt lat="45.89127188526171" lon="9.235764877524552"><ele>1180.0</ele><time>2026-04-07T15:48:15Z</time></trkpt><trkpt lat="45.89118269435545" lon="9.235734513714291"><ele>1179.6666666666667</ele><time>2026-04-07T15:48:16Z</time></trkpt><trkpt lat="45.89111105164588" lon="9.235697057958602"><ele>1179.3333333333333</ele><time>2026-04-07T15:48:17Z</time></trkpt><trkpt lat="45.89103841700241" lon="9.23562803790846"><ele>1179.0</ele><time>2026-04-07T15:48:18Z</time></trkpt><trkpt lat="45.89095958967898" lon="9.235576750514872"><ele>1179.1666666666667</ele><time>2026-04-07T15:48:18.999Z</time></trkpt><trkpt lat="45.890890291620686" lon="9.235541572628712"><ele>1179.3333333333333</ele><time>2026-04-07T15:48:19.999Z</time></trkpt><trkpt lat="45.89081292396216" lon="9.235521789675223"><ele>1179.5</ele><time>2026-04-07T15:48:20.999Z</time></trkpt><trkpt lat="45.890734243259935" lon="9.235491532741717"><ele>1179.6666666666665</ele><time>2026-04-07T15:48:21.999Z</time></trkpt><trkpt lat="45.89066565105873" lon="9.235483248805927"><ele>1179.8333333333333</ele><time>2026-04-07T15:48:22.999Z</time></trkpt><trkpt lat="45.89056611748905" lon="9.235440321969884"><ele>1180.0</ele><time>2026-04-07T15:48:24.999Z</time></trkpt><trkpt lat="45.890497443252606" lon="9.235406963129797"><ele>1180.0</ele><time>2026-04-07T15:48:25.999Z</time></trkpt><trkpt lat="45.89042624761846" lon="9.235365352083383"><ele>1180.0</ele><time>2026-04-07T15:48:26.999Z</time></trkpt><trkpt lat="45.89036988302327" lon="9.235312782662728"><ele>1180.0</ele><time>2026-04-07T15:48:27.999Z</time></trkpt><trkpt lat="45.89029209044431" lon="9.23523676391314"><ele>1180.0</ele><time>2026-04-07T15:48:28.999Z</time></trkpt><trkpt lat="45.890211057308555" lon="9.235219691259172"><ele>1180.0</ele><time>2026-04-07T15:48:29.999Z</time></trkpt><trkpt lat="45.890155607366324" lon="9.235172815712424"><ele>1180.0</ele><time>2026-04-07T15:48:30.999Z</time></trkpt><trkpt lat="45.89010058266985" lon="9.23510996889679"><ele>1176.0</ele><time>2026-04-07T15:48:31.999Z</time></trkpt><trkpt lat="45.88995913643402" lon="9.23500072915799"><ele>1172.0</ele><time>2026-04-07T15:48:33.999Z</time></trkpt><trkpt lat="45.88984962070023" lon="9.234964389679641"><ele>1168.0</ele><time>2026-04-07T15:48:34.999Z</time></trkpt><trkpt lat="45.88974409074069" lon="9.234905300525572"><ele>1164.0</ele><time>2026-04-07T15:48:35.999Z</time></trkpt><trkpt lat="45.889669709583934" lon="9.234863135160612"><ele>1164.0</ele><time>2026-04-07T15:48:36.999Z</time></trkpt><trkpt lat="45.88960858639857" lon="9.234833391301324"><ele>1164.0</ele><time>2026-04-07T15:48:37.999Z</time></trkpt><trkpt lat="45.889531135860345" lon="9.234740655935973"><ele>1164.0</ele><time>2026-04-07T15:48:39.999Z</time></trkpt><trkpt lat="45.889470441048" lon="9.234659963300507"><ele>1164.0</ele><time>2026-04-07T15:48:40.999Z</time></trkpt><trkpt lat="45.889393714474565" lon="9.234529943238995"><ele>1164.0</ele><time>2026-04-07T15:48:41.999Z</time></trkpt><trkpt lat="45.88932317257763" lon="9.234343595187154"><ele>1165.25</ele><time>2026-04-07T15:48:42.999Z</time></trkpt><trkpt lat="45.88925657947985" lon="9.234173192418833"><ele>1166.5</ele><time>2026-04-07T15:48:43.999Z</time></trkpt><trkpt lat="45.88918954998538" lon="9.233984400842635"><ele>1167.75</ele><time>2026-04-07T15:48:44.999Z</time></trkpt><trkpt lat="45.88912803487443" lon="9.233798530234582"><ele>1169.0</ele><time>2026-04-07T15:48:45.999Z</time></trkpt><trkpt lat="45.88908194673702" lon="9.23361549305951"><ele>1169.0</ele><time>2026-04-07T15:48:46.999Z</time></trkpt><trkpt lat="45.888999427990726" lon="9.233417879437269"><ele>1169.0</ele><time>2026-04-07T15:48:47.999Z</time></trkpt><trkpt lat="45.88892667738763" lon="9.233187327047428"><ele>1169.0</ele><time>2026-04-07T15:48:48.999Z</time></trkpt><trkpt lat="45.88883015801883" lon="9.232965812662322"><ele>1175.75</ele><time>2026-04-07T15:48:49.999Z</time></trkpt><trkpt lat="45.88871737124193" lon="9.232821122353034"><ele>1182.5</ele><time>2026-04-07T15:48:50.999Z</time></trkpt><trkpt lat="45.888632173106444" lon="9.232690155448337"><ele>1189.25</ele><time>2026-04-07T15:48:51.999Z</time></trkpt><trkpt lat="45.888570082401365" lon="9.2325417400423"><ele>1196.0</ele><time>2026-04-07T15:48:52.999Z</time></trkpt><trkpt lat="45.888483289334786" lon="9.232404013655522"><ele>1190.25</ele><time>2026-04-07T15:48:53.999Z</time></trkpt><trkpt lat="45.88837364192184" lon="9.232257552315396"><ele>1184.5</ele><time>2026-04-07T15:48:54.999Z</time></trkpt><trkpt lat="45.88830916899483" lon="9.232099642868901"><ele>1178.75</ele><time>2026-04-07T15:48:55.999Z</time></trkpt><trkpt lat="45.88822920039761" lon="9.23196273450155"><ele>1173.0</ele><time>2026-04-07T15:48:56.999Z</time></trkpt><trkpt lat="45.888157092486814" lon="9.231853002817795"><ele>1173.0</ele><time>2026-04-07T15:48:57.999Z</time></trkpt><trkpt lat="45.88808216308643" lon="9.231768321300097"><ele>1173.0</ele><time>2026-04-07T15:48:58.999Z</time></trkpt><trkpt lat="45.88801113647385" lon="9.231700889669742"><ele>1173.0</ele><time>2026-04-07T15:48:59.999Z</time></trkpt><trkpt lat="45.88794523471611" lon="9.231618420662066"><ele>1173.0</ele><time>2026-04-07T15:49:00.999Z</time></trkpt><trkpt lat="45.88787352658284" lon="9.231545927788735"><ele>1173.0</ele><time>2026-04-07T15:49:01.999Z</time></trkpt><trkpt lat="45.887813895622784" lon="9.231462047136912"><ele>1173.0</ele><time>2026-04-07T15:49:02.999Z</time></trkpt><trkpt lat="45.88773147095285" lon="9.2313992663548"><ele>1171.0</ele><time>2026-04-07T15:49:03.999Z</time></trkpt><trkpt lat="45.887641315238604" lon="9.23135045804936"><ele>1169.0</ele><time>2026-04-07T15:49:04.999Z</time></trkpt><trkpt lat="45.88755215762933" lon="9.231313198040032"><ele>1167.0</ele><time>2026-04-07T15:49:05.999Z</time></trkpt><trkpt lat="45.88748563570916" lon="9.231294665488097"><ele>1165.0</ele><time>2026-04-07T15:49:06.999Z</time></trkpt><trkpt lat="45.88734540771636" lon="9.231265133962342"><ele>1163.0</ele><time>2026-04-07T15:49:08Z</time></trkpt><trkpt lat="45.88714403858334" lon="9.231273641542751"><ele>1163.0</ele><time>2026-04-07T15:49:09Z</time></trkpt><trkpt lat="45.88698803232408" lon="9.231240835051384"><ele>1163.0</ele><time>2026-04-07T15:49:10Z</time></trkpt><trkpt lat="45.88685944920677" lon="9.231236069812072"><ele>1163.0</ele><time>2026-04-07T15:49:11Z</time></trkpt><trkpt lat="45.88672432679998" lon="9.231250812608922"><ele>1163.0</ele><time>2026-04-07T15:49:12Z</time></trkpt><trkpt lat="45.88656719429329" lon="9.231298078606361"><ele>1161.0</ele><time>2026-04-07T15:49:13Z</time></trkpt><trkpt lat="45.88641583575548" lon="9.231330809499436"><ele>1159.0</ele><time>2026-04-07T15:49:14Z</time></trkpt><trkpt lat="45.886288089244275" lon="9.231353815077751"><ele>1157.0</ele><time>2026-04-07T15:49:15Z</time></trkpt><trkpt lat="45.886164212592995" lon="9.231383313685868"><ele>1155.0</ele><time>2026-04-07T15:49:16Z</time></trkpt><trkpt lat="45.886032233785386" lon="9.231355509876877"><ele>1153.0</ele><time>2026-04-07T15:49:17Z</time></trkpt><trkpt lat="45.885875591307666" lon="9.23135107301798"><ele>1151.0</ele><time>2026-04-07T15:49:18Z</time></trkpt><trkpt lat="45.88571600398636" lon="9.231303428636553"><ele>1149.0</ele><time>2026-04-07T15:49:19Z</time></trkpt><trkpt lat="45.88550002050119" lon="9.23122778187952"><ele>1149.0</ele><time>2026-04-07T15:49:20Z</time></trkpt><trkpt lat="45.88531445704732" lon="9.231181867741142"><ele>1149.0</ele><time>2026-04-07T15:49:21Z</time></trkpt><trkpt lat="45.88513290587215" lon="9.23110059644225"><ele>1149.0</ele><time>2026-04-07T15:49:22Z</time></trkpt><trkpt lat="45.88501211060853" lon="9.231063656132582"><ele>1145.5</ele><time>2026-04-07T15:49:23Z</time></trkpt><trkpt lat="45.88487598743863" lon="9.231026212856879"><ele>1142.0</ele><time>2026-04-07T15:49:24Z</time></trkpt><trkpt lat="45.88475896670036" lon="9.231003728310538"><ele>1138.5</ele><time>2026-04-07T15:49:25Z</time></trkpt><trkpt lat="45.88463869943335" lon="9.231007316452601"><ele>1135.0</ele><time>2026-04-07T15:49:26Z</time></trkpt><trkpt lat="45.88450488165333" lon="9.230987409954805"><ele>1135.0</ele><time>2026-04-07T15:49:27Z</time></trkpt><trkpt lat="45.88443566340537" lon="9.230995229652295"><ele>1135.0</ele><time>2026-04-07T15:49:28Z</time></trkpt><trkpt lat="45.88432219398971" lon="9.231020158951518"><ele>1135.0</ele><time>2026-04-07T15:49:29Z</time></trkpt><trkpt lat="45.88422185742481" lon="9.231064385132518"><ele>1135.0</ele><time>2026-04-07T15:49:30Z</time></trkpt><trkpt lat="45.8841692366557" lon="9.231145354609344"><ele>1135.0</ele><time>2026-04-07T15:49:31Z</time></trkpt><trkpt lat="45.884087357236574" lon="9.231192246756862"><ele>1134.2</ele><time>2026-04-07T15:49:32Z</time></trkpt><trkpt lat="45.883991448069835" lon="9.23127169937884"><ele>1133.4</ele><time>2026-04-07T15:49:33Z</time></trkpt><trkpt lat="45.88387719083054" lon="9.231292938332352"><ele>1132.6</ele><time>2026-04-07T15:49:34Z</time></trkpt><trkpt lat="45.88377187588894" lon="9.231327224358301"><ele>1131.8</ele><time>2026-04-07T15:49:35Z</time></trkpt><trkpt lat="45.88365861489435" lon="9.231305229832872"><ele>1131.0</ele><time>2026-04-07T15:49:36Z</time></trkpt><trkpt lat="45.88356884264799" lon="9.231313307296137"><ele>1131.0</ele><time>2026-04-07T15:49:37Z</time></trkpt><trkpt lat="45.88348717713833" lon="9.231300094056989"><ele>1131.0</ele><time>2026-04-07T15:49:38Z</time></trkpt><trkpt lat="45.883425543016514" lon="9.23126661472866"><ele>1131.0</ele><time>2026-04-07T15:49:39Z</time></trkpt><trkpt lat="45.88334888971621" lon="9.231207402555235"><ele>1131.0</ele><time>2026-04-07T15:49:40Z</time></trkpt><trkpt lat="45.88324748108053" lon="9.231101410955924"><ele>1131.0</ele><time>2026-04-07T15:49:42Z</time></trkpt><trkpt lat="45.883203423574884" lon="9.231029452679657"><ele>1131.0</ele><time>2026-04-07T15:49:43Z</time></trkpt><trkpt lat="45.88316587588833" lon="9.230923930012155"><ele>1130.1666666666667</ele><time>2026-04-07T15:49:45Z</time></trkpt><trkpt lat="45.88313126766746" lon="9.230829478157156"><ele>1129.3333333333333</ele><time>2026-04-07T15:49:47Z</time></trkpt><trkpt lat="45.88312659435311" lon="9.230735834340456"><ele>1128.5</ele><time>2026-04-07T15:49:48Z</time></trkpt><trkpt lat="45.88311210394077" lon="9.230585021399648"><ele>1127.6666666666665</ele><time>2026-04-07T15:49:50Z</time></trkpt><trkpt lat="45.88310654203742" lon="9.230441182434467"><ele>1126.8333333333333</ele><time>2026-04-07T15:49:51Z</time></trkpt><trkpt lat="45.883093158605725" lon="9.230310428431814"><ele>1126.0</ele><time>2026-04-07T15:49:52Z</time></trkpt><trkpt lat="45.88308805171793" lon="9.230207478480725"><ele>1126.0</ele><time>2026-04-07T15:49:53Z</time></trkpt><trkpt lat="45.88305958620594" lon="9.230062073411908"><ele>1126.0</ele><time>2026-04-07T15:49:55Z</time></trkpt><trkpt lat="45.88300451683492" lon="9.229962788760105"><ele>1126.0</ele><time>2026-04-07T15:49:57Z</time></trkpt><trkpt lat="45.88295389512241" lon="9.22985880021957"><ele>1126.0</ele><time>2026-04-07T15:49:59Z</time></trkpt><trkpt lat="45.882926507150934" lon="9.229748525601066"><ele>1126.0</ele><time>2026-04-07T15:50:00Z</time></trkpt><trkpt lat="45.88287760478677" lon="9.229598824539138"><ele>1125.6</ele><time>2026-04-07T15:50:01Z</time></trkpt><trkpt lat="45.88284211023988" lon="9.22944675327672"><ele>1125.1999999999998</ele><time>2026-04-07T15:50:02Z</time></trkpt><trkpt lat="45.8828212277732" lon="9.229317783225353"><ele>1124.8000000000002</ele><time>2026-04-07T15:50:03Z</time></trkpt><trkpt lat="45.882829390787876" lon="9.2292081638084"><ele>1124.4</ele><time>2026-04-07T15:50:04Z</time></trkpt><trkpt lat="45.88287345403405" lon="9.229094084036127"><ele>1124.0</ele><time>2026-04-07T15:50:05Z</time></trkpt><trkpt lat="45.88297206620206" lon="9.229042573157912"><ele>1123.4</ele><time>2026-04-07T15:50:06Z</time></trkpt><trkpt lat="45.88305358996579" lon="9.228957760992458"><ele>1122.8000000000002</ele><time>2026-04-07T15:50:07Z</time></trkpt><trkpt lat="45.88313257008854" lon="9.22888854745923"><ele>1122.1999999999998</ele><time>2026-04-07T15:50:08Z</time></trkpt><trkpt lat="45.883180956029435" lon="9.228772887816044"><ele>1121.6</ele><time>2026-04-07T15:50:10Z</time></trkpt><trkpt lat="45.88314472973189" lon="9.228558040650132"><ele>1121.0</ele><time>2026-04-07T15:50:12Z</time></trkpt><trkpt lat="45.88313686544649" lon="9.228441402883776"><ele>1121.0</ele><time>2026-04-07T15:50:13Z</time></trkpt><trkpt lat="45.88312163536398" lon="9.22834082951215"><ele>1121.0</ele><time>2026-04-07T15:50:14Z</time></trkpt><trkpt lat="45.88308998246074" lon="9.228241563083925"><ele>1121.0</ele><time>2026-04-07T15:50:15Z</time></trkpt><trkpt lat="45.88303787521153" lon="9.228171885198147"><ele>1121.0</ele><time>2026-04-07T15:50:16Z</time></trkpt><trkpt lat="45.8829914943523" lon="9.228109572967506"><ele>1121.0</ele><time>2026-04-07T15:50:17Z</time></trkpt><trkpt lat="45.882950748621035" lon="9.228034401188417"><ele>1121.0</ele><time>2026-04-07T15:50:18Z</time></trkpt><trkpt lat="45.883064910793934" lon="9.227930384799985"><ele>1120.3999999999999</ele><time>2026-04-07T15:50:19Z</time></trkpt><trkpt lat="45.88306375220207" lon="9.227821596768129"><ele>1119.8</ele><time>2026-04-07T15:50:20Z</time></trkpt><trkpt lat="45.88306333724618" lon="9.22769979528587"><ele>1119.1999999999998</ele><time>2026-04-07T15:50:21Z</time></trkpt><trkpt lat="45.8830640412641" lon="9.227565554269063"><ele>1118.6</ele><time>2026-04-07T15:50:22Z</time></trkpt><trkpt lat="45.88306647714553" lon="9.227357323641709"><ele>1118.0</ele><time>2026-04-07T15:50:23Z</time></trkpt><trkpt lat="45.88309561486193" lon="9.227218266276344"><ele>1117.4</ele><time>2026-04-07T15:50:24Z</time></trkpt><trkpt lat="45.88310674684629" lon="9.227057036645112"><ele>1116.8</ele><time>2026-04-07T15:50:25Z</time></trkpt><trkpt lat="45.883133237534615" lon="9.226924688762159"><ele>1116.2</ele><time>2026-04-07T15:50:26Z</time></trkpt><trkpt lat="45.883147647953805" lon="9.226781572787361"><ele>1115.6</ele><time>2026-04-07T15:50:27Z</time></trkpt><trkpt lat="45.88320372477784" lon="9.2265974568258"><ele>1115.0</ele><time>2026-04-07T15:50:28Z</time></trkpt><trkpt lat="45.88322630391352" lon="9.22645139059103"><ele>1115.0</ele><time>2026-04-07T15:50:29Z</time></trkpt><trkpt lat="45.883247396512914" lon="9.226268034999142"><ele>1115.0</ele><time>2026-04-07T15:50:30Z</time></trkpt><trkpt lat="45.883234172224206" lon="9.226070881010681"><ele>1115.0</ele><time>2026-04-07T15:50:30.999Z</time></trkpt><trkpt lat="45.88322893673465" lon="9.225851029804565"><ele>1115.0</ele><time>2026-04-07T15:50:31.999Z</time></trkpt><trkpt lat="45.88321668126589" lon="9.225666779343156"><ele>1116.4</ele><time>2026-04-07T15:50:32.999Z</time></trkpt><trkpt lat="45.88321042980984" lon="9.225528455199528"><ele>1117.8</ele><time>2026-04-07T15:50:33.999Z</time></trkpt><trkpt lat="45.88324208407149" lon="9.225416224278565"><ele>1119.2</ele><time>2026-04-07T15:50:34.999Z</time></trkpt><trkpt lat="45.8832525221613" lon="9.22531381514711"><ele>1120.6</ele><time>2026-04-07T15:50:35.999Z</time></trkpt><trkpt lat="45.88329796418044" lon="9.225164434827331"><ele>1122.0</ele><time>2026-04-07T15:50:36.999Z</time></trkpt><trkpt lat="45.88335524844215" lon="9.225020804233836"><ele>1122.0</ele><time>2026-04-07T15:50:37.999Z</time></trkpt><trkpt lat="45.883378325061585" lon="9.224887910395333"><ele>1122.0</ele><time>2026-04-07T15:50:38.999Z</time></trkpt><trkpt lat="45.883394402413444" lon="9.22475138610682"><ele>1122.0</ele><time>2026-04-07T15:50:39.999Z</time></trkpt><trkpt lat="45.88341064259451" lon="9.224629268427389"><ele>1122.0</ele><time>2026-04-07T15:50:40.999Z</time></trkpt><trkpt lat="45.883421533259515" lon="9.224493780529205"><ele>1122.0</ele><time>2026-04-07T15:50:41.999Z</time></trkpt><trkpt lat="45.88347485778016" lon="9.22437841632605"><ele>1116.8333333333333</ele><time>2026-04-07T15:50:42.999Z</time></trkpt><trkpt lat="45.88351416916663" lon="9.224259123625071"><ele>1111.6666666666667</ele><time>2026-04-07T15:50:43.999Z</time></trkpt><trkpt lat="45.88354483517245" lon="9.224155020418996"><ele>1106.5</ele><time>2026-04-07T15:50:44.999Z</time></trkpt><trkpt lat="45.88357742955793" lon="9.224048245361052"><ele>1101.3333333333335</ele><time>2026-04-07T15:50:45.999Z</time></trkpt><trkpt lat="45.8835491555371" lon="9.223952694410318"><ele>1096.1666666666667</ele><time>2026-04-07T15:50:46.999Z</time></trkpt><trkpt lat="45.88352064709363" lon="9.223822572200698"><ele>1091.0</ele><time>2026-04-07T15:50:47.999Z</time></trkpt><trkpt lat="45.88348573842292" lon="9.223689389494009"><ele>1089.3999999999999</ele><time>2026-04-07T15:50:48.999Z</time></trkpt><trkpt lat="45.883433701677646" lon="9.22360853042698"><ele>1087.8</ele><time>2026-04-07T15:50:49.999Z</time></trkpt><trkpt lat="45.88335136044175" lon="9.223543888902466"><ele>1086.1999999999998</ele><time>2026-04-07T15:50:50.999Z</time></trkpt><trkpt lat="45.88324827965243" lon="9.223480835583256"><ele>1084.6</ele><time>2026-04-07T15:50:51.999Z</time></trkpt><trkpt lat="45.883125010622415" lon="9.223414964644249"><ele>1083.0</ele><time>2026-04-07T15:50:52.999Z</time></trkpt><trkpt lat="45.88300628296684" lon="9.223335480340161"><ele>1088.0</ele><time>2026-04-07T15:50:53.999Z</time></trkpt><trkpt lat="45.88287789056323" lon="9.223253327697476"><ele>1093.0</ele><time>2026-04-07T15:50:54.999Z</time></trkpt><trkpt lat="45.8827709848939" lon="9.223223123392014"><ele>1098.0</ele><time>2026-04-07T15:50:55.999Z</time></trkpt><trkpt lat="45.88267607096575" lon="9.223223399883938"><ele>1103.0</ele><time>2026-04-07T15:50:56.999Z</time></trkpt><trkpt lat="45.88258419909273" lon="9.22323859313623"><ele>1108.0</ele><time>2026-04-07T15:50:57.999Z</time></trkpt><trkpt lat="45.88249097395389" lon="9.223248005257297"><ele>1109.5</ele><time>2026-04-07T15:50:58.999Z</time></trkpt><trkpt lat="45.88240601352612" lon="9.223252550725608"><ele>1111.0</ele><time>2026-04-07T15:50:59.999Z</time></trkpt><trkpt lat="45.88233115402572" lon="9.223355465869258"><ele>1112.5</ele><time>2026-04-07T15:51:00.999Z</time></trkpt><trkpt lat="45.88227239403852" lon="9.223434384928934"><ele>1114.0</ele><time>2026-04-07T15:51:01.999Z</time></trkpt><trkpt lat="45.88221128761285" lon="9.223513109680338"><ele>1115.5</ele><time>2026-04-07T15:51:02.999Z</time></trkpt><trkpt lat="45.88219678306366" lon="9.223627888844561"><ele>1117.0</ele><time>2026-04-07T15:51:03.999Z</time></trkpt><trkpt lat="45.88213480563591" lon="9.223696630336423"><ele>1117.0</ele><time>2026-04-07T15:51:04.999Z</time></trkpt><trkpt lat="45.88202564390918" lon="9.223758821802534"><ele>1117.0</ele><time>2026-04-07T15:51:05.999Z</time></trkpt><trkpt lat="45.88191984320843" lon="9.223830186112503"><ele>1117.0</ele><time>2026-04-07T15:51:06.999Z</time></trkpt><trkpt lat="45.881822262876966" lon="9.223870627073593"><ele>1117.0</ele><time>2026-04-07T15:51:07.999Z</time></trkpt><trkpt lat="45.88174300505243" lon="9.223837092152992"><ele>1117.0</ele><time>2026-04-07T15:51:08.999Z</time></trkpt><trkpt lat="45.88163355747053" lon="9.22378885152486"><ele>1115.6666666666665</ele><time>2026-04-07T15:51:09.999Z</time></trkpt><trkpt lat="45.88151074774518" lon="9.223699642473097"><ele>1114.3333333333333</ele><time>2026-04-07T15:51:10.999Z</time></trkpt><trkpt lat="45.881365356745015" lon="9.223587966276128"><ele>1113.0</ele><time>2026-04-07T15:51:11.999Z</time></trkpt><trkpt lat="45.881204020938156" lon="9.2234645253663"><ele>1113.0</ele><time>2026-04-07T15:51:12.999Z</time></trkpt><trkpt lat="45.881053640496994" lon="9.223382912471326"><ele>1113.0</ele><time>2026-04-07T15:51:14Z</time></trkpt><trkpt lat="45.88091697157227" lon="9.223319041069232"><ele>1113.0</ele><time>2026-04-07T15:51:15Z</time></trkpt><trkpt lat="45.88078055449455" lon="9.223260061527975"><ele>1113.0</ele><time>2026-04-07T15:51:16Z</time></trkpt><trkpt lat="45.880680249194626" lon="9.223251088251978"><ele>1113.1666666666667</ele><time>2026-04-07T15:51:17Z</time></trkpt><trkpt lat="45.8806162193381" lon="9.223238031592127"><ele>1113.3333333333333</ele><time>2026-04-07T15:51:18Z</time></trkpt><trkpt lat="45.88053662743383" lon="9.223237684982967"><ele>1113.5</ele><time>2026-04-07T15:51:19Z</time></trkpt><trkpt lat="45.88046398667258" lon="9.223206444071565"><ele>1113.6666666666665</ele><time>2026-04-07T15:51:20Z</time></trkpt><trkpt lat="45.88041913008024" lon="9.223100661456833"><ele>1113.8333333333333</ele><time>2026-04-07T15:51:25Z</time></trkpt><trkpt lat="45.88037735620527" lon="9.223001369103049"><ele>1114.0</ele><time>2026-04-07T15:51:27Z</time></trkpt><trkpt lat="45.8803017593811" lon="9.22307296414703"><ele>1115.5</ele><time>2026-04-07T15:51:30Z</time></trkpt><trkpt lat="45.88024178207728" lon="9.223183963907434"><ele>1117.0</ele><time>2026-04-07T15:51:32Z</time></trkpt><trkpt lat="45.88018190340316" lon="9.223237927969477"><ele>1118.5</ele><time>2026-04-07T15:51:34Z</time></trkpt><trkpt lat="45.88014762311704" lon="9.223320304374882"><ele>1120.0</ele><time>2026-04-07T15:51:39Z</time></trkpt><trkpt lat="45.880130104598976" lon="9.223433390140986"><ele>1121.5</ele><time>2026-04-07T15:51:43Z</time></trkpt><trkpt lat="45.88009899656454" lon="9.223566730575175"><ele>1123.0</ele><time>2026-04-07T15:51:46Z</time></trkpt><trkpt lat="45.88009500611505" lon="9.22365751498371"><ele>1123.1666666666665</ele><time>2026-04-07T15:51:48Z</time></trkpt><trkpt lat="45.880093286185755" lon="9.22376508314557"><ele>1123.3333333333333</ele><time>2026-04-07T15:51:51Z</time></trkpt><trkpt lat="45.88006670210699" lon="9.223847596360004"><ele>1123.5</ele><time>2026-04-07T15:51:53Z</time></trkpt><trkpt lat="45.88005269299405" lon="9.22396568404729"><ele>1123.6666666666667</ele><time>2026-04-07T15:51:56Z</time></trkpt><trkpt lat="45.88004335496819" lon="9.2240739950462"><ele>1123.8333333333335</ele><time>2026-04-07T15:51:58Z</time></trkpt><trkpt lat="45.88002114636313" lon="9.224208930128858"><ele>1124.0</ele><time>2026-04-07T15:52:00Z</time></trkpt><trkpt lat="45.87998694355606" lon="9.224306012399257"><ele>1124.0</ele><time>2026-04-07T15:52:02Z</time></trkpt><trkpt lat="45.8799413949714" lon="9.224446165767715"><ele>1124.0</ele><time>2026-04-07T15:52:04Z</time></trkpt><trkpt lat="45.87989331542347" lon="9.224585235818838"><ele>1124.0</ele><time>2026-04-07T15:52:06Z</time></trkpt><trkpt lat="45.87988646057825" lon="9.224713768346138"><ele>1124.0</ele><time>2026-04-07T15:52:07Z</time></trkpt><trkpt lat="45.87984884658441" lon="9.224883736742397"><ele>1124.0</ele><time>2026-04-07T15:52:08Z</time></trkpt><trkpt lat="45.87982600932994" lon="9.225033835958637"><ele>1124.2</ele><time>2026-04-07T15:52:09Z</time></trkpt><trkpt lat="45.87981697899256" lon="9.225179947009957"><ele>1124.4</ele><time>2026-04-07T15:52:10Z</time></trkpt><trkpt lat="45.87982518981402" lon="9.225305863315393"><ele>1124.6</ele><time>2026-04-07T15:52:11Z</time></trkpt><trkpt lat="45.879793917144276" lon="9.225419196318738"><ele>1124.8</ele><time>2026-04-07T15:52:12Z</time></trkpt><trkpt lat="45.87974324055926" lon="9.225585930708363"><ele>1125.0</ele><time>2026-04-07T15:52:14Z</time></trkpt><trkpt lat="45.87970968395248" lon="9.225672517446787"><ele>1125.6666666666667</ele><time>2026-04-07T15:52:15Z</time></trkpt><trkpt lat="45.87966706923646" lon="9.225779534065573"><ele>1126.3333333333333</ele><time>2026-04-07T15:52:16Z</time></trkpt><trkpt lat="45.87962541768484" lon="9.225868926435593"><ele>1127.0</ele><time>2026-04-07T15:52:17Z</time></trkpt><trkpt lat="45.87958356432134" lon="9.225958918492735"><ele>1127.6666666666665</ele><time>2026-04-07T15:52:18Z</time></trkpt><trkpt lat="45.87954426402439" lon="9.22606910719124"><ele>1128.3333333333333</ele><time>2026-04-07T15:52:19Z</time></trkpt><trkpt lat="45.87950918028045" lon="9.226180576895308"><ele>1129.0</ele><time>2026-04-07T15:52:20Z</time></trkpt><trkpt lat="45.87947799438696" lon="9.226292498426075"><ele>1129.0</ele><time>2026-04-07T15:52:21Z</time></trkpt><trkpt lat="45.87945548799642" lon="9.22639343947219"><ele>1129.0</ele><time>2026-04-07T15:52:22Z</time></trkpt><trkpt lat="45.8794472183555" lon="9.2264868764548"><ele>1129.0</ele><time>2026-04-07T15:52:23Z</time></trkpt><trkpt lat="45.87941479829557" lon="9.226638785921198"><ele>1129.0</ele><time>2026-04-07T15:52:25Z</time></trkpt><trkpt lat="45.879393034874774" lon="9.226807550135707"><ele>1129.0</ele><time>2026-04-07T15:52:27Z</time></trkpt><trkpt lat="45.87936477794014" lon="9.226903147227977"><ele>1129.0</ele><time>2026-04-07T15:52:28Z</time></trkpt><trkpt lat="45.879346944145624" lon="9.227010660397221"><ele>1127.4</ele><time>2026-04-07T15:52:29Z</time></trkpt><trkpt lat="45.87931857813396" lon="9.227198034845294"><ele>1125.8000000000002</ele><time>2026-04-07T15:52:30.999Z</time></trkpt><trkpt lat="45.879291464229894" lon="9.227360406903525"><ele>1124.1999999999998</ele><time>2026-04-07T15:52:32.999Z</time></trkpt><trkpt lat="45.87928610776763" lon="9.227501591387373"><ele>1122.6</ele><time>2026-04-07T15:52:34.999Z</time></trkpt><trkpt lat="45.87926649734643" lon="9.227626962473558"><ele>1121.0</ele><time>2026-04-07T15:52:36.999Z</time></trkpt><trkpt lat="45.87927082646186" lon="9.227751407323355"><ele>1118.8333333333335</ele><time>2026-04-07T15:52:38.999Z</time></trkpt><trkpt lat="45.879259379775874" lon="9.227852702441501"><ele>1116.6666666666667</ele><time>2026-04-07T15:52:40.999Z</time></trkpt><trkpt lat="45.87932521809219" lon="9.227955289685086"><ele>1114.5</ele><time>2026-04-07T15:52:43.999Z</time></trkpt><trkpt lat="45.87940409113782" lon="9.227951700741137"><ele>1112.3333333333333</ele><time>2026-04-07T15:52:46.999Z</time></trkpt><trkpt lat="45.87937994202319" lon="9.22804897189829"><ele>1110.1666666666665</ele><time>2026-04-07T15:52:50.999Z</time></trkpt><trkpt lat="45.87931588419769" lon="9.22803771876325"><ele>1108.0</ele><time>2026-04-07T15:52:52.999Z</time></trkpt><trkpt lat="45.87923861828614" lon="9.228059513319641"><ele>1104.0</ele><time>2026-04-07T15:52:54.999Z</time></trkpt><trkpt lat="45.8791677709995" lon="9.228023886975965"><ele>1100.0</ele><time>2026-04-07T15:53:13.999Z</time></trkpt><trkpt lat="45.87910978296941" lon="9.227918944090653"><ele>1096.0</ele><time>2026-04-07T15:53:15.999Z</time></trkpt><trkpt lat="45.8790699984395" lon="9.227749477754694"><ele>1092.0</ele><time>2026-04-07T15:53:17.999Z</time></trkpt><trkpt lat="45.87908132375675" lon="9.227535384923849"><ele>1088.0</ele><time>2026-04-07T15:53:20Z</time></trkpt><trkpt lat="45.87904819398441" lon="9.227395155292328"><ele>1088.8</ele><time>2026-04-07T15:53:21Z</time></trkpt><trkpt lat="45.87904082538417" lon="9.227261920926303"><ele>1089.6</ele><time>2026-04-07T15:53:22Z</time></trkpt><trkpt lat="45.8790379592608" lon="9.227125151320292"><ele>1090.4</ele><time>2026-04-07T15:53:23Z</time></trkpt><trkpt lat="45.879015734908556" lon="9.226997413488236"><ele>1091.2</ele><time>2026-04-07T15:53:24Z</time></trkpt><trkpt lat="45.87900039786482" lon="9.226884670319562"><ele>1092.0</ele><time>2026-04-07T15:53:25Z</time></trkpt><trkpt lat="45.87898008180753" lon="9.2267348501332"><ele>1092.0</ele><time>2026-04-07T15:53:27Z</time></trkpt><trkpt lat="45.87896759625716" lon="9.226639161307942"><ele>1092.0</ele><time>2026-04-07T15:53:28Z</time></trkpt><trkpt lat="45.878951580680514" lon="9.226491265630605"><ele>1092.0</ele><time>2026-04-07T15:53:30Z</time></trkpt><trkpt lat="45.87894542682357" lon="9.226339508321379"><ele>1092.0</ele><time>2026-04-07T15:53:32Z</time></trkpt><trkpt lat="45.87894741022877" lon="9.226238225618284"><ele>1092.0</ele><time>2026-04-07T15:53:33Z</time></trkpt><trkpt lat="45.878977872727894" lon="9.22605782008069"><ele>1090.6</ele><time>2026-04-07T15:53:35Z</time></trkpt><trkpt lat="45.879000972347555" lon="9.225935419945905"><ele>1089.2</ele><time>2026-04-07T15:53:36Z</time></trkpt><trkpt lat="45.87904065506704" lon="9.225781822338025"><ele>1087.8</ele><time>2026-04-07T15:53:37Z</time></trkpt><trkpt lat="45.87906170119803" lon="9.225667473149382"><ele>1086.4</ele><time>2026-04-07T15:53:38Z</time></trkpt><trkpt lat="45.8790754946624" lon="9.22555987534482"><ele>1085.0</ele><time>2026-04-07T15:53:39Z</time></trkpt><trkpt lat="45.87910703038856" lon="9.22540113513938"><ele>1084.4</ele><time>2026-04-07T15:53:41Z</time></trkpt><trkpt lat="45.87912843729334" lon="9.2252591251197"><ele>1083.8</ele><time>2026-04-07T15:53:43Z</time></trkpt><trkpt lat="45.87916250999119" lon="9.225125814674577"><ele>1083.2</ele><time>2026-04-07T15:53:45Z</time></trkpt><trkpt lat="45.879165403389436" lon="9.225005921634228"><ele>1082.6</ele><time>2026-04-07T15:53:46Z</time></trkpt><trkpt lat="45.87916581697807" lon="9.224861757908545"><ele>1082.0</ele><time>2026-04-07T15:53:47Z</time></trkpt><trkpt lat="45.87914675985942" lon="9.224736936037104"><ele>1082.0</ele><time>2026-04-07T15:53:48Z</time></trkpt><trkpt lat="45.87911174909485" lon="9.224649354116446"><ele>1082.0</ele><time>2026-04-07T15:53:49Z</time></trkpt><trkpt lat="45.87906258519299" lon="9.224536894337104"><ele>1082.0</ele><time>2026-04-07T15:53:51Z</time></trkpt><trkpt lat="45.87898448453207" lon="9.22463322266581"><ele>1082.0</ele><time>2026-04-07T15:53:55Z</time></trkpt><trkpt lat="45.87901927986573" lon="9.224758140760864"><ele>1082.0</ele><time>2026-04-07T15:53:56Z</time></trkpt><trkpt lat="45.879014478531886" lon="9.224866728534632"><ele>1082.0</ele><time>2026-04-07T15:53:57Z</time></trkpt><trkpt lat="45.87900828183659" lon="9.224978111190394"><ele>1082.0</ele><time>2026-04-07T15:53:58Z</time></trkpt><trkpt lat="45.878973953355946" lon="9.22511958233358"><ele>1082.0</ele><time>2026-04-07T15:54:00Z</time></trkpt><trkpt lat="45.87893926133126" lon="9.225215948829605"><ele>1082.0</ele><time>2026-04-07T15:54:01Z</time></trkpt><trkpt lat="45.878862974839066" lon="9.225390605372633"><ele>1082.0</ele><time>2026-04-07T15:54:03Z</time></trkpt><trkpt lat="45.87881363514963" lon="9.225480909678213"><ele>1082.0</ele><time>2026-04-07T15:54:04Z</time></trkpt><trkpt lat="45.87876358454191" lon="9.225573399913385"><ele>1082.5</ele><time>2026-04-07T15:54:05Z</time></trkpt><trkpt lat="45.878722500646774" lon="9.22564942179202"><ele>1083.0</ele><time>2026-04-07T15:54:06Z</time></trkpt><trkpt lat="45.8786602501053" lon="9.225764610654222"><ele>1083.5</ele><time>2026-04-07T15:54:08Z</time></trkpt><trkpt lat="45.87862225992283" lon="9.22583728425117"><ele>1084.0</ele><time>2026-04-07T15:54:09Z</time></trkpt><trkpt lat="45.87858479183795" lon="9.22591432736073"><ele>1084.5</ele><time>2026-04-07T15:54:10Z</time></trkpt><trkpt lat="45.87854823923488" lon="9.2260165541904"><ele>1085.0</ele><time>2026-04-07T15:54:11Z</time></trkpt><trkpt lat="45.87849474206008" lon="9.226096983596317"><ele>1085.0</ele><time>2026-04-07T15:54:12Z</time></trkpt><trkpt lat="45.87845714627629" lon="9.226257652657894"><ele>1085.0</ele><time>2026-04-07T15:54:14Z</time></trkpt><trkpt lat="45.878389771140625" lon="9.226387987809375"><ele>1085.0</ele><time>2026-04-07T15:54:16Z</time></trkpt><trkpt lat="45.87835596683676" lon="9.226576700944866"><ele>1085.0</ele><time>2026-04-07T15:54:18Z</time></trkpt><trkpt lat="45.878334483605386" lon="9.226720101620641"><ele>1078.0</ele><time>2026-04-07T15:54:20Z</time></trkpt><trkpt lat="45.87832791681557" lon="9.226874914221948"><ele>1071.0</ele><time>2026-04-07T15:54:21Z</time></trkpt><trkpt lat="45.8783243063949" lon="9.226974692222704"><ele>1064.0</ele><time>2026-04-07T15:54:22Z</time></trkpt><trkpt lat="45.878309633628994" lon="9.227140821595803"><ele>1057.0</ele><time>2026-04-07T15:54:24Z</time></trkpt><trkpt lat="45.878271925791054" lon="9.22731691916331"><ele>1050.0</ele><time>2026-04-07T15:54:26Z</time></trkpt><trkpt lat="45.87825793947295" lon="9.227421002156799"><ele>1050.0</ele><time>2026-04-07T15:54:27Z</time></trkpt><trkpt lat="45.878228050437436" lon="9.22751818352084"><ele>1050.0</ele><time>2026-04-07T15:54:28Z</time></trkpt><trkpt lat="45.87820462056296" lon="9.227619429114174"><ele>1050.0</ele><time>2026-04-07T15:54:29Z</time></trkpt><trkpt lat="45.878139132421424" lon="9.227776478087392"><ele>1050.0</ele><time>2026-04-07T15:54:31Z</time></trkpt><trkpt lat="45.87810826588349" lon="9.227871708240746"><ele>1050.0</ele><time>2026-04-07T15:54:32Z</time></trkpt><trkpt lat="45.878068732930224" lon="9.227966648372396"><ele>1050.0</ele><time>2026-04-07T15:54:33Z</time></trkpt><trkpt lat="45.878018121413234" lon="9.228111898972116"><ele>1050.6666666666667</ele><time>2026-04-07T15:54:35Z</time></trkpt><trkpt lat="45.877992369139186" lon="9.228210392349025"><ele>1051.3333333333333</ele><time>2026-04-07T15:54:36Z</time></trkpt><trkpt lat="45.877955547332974" lon="9.228341887103538"><ele>1052.0</ele><time>2026-04-07T15:54:37Z</time></trkpt><trkpt lat="45.877929672648364" lon="9.228454903448823"><ele>1052.6666666666665</ele><time>2026-04-07T15:54:37.999Z</time></trkpt><trkpt lat="45.877905002373836" lon="9.228554077367237"><ele>1053.3333333333333</ele><time>2026-04-07T15:54:38.999Z</time></trkpt><trkpt lat="45.87787715948187" lon="9.22864597536679"><ele>1054.0</ele><time>2026-04-07T15:54:39.999Z</time></trkpt><trkpt lat="45.87784327826892" lon="9.22875780369073"><ele>1054.0</ele><time>2026-04-07T15:54:40.999Z</time></trkpt><trkpt lat="45.87781410239183" lon="9.228854573702316"><ele>1054.0</ele><time>2026-04-07T15:54:41.999Z</time></trkpt><trkpt lat="45.87777059964529" lon="9.22900263136289"><ele>1054.0</ele><time>2026-04-07T15:54:43.999Z</time></trkpt><trkpt lat="45.87773323224771" lon="9.229129807887045"><ele>1054.0</ele><time>2026-04-07T15:54:44.999Z</time></trkpt><trkpt lat="45.877709177507235" lon="9.229264974745467"><ele>1054.0</ele><time>2026-04-07T15:54:45.999Z</time></trkpt><trkpt lat="45.87767879365348" lon="9.229346307433602"><ele>1054.0</ele><time>2026-04-07T15:54:46.999Z</time></trkpt><trkpt lat="45.87762028312764" lon="9.22951155995054"><ele>1051.5</ele><time>2026-04-07T15:54:48.999Z</time></trkpt><trkpt lat="45.87758385737638" lon="9.229613423423544"><ele>1049.0</ele><time>2026-04-07T15:54:49.999Z</time></trkpt><trkpt lat="45.87755978832259" lon="9.229764955934199"><ele>1046.5</ele><time>2026-04-07T15:54:50.999Z</time></trkpt><trkpt lat="45.87757969489966" lon="9.229870512505077"><ele>1044.0</ele><time>2026-04-07T15:54:51.999Z</time></trkpt><trkpt lat="45.87757770525081" lon="9.2299788937243"><ele>1041.5</ele><time>2026-04-07T15:54:52.999Z</time></trkpt><trkpt lat="45.877599044646665" lon="9.230132630354717"><ele>1039.0</ele><time>2026-04-07T15:54:54.999Z</time></trkpt><trkpt lat="45.87763777227986" lon="9.230293602186787"><ele>1039.0</ele><time>2026-04-07T15:54:56.999Z</time></trkpt><trkpt lat="45.87769169247146" lon="9.230370265098466"><ele>1039.0</ele><time>2026-04-07T15:54:57.999Z</time></trkpt><trkpt lat="45.87778525770037" lon="9.230483424516912"><ele>1039.0</ele><time>2026-04-07T15:54:59.999Z</time></trkpt><trkpt lat="45.87786464843747" lon="9.230606006335826"><ele>1039.0</ele><time>2026-04-07T15:55:00.999Z</time></trkpt><trkpt lat="45.877930861538" lon="9.230701071248966"><ele>1039.0</ele><time>2026-04-07T15:55:02.999Z</time></trkpt><trkpt lat="45.87785268134557" lon="9.230760427987587"><ele>1034.0</ele><time>2026-04-07T15:55:07.999Z</time></trkpt><trkpt lat="45.877769298008545" lon="9.230734228610217"><ele>1029.0</ele><time>2026-04-07T15:55:11.999Z</time></trkpt><trkpt lat="45.877678757110615" lon="9.230753278357064"><ele>1024.0</ele><time>2026-04-07T15:55:12.999Z</time></trkpt><trkpt lat="45.87764004812519" lon="9.230673353684454"><ele>1019.0</ele><time>2026-04-07T15:55:13.999Z</time></trkpt><trkpt lat="45.8774995859627" lon="9.230708986845135"><ele>1014.0</ele><time>2026-04-07T15:55:14.999Z</time></trkpt><trkpt lat="45.8774254136393" lon="9.230674469063585"><ele>1013.6</ele><time>2026-04-07T15:55:15.999Z</time></trkpt><trkpt lat="45.87735566472464" lon="9.230641188775039"><ele>1013.2</ele><time>2026-04-07T15:55:16.999Z</time></trkpt><trkpt lat="45.877286469849835" lon="9.230527891960909"><ele>1012.8000000000001</ele><time>2026-04-07T15:55:18.999Z</time></trkpt><trkpt lat="45.87732845587898" lon="9.230676425294076"><ele>1012.4000000000001</ele><time>2026-04-07T15:55:23.999Z</time></trkpt><trkpt lat="45.87734583202828" lon="9.23082413433839"><ele>1012.0</ele><time>2026-04-07T15:55:26Z</time></trkpt><trkpt lat="45.87741854266603" lon="9.230759357067312"><ele>1010.2</ele><time>2026-04-07T15:55:32Z</time></trkpt><trkpt lat="45.87727338846657" lon="9.230772650271215"><ele>1008.4000000000001</ele><time>2026-04-07T15:55:35Z</time></trkpt><trkpt lat="45.87719898376355" lon="9.230750316882625"><ele>1006.5999999999999</ele><time>2026-04-07T15:55:36Z</time></trkpt><trkpt lat="45.877124834616005" lon="9.230745733055157"><ele>1004.8</ele><time>2026-04-07T15:55:37Z</time></trkpt><trkpt lat="45.87704858010087" lon="9.230720109819185"><ele>1003.0</ele><time>2026-04-07T15:55:38Z</time></trkpt><trkpt lat="45.87694293507193" lon="9.230682501868287"><ele>1004.8</ele><time>2026-04-07T15:55:40Z</time></trkpt><trkpt lat="45.87686010400372" lon="9.230548054590889"><ele>1006.5999999999999</ele><time>2026-04-07T15:55:42Z</time></trkpt><trkpt lat="45.87684763743039" lon="9.230442754919538"><ele>1008.4000000000001</ele><time>2026-04-07T15:55:43Z</time></trkpt><trkpt lat="45.876863109250145" lon="9.230290441355951"><ele>1010.2</ele><time>2026-04-07T15:55:44Z</time></trkpt><trkpt lat="45.876888192818456" lon="9.230136593122118"><ele>1012.0</ele><time>2026-04-07T15:55:45Z</time></trkpt><trkpt lat="45.876901511618996" lon="9.230009844276712"><ele>1012.0</ele><time>2026-04-07T15:55:46Z</time></trkpt><trkpt lat="45.87691954672464" lon="9.229814379095357"><ele>1012.0</ele><time>2026-04-07T15:55:47Z</time></trkpt><trkpt lat="45.876952044808625" lon="9.229586567664743"><ele>1012.0</ele><time>2026-04-07T15:55:48Z</time></trkpt><trkpt lat="45.87696238986926" lon="9.2294308920381"><ele>1012.0</ele><time>2026-04-07T15:55:49Z</time></trkpt><trkpt lat="45.87696580342196" lon="9.229323648588379"><ele>1011.9999999999999</ele><time>2026-04-07T15:55:50Z</time></trkpt><trkpt lat="45.876964879273814" lon="9.229216962196334"><ele>1012.0</ele><time>2026-04-07T15:55:51Z</time></trkpt><trkpt lat="45.876952511806664" lon="9.229118675893062"><ele>1012.0</ele><time>2026-04-07T15:55:52Z</time></trkpt><trkpt lat="45.876939528538934" lon="9.22902017557769"><ele>1012.0</ele><time>2026-04-07T15:55:53Z</time></trkpt><trkpt lat="45.876854425668405" lon="9.228979448673762"><ele>1011.9999999999999</ele><time>2026-04-07T15:55:56Z</time></trkpt><trkpt lat="45.876770736339" lon="9.228981149925833"><ele>1012.0</ele><time>2026-04-07T15:55:57Z</time></trkpt><trkpt lat="45.87668216062847" lon="9.229063884342239"><ele>1006.1666666666666</ele><time>2026-04-07T15:55:58Z</time></trkpt><trkpt lat="45.876595542379235" lon="9.229140046318314"><ele>1000.3333333333333</ele><time>2026-04-07T15:56:00Z</time></trkpt><trkpt lat="45.87654909468855" lon="9.229245128623855"><ele>994.5</ele><time>2026-04-07T15:56:01Z</time></trkpt><trkpt lat="45.87651739962356" lon="9.229334254280607"><ele>988.6666666666667</ele><time>2026-04-07T15:56:02Z</time></trkpt><trkpt lat="45.87646646718507" lon="9.229426388899352"><ele>982.8333333333334</ele><time>2026-04-07T15:56:03Z</time></trkpt><trkpt lat="45.87641166859814" lon="9.229521187412299"><ele>977.0</ele><time>2026-04-07T15:56:04Z</time></trkpt><trkpt lat="45.876346133074485" lon="9.22961391868225"><ele>977.0</ele><time>2026-04-07T15:56:05Z</time></trkpt><trkpt lat="45.87626119054069" lon="9.229752998390998"><ele>977.0</ele><time>2026-04-07T15:56:07Z</time></trkpt><trkpt lat="45.87621820700835" lon="9.22984549929747"><ele>977.0</ele><time>2026-04-07T15:56:08Z</time></trkpt><trkpt lat="45.8761870063503" lon="9.229962705367415"><ele>977.0</ele><time>2026-04-07T15:56:09Z</time></trkpt><trkpt lat="45.876146954345614" lon="9.230070771778953"><ele>977.0</ele><time>2026-04-07T15:56:10Z</time></trkpt><trkpt lat="45.8761267756949" lon="9.230178800253219"><ele>977.3333333333334</ele><time>2026-04-07T15:56:11Z</time></trkpt><trkpt lat="45.87610348626747" lon="9.230274133807109"><ele>977.6666666666667</ele><time>2026-04-07T15:56:12Z</time></trkpt><trkpt lat="45.876090309685715" lon="9.230383204233716"><ele>978.0</ele><time>2026-04-07T15:56:13Z</time></trkpt><trkpt lat="45.87609430750351" lon="9.230481206370234"><ele>978.3333333333333</ele><time>2026-04-07T15:56:14Z</time></trkpt><trkpt lat="45.87610981419443" lon="9.230570513987063"><ele>978.6666666666666</ele><time>2026-04-07T15:56:15Z</time></trkpt><trkpt lat="45.876142621328235" lon="9.230674621761384"><ele>979.0</ele><time>2026-04-07T15:56:16Z</time></trkpt><trkpt lat="45.8761797993177" lon="9.230826350272936"><ele>978.9999999999999</ele><time>2026-04-07T15:56:18Z</time></trkpt><trkpt lat="45.87608251243924" lon="9.230836821034243"><ele>979.0</ele><time>2026-04-07T15:56:24Z</time></trkpt><trkpt lat="45.876054650036714" lon="9.230749086285254"><ele>979.0</ele><time>2026-04-07T15:56:25Z</time></trkpt><trkpt lat="45.87600286745232" lon="9.230607324589363"><ele>979.0</ele><time>2026-04-07T15:56:26Z</time></trkpt><trkpt lat="45.875979677314774" lon="9.230513014337316"><ele>978.9999999999999</ele><time>2026-04-07T15:56:27Z</time></trkpt><trkpt lat="45.87594500123466" lon="9.230416295489864"><ele>979.0</ele><time>2026-04-07T15:56:28Z</time></trkpt><trkpt lat="45.87588682473084" lon="9.230324941071823"><ele>974.2</ele><time>2026-04-07T15:56:29Z</time></trkpt><trkpt lat="45.875849835025946" lon="9.230211347553956"><ele>969.4000000000001</ele><time>2026-04-07T15:56:31Z</time></trkpt><trkpt lat="45.87580466891547" lon="9.230099133430747"><ele>964.6</ele><time>2026-04-07T15:56:32Z</time></trkpt><trkpt lat="45.875745969394366" lon="9.229966274326125"><ele>959.8</ele><time>2026-04-07T15:56:33Z</time></trkpt><trkpt lat="45.8756968092104" lon="9.229832580322983"><ele>955.0</ele><time>2026-04-07T15:56:34Z</time></trkpt><trkpt lat="45.875663461377286" lon="9.229749498121567"><ele>954.6666666666666</ele><time>2026-04-07T15:56:34.999Z</time></trkpt><trkpt lat="45.87563014025621" lon="9.229661449532"><ele>954.3333333333333</ele><time>2026-04-07T15:56:35.999Z</time></trkpt><trkpt lat="45.87557837567931" lon="9.22952259599358"><ele>954.0</ele><time>2026-04-07T15:56:37.999Z</time></trkpt><trkpt lat="45.87556774717647" lon="9.229409132168326"><ele>953.6666666666667</ele><time>2026-04-07T15:56:38.999Z</time></trkpt><trkpt lat="45.87555150054389" lon="9.229320132368692"><ele>953.3333333333334</ele><time>2026-04-07T15:56:39.999Z</time></trkpt><trkpt lat="45.87557900117486" lon="9.229184697541546"><ele>953.0</ele><time>2026-04-07T15:56:41.999Z</time></trkpt><trkpt lat="45.875602402039114" lon="9.22908541311833"><ele>953.0</ele><time>2026-04-07T15:56:42.999Z</time></trkpt><trkpt lat="45.87563376920621" lon="9.228976997368694"><ele>953.0</ele><time>2026-04-07T15:56:44.999Z</time></trkpt><trkpt lat="45.87566479314867" lon="9.228859173278849"><ele>953.0</ele><time>2026-04-07T15:56:47.999Z</time></trkpt><trkpt lat="45.87559418400488" lon="9.228769527366408"><ele>953.0</ele><time>2026-04-07T15:56:48.999Z</time></trkpt><trkpt lat="45.875469153798726" lon="9.228871511444517"><ele>953.0</ele><time>2026-04-07T15:56:49.999Z</time></trkpt><trkpt lat="45.87540716066671" lon="9.228937989701356"><ele>953.0000000000001</ele><time>2026-04-07T15:56:50.999Z</time></trkpt><trkpt lat="45.87535715731447" lon="9.229003807140067"><ele>953.0</ele><time>2026-04-07T15:56:51.999Z</time></trkpt><trkpt lat="45.87529982018391" lon="9.229048075086844"><ele>953.0</ele><time>2026-04-07T15:56:52.999Z</time></trkpt><trkpt lat="45.875248911346716" lon="9.229201668611747"><ele>953.0</ele><time>2026-04-07T15:56:53.999Z</time></trkpt><trkpt lat="45.87521570054562" lon="9.229318118679942"><ele>953.0000000000001</ele><time>2026-04-07T15:56:54.999Z</time></trkpt><trkpt lat="45.87518561584931" lon="9.229447440307764"><ele>953.0</ele><time>2026-04-07T15:56:55.999Z</time></trkpt><trkpt lat="45.875155393285965" lon="9.229604967970646"><ele>953.0</ele><time>2026-04-07T15:56:56.999Z</time></trkpt><trkpt lat="45.87513615070668" lon="9.229733010911252"><ele>953.0</ele><time>2026-04-07T15:56:57.999Z</time></trkpt><trkpt lat="45.87509353533121" lon="9.22988457085077"><ele>953.0</ele><time>2026-04-07T15:56:59.999Z</time></trkpt><trkpt lat="45.875060155912685" lon="9.230028828075769"><ele>953.0</ele><time>2026-04-07T15:57:01.999Z</time></trkpt><trkpt lat="45.87504679295533" lon="9.230118479563096"><ele>953.0</ele><time>2026-04-07T15:57:02.999Z</time></trkpt><trkpt lat="45.87508176220782" lon="9.23033555921081"><ele>953.5</ele><time>2026-04-07T15:57:04.999Z</time></trkpt><trkpt lat="45.87513468774939" lon="9.23053573511342"><ele>954.0</ele><time>2026-04-07T15:57:06.999Z</time></trkpt><trkpt lat="45.87519805621784" lon="9.23070084319187"><ele>954.5</ele><time>2026-04-07T15:57:07.999Z</time></trkpt><trkpt lat="45.87522298077182" lon="9.230836580230562"><ele>955.0</ele><time>2026-04-07T15:57:08.999Z</time></trkpt><trkpt lat="45.87528087350061" lon="9.230947362150609"><ele>953.6</ele><time>2026-04-07T15:57:09.999Z</time></trkpt><trkpt lat="45.87532793404161" lon="9.23109004714215"><ele>952.2</ele><time>2026-04-07T15:57:10.999Z</time></trkpt><trkpt lat="45.87538587981053" lon="9.231211358379104"><ele>950.8</ele><time>2026-04-07T15:57:11.999Z</time></trkpt><trkpt lat="45.8754428075828" lon="9.231348132236489"><ele>949.4</ele><time>2026-04-07T15:57:12.999Z</time></trkpt><trkpt lat="45.87547957233189" lon="9.231457286136786"><ele>948.0</ele><time>2026-04-07T15:57:13.999Z</time></trkpt><trkpt lat="45.87551255387828" lon="9.231562241215476"><ele>945.0</ele><time>2026-04-07T15:57:14.999Z</time></trkpt><trkpt lat="45.87554834241083" lon="9.231684010056806"><ele>942.0</ele><time>2026-04-07T15:57:16.999Z</time></trkpt><trkpt lat="45.87558589813374" lon="9.231782153224785"><ele>939.0</ele><time>2026-04-07T15:57:19.999Z</time></trkpt><trkpt lat="45.87552722971068" lon="9.231845174016732"><ele>936.0</ele><time>2026-04-07T15:57:21.999Z</time></trkpt><trkpt lat="45.87544294592596" lon="9.231753113566029"><ele>933.0</ele><time>2026-04-07T15:57:23.999Z</time></trkpt><trkpt lat="45.875426350236786" lon="9.231556027400318"><ele>930.5999999999999</ele><time>2026-04-07T15:57:24.999Z</time></trkpt><trkpt lat="45.87530015641171" lon="9.231432036402065"><ele>928.1999999999999</ele><time>2026-04-07T15:57:26.999Z</time></trkpt><trkpt lat="45.875214181847106" lon="9.231450152962019"><ele>925.8</ele><time>2026-04-07T15:57:27.999Z</time></trkpt><trkpt lat="45.87514482671751" lon="9.231406336741921"><ele>923.4</ele><time>2026-04-07T15:57:28.999Z</time></trkpt><trkpt lat="45.87508980703761" lon="9.231360680788992"><ele>921.0</ele><time>2026-04-07T15:57:29.999Z</time></trkpt><trkpt lat="45.87501996087541" lon="9.231294973315855"><ele>921.0</ele><time>2026-04-07T15:57:30.999Z</time></trkpt><trkpt lat="45.874933990994634" lon="9.23119103543952"><ele>920.9999999999999</ele><time>2026-04-07T15:57:32Z</time></trkpt><trkpt lat="45.874858268740404" lon="9.231123403334498"><ele>920.9999999999999</ele><time>2026-04-07T15:57:33Z</time></trkpt><trkpt lat="45.874782397144195" lon="9.231036393856325"><ele>921.0</ele><time>2026-04-07T15:57:34Z</time></trkpt><trkpt lat="45.87471868287263" lon="9.230960528266806"><ele>921.0</ele><time>2026-04-07T15:57:35Z</time></trkpt><trkpt lat="45.874642034975444" lon="9.230870584022995"><ele>921.0</ele><time>2026-04-07T15:57:36Z</time></trkpt><trkpt lat="45.87454935064732" lon="9.230798467736285"><ele>920.9999999999999</ele><time>2026-04-07T15:57:37Z</time></trkpt><trkpt lat="45.874463009877125" lon="9.230708562653318"><ele>920.9999999999999</ele><time>2026-04-07T15:57:38Z</time></trkpt><trkpt lat="45.874390801332716" lon="9.23061190507857"><ele>921.0</ele><time>2026-04-07T15:57:39Z</time></trkpt><trkpt lat="45.87428661737253" lon="9.230517058865797"><ele>921.0</ele><time>2026-04-07T15:57:40Z</time></trkpt><trkpt lat="45.87419348962767" lon="9.230410911366954"><ele>917.5999999999999</ele><time>2026-04-07T15:57:41Z</time></trkpt><trkpt lat="45.87411572837445" lon="9.23031581832436"><ele>914.1999999999999</ele><time>2026-04-07T15:57:43Z</time></trkpt><trkpt lat="45.87403589920122" lon="9.23022504833794"><ele>910.8000000000001</ele><time>2026-04-07T15:57:45Z</time></trkpt><trkpt lat="45.873948096360486" lon="9.230162102609157"><ele>907.4000000000001</ele><time>2026-04-07T15:57:47Z</time></trkpt><trkpt lat="45.873835466841356" lon="9.230160224083399"><ele>904.0</ele><time>2026-04-07T15:57:48Z</time></trkpt><trkpt lat="45.87377259118202" lon="9.230209133757446"><ele>903.9999999999999</ele><time>2026-04-07T15:57:49Z</time></trkpt><trkpt lat="45.873722545863906" lon="9.23027125897137"><ele>904.0</ele><time>2026-04-07T15:57:50Z</time></trkpt><trkpt lat="45.87365065828935" lon="9.23033661325788"><ele>904.0</ele><time>2026-04-07T15:57:52Z</time></trkpt><trkpt lat="45.87359079526924" lon="9.230409620453006"><ele>904.0</ele><time>2026-04-07T15:57:53Z</time></trkpt><trkpt lat="45.87350749030521" lon="9.230468532412644"><ele>903.9999999999999</ele><time>2026-04-07T15:57:54Z</time></trkpt><trkpt lat="45.873441280641146" lon="9.23053353053093"><ele>904.0</ele><time>2026-04-07T15:57:55Z</time></trkpt><trkpt lat="45.87337195267666" lon="9.230609594404163"><ele>899.2</ele><time>2026-04-07T15:57:57Z</time></trkpt><trkpt lat="45.87328076502888" lon="9.230732703852976"><ele>894.4000000000001</ele><time>2026-04-07T15:57:59Z</time></trkpt><trkpt lat="45.87322954968224" lon="9.230791561953277"><ele>889.6</ele><time>2026-04-07T15:58:00Z</time></trkpt><trkpt lat="45.87316491525704" lon="9.2308557783247"><ele>884.8</ele><time>2026-04-07T15:58:01Z</time></trkpt><trkpt lat="45.87307855024918" lon="9.23093752000661"><ele>880.0</ele><time>2026-04-07T15:58:02Z</time></trkpt><trkpt lat="45.87298496968186" lon="9.231035469250857"><ele>879.9999999999999</ele><time>2026-04-07T15:58:03Z</time></trkpt><trkpt lat="45.872904506146206" lon="9.231126598951382"><ele>880.0</ele><time>2026-04-07T15:58:04Z</time></trkpt><trkpt lat="45.87283853406315" lon="9.231213637553346"><ele>880.0</ele><time>2026-04-07T15:58:05Z</time></trkpt><trkpt lat="45.872792194644475" lon="9.231280530612002"><ele>880.0</ele><time>2026-04-07T15:58:06Z</time></trkpt><trkpt lat="45.8727449470795" lon="9.231357008216552"><ele>879.9999999999999</ele><time>2026-04-07T15:58:07Z</time></trkpt><trkpt lat="45.872690332049864" lon="9.231421004868936"><ele>880.0</ele><time>2026-04-07T15:58:08Z</time></trkpt><trkpt lat="45.87261568146733" lon="9.23149697140911"><ele>876.8</ele><time>2026-04-07T15:58:09Z</time></trkpt><trkpt lat="45.87256991545157" lon="9.231572379924872"><ele>873.6</ele><time>2026-04-07T15:58:10Z</time></trkpt><trkpt lat="45.87251655952553" lon="9.231694853642132"><ele>870.4000000000001</ele><time>2026-04-07T15:58:12Z</time></trkpt><trkpt lat="45.87246203027847" lon="9.231743001043672"><ele>867.2</ele><time>2026-04-07T15:58:13Z</time></trkpt><trkpt lat="45.87226777459465" lon="9.231709949786694"><ele>864.0</ele><time>2026-04-07T15:58:15Z</time></trkpt><trkpt lat="45.872166736963294" lon="9.231693671910739"><ele>864.0</ele><time>2026-04-07T15:58:16Z</time></trkpt><trkpt lat="45.87207364339269" lon="9.231693008261887"><ele>864.0000000000001</ele><time>2026-04-07T15:58:17Z</time></trkpt><trkpt lat="45.8719630905327" lon="9.231725500586087"><ele>864.0000000000001</ele><time>2026-04-07T15:58:18Z</time></trkpt><trkpt lat="45.871878457501914" lon="9.231821493357332"><ele>864.0</ele><time>2026-04-07T15:58:19Z</time></trkpt><trkpt lat="45.87179929941063" lon="9.231956116979443"><ele>864.0</ele><time>2026-04-07T15:58:20Z</time></trkpt><trkpt lat="45.8717107356092" lon="9.232053065802564"><ele>863.8000000000001</ele><time>2026-04-07T15:58:21Z</time></trkpt><trkpt lat="45.87163138090254" lon="9.23216858553695"><ele>863.6000000000001</ele><time>2026-04-07T15:58:22Z</time></trkpt><trkpt lat="45.87153960285451" lon="9.232299160760503"><ele>863.4</ele><time>2026-04-07T15:58:23Z</time></trkpt><trkpt lat="45.871441513099846" lon="9.232357610903989"><ele>863.2</ele><time>2026-04-07T15:58:24Z</time></trkpt><trkpt lat="45.87135255087845" lon="9.232400939782286"><ele>863.0</ele><time>2026-04-07T15:58:25Z</time></trkpt><trkpt lat="45.8712622539167" lon="9.232387394756483"><ele>861.5999999999999</ele><time>2026-04-07T15:58:26Z</time></trkpt><trkpt lat="45.87114290684642" lon="9.232400294731384"><ele>860.1999999999999</ele><time>2026-04-07T15:58:27Z</time></trkpt><trkpt lat="45.8710201885559" lon="9.232401630141034"><ele>858.8</ele><time>2026-04-07T15:58:28Z</time></trkpt><trkpt lat="45.8709184029759" lon="9.232401002726101"><ele>857.4</ele><time>2026-04-07T15:58:29Z</time></trkpt><trkpt lat="45.870828202120364" lon="9.232405357997816"><ele>856.0</ele><time>2026-04-07T15:58:30Z</time></trkpt><trkpt lat="45.87075092671807" lon="9.232347275333508"><ele>855.0</ele><time>2026-04-07T15:58:32Z</time></trkpt><trkpt lat="45.87068410288255" lon="9.23235225417443"><ele>854.0</ele><time>2026-04-07T15:58:33Z</time></trkpt><trkpt lat="45.87061945391498" lon="9.232347913026604"><ele>853.0</ele><time>2026-04-07T15:58:34Z</time></trkpt><trkpt lat="45.870592998730324" lon="9.232067163769294"><ele>852.0</ele><time>2026-04-07T15:58:35Z</time></trkpt><trkpt lat="45.87051798064961" lon="9.23189937213019"><ele>851.8</ele><time>2026-04-07T15:58:36Z</time></trkpt><trkpt lat="45.870435541301454" lon="9.231773213371214"><ele>851.6</ele><time>2026-04-07T15:58:37Z</time></trkpt><trkpt lat="45.87036818113008" lon="9.231634319513656"><ele>851.4</ele><time>2026-04-07T15:58:38Z</time></trkpt><trkpt lat="45.87028915468924" lon="9.231540242937488"><ele>851.1999999999999</ele><time>2026-04-07T15:58:38.999Z</time></trkpt><trkpt lat="45.87021552224283" lon="9.231435085523165"><ele>851.0</ele><time>2026-04-07T15:58:39.999Z</time></trkpt><trkpt lat="45.87015292435672" lon="9.231337259118543"><ele>849.8</ele><time>2026-04-07T15:58:40.999Z</time></trkpt><trkpt lat="45.87004646026029" lon="9.231398108952344"><ele>848.5999999999999</ele><time>2026-04-07T15:58:42.999Z</time></trkpt><trkpt lat="45.86998765043057" lon="9.231441618987137"><ele>847.4</ele><time>2026-04-07T15:58:43.999Z</time></trkpt><trkpt lat="45.86992339651827" lon="9.2315130185462"><ele>846.2</ele><time>2026-04-07T15:58:45.999Z</time></trkpt><trkpt lat="45.869903869561504" lon="9.23134338390632"><ele>845.0</ele><time>2026-04-07T15:58:51.999Z</time></trkpt><trkpt lat="45.86999394573858" lon="9.231178953999768"><ele>845.25</ele><time>2026-04-07T15:58:53.999Z</time></trkpt><trkpt lat="45.870074063177434" lon="9.231068856023633"><ele>845.5</ele><time>2026-04-07T15:58:54.999Z</time></trkpt><trkpt lat="45.87019235583135" lon="9.230954321168594"><ele>845.75</ele><time>2026-04-07T15:58:55.999Z</time></trkpt><trkpt lat="45.87035143080242" lon="9.230806982368751"><ele>846.0</ele><time>2026-04-07T15:58:56.999Z</time></trkpt><trkpt lat="45.87049989423359" lon="9.230669124076641"><ele>843.3333333333333</ele><time>2026-04-07T15:58:57.999Z</time></trkpt><trkpt lat="45.87064097681674" lon="9.230531937250907"><ele>840.6666666666666</ele><time>2026-04-07T15:58:58.999Z</time></trkpt><trkpt lat="45.870751942830815" lon="9.230393000763787"><ele>838.0</ele><time>2026-04-07T15:58:59.999Z</time></trkpt><trkpt lat="45.870853303255956" lon="9.230253241521373"><ele>838.0</ele><time>2026-04-07T15:59:00.999Z</time></trkpt><trkpt lat="45.87092964862906" lon="9.230101752648915"><ele>838.0</ele><time>2026-04-07T15:59:01.999Z</time></trkpt><trkpt lat="45.87102284965724" lon="9.229922010916717"><ele>838.0</ele><time>2026-04-07T15:59:02.999Z</time></trkpt><trkpt lat="45.871136807716496" lon="9.229814666282401"><ele>838.0</ele><time>2026-04-07T15:59:03.999Z</time></trkpt><trkpt lat="45.87122722061027" lon="9.2297348700164"><ele>838.0</ele><time>2026-04-07T15:59:04.999Z</time></trkpt><trkpt lat="45.87131466089866" lon="9.229678018377635"><ele>838.0</ele><time>2026-04-07T15:59:05.999Z</time></trkpt><trkpt lat="45.87146095164812" lon="9.229626579961606"><ele>838.0</ele><time>2026-04-07T15:59:06.999Z</time></trkpt><trkpt lat="45.87159449160365" lon="9.229591760224046"><ele>838.0</ele><time>2026-04-07T15:59:07.999Z</time></trkpt><trkpt lat="45.87174381003689" lon="9.229504331421783"><ele>841.75</ele><time>2026-04-07T15:59:08.999Z</time></trkpt><trkpt lat="45.87186068081073" lon="9.2294086817097"><ele>845.5</ele><time>2026-04-07T15:59:09.999Z</time></trkpt><trkpt lat="45.871988662833715" lon="9.229285853945317"><ele>849.25</ele><time>2026-04-07T15:59:10.999Z</time></trkpt><trkpt lat="45.872096400986415" lon="9.229160806105066"><ele>853.0</ele><time>2026-04-07T15:59:11.999Z</time></trkpt><trkpt lat="45.872176463057265" lon="9.228993857016068"><ele>851.75</ele><time>2026-04-07T15:59:12.999Z</time></trkpt><trkpt lat="45.872267405077636" lon="9.228828312078026"><ele>850.5</ele><time>2026-04-07T15:59:13.999Z</time></trkpt><trkpt lat="45.87234229331807" lon="9.228675364747305"><ele>849.25</ele><time>2026-04-07T15:59:14.999Z</time></trkpt><trkpt lat="45.87240104063048" lon="9.228563766777674"><ele>848.0</ele><time>2026-04-07T15:59:15.999Z</time></trkpt><trkpt lat="45.87242794501703" lon="9.228441631070433"><ele>848.0</ele><time>2026-04-07T15:59:16.999Z</time></trkpt><trkpt lat="45.872392385414386" lon="9.228284156776745"><ele>848.0</ele><time>2026-04-07T15:59:18.999Z</time></trkpt><trkpt lat="45.87230208596482" lon="9.228250044975008"><ele>848.0</ele><time>2026-04-07T15:59:19.999Z</time></trkpt><trkpt lat="45.87220491843228" lon="9.228252807290895"><ele>848.0</ele><time>2026-04-07T15:59:20.999Z</time></trkpt><trkpt lat="45.872128656624284" lon="9.228281797273608"><ele>848.0</ele><time>2026-04-07T15:59:21.999Z</time></trkpt><trkpt lat="45.87204550550229" lon="9.228295646210052"><ele>848.0</ele><time>2026-04-07T15:59:22.999Z</time></trkpt><trkpt lat="45.87197121838637" lon="9.22830321917896"><ele>848.0</ele><time>2026-04-07T15:59:23.999Z</time></trkpt><trkpt lat="45.87187856437278" lon="9.22830434146343"><ele>848.0</ele><time>2026-04-07T15:59:24.999Z</time></trkpt><trkpt lat="45.87181419525965" lon="9.22825137373472"><ele>848.0</ele><time>2026-04-07T15:59:25.999Z</time></trkpt><trkpt lat="45.8717355111705" lon="9.228140120545163"><ele>848.0</ele><time>2026-04-07T15:59:26.999Z</time></trkpt><trkpt lat="45.87163616079948" lon="9.227964939760808"><ele>848.5999999999999</ele><time>2026-04-07T15:59:27.999Z</time></trkpt><trkpt lat="45.871568313422394" lon="9.227868921057226"><ele>849.1999999999999</ele><time>2026-04-07T15:59:28.999Z</time></trkpt><trkpt lat="45.871537498181446" lon="9.227738598418057"><ele>849.8</ele><time>2026-04-07T15:59:29.999Z</time></trkpt><trkpt lat="45.87148698258822" lon="9.227564757126526"><ele>850.4</ele><time>2026-04-07T15:59:30.999Z</time></trkpt><trkpt lat="45.871452629921365" lon="9.227430944213165"><ele>851.0</ele><time>2026-04-07T15:59:31.999Z</time></trkpt><trkpt lat="45.871450688071" lon="9.227292386480823"><ele>854.75</ele><time>2026-04-07T15:59:32.999Z</time></trkpt><trkpt lat="45.87146099525235" lon="9.22713403278937"><ele>858.5</ele><time>2026-04-07T15:59:33.999Z</time></trkpt><trkpt lat="45.87146003097208" lon="9.226964731808048"><ele>862.25</ele><time>2026-04-07T15:59:34.999Z</time></trkpt><trkpt lat="45.871433248282564" lon="9.22672707015675"><ele>866.0</ele><time>2026-04-07T15:59:35.999Z</time></trkpt><trkpt lat="45.871378290002625" lon="9.226495291398955"><ele>872.6666666666667</ele><time>2026-04-07T15:59:36.999Z</time></trkpt><trkpt lat="45.871310806727" lon="9.226277407172844"><ele>879.3333333333333</ele><time>2026-04-07T15:59:38Z</time></trkpt><trkpt lat="45.87126132712672" lon="9.226082567144633"><ele>886.0</ele><time>2026-04-07T15:59:39Z</time></trkpt><trkpt lat="45.87116506011376" lon="9.225893186042871"><ele>886.0</ele><time>2026-04-07T15:59:40Z</time></trkpt><trkpt lat="45.87108637207552" lon="9.225725840217615"><ele>885.9999999999999</ele><time>2026-04-07T15:59:41Z</time></trkpt><trkpt lat="45.871007467959465" lon="9.225562563561837"><ele>885.9999999999999</ele><time>2026-04-07T15:59:42Z</time></trkpt><trkpt lat="45.87097785847961" lon="9.225440452378"><ele>886.0</ele><time>2026-04-07T15:59:43Z</time></trkpt><trkpt lat="45.870987788535004" lon="9.225333426755846"><ele>886.0</ele><time>2026-04-07T15:59:44Z</time></trkpt><trkpt lat="45.870997990239175" lon="9.225202287973016"><ele>888.5</ele><time>2026-04-07T15:59:45Z</time></trkpt><trkpt lat="45.87099355149711" lon="9.225094449705272"><ele>891.0</ele><time>2026-04-07T15:59:46Z</time></trkpt><trkpt lat="45.87090999519242" lon="9.22496571160057"><ele>893.5</ele><time>2026-04-07T15:59:48Z</time></trkpt><trkpt lat="45.87075080674847" lon="9.225036801451271"><ele>896.0</ele><time>2026-04-07T15:59:49Z</time></trkpt><trkpt lat="45.870663418340285" lon="9.225060663332876"><ele>885.25</ele><time>2026-04-07T15:59:50Z</time></trkpt><trkpt lat="45.87059339908389" lon="9.225038854234775"><ele>874.5</ele><time>2026-04-07T15:59:51Z</time></trkpt><trkpt lat="45.8704787183217" lon="9.22503391887848"><ele>863.75</ele><time>2026-04-07T15:59:52Z</time></trkpt><trkpt lat="45.8703145837191" lon="9.224976070036854"><ele>853.0</ele><time>2026-04-07T15:59:53Z</time></trkpt><trkpt lat="45.870182658763575" lon="9.224895777222375"><ele>855.0</ele><time>2026-04-07T15:59:54Z</time></trkpt><trkpt lat="45.870006854317964" lon="9.224806202729694"><ele>857.0</ele><time>2026-04-07T15:59:55Z</time></trkpt><trkpt lat="45.869845690746594" lon="9.22472878007309"><ele>859.0</ele><time>2026-04-07T15:59:56Z</time></trkpt><trkpt lat="45.86973662505047" lon="9.224647375745601"><ele>859.0</ele><time>2026-04-07T15:59:57Z</time></trkpt><trkpt lat="45.86960659222102" lon="9.224609767641706"><ele>859.0000000000001</ele><time>2026-04-07T15:59:58Z</time></trkpt><trkpt lat="45.86951575583325" lon="9.224570015975353"><ele>859.0000000000001</ele><time>2026-04-07T15:59:59Z</time></trkpt><trkpt lat="45.86942084858144" lon="9.224476713458802"><ele>859.0</ele><time>2026-04-07T16:00:00Z</time></trkpt><trkpt lat="45.869345876840306" lon="9.224413770999076"><ele>859.0</ele><time>2026-04-07T16:00:01Z</time></trkpt><trkpt lat="45.8692900088999" lon="9.224325992083532"><ele>855.4000000000001</ele><time>2026-04-07T16:00:02Z</time></trkpt><trkpt lat="45.86923676170292" lon="9.224204482837747"><ele>851.8000000000001</ele><time>2026-04-07T16:00:03Z</time></trkpt><trkpt lat="45.86918775815119" lon="9.224062883124583"><ele>848.2</ele><time>2026-04-07T16:00:04Z</time></trkpt><trkpt lat="45.86914768722828" lon="9.223896327119895"><ele>844.5999999999999</ele><time>2026-04-07T16:00:05Z</time></trkpt><trkpt lat="45.86910622517651" lon="9.223760488068459"><ele>841.0</ele><time>2026-04-07T16:00:06Z</time></trkpt><trkpt lat="45.869058981692234" lon="9.223622333378817"><ele>841.0</ele><time>2026-04-07T16:00:07Z</time></trkpt><trkpt lat="45.869039239611894" lon="9.223455670389615"><ele>841.0</ele><time>2026-04-07T16:00:08Z</time></trkpt><trkpt lat="45.869027187411405" lon="9.22327270658953"><ele>841.0</ele><time>2026-04-07T16:00:09Z</time></trkpt><trkpt lat="45.86902118564565" lon="9.223148538929308"><ele>841.0</ele><time>2026-04-07T16:00:10Z</time></trkpt><trkpt lat="45.86901558374249" lon="9.223004854210558"><ele>841.0</ele><time>2026-04-07T16:00:11Z</time></trkpt><trkpt lat="45.86901106677083" lon="9.222803530313378"><ele>840.8</ele><time>2026-04-07T16:00:12Z</time></trkpt><trkpt lat="45.86899908984767" lon="9.222648086589707"><ele>840.5999999999999</ele><time>2026-04-07T16:00:13Z</time></trkpt><trkpt lat="45.86902323632015" lon="9.222508763235894"><ele>840.4</ele><time>2026-04-07T16:00:14Z</time></trkpt><trkpt lat="45.869045896809126" lon="9.222406092299149"><ele>840.2</ele><time>2026-04-07T16:00:15Z</time></trkpt><trkpt lat="45.86907714866295" lon="9.222291294115347"><ele>840.0</ele><time>2026-04-07T16:00:16Z</time></trkpt><trkpt lat="45.869054096474436" lon="9.222140705689974"><ele>840.0</ele><time>2026-04-07T16:00:18Z</time></trkpt><trkpt lat="45.86897956570852" lon="9.222062972159392"><ele>840.0</ele><time>2026-04-07T16:00:20Z</time></trkpt><trkpt lat="45.86882912454965" lon="9.222172658790011"><ele>840.0</ele><time>2026-04-07T16:00:22Z</time></trkpt><trkpt lat="45.868777914671384" lon="9.2222310254137"><ele>840.0</ele><time>2026-04-07T16:00:23Z</time></trkpt><trkpt lat="45.8687336280922" lon="9.222301349284136"><ele>840.0</ele><time>2026-04-07T16:00:24Z</time></trkpt><trkpt lat="45.86867610860229" lon="9.222400351389402"><ele>840.0</ele><time>2026-04-07T16:00:25Z</time></trkpt><trkpt lat="45.86862692400263" lon="9.222522335870487"><ele>840.0</ele><time>2026-04-07T16:00:26Z</time></trkpt><trkpt lat="45.86854182993732" lon="9.222646722130696"><ele>840.0</ele><time>2026-04-07T16:00:27Z</time></trkpt><trkpt lat="45.86848981195192" lon="9.222775497566234"><ele>840.0</ele><time>2026-04-07T16:00:28Z</time></trkpt><trkpt lat="45.868307817684304" lon="9.222980872221505"><ele>841.25</ele><time>2026-04-07T16:00:29Z</time></trkpt><trkpt lat="45.86821365965565" lon="9.223140095533852"><ele>842.5</ele><time>2026-04-07T16:00:30Z</time></trkpt><trkpt lat="45.868111968858706" lon="9.223289053269086"><ele>843.75</ele><time>2026-04-07T16:00:31Z</time></trkpt><trkpt lat="45.868033513271705" lon="9.223446673894548"><ele>845.0</ele><time>2026-04-07T16:00:32Z</time></trkpt><trkpt lat="45.8679662006986" lon="9.223544260245305"><ele>844.6</ele><time>2026-04-07T16:00:33Z</time></trkpt><trkpt lat="45.86790398341208" lon="9.223663168360861"><ele>844.2</ele><time>2026-04-07T16:00:34Z</time></trkpt><trkpt lat="45.86785333271786" lon="9.223723521902869"><ele>843.8</ele><time>2026-04-07T16:00:35Z</time></trkpt><trkpt lat="45.86778710772661" lon="9.223799942750226"><ele>843.4</ele><time>2026-04-07T16:00:36Z</time></trkpt><trkpt lat="45.867698799712876" lon="9.223784591896228"><ele>843.0</ele><time>2026-04-07T16:00:37Z</time></trkpt><trkpt lat="45.86759019951353" lon="9.223821040393616"><ele>843.0</ele><time>2026-04-07T16:00:38Z</time></trkpt><trkpt lat="45.8674844462796" lon="9.223858336754086"><ele>843.0</ele><time>2026-04-07T16:00:39Z</time></trkpt><trkpt lat="45.867406873635225" lon="9.223848040744713"><ele>843.0</ele><time>2026-04-07T16:00:40Z</time></trkpt><trkpt lat="45.86729720316417" lon="9.223818887188548"><ele>843.0</ele><time>2026-04-07T16:00:41Z</time></trkpt><trkpt lat="45.86716899914331" lon="9.223810086644065"><ele>843.0</ele><time>2026-04-07T16:00:42Z</time></trkpt><trkpt lat="45.867039877357456" lon="9.223785573692117"><ele>843.0</ele><time>2026-04-07T16:00:43Z</time></trkpt><trkpt lat="45.86688426802449" lon="9.223591832364455"><ele>843.0</ele><time>2026-04-07T16:00:44Z</time></trkpt><trkpt lat="45.86677078636078" lon="9.223544452011382"><ele>843.0</ele><time>2026-04-07T16:00:45Z</time></trkpt><trkpt lat="45.86671779916881" lon="9.223474988569947"><ele>843.0</ele><time>2026-04-07T16:00:46Z</time></trkpt><trkpt lat="45.866636341801346" lon="9.22339437206047"><ele>842.2</ele><time>2026-04-07T16:00:47.999Z</time></trkpt><trkpt lat="45.866565391795966" lon="9.223281122733445"><ele>841.4</ele><time>2026-04-07T16:00:49.999Z</time></trkpt><trkpt lat="45.86650059934382" lon="9.223176714061701"><ele>840.6</ele><time>2026-04-07T16:00:51.999Z</time></trkpt><trkpt lat="45.86639124775646" lon="9.223085707123994"><ele>839.8000000000001</ele><time>2026-04-07T16:00:52.999Z</time></trkpt><trkpt lat="45.86632421242671" lon="9.223041838477021"><ele>839.0</ele><time>2026-04-07T16:00:53.999Z</time></trkpt><trkpt lat="45.86617787286597" lon="9.222975949697984"><ele>839.6</ele><time>2026-04-07T16:00:55.999Z</time></trkpt><trkpt lat="45.86609005714155" lon="9.222960944710064"><ele>840.2</ele><time>2026-04-07T16:00:56.999Z</time></trkpt><trkpt lat="45.865977567772035" lon="9.222883254207794"><ele>840.8000000000001</ele><time>2026-04-07T16:00:57.999Z</time></trkpt><trkpt lat="45.865913475084746" lon="9.222843768260995"><ele>841.4000000000001</ele><time>2026-04-07T16:00:58.999Z</time></trkpt><trkpt lat="45.8658283613402" lon="9.222856048856006"><ele>842.0</ele><time>2026-04-07T16:01:01.999Z</time></trkpt><trkpt lat="45.86573925072366" lon="9.222848443310856"><ele>842.0</ele><time>2026-04-07T16:01:03.999Z</time></trkpt><trkpt lat="45.86561383323563" lon="9.222792910978985"><ele>842.0</ele><time>2026-04-07T16:01:05.999Z</time></trkpt><trkpt lat="45.865532799540375" lon="9.22271446690868"><ele>842.0</ele><time>2026-04-07T16:01:07.999Z</time></trkpt><trkpt lat="45.86545592453205" lon="9.22260697538244"><ele>842.0</ele><time>2026-04-07T16:01:09.999Z</time></trkpt><trkpt lat="45.86543549595249" lon="9.22242550345138"><ele>842.0000000000001</ele><time>2026-04-07T16:01:11.999Z</time></trkpt><trkpt lat="45.86544514544741" lon="9.22233104713843"><ele>842.0</ele><time>2026-04-07T16:01:12.999Z</time></trkpt><trkpt lat="45.865436473579535" lon="9.222236718475315"><ele>842.0</ele><time>2026-04-07T16:01:13.999Z</time></trkpt><trkpt lat="45.865431858330474" lon="9.222140384995235"><ele>842.0</ele><time>2026-04-07T16:01:14.999Z</time></trkpt><trkpt lat="45.865330181320495" lon="9.222123087102013"><ele>842.0000000000001</ele><time>2026-04-07T16:01:16.999Z</time></trkpt><trkpt lat="45.86526929492241" lon="9.222153991723989"><ele>842.0</ele><time>2026-04-07T16:01:17.999Z</time></trkpt><trkpt lat="45.86517228132338" lon="9.222193986483234"><ele>841.8333333333334</ele><time>2026-04-07T16:01:19.999Z</time></trkpt><trkpt lat="45.86508575104341" lon="9.222237855372473"><ele>841.6666666666667</ele><time>2026-04-07T16:01:20.999Z</time></trkpt><trkpt lat="45.86503301918884" lon="9.222306268304676"><ele>841.5</ele><time>2026-04-07T16:01:21.999Z</time></trkpt><trkpt lat="45.86499576377746" lon="9.222435175712969"><ele>841.3333333333333</ele><time>2026-04-07T16:01:22.999Z</time></trkpt><trkpt lat="45.86496536290953" lon="9.222529727371954"><ele>841.1666666666666</ele><time>2026-04-07T16:01:23.999Z</time></trkpt><trkpt lat="45.864971630568625" lon="9.222662976440223"><ele>841.0</ele><time>2026-04-07T16:01:24.999Z</time></trkpt><trkpt lat="45.86498493712851" lon="9.222813320658137"><ele>840.8</ele><time>2026-04-07T16:01:25.999Z</time></trkpt><trkpt lat="45.86499930428596" lon="9.222959609950754"><ele>840.5999999999999</ele><time>2026-04-07T16:01:26.999Z</time></trkpt><trkpt lat="45.86498412362203" lon="9.22310443071258"><ele>840.4</ele><time>2026-04-07T16:01:27.999Z</time></trkpt><trkpt lat="45.865012627221525" lon="9.223209323200665"><ele>840.2</ele><time>2026-04-07T16:01:28.999Z</time></trkpt><trkpt lat="45.86501604879233" lon="9.223348560672996"><ele>840.0</ele><time>2026-04-07T16:01:29.999Z</time></trkpt><trkpt lat="45.86503596863984" lon="9.223528316154594"><ele>840.0</ele><time>2026-04-07T16:01:30.999Z</time></trkpt><trkpt lat="45.86510647478948" lon="9.223740397600672"><ele>840.0</ele><time>2026-04-07T16:01:31.999Z</time></trkpt><trkpt lat="45.865190585495185" lon="9.223837446591716"><ele>840.0</ele><time>2026-04-07T16:01:32.999Z</time></trkpt><trkpt lat="45.8652545598098" lon="9.223951452880064"><ele>840.0</ele><time>2026-04-07T16:01:33.999Z</time></trkpt><trkpt lat="45.86529050548696" lon="9.224031015975417"><ele>840.0</ele><time>2026-04-07T16:01:34.999Z</time></trkpt><trkpt lat="45.86528808511244" lon="9.22412709875335"><ele>838.6</ele><time>2026-04-07T16:01:35.999Z</time></trkpt><trkpt lat="45.865289640349964" lon="9.224308627204335"><ele>837.2</ele><time>2026-04-07T16:01:37.999Z</time></trkpt><trkpt lat="45.86530191001443" lon="9.224416762314288"><ele>835.8</ele><time>2026-04-07T16:01:38.999Z</time></trkpt><trkpt lat="45.865292424590606" lon="9.224611179931502"><ele>834.4</ele><time>2026-04-07T16:01:39.999Z</time></trkpt><trkpt lat="45.86531269369294" lon="9.224730956794414"><ele>833.0</ele><time>2026-04-07T16:01:40.999Z</time></trkpt><trkpt lat="45.86536971779836" lon="9.22486770761136"><ele>833.0000000000001</ele><time>2026-04-07T16:01:41.999Z</time></trkpt><trkpt lat="45.86539780083253" lon="9.225005463195558"><ele>833.0</ele><time>2026-04-07T16:01:42.999Z</time></trkpt><trkpt lat="45.865445896185705" lon="9.225162149321024"><ele>833.0</ele><time>2026-04-07T16:01:44Z</time></trkpt><trkpt lat="45.86548661020777" lon="9.225231870495197"><ele>833.0</ele><time>2026-04-07T16:01:45Z</time></trkpt><trkpt lat="45.86550016848039" lon="9.22533182031843"><ele>833.0000000000001</ele><time>2026-04-07T16:01:46Z</time></trkpt><trkpt lat="45.8654839561608" lon="9.225441494124858"><ele>833.0</ele><time>2026-04-07T16:01:47Z</time></trkpt><trkpt lat="45.86544946261479" lon="9.225547329090173"><ele>833.5999999999999</ele><time>2026-04-07T16:01:48Z</time></trkpt><trkpt lat="45.865430564766235" lon="9.225699227474442"><ele>834.1999999999999</ele><time>2026-04-07T16:01:49Z</time></trkpt><trkpt lat="45.865404125068" lon="9.225824314389929"><ele>834.8</ele><time>2026-04-07T16:01:50Z</time></trkpt><trkpt lat="45.86537904414817" lon="9.22594458418597"><ele>835.4</ele><time>2026-04-07T16:01:51Z</time></trkpt><trkpt lat="45.865351396611885" lon="9.226074687891106"><ele>836.0</ele><time>2026-04-07T16:01:52Z</time></trkpt><trkpt lat="45.86533627823231" lon="9.226178112873406"><ele>836.0</ele><time>2026-04-07T16:01:53Z</time></trkpt><trkpt lat="45.865329166464846" lon="9.226290499538328"><ele>836.0</ele><time>2026-04-07T16:01:54Z</time></trkpt><trkpt lat="45.86532001418455" lon="9.226401418641185"><ele>836.0</ele><time>2026-04-07T16:01:55Z</time></trkpt><trkpt lat="45.86533723416723" lon="9.226507022993102"><ele>836.0</ele><time>2026-04-07T16:01:56Z</time></trkpt><trkpt lat="45.865314752788606" lon="9.226683878039104"><ele>836.0</ele><time>2026-04-07T16:01:58Z</time></trkpt><trkpt lat="45.865272131474455" lon="9.22682997294496"><ele>836.25</ele><time>2026-04-07T16:01:59Z</time></trkpt><trkpt lat="45.865234490087936" lon="9.22702067859443"><ele>836.5</ele><time>2026-04-07T16:02:00Z</time></trkpt><trkpt lat="45.865219073508655" lon="9.227216960614918"><ele>836.75</ele><time>2026-04-07T16:02:01Z</time></trkpt><trkpt lat="45.86519829551001" lon="9.227462017287637"><ele>837.0</ele><time>2026-04-07T16:02:02Z</time></trkpt><trkpt lat="45.8651723528413" lon="9.227715636037821"><ele>837.3333333333333</ele><time>2026-04-07T16:02:03Z</time></trkpt><trkpt lat="45.86514247596026" lon="9.227970253180207"><ele>837.6666666666666</ele><time>2026-04-07T16:02:04Z</time></trkpt><trkpt lat="45.86509838431991" lon="9.228173760705001"><ele>838.0</ele><time>2026-04-07T16:02:05Z</time></trkpt><trkpt lat="45.86512293908979" lon="9.228358804025262"><ele>839.4</ele><time>2026-04-07T16:02:06Z</time></trkpt><trkpt lat="45.865174814926505" lon="9.228544924994535"><ele>840.8</ele><time>2026-04-07T16:02:07Z</time></trkpt><trkpt lat="45.86516438174306" lon="9.22870863900531"><ele>842.2</ele><time>2026-04-07T16:02:08Z</time></trkpt><trkpt lat="45.86518333316752" lon="9.228842826208158"><ele>843.6</ele><time>2026-04-07T16:02:09Z</time></trkpt><trkpt lat="45.86520603117182" lon="9.228957845841004"><ele>845.0</ele><time>2026-04-07T16:02:10Z</time></trkpt><trkpt lat="45.865242679002876" lon="9.22907439420145"><ele>845.5000000000001</ele><time>2026-04-07T16:02:11Z</time></trkpt><trkpt lat="45.86524798395316" lon="9.229217809249683"><ele>846.0</ele><time>2026-04-07T16:02:12Z</time></trkpt><trkpt lat="45.86524675190698" lon="9.2293583743645"><ele>846.5</ele><time>2026-04-07T16:02:13Z</time></trkpt><trkpt lat="45.86524725992282" lon="9.229473612779268"><ele>847.0</ele><time>2026-04-07T16:02:14Z</time></trkpt><trkpt lat="45.86523948550504" lon="9.22960964869495"><ele>847.5000000000001</ele><time>2026-04-07T16:02:16Z</time></trkpt><trkpt lat="45.865224164136215" lon="9.229715829684533"><ele>848.0</ele><time>2026-04-07T16:02:18Z</time></trkpt><trkpt lat="45.865242189883276" lon="9.229802455985599"><ele>848.4</ele><time>2026-04-07T16:02:19Z</time></trkpt><trkpt lat="45.865275232289555" lon="9.229897807759835"><ele>848.8</ele><time>2026-04-07T16:02:20Z</time></trkpt><trkpt lat="45.865337729859704" lon="9.229959255618482"><ele>849.2</ele><time>2026-04-07T16:02:21Z</time></trkpt><trkpt lat="45.86540012227911" lon="9.230132622647325"><ele>849.6</ele><time>2026-04-07T16:02:23Z</time></trkpt><trkpt lat="45.86543119039892" lon="9.230289910532855"><ele>850.0</ele><time>2026-04-07T16:02:25Z</time></trkpt><trkpt lat="45.8654549679894" lon="9.230408643182452"><ele>850.0</ele><time>2026-04-07T16:02:26Z</time></trkpt><trkpt lat="45.86548561300545" lon="9.23056743676847"><ele>850.0</ele><time>2026-04-07T16:02:27Z</time></trkpt><trkpt lat="45.8655038228762" lon="9.230737250615444"><ele>850.0</ele><time>2026-04-07T16:02:28Z</time></trkpt><trkpt lat="45.865482446594584" lon="9.230836823709351"><ele>850.0</ele><time>2026-04-07T16:02:29Z</time></trkpt><trkpt lat="45.86548238675705" lon="9.230943339137122"><ele>850.0</ele><time>2026-04-07T16:02:30Z</time></trkpt><trkpt lat="45.865471744937565" lon="9.231045241620205"><ele>849.8</ele><time>2026-04-07T16:02:31Z</time></trkpt><trkpt lat="45.865422230642054" lon="9.231169584499286"><ele>849.6</ele><time>2026-04-07T16:02:32Z</time></trkpt><trkpt lat="45.86538172574403" lon="9.231298675001149"><ele>849.4000000000001</ele><time>2026-04-07T16:02:33Z</time></trkpt><trkpt lat="45.86530860117722" lon="9.231435865897918"><ele>849.2</ele><time>2026-04-07T16:02:35Z</time></trkpt><trkpt lat="45.865281263939806" lon="9.231549499137406"><ele>849.0</ele><time>2026-04-07T16:02:36Z</time></trkpt><trkpt lat="45.865270578746745" lon="9.231646859290446"><ele>847.0</ele><time>2026-04-07T16:02:37Z</time></trkpt><trkpt lat="45.8652463613668" lon="9.231806602191966"><ele>845.0</ele><time>2026-04-07T16:02:39Z</time></trkpt><trkpt lat="45.8651844765909" lon="9.231925958115498"><ele>843.0</ele><time>2026-04-07T16:02:40Z</time></trkpt><trkpt lat="45.86514861461426" lon="9.23200323853135"><ele>841.0</ele><time>2026-04-07T16:02:41Z</time></trkpt><trkpt lat="45.865103098729975" lon="9.232084156503955"><ele>839.0</ele><time>2026-04-07T16:02:42Z</time></trkpt><trkpt lat="45.865017036418664" lon="9.232170883061404"><ele>840.2</ele><time>2026-04-07T16:02:44Z</time></trkpt><trkpt lat="45.86494604467647" lon="9.23222244054946"><ele>841.4000000000001</ele><time>2026-04-07T16:02:45Z</time></trkpt><trkpt lat="45.864872966019064" lon="9.232290296807923"><ele>842.6</ele><time>2026-04-07T16:02:46Z</time></trkpt><trkpt lat="45.864782468705485" lon="9.232349991226034"><ele>843.8</ele><time>2026-04-07T16:02:47Z</time></trkpt><trkpt lat="45.86467305237956" lon="9.232437972760064"><ele>845.0</ele><time>2026-04-07T16:02:49Z</time></trkpt><trkpt lat="45.864629858679564" lon="9.232581130690408"><ele>845.0</ele><time>2026-04-07T16:02:51Z</time></trkpt><trkpt lat="45.864585881652516" lon="9.23266010181013"><ele>845.0</ele><time>2026-04-07T16:02:52Z</time></trkpt><trkpt lat="45.86449432101795" lon="9.232745893527404"><ele>845.0</ele><time>2026-04-07T16:02:53Z</time></trkpt><trkpt lat="45.86440868656073" lon="9.232842633492757"><ele>845.0</ele><time>2026-04-07T16:02:54Z</time></trkpt><trkpt lat="45.8642850332566" lon="9.233017166682473"><ele>846.8</ele><time>2026-04-07T16:02:56Z</time></trkpt><trkpt lat="45.864217724301504" lon="9.233126907367863"><ele>848.6</ele><time>2026-04-07T16:02:58Z</time></trkpt><trkpt lat="45.86417235534541" lon="9.23328524633122"><ele>850.4000000000001</ele><time>2026-04-07T16:02:59Z</time></trkpt><trkpt lat="45.8641496485674" lon="9.233423446915449"><ele>852.2</ele><time>2026-04-07T16:02:59.999Z</time></trkpt><trkpt lat="45.8641264981484" lon="9.233507804196806"><ele>854.0</ele><time>2026-04-07T16:03:00.999Z</time></trkpt><trkpt lat="45.86410453999187" lon="9.23363291155891"><ele>850.0</ele><time>2026-04-07T16:03:01.999Z</time></trkpt><trkpt lat="45.864062669956496" lon="9.23371253610125"><ele>846.0000000000001</ele><time>2026-04-07T16:03:02.999Z</time></trkpt><trkpt lat="45.86401156536629" lon="9.233871246170553"><ele>842.0</ele><time>2026-04-07T16:03:04.999Z</time></trkpt><trkpt lat="45.8639762107568" lon="9.2340075163656"><ele>838.0</ele><time>2026-04-07T16:03:05.999Z</time></trkpt><trkpt lat="45.86393854682698" lon="9.234095813764526"><ele>834.0</ele><time>2026-04-07T16:03:06.999Z</time></trkpt><trkpt lat="45.8638884318589" lon="9.234207118521947"><ele>831.6</ele><time>2026-04-07T16:03:07.999Z</time></trkpt><trkpt lat="45.863840708910594" lon="9.23436862857603"><ele>829.2</ele><time>2026-04-07T16:03:08.999Z</time></trkpt><trkpt lat="45.86383089717622" lon="9.234494725256658"><ele>826.8000000000001</ele><time>2026-04-07T16:03:09.999Z</time></trkpt><trkpt lat="45.8638007888221" lon="9.234644589814387"><ele>824.4000000000001</ele><time>2026-04-07T16:03:10.999Z</time></trkpt><trkpt lat="45.86376814220843" lon="9.234772246537608"><ele>822.0</ele><time>2026-04-07T16:03:11.999Z</time></trkpt><trkpt lat="45.86375317635257" lon="9.234944788774037"><ele>818.4000000000001</ele><time>2026-04-07T16:03:12.999Z</time></trkpt><trkpt lat="45.863707795321986" lon="9.235104783612966"><ele>814.8000000000001</ele><time>2026-04-07T16:03:13.999Z</time></trkpt><trkpt lat="45.86368116910049" lon="9.235219259110645"><ele>811.2</ele><time>2026-04-07T16:03:14.999Z</time></trkpt><trkpt lat="45.863633959630995" lon="9.235339048757746"><ele>807.6</ele><time>2026-04-07T16:03:15.999Z</time></trkpt><trkpt lat="45.86356467870703" lon="9.235475040424825"><ele>804.0</ele><time>2026-04-07T16:03:16.999Z</time></trkpt><trkpt lat="45.8635462701638" lon="9.235567258048686"><ele>801.3333333333334</ele><time>2026-04-07T16:03:17.999Z</time></trkpt><trkpt lat="45.86351566856433" lon="9.235654518596125"><ele>798.6666666666667</ele><time>2026-04-07T16:03:18.999Z</time></trkpt><trkpt lat="45.863490789171564" lon="9.23575252183521"><ele>796.0</ele><time>2026-04-07T16:03:19.999Z</time></trkpt><trkpt lat="45.863502057935044" lon="9.235880084127785"><ele>793.3333333333334</ele><time>2026-04-07T16:03:21.999Z</time></trkpt><trkpt lat="45.86353413212451" lon="9.235988848633216"><ele>790.6666666666667</ele><time>2026-04-07T16:03:23.999Z</time></trkpt><trkpt lat="45.86355951039224" lon="9.236129837148217"><ele>788.0</ele><time>2026-04-07T16:03:25.999Z</time></trkpt><trkpt lat="45.86357626074329" lon="9.236229777360053"><ele>788.0</ele><time>2026-04-07T16:03:26.999Z</time></trkpt><trkpt lat="45.863588926059656" lon="9.236319445606613"><ele>788.0</ele><time>2026-04-07T16:03:27.999Z</time></trkpt><trkpt lat="45.86361990274118" lon="9.236409348195114"><ele>788.0</ele><time>2026-04-07T16:03:28.999Z</time></trkpt><trkpt lat="45.863667036048795" lon="9.236525715560102"><ele>788.0</ele><time>2026-04-07T16:03:30.999Z</time></trkpt><trkpt lat="45.86375692167421" lon="9.236680018594381"><ele>788.0</ele><time>2026-04-07T16:03:32.999Z</time></trkpt><trkpt lat="45.86383797771065" lon="9.236761607485937"><ele>786.5000000000001</ele><time>2026-04-07T16:03:33.999Z</time></trkpt><trkpt lat="45.86390799983046" lon="9.23684340459406"><ele>785.0</ele><time>2026-04-07T16:03:34.999Z</time></trkpt><trkpt lat="45.86394954444532" lon="9.23694104240331"><ele>783.5</ele><time>2026-04-07T16:03:35.999Z</time></trkpt><trkpt lat="45.86397771463627" lon="9.23703853756264"><ele>782.0</ele><time>2026-04-07T16:03:36.999Z</time></trkpt><trkpt lat="45.86398462082708" lon="9.237179149838267"><ele>780.5000000000001</ele><time>2026-04-07T16:03:37.999Z</time></trkpt><trkpt lat="45.86399548880578" lon="9.2373230211002"><ele>779.0</ele><time>2026-04-07T16:03:38.999Z</time></trkpt><trkpt lat="45.86399647891781" lon="9.237425793248653"><ele>777.6666666666667</ele><time>2026-04-07T16:03:39.999Z</time></trkpt><trkpt lat="45.864003165795815" lon="9.237581420202922"><ele>776.3333333333334</ele><time>2026-04-07T16:03:41.999Z</time></trkpt><trkpt lat="45.86397377627797" lon="9.237697741347118"><ele>775.0</ele><time>2026-04-07T16:03:43.999Z</time></trkpt><trkpt lat="45.863944857497465" lon="9.237806262720905"><ele>773.6666666666667</ele><time>2026-04-07T16:03:45.999Z</time></trkpt><trkpt lat="45.86392520370604" lon="9.237906053597623"><ele>772.3333333333334</ele><time>2026-04-07T16:03:47.999Z</time></trkpt><trkpt lat="45.8639092393336" lon="9.238014152224524"><ele>771.0</ele><time>2026-04-07T16:03:51Z</time></trkpt><trkpt lat="45.86382192029305" lon="9.238050922198667"><ele>771.0</ele><time>2026-04-07T16:03:53Z</time></trkpt><trkpt lat="45.86374964395694" lon="9.238061382962854"><ele>771.0</ele><time>2026-04-07T16:03:54Z</time></trkpt><trkpt lat="45.863653834541225" lon="9.23809478948493"><ele>771.0</ele><time>2026-04-07T16:03:56Z</time></trkpt><trkpt lat="45.86356361617314" lon="9.238095311095206"><ele>771.0</ele><time>2026-04-07T16:03:57Z</time></trkpt><trkpt lat="45.86345499282767" lon="9.238133900665831"><ele>771.0</ele><time>2026-04-07T16:03:58Z</time></trkpt><trkpt lat="45.86335122851961" lon="9.238231191125982"><ele>770.8</ele><time>2026-04-07T16:03:59Z</time></trkpt><trkpt lat="45.863254976535124" lon="9.23829896609809"><ele>770.5999999999999</ele><time>2026-04-07T16:04:00Z</time></trkpt><trkpt lat="45.863168956104154" lon="9.238335613586276"><ele>770.4</ele><time>2026-04-07T16:04:01Z</time></trkpt><trkpt lat="45.86305231001205" lon="9.238356970055488"><ele>770.2</ele><time>2026-04-07T16:04:02Z</time></trkpt><trkpt lat="45.86292796350186" lon="9.238426456292006"><ele>770.0</ele><time>2026-04-07T16:04:03Z</time></trkpt><trkpt lat="45.86278840749993" lon="9.238487019356999"><ele>770.0</ele><time>2026-04-07T16:04:04Z</time></trkpt><trkpt lat="45.862698988606624" lon="9.238543432439606"><ele>770.0</ele><time>2026-04-07T16:04:05Z</time></trkpt><trkpt lat="45.86259655267676" lon="9.23857580250319"><ele>770.0</ele><time>2026-04-07T16:04:06Z</time></trkpt><trkpt lat="45.86248060231452" lon="9.238615210098686"><ele>770.0</ele><time>2026-04-07T16:04:07Z</time></trkpt><trkpt lat="45.86240717995776" lon="9.238638326894776"><ele>770.0</ele><time>2026-04-07T16:04:08Z</time></trkpt><trkpt lat="45.86231042768426" lon="9.23864588110565"><ele>772.5</ele><time>2026-04-07T16:04:09Z</time></trkpt><trkpt lat="45.86220780400246" lon="9.238612311624257"><ele>775.0</ele><time>2026-04-07T16:04:10Z</time></trkpt><trkpt lat="45.86210256577114" lon="9.238593304772222"><ele>777.5</ele><time>2026-04-07T16:04:11Z</time></trkpt><trkpt lat="45.861963646635374" lon="9.238596580948577"><ele>780.0</ele><time>2026-04-07T16:04:12Z</time></trkpt><trkpt lat="45.86184416843886" lon="9.238593291245653"><ele>781.0</ele><time>2026-04-07T16:04:13Z</time></trkpt><trkpt lat="45.861742820061224" lon="9.238573499642257"><ele>782.0</ele><time>2026-04-07T16:04:14Z</time></trkpt><trkpt lat="45.861669089766025" lon="9.238594460066626"><ele>783.0</ele><time>2026-04-07T16:04:15Z</time></trkpt><trkpt lat="45.861566305206225" lon="9.238583498741281"><ele>784.0</ele><time>2026-04-07T16:04:16Z</time></trkpt><trkpt lat="45.86143157186665" lon="9.238514143873742"><ele>785.0</ele><time>2026-04-07T16:04:17Z</time></trkpt><trkpt lat="45.861336396857595" lon="9.238437264987255"><ele>785.0000000000001</ele><time>2026-04-07T16:04:18Z</time></trkpt><trkpt lat="45.86126509651487" lon="9.238410840714517"><ele>785.0</ele><time>2026-04-07T16:04:19Z</time></trkpt><trkpt lat="45.86119355444102" lon="9.238387470436482"><ele>785.0</ele><time>2026-04-07T16:04:20Z</time></trkpt><trkpt lat="45.86110404767157" lon="9.238362427671563"><ele>785.0</ele><time>2026-04-07T16:04:21Z</time></trkpt><trkpt lat="45.86103621841958" lon="9.238314172195405"><ele>785.0000000000001</ele><time>2026-04-07T16:04:22Z</time></trkpt><trkpt lat="45.86097567091614" lon="9.238211468747055"><ele>785.0</ele><time>2026-04-07T16:04:23Z</time></trkpt><trkpt lat="45.860926471929524" lon="9.238131639030435"><ele>785.2</ele><time>2026-04-07T16:04:24Z</time></trkpt><trkpt lat="45.86082080419764" lon="9.238048874184036"><ele>785.4</ele><time>2026-04-07T16:04:27Z</time></trkpt><trkpt lat="45.860750872424866" lon="9.238121470934631"><ele>785.5999999999999</ele><time>2026-04-07T16:04:28Z</time></trkpt><trkpt lat="45.860711440560614" lon="9.238243055016367"><ele>785.8</ele><time>2026-04-07T16:04:29Z</time></trkpt><trkpt lat="45.86069505134222" lon="9.238344125607776"><ele>786.0</ele><time>2026-04-07T16:04:30Z</time></trkpt><trkpt lat="45.860652634406925" lon="9.238455104882423"><ele>786.0</ele><time>2026-04-07T16:04:32Z</time></trkpt><trkpt lat="45.86055447342447" lon="9.23848785876965"><ele>786.0</ele><time>2026-04-07T16:04:34Z</time></trkpt><trkpt lat="45.8604616676004" lon="9.238486978997983"><ele>786.0</ele><time>2026-04-07T16:04:35Z</time></trkpt><trkpt lat="45.860332980527765" lon="9.238486979001893"><ele>786.0</ele><time>2026-04-07T16:04:36Z</time></trkpt><trkpt lat="45.860166168636255" lon="9.238498185497075"><ele>787.0</ele><time>2026-04-07T16:04:37Z</time></trkpt><trkpt lat="45.860056499686564" lon="9.238506033847273"><ele>788.0</ele><time>2026-04-07T16:04:38Z</time></trkpt><trkpt lat="45.85997549226436" lon="9.238506748020978"><ele>789.0</ele><time>2026-04-07T16:04:39Z</time></trkpt><trkpt lat="45.85986986934843" lon="9.238511272712604"><ele>790.0</ele><time>2026-04-07T16:04:42Z</time></trkpt><trkpt lat="45.859784485865205" lon="9.23852814691428"><ele>791.0</ele><time>2026-04-07T16:04:43Z</time></trkpt><trkpt lat="45.85970302916736" lon="9.238560786436276"><ele>791.0</ele><time>2026-04-07T16:04:44Z</time></trkpt><trkpt lat="45.85959697753356" lon="9.23853606696867"><ele>791.0</ele><time>2026-04-07T16:04:45Z</time></trkpt><trkpt lat="45.85951459866725" lon="9.238571576191088"><ele>791.0</ele><time>2026-04-07T16:04:46Z</time></trkpt><trkpt lat="45.85943025425257" lon="9.238599877156751"><ele>791.0</ele><time>2026-04-07T16:04:47Z</time></trkpt><trkpt lat="45.85933230336093" lon="9.238674777841531"><ele>791.0</ele><time>2026-04-07T16:04:49Z</time></trkpt><trkpt lat="45.85923131601593" lon="9.238745840902398"><ele>791.0000000000001</ele><time>2026-04-07T16:04:51Z</time></trkpt><trkpt lat="45.859172165176794" lon="9.23882456669207"><ele>791.0</ele><time>2026-04-07T16:04:53Z</time></trkpt><trkpt lat="45.85914432058838" lon="9.238922898484287"><ele>791.0</ele><time>2026-04-07T16:04:55Z</time></trkpt><trkpt lat="45.85910441442126" lon="9.239022604382741"><ele>791.0</ele><time>2026-04-07T16:04:58Z</time></trkpt><trkpt lat="45.859046902761385" lon="9.239088810477154"><ele>791.0000000000001</ele><time>2026-04-07T16:05:01Z</time></trkpt><trkpt lat="45.858996221818295" lon="9.239156546639565"><ele>791.0</ele><time>2026-04-07T16:05:04.999Z</time></trkpt><trkpt lat="45.85892924635507" lon="9.239201926568732"><ele>791.0</ele><time>2026-04-07T16:05:32.999Z</time></trkpt><trkpt lat="45.85885902688792" lon="9.239270377908278"><ele>791.0</ele><time>2026-04-07T16:05:36.999Z</time></trkpt><trkpt lat="45.858792185330906" lon="9.239340135587506"><ele>791.0</ele><time>2026-04-07T16:05:39.999Z</time></trkpt><trkpt lat="45.8587461002197" lon="9.239446565555424"><ele>791.0</ele><time>2026-04-07T16:05:43.999Z</time></trkpt><trkpt lat="45.85870250824853" lon="9.239591891120092"><ele>791.0</ele><time>2026-04-07T16:05:45.999Z</time></trkpt><trkpt lat="45.85870376412776" lon="9.23972074121557"><ele>789.4</ele><time>2026-04-07T16:05:47.999Z</time></trkpt><trkpt lat="45.858682701566956" lon="9.239859689226224"><ele>787.8</ele><time>2026-04-07T16:05:49.999Z</time></trkpt><trkpt lat="45.85864030924565" lon="9.23998116738224"><ele>786.1999999999999</ele><time>2026-04-07T16:05:51.999Z</time></trkpt><trkpt lat="45.85859398360561" lon="9.24010182711904"><ele>784.5999999999999</ele><time>2026-04-07T16:05:53.999Z</time></trkpt><trkpt lat="45.858539221848126" lon="9.240240810355697"><ele>783.0</ele><time>2026-04-07T16:05:56Z</time></trkpt><trkpt lat="45.85850879050672" lon="9.2403376779284"><ele>783.0</ele><time>2026-04-07T16:05:58Z</time></trkpt><trkpt lat="45.85846353635554" lon="9.240409854848897"><ele>783.0</ele><time>2026-04-07T16:05:59Z</time></trkpt><trkpt lat="45.858439116664975" lon="9.240523988638927"><ele>783.0</ele><time>2026-04-07T16:06:01Z</time></trkpt><trkpt lat="45.85841872683957" lon="9.240659327924389"><ele>783.0</ele><time>2026-04-07T16:06:03Z</time></trkpt><trkpt lat="45.85839221494694" lon="9.240767811440092"><ele>783.0</ele><time>2026-04-07T16:06:05Z</time></trkpt><trkpt lat="45.858369426968586" lon="9.240914486079044"><ele>783.0</ele><time>2026-04-07T16:06:06Z</time></trkpt><trkpt lat="45.858328060232076" lon="9.241021867598729"><ele>784.25</ele><time>2026-04-07T16:06:07Z</time></trkpt><trkpt lat="45.85825677602109" lon="9.241148333189402"><ele>785.5</ele><time>2026-04-07T16:06:08Z</time></trkpt><trkpt lat="45.85821036032744" lon="9.241281453994828"><ele>786.75</ele><time>2026-04-07T16:06:09Z</time></trkpt><trkpt lat="45.85813497468199" lon="9.241369314287201"><ele>788.0</ele><time>2026-04-07T16:06:10Z</time></trkpt><trkpt lat="45.858030353485596" lon="9.241499158326919"><ele>788.0</ele><time>2026-04-07T16:06:12Z</time></trkpt><trkpt lat="45.857967130275156" lon="9.241600142073425"><ele>788.0</ele><time>2026-04-07T16:06:13Z</time></trkpt><trkpt lat="45.85792260656186" lon="9.241688284556002"><ele>788.0</ele><time>2026-04-07T16:06:14Z</time></trkpt><trkpt lat="45.85788976986332" lon="9.241787482365112"><ele>788.0</ele><time>2026-04-07T16:06:16Z</time></trkpt><trkpt lat="45.8578556704305" lon="9.241869928717723"><ele>788.0</ele><time>2026-04-07T16:06:17Z</time></trkpt><trkpt lat="45.857778054416414" lon="9.242036739911489"><ele>788.0</ele><time>2026-04-07T16:06:19Z</time></trkpt><trkpt lat="45.85771369480804" lon="9.242196267842417"><ele>788.0</ele><time>2026-04-07T16:06:20Z</time></trkpt><trkpt lat="45.85767849105674" lon="9.242346142645825"><ele>788.0</ele><time>2026-04-07T16:06:21Z</time></trkpt><trkpt lat="45.857626334131496" lon="9.242484072426702"><ele>788.0</ele><time>2026-04-07T16:06:22Z</time></trkpt><trkpt lat="45.85760350637289" lon="9.242610186515153"><ele>788.0</ele><time>2026-04-07T16:06:23Z</time></trkpt><trkpt lat="45.85759582424041" lon="9.242742972202283"><ele>790.2</ele><time>2026-04-07T16:06:24Z</time></trkpt><trkpt lat="45.85757958441953" lon="9.242897510899226"><ele>792.4</ele><time>2026-04-07T16:06:25Z</time></trkpt><trkpt lat="45.85758985767408" lon="9.243011496341587"><ele>794.6</ele><time>2026-04-07T16:06:26Z</time></trkpt><trkpt lat="45.857605043880824" lon="9.243209141401287"><ele>796.8000000000001</ele><time>2026-04-07T16:06:28Z</time></trkpt><trkpt lat="45.85760881151568" lon="9.243343249857064"><ele>799.0</ele><time>2026-04-07T16:06:29Z</time></trkpt><trkpt lat="45.85760696953429" lon="9.243511898906394"><ele>799.1666666666666</ele><time>2026-04-07T16:06:30Z</time></trkpt><trkpt lat="45.857619924453644" lon="9.243668313774792"><ele>799.3333333333333</ele><time>2026-04-07T16:06:32Z</time></trkpt><trkpt lat="45.85763235170286" lon="9.24378628403843"><ele>799.5</ele><time>2026-04-07T16:06:34Z</time></trkpt><trkpt lat="45.85763488190521" lon="9.243952803183495"><ele>799.6666666666667</ele><time>2026-04-07T16:06:36Z</time></trkpt><trkpt lat="45.857625852625524" lon="9.244044423741272"><ele>799.8333333333334</ele><time>2026-04-07T16:06:37Z</time></trkpt><trkpt lat="45.85761686301576" lon="9.244135641988152"><ele>800.0</ele><time>2026-04-07T16:06:38Z</time></trkpt><trkpt lat="45.85760783558694" lon="9.244225311108282"><ele>800.0</ele><time>2026-04-07T16:06:39Z</time></trkpt><trkpt lat="45.85759875584127" lon="9.24435232900167"><ele>800.0</ele><time>2026-04-07T16:06:41Z</time></trkpt><trkpt lat="45.85777835903327" lon="9.244381886139694"><ele>800.0</ele><time>2026-04-07T16:06:47Z</time></trkpt><trkpt lat="45.85784292079883" lon="9.244450787560023"><ele>800.0</ele><time>2026-04-07T16:06:49Z</time></trkpt><trkpt lat="45.8579137639958" lon="9.244477530055885"><ele>800.0</ele><time>2026-04-07T16:06:51Z</time></trkpt><trkpt lat="45.858011032823356" lon="9.244516403843585"><ele>796.3333333333334</ele><time>2026-04-07T16:06:53Z</time></trkpt><trkpt lat="45.85809168758386" lon="9.244529993045095"><ele>792.6666666666667</ele><time>2026-04-07T16:06:55Z</time></trkpt><trkpt lat="45.85817192418877" lon="9.244600088478622"><ele>789.0</ele><time>2026-04-07T16:06:57Z</time></trkpt><trkpt lat="45.85819725581148" lon="9.244700149926643"><ele>785.3333333333333</ele><time>2026-04-07T16:06:58Z</time></trkpt><trkpt lat="45.85823342434296" lon="9.244791326843275"><ele>781.6666666666666</ele><time>2026-04-07T16:07:00Z</time></trkpt><trkpt lat="45.85826317252919" lon="9.24490115914627"><ele>778.0</ele><time>2026-04-07T16:07:03Z</time></trkpt><trkpt lat="45.858284930166654" lon="9.245021140464303"><ele>777.3333333333333</ele><time>2026-04-07T16:07:05Z</time></trkpt><trkpt lat="45.85829167318394" lon="9.245119027473022"><ele>776.6666666666666</ele><time>2026-04-07T16:07:07Z</time></trkpt><trkpt lat="45.85824673427718" lon="9.24525443969114"><ele>776.0</ele><time>2026-04-07T16:07:09Z</time></trkpt><trkpt lat="45.85826268094655" lon="9.245401503964422"><ele>775.3333333333333</ele><time>2026-04-07T16:07:10.999Z</time></trkpt><trkpt lat="45.85830263191905" lon="9.245491967132374"><ele>774.6666666666666</ele><time>2026-04-07T16:07:11.999Z</time></trkpt><trkpt lat="45.8583043710683" lon="9.245610100160127"><ele>774.0</ele><time>2026-04-07T16:07:13.999Z</time></trkpt><trkpt lat="45.85832835540463" lon="9.245713497105372"><ele>773.0</ele><time>2026-04-07T16:07:16.999Z</time></trkpt><trkpt lat="45.858377706539514" lon="9.245869957728402"><ele>772.0</ele><time>2026-04-07T16:07:18.999Z</time></trkpt><trkpt lat="45.858382992993164" lon="9.246006135489115"><ele>771.0</ele><time>2026-04-07T16:07:20.999Z</time></trkpt><trkpt lat="45.85840898646567" lon="9.24616998096883"><ele>770.0</ele><time>2026-04-07T16:07:22.999Z</time></trkpt><trkpt lat="45.85843372085249" lon="9.246259907651897"><ele>769.0</ele><time>2026-04-07T16:07:23.999Z</time></trkpt><trkpt lat="45.85845674959566" lon="9.246344908528911"><ele>769.0</ele><time>2026-04-07T16:07:25.999Z</time></trkpt><trkpt lat="45.85848490470663" lon="9.24646392843709"><ele>769.0</ele><time>2026-04-07T16:07:29.999Z</time></trkpt><trkpt lat="45.85848889824679" lon="9.24656975719801"><ele>769.0</ele><time>2026-04-07T16:07:32.999Z</time></trkpt><trkpt lat="45.85838663742456" lon="9.246765258784405"><ele>769.0</ele><time>2026-04-07T16:07:36.999Z</time></trkpt><trkpt lat="45.85838860622127" lon="9.246888782089668"><ele>769.0</ele><time>2026-04-07T16:07:38.999Z</time></trkpt><trkpt lat="45.858451072699964" lon="9.246921749626674"><ele>764.4999999999999</ele><time>2026-04-07T16:07:40.999Z</time></trkpt><trkpt lat="45.85852063022379" lon="9.246933294826905"><ele>760.0</ele><time>2026-04-07T16:07:42.999Z</time></trkpt><trkpt lat="45.85858128084433" lon="9.247034157157007"><ele>755.5</ele><time>2026-04-07T16:07:44.999Z</time></trkpt><trkpt lat="45.858634975074885" lon="9.247124287379345"><ele>751.0</ele><time>2026-04-07T16:07:45.999Z</time></trkpt><trkpt lat="45.858676464142704" lon="9.247193339554006"><ele>746.5</ele><time>2026-04-07T16:07:46.999Z</time></trkpt><trkpt lat="45.85869841495116" lon="9.247281460634579"><ele>742.0</ele><time>2026-04-07T16:07:47.999Z</time></trkpt><trkpt lat="45.858714029353926" lon="9.247399876246416"><ele>741.6666666666667</ele><time>2026-04-07T16:07:49.999Z</time></trkpt><trkpt lat="45.85879657563735" lon="9.247477762964781"><ele>741.3333333333334</ele><time>2026-04-07T16:07:51.999Z</time></trkpt><trkpt lat="45.85883979496587" lon="9.247568108662051"><ele>741.0</ele><time>2026-04-07T16:07:53.999Z</time></trkpt><trkpt lat="45.85878664843961" lon="9.24763267293373"><ele>740.6666666666666</ele><time>2026-04-07T16:08:47Z</time></trkpt><trkpt lat="45.85882319273744" lon="9.24771446856463"><ele>740.3333333333333</ele><time>2026-04-07T16:08:50Z</time></trkpt><trkpt lat="45.85889117363005" lon="9.247808643742104"><ele>740.0</ele><time>2026-04-07T16:08:53Z</time></trkpt><trkpt lat="45.8589467528995" lon="9.247862874555587"><ele>740.0</ele><time>2026-04-07T16:08:55Z</time></trkpt><trkpt lat="45.85900029234325" lon="9.247928604271548"><ele>740.0</ele><time>2026-04-07T16:08:57Z</time></trkpt><trkpt lat="45.85908791866624" lon="9.248015181549297"><ele>740.0</ele><time>2026-04-07T16:08:59.999Z</time></trkpt><trkpt lat="45.859131405437765" lon="9.2481017730437"><ele>740.0</ele><time>2026-04-07T16:09:01.999Z</time></trkpt><trkpt lat="45.8591834572859" lon="9.24818344252233"><ele>740.0</ele><time>2026-04-07T16:09:04.999Z</time></trkpt><trkpt lat="45.85925602072627" lon="9.248265108696796"><ele>740.0</ele><time>2026-04-07T16:09:06.999Z</time></trkpt><trkpt lat="45.859305355310056" lon="9.248348924140425"><ele>735.8333333333333</ele><time>2026-04-07T16:09:09.999Z</time></trkpt><trkpt lat="45.859365967882596" lon="9.248427686666984"><ele>731.6666666666666</ele><time>2026-04-07T16:09:11.999Z</time></trkpt><trkpt lat="45.85943286785777" lon="9.248469604236488"><ele>727.5</ele><time>2026-04-07T16:09:13.999Z</time></trkpt><trkpt lat="45.85952000450877" lon="9.248536371898012"><ele>723.3333333333334</ele><time>2026-04-07T16:09:15.999Z</time></trkpt><trkpt lat="45.85957481302846" lon="9.248609995434833"><ele>719.1666666666667</ele><time>2026-04-07T16:09:17.999Z</time></trkpt><trkpt lat="45.85959711679447" lon="9.248701877485779"><ele>715.0</ele><time>2026-04-07T16:09:19.999Z</time></trkpt><trkpt lat="45.85962870391843" lon="9.248811554633203"><ele>715.0</ele><time>2026-04-07T16:09:21.999Z</time></trkpt><trkpt lat="45.8596878024583" lon="9.248847654236657"><ele>715.0</ele><time>2026-04-07T16:09:23.999Z</time></trkpt><trkpt lat="45.85976200393708" lon="9.248893506844407"><ele>715.0</ele><time>2026-04-07T16:09:25.999Z</time></trkpt><trkpt lat="45.859820743706145" lon="9.248930502197629"><ele>715.0</ele><time>2026-04-07T16:09:27.999Z</time></trkpt><trkpt lat="45.859908545295966" lon="9.249036530676882"><ele>715.0</ele><time>2026-04-07T16:09:29.999Z</time></trkpt><trkpt lat="45.8599997885999" lon="9.249154792217109"><ele>715.0</ele><time>2026-04-07T16:09:31.999Z</time></trkpt><trkpt lat="45.860037650789444" lon="9.24923305869712"><ele>715.1666666666667</ele><time>2026-04-07T16:09:32.999Z</time></trkpt><trkpt lat="45.86006366278244" lon="9.249371348302198"><ele>715.3333333333334</ele><time>2026-04-07T16:09:34.999Z</time></trkpt><trkpt lat="45.860104516544546" lon="9.249451983903532"><ele>715.5</ele><time>2026-04-07T16:09:36.999Z</time></trkpt><trkpt lat="45.860155747933646" lon="9.249569459685098"><ele>715.6666666666666</ele><time>2026-04-07T16:09:38.999Z</time></trkpt><trkpt lat="45.86021708426318" lon="9.249657682500283"><ele>715.8333333333333</ele><time>2026-04-07T16:09:39.999Z</time></trkpt><trkpt lat="45.860271216423804" lon="9.249749829273409"><ele>716.0</ele><time>2026-04-07T16:09:42.999Z</time></trkpt><trkpt lat="45.860306715245365" lon="9.249842847919993"><ele>711.6666666666666</ele><time>2026-04-07T16:09:44.999Z</time></trkpt><trkpt lat="45.860362060870024" lon="9.249914412412176"><ele>707.3333333333333</ele><time>2026-04-07T16:09:46.999Z</time></trkpt><trkpt lat="45.860405342909814" lon="9.250010812930244"><ele>703.0</ele><time>2026-04-07T16:09:48.999Z</time></trkpt><trkpt lat="45.86045950285964" lon="9.25012977158833"><ele>698.6666666666666</ele><time>2026-04-07T16:09:50.999Z</time></trkpt><trkpt lat="45.86052841685881" lon="9.25019510232136"><ele>694.3333333333334</ele><time>2026-04-07T16:09:52.999Z</time></trkpt><trkpt lat="45.860598361159965" lon="9.250282378901906"><ele>690.0</ele><time>2026-04-07T16:09:54.999Z</time></trkpt><trkpt lat="45.860659467354374" lon="9.250380381439424"><ele>690.0</ele><time>2026-04-07T16:09:57.999Z</time></trkpt><trkpt lat="45.860704199501264" lon="9.250494818214175"><ele>690.0</ele><time>2026-04-07T16:09:59.999Z</time></trkpt><trkpt lat="45.860800171931544" lon="9.250609460407835"><ele>690.0</ele><time>2026-04-07T16:10:01.999Z</time></trkpt><trkpt lat="45.86084708852578" lon="9.250712485236898"><ele>690.0</ele><time>2026-04-07T16:10:03.999Z</time></trkpt><trkpt lat="45.86089313304004" lon="9.250855251681788"><ele>690.0</ele><time>2026-04-07T16:10:05.999Z</time></trkpt><trkpt lat="45.86092564730231" lon="9.250976719647129"><ele>689.3333333333334</ele><time>2026-04-07T16:10:08Z</time></trkpt><trkpt lat="45.860914618616796" lon="9.251069101995471"><ele>688.6666666666666</ele><time>2026-04-07T16:10:09Z</time></trkpt><trkpt lat="45.860960307197125" lon="9.251149107844144"><ele>688.0</ele><time>2026-04-07T16:10:10Z</time></trkpt><trkpt lat="45.86102235142271" lon="9.251247049198327"><ele>687.3333333333333</ele><time>2026-04-07T16:10:12Z</time></trkpt><trkpt lat="45.8610853442079" lon="9.251296260064752"><ele>686.6666666666666</ele><time>2026-04-07T16:10:13Z</time></trkpt><trkpt lat="45.8611455549634" lon="9.251390122316819"><ele>686.0</ele><time>2026-04-07T16:10:15Z</time></trkpt><trkpt lat="45.86129069451747" lon="9.25149327401876"><ele>682.1428571428571</ele><time>2026-04-07T16:10:17Z</time></trkpt><trkpt lat="45.86135885800818" lon="9.251574590133522"><ele>678.2857142857142</ele><time>2026-04-07T16:10:19Z</time></trkpt><trkpt lat="45.861407482624074" lon="9.25163230950898"><ele>674.4285714285714</ele><time>2026-04-07T16:10:20Z</time></trkpt><trkpt lat="45.86148944011533" lon="9.25171347692492"><ele>670.5714285714286</ele><time>2026-04-07T16:10:22Z</time></trkpt><trkpt lat="45.8615499210401" lon="9.251756042121162"><ele>666.7142857142857</ele><time>2026-04-07T16:10:24Z</time></trkpt><trkpt lat="45.86160450155577" lon="9.251809656798137"><ele>662.8571428571429</ele><time>2026-04-07T16:10:25Z</time></trkpt><trkpt lat="45.86165334628318" lon="9.251869393765077"><ele>659.0</ele><time>2026-04-07T16:10:26Z</time></trkpt><trkpt lat="45.86172671326164" lon="9.251944202030902"><ele>655.1666666666666</ele><time>2026-04-07T16:10:28Z</time></trkpt><trkpt lat="45.86181609926898" lon="9.252029023036878"><ele>651.3333333333333</ele><time>2026-04-07T16:10:30Z</time></trkpt><trkpt lat="45.86186465278167" lon="9.252092704165133"><ele>647.5</ele><time>2026-04-07T16:10:31Z</time></trkpt><trkpt lat="45.8619386082312" lon="9.25223620350917"><ele>643.6666666666666</ele><time>2026-04-07T16:10:33Z</time></trkpt><trkpt lat="45.86197619812991" lon="9.252312083686023"><ele>639.8333333333334</ele><time>2026-04-07T16:10:34Z</time></trkpt><trkpt lat="45.86201319899651" lon="9.252423725722613"><ele>636.0</ele><time>2026-04-07T16:10:36Z</time></trkpt><trkpt lat="45.862079553500784" lon="9.252514270426236"><ele>636.0</ele><time>2026-04-07T16:10:38Z</time></trkpt><trkpt lat="45.8621437439482" lon="9.252636379063789"><ele>636.0</ele><time>2026-04-07T16:10:40Z</time></trkpt><trkpt lat="45.86217404574884" lon="9.252747922468709"><ele>636.0</ele><time>2026-04-07T16:10:41Z</time></trkpt><trkpt lat="45.86226427654895" lon="9.252776509070435"><ele>636.0</ele><time>2026-04-07T16:10:42Z</time></trkpt><trkpt lat="45.86234359614533" lon="9.252828533625715"><ele>636.0</ele><time>2026-04-07T16:10:44Z</time></trkpt><trkpt lat="45.862411079127014" lon="9.25291711838663"><ele>636.0</ele><time>2026-04-07T16:10:46Z</time></trkpt><trkpt lat="45.86251784795886" lon="9.252966847331425"><ele>636.0</ele><time>2026-04-07T16:10:48Z</time></trkpt><trkpt lat="45.862546520909795" lon="9.253048681386499"><ele>636.0</ele><time>2026-04-07T16:10:50Z</time></trkpt><trkpt lat="45.862564353033015" lon="9.253142334072338"><ele>636.0</ele><time>2026-04-07T16:10:53Z</time></trkpt><trkpt lat="45.862608386517685" lon="9.253290167306018"><ele>636.0</ele><time>2026-04-07T16:10:55Z</time></trkpt><trkpt lat="45.862668116794396" lon="9.253415321761931"><ele>634.1666666666666</ele><time>2026-04-07T16:10:57Z</time></trkpt><trkpt lat="45.8627304495831" lon="9.253499631858327"><ele>632.3333333333334</ele><time>2026-04-07T16:10:59Z</time></trkpt><trkpt lat="45.86277709666966" lon="9.253575352452874"><ele>630.5</ele><time>2026-04-07T16:11:00Z</time></trkpt><trkpt lat="45.862818611876605" lon="9.253652047603742"><ele>628.6666666666667</ele><time>2026-04-07T16:11:01Z</time></trkpt><trkpt lat="45.86282793326712" lon="9.253768943489685"><ele>626.8333333333334</ele><time>2026-04-07T16:11:02Z</time></trkpt><trkpt lat="45.86291696035938" lon="9.253863418322327"><ele>625.0</ele><time>2026-04-07T16:11:03Z</time></trkpt><trkpt lat="45.862968696525165" lon="9.254018644866955"><ele>625.0</ele><time>2026-04-07T16:11:04Z</time></trkpt><trkpt lat="45.86301383606215" lon="9.254162852053094"><ele>625.0</ele><time>2026-04-07T16:11:05Z</time></trkpt><trkpt lat="45.863046434059186" lon="9.254287568115156"><ele>625.0</ele><time>2026-04-07T16:11:06Z</time></trkpt><trkpt lat="45.86312420795734" lon="9.254358502126136"><ele>625.0</ele><time>2026-04-07T16:11:07Z</time></trkpt><trkpt lat="45.863181331607045" lon="9.254486346717663"><ele>625.0</ele><time>2026-04-07T16:11:08Z</time></trkpt><trkpt lat="45.8632268367218" lon="9.254596991613646"><ele>625.0</ele><time>2026-04-07T16:11:09Z</time></trkpt><trkpt lat="45.86325473310122" lon="9.254693243316135"><ele>625.0</ele><time>2026-04-07T16:11:10Z</time></trkpt><trkpt lat="45.86330348402162" lon="9.254769146733008"><ele>625.0</ele><time>2026-04-07T16:11:11Z</time></trkpt><trkpt lat="45.863336439785066" lon="9.25491564542927"><ele>625.0</ele><time>2026-04-07T16:11:13Z</time></trkpt><trkpt lat="45.86340471274456" lon="9.255023751963725"><ele>625.0</ele><time>2026-04-07T16:11:15.999Z</time></trkpt><trkpt lat="45.863469368388586" lon="9.255162058090093"><ele>621.0</ele><time>2026-04-07T16:11:17.999Z</time></trkpt><trkpt lat="45.86349407748375" lon="9.255248660197013"><ele>617.0</ele><time>2026-04-07T16:11:18.999Z</time></trkpt><trkpt lat="45.86353769705322" lon="9.255462106224138"><ele>613.0</ele><time>2026-04-07T16:11:20.999Z</time></trkpt><trkpt lat="45.86354827027492" lon="9.25561965888756"><ele>609.0</ele><time>2026-04-07T16:11:21.999Z</time></trkpt><trkpt lat="45.8635547822528" lon="9.255721847500865"><ele>605.0</ele><time>2026-04-07T16:11:22.999Z</time></trkpt><trkpt lat="45.86358552300472" lon="9.25584512509485"><ele>605.0</ele><time>2026-04-07T16:11:23.999Z</time></trkpt><trkpt lat="45.8636295004685" lon="9.255960634984026"><ele>605.0</ele><time>2026-04-07T16:11:24.999Z</time></trkpt><trkpt lat="45.86363126144272" lon="9.256066960711344"><ele>605.0</ele><time>2026-04-07T16:11:25.999Z</time></trkpt><trkpt lat="45.86365181582606" lon="9.256201271507873"><ele>605.0</ele><time>2026-04-07T16:11:27.999Z</time></trkpt><trkpt lat="45.86363682576086" lon="9.25630905027919"><ele>605.0</ele><time>2026-04-07T16:11:29.999Z</time></trkpt><trkpt lat="45.86365030703224" lon="9.256439059478698"><ele>605.0</ele><time>2026-04-07T16:11:31.999Z</time></trkpt><trkpt lat="45.86363907622639" lon="9.256558648305763"><ele>605.0</ele><time>2026-04-07T16:11:33.999Z</time></trkpt><trkpt lat="45.86366963179156" lon="9.256672589266469"><ele>605.0</ele><time>2026-04-07T16:11:36.999Z</time></trkpt><trkpt lat="45.863715615599325" lon="9.256757153888438"><ele>605.0</ele><time>2026-04-07T16:11:38.999Z</time></trkpt><trkpt lat="45.86373787589848" lon="9.256890767468173"><ele>605.0</ele><time>2026-04-07T16:11:40.999Z</time></trkpt><trkpt lat="45.86374095271177" lon="9.256997518074762"><ele>605.0</ele><time>2026-04-07T16:11:41.999Z</time></trkpt><trkpt lat="45.86374802234513" lon="9.257107102957661"><ele>605.0</ele><time>2026-04-07T16:11:42.999Z</time></trkpt><trkpt lat="45.86369776762842" lon="9.257180881564018"><ele>603.5</ele><time>2026-04-07T16:11:43.999Z</time></trkpt><trkpt lat="45.863671303477375" lon="9.257321331316954"><ele>602.0</ele><time>2026-04-07T16:11:45.999Z</time></trkpt><trkpt lat="45.86363306231074" lon="9.257423619423815"><ele>600.5</ele><time>2026-04-07T16:11:47.999Z</time></trkpt><trkpt lat="45.86367798271914" lon="9.257561596353298"><ele>599.0</ele><time>2026-04-07T16:11:49.999Z</time></trkpt><trkpt lat="45.8636907190487" lon="9.257684067297566"><ele>597.5</ele><time>2026-04-07T16:11:51.999Z</time></trkpt><trkpt lat="45.86369579710338" lon="9.257789632976152"><ele>596.0</ele><time>2026-04-07T16:11:52.999Z</time></trkpt><trkpt lat="45.86366874378135" lon="9.257965957982039"><ele>593.6666666666666</ele><time>2026-04-07T16:11:54.999Z</time></trkpt><trkpt lat="45.86368518366015" lon="9.258136912621003"><ele>591.3333333333333</ele><time>2026-04-07T16:11:56.999Z</time></trkpt><trkpt lat="45.86367185960533" lon="9.2582258265319"><ele>589.0</ele><time>2026-04-07T16:11:57.999Z</time></trkpt><trkpt lat="45.86366314422358" lon="9.258390312301286"><ele>586.6666666666666</ele><time>2026-04-07T16:11:59.999Z</time></trkpt><trkpt lat="45.86366611311044" lon="9.258494323106145"><ele>584.3333333333334</ele><time>2026-04-07T16:12:00.999Z</time></trkpt><trkpt lat="45.86370442799331" lon="9.258573899434257"><ele>582.0</ele><time>2026-04-07T16:12:01.999Z</time></trkpt><trkpt lat="45.86372582305284" lon="9.258738032890523"><ele>582.0</ele><time>2026-04-07T16:12:03.999Z</time></trkpt><trkpt lat="45.86379662287729" lon="9.258846286279192"><ele>582.0</ele><time>2026-04-07T16:12:04.999Z</time></trkpt><trkpt lat="45.863800972818446" lon="9.258979117041774"><ele>582.0</ele><time>2026-04-07T16:12:06.999Z</time></trkpt><trkpt lat="45.86380067115018" lon="9.259174162400564"><ele>582.0</ele><time>2026-04-07T16:12:08.999Z</time></trkpt><trkpt lat="45.86384666409489" lon="9.259250386849075"><ele>582.0</ele><time>2026-04-07T16:12:09.999Z</time></trkpt><trkpt lat="45.86391375167397" lon="9.259393660841157"><ele>580.2</ele><time>2026-04-07T16:12:11.999Z</time></trkpt><trkpt lat="45.86393544091606" lon="9.259498084876006"><ele>578.4000000000001</ele><time>2026-04-07T16:12:12.999Z</time></trkpt><trkpt lat="45.863907587042526" lon="9.259648408646544"><ele>576.5999999999999</ele><time>2026-04-07T16:12:15Z</time></trkpt><trkpt lat="45.863935756452165" lon="9.259825518244813"><ele>574.8</ele><time>2026-04-07T16:12:17Z</time></trkpt><trkpt lat="45.86393826373198" lon="9.259956322458793"><ele>573.0</ele><time>2026-04-07T16:12:19Z</time></trkpt><trkpt lat="45.863968439310604" lon="9.26009459792142"><ele>572.0</ele><time>2026-04-07T16:12:21Z</time></trkpt><trkpt lat="45.86400113033743" lon="9.260211668361157"><ele>571.0</ele><time>2026-04-07T16:12:23Z</time></trkpt><trkpt lat="45.864095387191085" lon="9.260265266469888"><ele>570.0</ele><time>2026-04-07T16:12:25Z</time></trkpt><trkpt lat="45.864188760658536" lon="9.26029325206653"><ele>569.0</ele><time>2026-04-07T16:12:27Z</time></trkpt><trkpt lat="45.864245060903365" lon="9.26035683227022"><ele>568.0</ele><time>2026-04-07T16:12:29Z</time></trkpt><trkpt lat="45.86422772321824" lon="9.260542276202997"><ele>567.6666666666667</ele><time>2026-04-07T16:12:31Z</time></trkpt><trkpt lat="45.86423863058957" lon="9.260674643715452"><ele>567.3333333333334</ele><time>2026-04-07T16:12:32Z</time></trkpt><trkpt lat="45.864254416430065" lon="9.26079849906631"><ele>567.0</ele><time>2026-04-07T16:12:33Z</time></trkpt><trkpt lat="45.86427091761639" lon="9.260900509634938"><ele>566.6666666666666</ele><time>2026-04-07T16:12:34Z</time></trkpt><trkpt lat="45.86429924817665" lon="9.260992213929882"><ele>566.3333333333333</ele><time>2026-04-07T16:12:35Z</time></trkpt><trkpt lat="45.86435927589026" lon="9.261127932273775"><ele>566.0</ele><time>2026-04-07T16:12:37Z</time></trkpt><trkpt lat="45.86443797925063" lon="9.261241969053382"><ele>564.6666666666666</ele><time>2026-04-07T16:12:39Z</time></trkpt><trkpt lat="45.86446746053234" lon="9.261332431267792"><ele>563.3333333333333</ele><time>2026-04-07T16:12:40Z</time></trkpt><trkpt lat="45.864520298847005" lon="9.261409642223486"><ele>562.0</ele><time>2026-04-07T16:12:42Z</time></trkpt><trkpt lat="45.86457855248507" lon="9.261522169501731"><ele>560.6666666666666</ele><time>2026-04-07T16:12:44Z</time></trkpt><trkpt lat="45.86462179803555" lon="9.261597158428298"><ele>559.3333333333334</ele><time>2026-04-07T16:12:45Z</time></trkpt><trkpt lat="45.86467238115293" lon="9.261660775017122"><ele>558.0</ele><time>2026-04-07T16:12:48Z</time></trkpt><trkpt lat="45.864721852740516" lon="9.261796255132312"><ele>556.6</ele><time>2026-04-07T16:12:50Z</time></trkpt><trkpt lat="45.864783937793874" lon="9.261928590849191"><ele>555.1999999999999</ele><time>2026-04-07T16:12:53Z</time></trkpt><trkpt lat="45.86485439738597" lon="9.262081782272007"><ele>553.8</ele><time>2026-04-07T16:12:55Z</time></trkpt><trkpt lat="45.86490620158046" lon="9.262199601800338"><ele>552.4</ele><time>2026-04-07T16:12:57Z</time></trkpt><trkpt lat="45.86495596000885" lon="9.262315237015027"><ele>551.0</ele><time>2026-04-07T16:12:59Z</time></trkpt><trkpt lat="45.86499342650402" lon="9.262421048606116"><ele>549.6666666666666</ele><time>2026-04-07T16:13:01Z</time></trkpt><trkpt lat="45.86502537301981" lon="9.262528328642464"><ele>548.3333333333333</ele><time>2026-04-07T16:13:03Z</time></trkpt><trkpt lat="45.86503530888132" lon="9.262643824951573"><ele>547.0</ele><time>2026-04-07T16:13:06Z</time></trkpt><trkpt lat="45.86504214813194" lon="9.26274076678786"><ele>545.6666666666666</ele><time>2026-04-07T16:13:08Z</time></trkpt><trkpt lat="45.8649554552345" lon="9.262823590335838"><ele>544.3333333333334</ele><time>2026-04-07T16:13:10Z</time></trkpt><trkpt lat="45.86488608224191" lon="9.262848621774559"><ele>543.0</ele><time>2026-04-07T16:13:11Z</time></trkpt><trkpt lat="45.864822571328375" lon="9.262856388008844"><ele>543.0</ele><time>2026-04-07T16:13:12Z</time></trkpt><trkpt lat="45.86473107225095" lon="9.262954242745712"><ele>543.0</ele><time>2026-04-07T16:13:14Z</time></trkpt><trkpt lat="45.86463902729061" lon="9.26306416410569"><ele>543.0</ele><time>2026-04-07T16:13:16Z</time></trkpt><trkpt lat="45.8645468070288" lon="9.263134674196616"><ele>543.0</ele><time>2026-04-07T16:13:18Z</time></trkpt><trkpt lat="45.8644773249226" lon="9.263227084601644"><ele>543.0</ele><time>2026-04-07T16:13:20Z</time></trkpt><trkpt lat="45.864426581479734" lon="9.263330484473807"><ele>539.8</ele><time>2026-04-07T16:13:22Z</time></trkpt><trkpt lat="45.864387601271325" lon="9.263412846775843"><ele>536.5999999999999</ele><time>2026-04-07T16:13:24Z</time></trkpt><trkpt lat="45.86434918818632" lon="9.263503862644017"><ele>533.4000000000001</ele><time>2026-04-07T16:13:26Z</time></trkpt><trkpt lat="45.864277198370736" lon="9.263584365641027"><ele>530.2</ele><time>2026-04-07T16:13:28Z</time></trkpt><trkpt lat="45.86421216199855" lon="9.263568782371637"><ele>527.0</ele><time>2026-04-07T16:13:29Z</time></trkpt><trkpt lat="45.864037850961004" lon="9.263672728936292"><ele>527.0</ele><time>2026-04-07T16:13:30Z</time></trkpt><trkpt lat="45.863960846088524" lon="9.263726652431968"><ele>527.0</ele><time>2026-04-07T16:13:32.999Z</time></trkpt><trkpt lat="45.86390166004318" lon="9.263788458401722"><ele>527.0</ele><time>2026-04-07T16:13:33.999Z</time></trkpt><trkpt lat="45.8637499358991" lon="9.26389060791483"><ele>527.0</ele><time>2026-04-07T16:13:35.999Z</time></trkpt><trkpt lat="45.86368629266362" lon="9.263980313328195"><ele>527.0</ele><time>2026-04-07T16:13:36.999Z</time></trkpt><trkpt lat="45.86362432222089" lon="9.264041806519437"><ele>523.8333333333333</ele><time>2026-04-07T16:13:37.999Z</time></trkpt><trkpt lat="45.863571690676785" lon="9.264109488514642"><ele>520.6666666666666</ele><time>2026-04-07T16:13:38.999Z</time></trkpt><trkpt lat="45.863515102869066" lon="9.264177282154733"><ele>517.5</ele><time>2026-04-07T16:13:39.999Z</time></trkpt><trkpt lat="45.863459917212914" lon="9.264233866973317"><ele>514.3333333333334</ele><time>2026-04-07T16:13:40.999Z</time></trkpt><trkpt lat="45.86341418843836" lon="9.264297329184135"><ele>511.1666666666667</ele><time>2026-04-07T16:13:41.999Z</time></trkpt><trkpt lat="45.86331131061655" lon="9.264399845337138"><ele>508.0</ele><time>2026-04-07T16:13:43.999Z</time></trkpt><trkpt lat="45.863218782376194" lon="9.264495182730215"><ele>508.0</ele><time>2026-04-07T16:13:45.999Z</time></trkpt><trkpt lat="45.863133778329185" lon="9.264595796443615"><ele>507.99999999999994</ele><time>2026-04-07T16:13:47.999Z</time></trkpt><trkpt lat="45.86307669061644" lon="9.264661923299098"><ele>507.99999999999994</ele><time>2026-04-07T16:13:48.999Z</time></trkpt><trkpt lat="45.862979253925296" lon="9.264753134787252"><ele>508.0</ele><time>2026-04-07T16:13:50.999Z</time></trkpt><trkpt lat="45.8628934654048" lon="9.264855961761752"><ele>508.0</ele><time>2026-04-07T16:13:52.999Z</time></trkpt><trkpt lat="45.862838047582215" lon="9.264906331543788"><ele>501.79999999999995</ele><time>2026-04-07T16:13:53.999Z</time></trkpt><trkpt lat="45.86274107835057" lon="9.264975967677778"><ele>495.59999999999997</ele><time>2026-04-07T16:13:55.999Z</time></trkpt><trkpt lat="45.86266166784977" lon="9.265030964485355"><ele>489.40000000000003</ele><time>2026-04-07T16:13:56.999Z</time></trkpt><trkpt lat="45.862593408135105" lon="9.265101229208252"><ele>483.20000000000005</ele><time>2026-04-07T16:13:57.999Z</time></trkpt><trkpt lat="45.8624705502584" lon="9.265208475760552"><ele>477.0</ele><time>2026-04-07T16:13:59.999Z</time></trkpt><trkpt lat="45.862410415528856" lon="9.26525269973697"><ele>477.0</ele><time>2026-04-07T16:14:00.999Z</time></trkpt><trkpt lat="45.862305809156965" lon="9.265257478766866"><ele>477.00000000000006</ele><time>2026-04-07T16:14:02.999Z</time></trkpt><trkpt lat="45.86224492756849" lon="9.265285621735577"><ele>477.00000000000006</ele><time>2026-04-07T16:14:04.999Z</time></trkpt><trkpt lat="45.86217721345139" lon="9.265316923092618"><ele>477.0</ele><time>2026-04-07T16:14:06.999Z</time></trkpt><trkpt lat="45.86213869815402" lon="9.265546984186356"><ele>477.0</ele><time>2026-04-07T16:14:07.999Z</time></trkpt><trkpt lat="45.862290008924646" lon="9.265609359801402"><ele>471.0</ele><time>2026-04-07T16:14:09.999Z</time></trkpt><trkpt lat="45.862386720828454" lon="9.265692136143507"><ele>465.0</ele><time>2026-04-07T16:14:11.999Z</time></trkpt><trkpt lat="45.86245043991563" lon="9.26570813271695"><ele>459.0</ele><time>2026-04-07T16:14:12.999Z</time></trkpt><trkpt lat="45.86251634969853" lon="9.265720548067955"><ele>453.0</ele><time>2026-04-07T16:14:13.999Z</time></trkpt><trkpt lat="45.862581571612345" lon="9.26573392412116"><ele>447.0</ele><time>2026-04-07T16:14:14.999Z</time></trkpt><trkpt lat="45.8626898970658" lon="9.265749230228886"><ele>441.0</ele><time>2026-04-07T16:14:16.999Z</time></trkpt><trkpt lat="45.862830072434924" lon="9.265754159530783"><ele>440.3333333333333</ele><time>2026-04-07T16:14:18.999Z</time></trkpt><trkpt lat="45.86292606181435" lon="9.265803631669028"><ele>439.66666666666663</ele><time>2026-04-07T16:14:20Z</time></trkpt><trkpt lat="45.86300591781367" lon="9.265825663454713"><ele>439.0</ele><time>2026-04-07T16:14:21Z</time></trkpt><trkpt lat="45.863080657304074" lon="9.265819989971563"><ele>438.3333333333333</ele><time>2026-04-07T16:14:22Z</time></trkpt><trkpt lat="45.86315142070085" lon="9.265847888752212"><ele>437.66666666666663</ele><time>2026-04-07T16:14:23Z</time></trkpt><trkpt lat="45.863256080207925" lon="9.265890622964074"><ele>437.0</ele><time>2026-04-07T16:14:25Z</time></trkpt><trkpt lat="45.86317637688347" lon="9.265896371737668"><ele>437.0</ele><time>2026-04-07T16:14:33Z</time></trkpt><trkpt lat="45.8630905629598" lon="9.26600254883327"><ele>437.0</ele><time>2026-04-07T16:14:34Z</time></trkpt><trkpt lat="45.86290011111327" lon="9.266085222693372"><ele>437.0</ele><time>2026-04-07T16:14:35Z</time></trkpt><trkpt lat="45.86275901530974" lon="9.266217189441939"><ele>437.0</ele><time>2026-04-07T16:14:36Z</time></trkpt><trkpt lat="45.862625150611386" lon="9.266286519464247"><ele>437.0</ele><time>2026-04-07T16:14:37Z</time></trkpt><trkpt lat="45.86246470478537" lon="9.266345370034678"><ele>437.0</ele><time>2026-04-07T16:14:38Z</time></trkpt><trkpt lat="45.86232203878871" lon="9.26633836951265"><ele>438.0</ele><time>2026-04-07T16:14:39Z</time></trkpt><trkpt lat="45.86217908840176" lon="9.266376770743026"><ele>439.0</ele><time>2026-04-07T16:14:40Z</time></trkpt><trkpt lat="45.86204118423779" lon="9.266398031512571"><ele>440.0</ele><time>2026-04-07T16:14:41Z</time></trkpt><trkpt lat="45.861928514244106" lon="9.266412234160281"><ele>441.0</ele><time>2026-04-07T16:14:42Z</time></trkpt><trkpt lat="45.861797261073605" lon="9.266409683697642"><ele>441.75</ele><time>2026-04-07T16:14:43Z</time></trkpt><trkpt lat="45.8616885341598" lon="9.266393325872261"><ele>442.5</ele><time>2026-04-07T16:14:44Z</time></trkpt><trkpt lat="45.861552752570546" lon="9.266325580076296"><ele>443.25</ele><time>2026-04-07T16:14:45Z</time></trkpt><trkpt lat="45.86143827956082" lon="9.26629722107586"><ele>444.0</ele><time>2026-04-07T16:14:46Z</time></trkpt><trkpt lat="45.861332994294415" lon="9.266308500842316"><ele>444.0</ele><time>2026-04-07T16:14:47Z</time></trkpt><trkpt lat="45.86125308389174" lon="9.266337274416498"><ele>444.0</ele><time>2026-04-07T16:14:48Z</time></trkpt><trkpt lat="45.8611976870544" lon="9.266403214271543"><ele>444.0</ele><time>2026-04-07T16:14:49Z</time></trkpt><trkpt lat="45.86114959492365" lon="9.266511383736812"><ele>444.0</ele><time>2026-04-07T16:14:50Z</time></trkpt><trkpt lat="45.861090439692525" lon="9.266673689739651"><ele>444.0</ele><time>2026-04-07T16:14:51Z</time></trkpt><trkpt lat="45.861032249123525" lon="9.266864972329708"><ele>441.75</ele><time>2026-04-07T16:14:52Z</time></trkpt><trkpt lat="45.860972049278764" lon="9.267058883345442"><ele>439.5</ele><time>2026-04-07T16:14:53Z</time></trkpt><trkpt lat="45.86092347392631" lon="9.267246332219093"><ele>437.25</ele><time>2026-04-07T16:14:54Z</time></trkpt><trkpt lat="45.86087205496408" lon="9.267393929860718"><ele>435.0</ele><time>2026-04-07T16:14:55Z</time></trkpt><trkpt lat="45.86086590818548" lon="9.267536468565716"><ele>433.6</ele><time>2026-04-07T16:14:56Z</time></trkpt><trkpt lat="45.86083958460747" lon="9.267675713726067"><ele>432.2</ele><time>2026-04-07T16:14:57Z</time></trkpt><trkpt lat="45.86081793627767" lon="9.267874782192461"><ele>430.79999999999995</ele><time>2026-04-07T16:14:58Z</time></trkpt><trkpt lat="45.860814110339184" lon="9.268014342889"><ele>429.4</ele><time>2026-04-07T16:14:59Z</time></trkpt><trkpt lat="45.860766302570006" lon="9.268129633962596"><ele>428.0</ele><time>2026-04-07T16:15:00Z</time></trkpt><trkpt lat="45.860715204718325" lon="9.26823199409369"><ele>425.4</ele><time>2026-04-07T16:15:01Z</time></trkpt><trkpt lat="45.86065137316307" lon="9.268321175740718"><ele>422.79999999999995</ele><time>2026-04-07T16:15:02Z</time></trkpt><trkpt lat="45.86057935005155" lon="9.268303969529024"><ele>420.2</ele><time>2026-04-07T16:15:03Z</time></trkpt><trkpt lat="45.86048270590073" lon="9.268253907622041"><ele>417.6</ele><time>2026-04-07T16:15:04Z</time></trkpt><trkpt lat="45.86032307803794" lon="9.268246411775403"><ele>415.0</ele><time>2026-04-07T16:15:06Z</time></trkpt><trkpt lat="45.860220207140856" lon="9.268215754452568"><ele>415.0</ele><time>2026-04-07T16:15:07Z</time></trkpt><trkpt lat="45.86011740843283" lon="9.26816551744217"><ele>415.0</ele><time>2026-04-07T16:15:08Z</time></trkpt><trkpt lat="45.859999644530355" lon="9.268134511981541"><ele>415.0</ele><time>2026-04-07T16:15:09Z</time></trkpt><trkpt lat="45.85990257010146" lon="9.268076343760013"><ele>415.0</ele><time>2026-04-07T16:15:10Z</time></trkpt><trkpt lat="45.859827215272546" lon="9.268010613298433"><ele>415.0</ele><time>2026-04-07T16:15:11Z</time></trkpt><trkpt lat="45.85971077593861" lon="9.267978236805336"><ele>417.4</ele><time>2026-04-07T16:15:12Z</time></trkpt><trkpt lat="45.85962632613265" lon="9.2679563583667"><ele>419.8</ele><time>2026-04-07T16:15:13Z</time></trkpt><trkpt lat="45.85952519799875" lon="9.267914082690702"><ele>422.20000000000005</ele><time>2026-04-07T16:15:14Z</time></trkpt><trkpt lat="45.85949522244884" lon="9.26781437296712"><ele>424.6</ele><time>2026-04-07T16:15:15Z</time></trkpt><trkpt lat="45.85944774728243" lon="9.267713574276058"><ele>427.0</ele><time>2026-04-07T16:15:16Z</time></trkpt><trkpt lat="45.85934076587366" lon="9.267571655651668"><ele>425.50000000000006</ele><time>2026-04-07T16:15:18Z</time></trkpt><trkpt lat="45.85927066310441" lon="9.26752385069521"><ele>424.0</ele><time>2026-04-07T16:15:19Z</time></trkpt><trkpt lat="45.85920361519367" lon="9.267504215826255"><ele>422.5</ele><time>2026-04-07T16:15:20Z</time></trkpt><trkpt lat="45.85911879466341" lon="9.267468452641426"><ele>421.0</ele><time>2026-04-07T16:15:21Z</time></trkpt><trkpt lat="45.85902555379474" lon="9.267438553849622"><ele>419.50000000000006</ele><time>2026-04-07T16:15:22Z</time></trkpt><trkpt lat="45.85892711604063" lon="9.267442279617313"><ele>418.0</ele><time>2026-04-07T16:15:23Z</time></trkpt><trkpt lat="45.85884273495162" lon="9.267464984235062"><ele>418.0</ele><time>2026-04-07T16:15:24Z</time></trkpt><trkpt lat="45.85875468651551" lon="9.267472108824613"><ele>418.0</ele><time>2026-04-07T16:15:25Z</time></trkpt><trkpt lat="45.85864890016619" lon="9.267462596308304"><ele>418.0</ele><time>2026-04-07T16:15:26Z</time></trkpt><trkpt lat="45.85857784300193" lon="9.2674326701245"><ele>418.0</ele><time>2026-04-07T16:15:27Z</time></trkpt><trkpt lat="45.85847205900727" lon="9.267276748945333"><ele>418.0</ele><time>2026-04-07T16:15:29Z</time></trkpt><trkpt lat="45.85840505004208" lon="9.267208942796785"><ele>420.0</ele><time>2026-04-07T16:15:30Z</time></trkpt><trkpt lat="45.85825868135609" lon="9.26718453034054"><ele>422.0</ele><time>2026-04-07T16:15:31Z</time></trkpt><trkpt lat="45.85815060881458" lon="9.267175298514452"><ele>423.99999999999994</ele><time>2026-04-07T16:15:32Z</time></trkpt><trkpt lat="45.85808015923922" lon="9.267126773683316"><ele>426.0</ele><time>2026-04-07T16:15:33Z</time></trkpt><trkpt lat="45.858009142936744" lon="9.267083545677494"><ele>428.0</ele><time>2026-04-07T16:15:34Z</time></trkpt><trkpt lat="45.85795602691576" lon="9.266932352172812"><ele>428.0</ele><time>2026-04-07T16:15:35Z</time></trkpt><trkpt lat="45.85788084464838" lon="9.266815093304663"><ele>427.99999999999994</ele><time>2026-04-07T16:15:36Z</time></trkpt><trkpt lat="45.8577932845618" lon="9.266709511144052"><ele>427.99999999999994</ele><time>2026-04-07T16:15:37Z</time></trkpt><trkpt lat="45.8577088936599" lon="9.266633653535603"><ele>428.0</ele><time>2026-04-07T16:15:38Z</time></trkpt><trkpt lat="45.857632363791105" lon="9.266584714639082"><ele>428.0</ele><time>2026-04-07T16:15:39Z</time></trkpt><trkpt lat="45.85756468342537" lon="9.266542541337595"><ele>427.59999999999997</ele><time>2026-04-07T16:15:40Z</time></trkpt><trkpt lat="45.85748924370543" lon="9.266480059111188"><ele>427.19999999999993</ele><time>2026-04-07T16:15:40.999Z</time></trkpt><trkpt lat="45.85739089281203" lon="9.266399120040012"><ele>426.8</ele><time>2026-04-07T16:15:42.999Z</time></trkpt><trkpt lat="45.85733646925937" lon="9.266340656222548"><ele>426.4</ele><time>2026-04-07T16:15:43.999Z</time></trkpt><trkpt lat="45.85722513633059" lon="9.266248364688865"><ele>426.0</ele><time>2026-04-07T16:15:45.999Z</time></trkpt><trkpt lat="45.85718072499415" lon="9.266158012713083"><ele>426.0</ele><time>2026-04-07T16:15:47.999Z</time></trkpt><trkpt lat="45.85716219847255" lon="9.266055536733807"><ele>426.0</ele><time>2026-04-07T16:15:49.999Z</time></trkpt><trkpt lat="45.85714876337044" lon="9.265935620755243"><ele>426.0</ele><time>2026-04-07T16:15:51.999Z</time></trkpt><trkpt lat="45.85714480341096" lon="9.265782448411969"><ele>426.0</ele><time>2026-04-07T16:15:53.999Z</time></trkpt><trkpt lat="45.85715121285966" lon="9.265676323174869"><ele>426.0</ele><time>2026-04-07T16:15:56.999Z</time></trkpt><trkpt lat="45.85716268080539" lon="9.265549201745651"><ele>426.0</ele><time>2026-04-07T16:15:58.999Z</time></trkpt><trkpt lat="45.85716755647664" lon="9.265427141098417"><ele>427.8333333333333</ele><time>2026-04-07T16:16:01.999Z</time></trkpt><trkpt lat="45.85713855977968" lon="9.265299125725438"><ele>429.66666666666663</ele><time>2026-04-07T16:16:06.999Z</time></trkpt><trkpt lat="45.85712845052122" lon="9.265200781998274"><ele>431.5</ele><time>2026-04-07T16:16:07.999Z</time></trkpt><trkpt lat="45.857114979937805" lon="9.265111723024336"><ele>433.3333333333333</ele><time>2026-04-07T16:16:09.999Z</time></trkpt><trkpt lat="45.85708926594058" lon="9.265020552901154"><ele>435.16666666666663</ele><time>2026-04-07T16:16:11.999Z</time></trkpt><trkpt lat="45.857074043317475" lon="9.264862787118453"><ele>437.0</ele><time>2026-04-07T16:16:13.999Z</time></trkpt><trkpt lat="45.85703345747973" lon="9.264744262083044"><ele>436.99999999999994</ele><time>2026-04-07T16:16:16.999Z</time></trkpt><trkpt lat="45.856945339654224" lon="9.264696160070816"><ele>437.0</ele><time>2026-04-07T16:16:18.999Z</time></trkpt><trkpt lat="45.85687447737939" lon="9.264835094978068"><ele>437.0</ele><time>2026-04-07T16:16:20.999Z</time></trkpt><trkpt lat="45.8568488019373" lon="9.264925888912353"><ele>437.0</ele><time>2026-04-07T16:16:21.999Z</time></trkpt><trkpt lat="45.856824314081344" lon="9.26500918535419"><ele>436.99999999999994</ele><time>2026-04-07T16:16:22.999Z</time></trkpt><trkpt lat="45.856807993446154" lon="9.265112059844226"><ele>437.0</ele><time>2026-04-07T16:16:23.999Z</time></trkpt><trkpt lat="45.85676325708684" lon="9.265183154760955"><ele>427.8</ele><time>2026-04-07T16:16:24.999Z</time></trkpt><trkpt lat="45.8567161628523" lon="9.26527563083666"><ele>418.6</ele><time>2026-04-07T16:16:27Z</time></trkpt><trkpt lat="45.856599078622956" lon="9.265250246341964"><ele>409.40000000000003</ele><time>2026-04-07T16:16:32Z</time></trkpt><trkpt lat="45.856509439488356" lon="9.26528340159686"><ele>400.20000000000005</ele><time>2026-04-07T16:16:33Z</time></trkpt><trkpt lat="45.85644486347192" lon="9.26535327759227"><ele>391.0</ele><time>2026-04-07T16:16:34Z</time></trkpt><trkpt lat="45.85635514906396" lon="9.265441425452494"><ele>391.0</ele><time>2026-04-07T16:16:36Z</time></trkpt><trkpt lat="45.85621888513425" lon="9.265571490424552"><ele>391.0</ele><time>2026-04-07T16:16:40Z</time></trkpt><trkpt lat="45.856204267708236" lon="9.265669228962757"><ele>391.0</ele><time>2026-04-07T16:16:41Z</time></trkpt><trkpt lat="45.85618935192932" lon="9.265806019951901"><ele>391.0</ele><time>2026-04-07T16:16:42Z</time></trkpt><trkpt lat="45.85616309310547" lon="9.26595298590679"><ele>391.0</ele><time>2026-04-07T16:16:43Z</time></trkpt><trkpt lat="45.85613336655519" lon="9.266095204319805"><ele>391.0</ele><time>2026-04-07T16:16:44Z</time></trkpt><trkpt lat="45.85610890465059" lon="9.266254922503231"><ele>391.0</ele><time>2026-04-07T16:16:45Z</time></trkpt><trkpt lat="45.856101489177625" lon="9.266386414297463"><ele>391.0</ele><time>2026-04-07T16:16:46Z</time></trkpt><trkpt lat="45.85608511988136" lon="9.266519954365695"><ele>391.0</ele><time>2026-04-07T16:16:47Z</time></trkpt><trkpt lat="45.85604205100081" lon="9.26668618800542"><ele>391.0</ele><time>2026-04-07T16:16:48Z</time></trkpt><trkpt lat="45.85600390411956" lon="9.26681978305197"><ele>391.00000000000006</ele><time>2026-04-07T16:16:50Z</time></trkpt><trkpt lat="45.85599249775045" lon="9.266936233498948"><ele>391.0</ele><time>2026-04-07T16:16:52Z</time></trkpt><trkpt lat="45.85595785738164" lon="9.267014979819121"><ele>391.0</ele><time>2026-04-07T16:16:53Z</time></trkpt><trkpt lat="45.85593291305336" lon="9.2671347150353"><ele>391.0</ele><time>2026-04-07T16:16:54Z</time></trkpt><trkpt lat="45.85590075409373" lon="9.267254605343187"><ele>391.00000000000006</ele><time>2026-04-07T16:16:55Z</time></trkpt><trkpt lat="45.85586450450464" lon="9.267369514284347"><ele>391.0</ele><time>2026-04-07T16:16:56Z</time></trkpt><trkpt lat="45.855826005805206" lon="9.267462733298817"><ele>390.50000000000006</ele><time>2026-04-07T16:16:57Z</time></trkpt><trkpt lat="45.85579393413222" lon="9.267555984469956"><ele>390.0</ele><time>2026-04-07T16:16:58Z</time></trkpt><trkpt lat="45.85576216459703" lon="9.2676564371314"><ele>389.5</ele><time>2026-04-07T16:16:59Z</time></trkpt><trkpt lat="45.85573122827795" lon="9.26775301412512"><ele>389.0</ele><time>2026-04-07T16:17:00Z</time></trkpt><trkpt lat="45.85567735986584" lon="9.267907801311777"><ele>388.50000000000006</ele><time>2026-04-07T16:17:02Z</time></trkpt><trkpt lat="45.855655708342404" lon="9.26803148955145"><ele>388.0</ele><time>2026-04-07T16:17:04Z</time></trkpt><trkpt lat="45.85568931616766" lon="9.268130008182876"><ele>387.83333333333337</ele><time>2026-04-07T16:17:05Z</time></trkpt><trkpt lat="45.85575419635072" lon="9.268200379558541"><ele>387.6666666666667</ele><time>2026-04-07T16:17:06Z</time></trkpt><trkpt lat="45.85581167248974" lon="9.268240748497751"><ele>387.5</ele><time>2026-04-07T16:17:07Z</time></trkpt><trkpt lat="45.85585653568796" lon="9.268317260443917"><ele>387.33333333333337</ele><time>2026-04-07T16:17:08Z</time></trkpt><trkpt lat="45.85593867658936" lon="9.268376851182275"><ele>387.1666666666667</ele><time>2026-04-07T16:17:09Z</time></trkpt><trkpt lat="45.85600026242222" lon="9.268426422468496"><ele>387.0</ele><time>2026-04-07T16:17:10Z</time></trkpt><trkpt lat="45.85606444542684" lon="9.26848390999407"><ele>387.6</ele><time>2026-04-07T16:17:11Z</time></trkpt><trkpt lat="45.856123507782364" lon="9.268557346102458"><ele>388.20000000000005</ele><time>2026-04-07T16:17:12Z</time></trkpt><trkpt lat="45.8561810724875" lon="9.268613871778113"><ele>388.8</ele><time>2026-04-07T16:17:13Z</time></trkpt><trkpt lat="45.85624772017359" lon="9.268684029811617"><ele>389.4</ele><time>2026-04-07T16:17:14Z</time></trkpt><trkpt lat="45.8563343700709" lon="9.268763264541661"><ele>390.0</ele><time>2026-04-07T16:17:15Z</time></trkpt><trkpt lat="45.856446935930165" lon="9.26888683326107"><ele>390.0</ele><time>2026-04-07T16:17:16Z</time></trkpt><trkpt lat="45.85659770205682" lon="9.269025077791508"><ele>390.0</ele><time>2026-04-07T16:17:17Z</time></trkpt><trkpt lat="45.856785196151094" lon="9.269076948493536"><ele>390.0</ele><time>2026-04-07T16:17:18Z</time></trkpt><trkpt lat="45.85699228301807" lon="9.269118843996806"><ele>391.0</ele><time>2026-04-07T16:17:19Z</time></trkpt><trkpt lat="45.857169331841995" lon="9.269141324302904"><ele>392.0</ele><time>2026-04-07T16:17:20Z</time></trkpt><trkpt lat="45.85732997566752" lon="9.269180733635471"><ele>393.0</ele><time>2026-04-07T16:17:21Z</time></trkpt><trkpt lat="45.857443842436666" lon="9.269228025896979"><ele>393.0</ele><time>2026-04-07T16:17:22Z</time></trkpt><trkpt lat="45.85755603901733" lon="9.26922146729541"><ele>393.0</ele><time>2026-04-07T16:17:23Z</time></trkpt><trkpt lat="45.85764908475393" lon="9.269202274097337"><ele>393.0</ele><time>2026-04-07T16:17:24Z</time></trkpt><trkpt lat="45.857715882340955" lon="9.269171367908019"><ele>393.0</ele><time>2026-04-07T16:17:25Z</time></trkpt><trkpt lat="45.85781827307759" lon="9.269229587409765"><ele>393.0</ele><time>2026-04-07T16:17:27Z</time></trkpt><trkpt lat="45.8578630079513" lon="9.269393632788727"><ele>393.0</ele><time>2026-04-07T16:17:29Z</time></trkpt><trkpt lat="45.857886438418554" lon="9.269523138830102"><ele>393.0</ele><time>2026-04-07T16:17:31Z</time></trkpt><trkpt lat="45.85769312576504" lon="9.269629757262024"><ele>393.0</ele><time>2026-04-07T16:17:33Z</time></trkpt><trkpt lat="45.85757743855403" lon="9.269641712651472"><ele>393.0</ele><time>2026-04-07T16:17:34Z</time></trkpt><trkpt lat="45.85745390058905" lon="9.269678687763967"><ele>393.0</ele><time>2026-04-07T16:17:35Z</time></trkpt><trkpt lat="45.857330099104026" lon="9.269723341514645"><ele>393.0</ele><time>2026-04-07T16:17:36Z</time></trkpt><trkpt lat="45.857146916294035" lon="9.26973872269477"><ele>393.0</ele><time>2026-04-07T16:17:37Z</time></trkpt><trkpt lat="45.85699402855376" lon="9.26976820206741"><ele>393.0</ele><time>2026-04-07T16:17:38Z</time></trkpt><trkpt lat="45.85682445141848" lon="9.269769427819488"><ele>393.0</ele><time>2026-04-07T16:17:39Z</time></trkpt><trkpt lat="45.85662116689188" lon="9.269690934497238"><ele>393.0</ele><time>2026-04-07T16:17:40Z</time></trkpt><trkpt lat="45.85645022803864" lon="9.269594051202326"><ele>392.25</ele><time>2026-04-07T16:17:41Z</time></trkpt><trkpt lat="45.85631331005452" lon="9.26952480687489"><ele>391.5</ele><time>2026-04-07T16:17:42Z</time></trkpt><trkpt lat="45.85618355699877" lon="9.269469006156184"><ele>390.75</ele><time>2026-04-07T16:17:43Z</time></trkpt><trkpt lat="45.85606641630237" lon="9.26942230682615"><ele>390.0</ele><time>2026-04-07T16:17:44Z</time></trkpt><trkpt lat="45.85594087463966" lon="9.269398170265164"><ele>389.4</ele><time>2026-04-07T16:17:45Z</time></trkpt><trkpt lat="45.85583132871805" lon="9.269384594613927"><ele>388.8</ele><time>2026-04-07T16:17:46Z</time></trkpt><trkpt lat="45.855730381718175" lon="9.269376346172676"><ele>388.20000000000005</ele><time>2026-04-07T16:17:47Z</time></trkpt><trkpt lat="45.855643440685334" lon="9.269354987077133"><ele>387.6</ele><time>2026-04-07T16:17:48Z</time></trkpt><trkpt lat="45.855567786313294" lon="9.269334443525278"><ele>387.0</ele><time>2026-04-07T16:17:49Z</time></trkpt><trkpt lat="45.85550120525022" lon="9.269262530285388"><ele>387.0</ele><time>2026-04-07T16:17:50.999Z</time></trkpt><trkpt lat="45.85543628197495" lon="9.269244804951896"><ele>387.0</ele><time>2026-04-07T16:17:58.999Z</time></trkpt><trkpt lat="45.85544455004644" lon="9.269068261252794"><ele>387.0</ele><time>2026-04-07T16:18:13.999Z</time></trkpt><trkpt lat="45.855374508942745" lon="9.269055488048776"><ele>387.0</ele><time>2026-04-07T16:19:22.011Z</time></trkpt><trkpt lat="45.85530434977721" lon="9.269189692931597"><ele>387.0</ele><time>2026-04-07T16:19:37.704Z</time></trkpt><trkpt lat="45.85532279499729" lon="9.26910158327045"><ele>387.0</ele><time>2026-04-07T16:21:22Z</time></trkpt><trkpt lat="45.855391849591484" lon="9.269068020923513"><ele>387.0</ele><time>2026-04-07T16:21:36Z</time></trkpt><trkpt lat="45.85533005102688" lon="9.26899166657391"><ele>387.0</ele><time>2026-04-07T16:35:08.999Z</time></trkpt><trkpt lat="45.855412625512834" lon="9.268990061593877"><ele>387.0</ele><time>2026-04-07T16:51:02Z</time></trkpt><trkpt lat="45.855357561249846" lon="9.269049921677446"><ele>387.0</ele><time>2026-04-07T16:51:04Z</time></trkpt><trkpt lat="45.85537598996198" lon="9.269136541942881"><ele>387.0</ele><time>2026-04-07T16:52:14.999Z</time></trkpt><trkpt lat="45.855460184881665" lon="9.269102206156978"><ele>387.0</ele><time>2026-04-07T16:52:52Z</time></trkpt><trkpt lat="45.85538141638067" lon="9.26910278075527"><ele>387.0</ele><time>2026-04-07T16:53:24Z</time></trkpt><trkpt lat="45.85536767908534" lon="9.269210048531082"><ele>387.0</ele><time>2026-04-07T16:53:39.999Z</time></trkpt><trkpt lat="45.85533751603793" lon="9.269299460661102"><ele>387.0</ele><time>2026-04-07T16:53:42.999Z</time></trkpt><trkpt lat="45.85525996376111" lon="9.269357516859547"><ele>387.0</ele><time>2026-04-07T16:53:44.999Z</time></trkpt><trkpt lat="45.85518199481125" lon="9.269411475265676"><ele>387.0</ele><time>2026-04-07T16:53:46.999Z</time></trkpt><trkpt lat="45.85511712848273" lon="9.269460344517324"><ele>387.0</ele><time>2026-04-07T16:53:48.999Z</time></trkpt><trkpt lat="45.85505070789352" lon="9.269521218533164"><ele>386.8333333333333</ele><time>2026-04-07T16:53:50.999Z</time></trkpt><trkpt lat="45.85506247781453" lon="9.269616398259105"><ele>386.66666666666663</ele><time>2026-04-07T16:53:51.999Z</time></trkpt><trkpt lat="45.85507778708965" lon="9.269714592439206"><ele>386.5</ele><time>2026-04-07T16:53:52.999Z</time></trkpt><trkpt lat="45.855019300536625" lon="9.26975822033532"><ele>386.3333333333333</ele><time>2026-04-07T16:53:53.999Z</time></trkpt><trkpt lat="45.85499157883312" lon="9.269845401899746"><ele>386.16666666666663</ele><time>2026-04-07T16:53:54.999Z</time></trkpt><trkpt lat="45.85491901154378" lon="9.269942798970193"><ele>386.0</ele><time>2026-04-07T16:53:55.999Z</time></trkpt><trkpt lat="45.85487920357618" lon="9.270107623954315"><ele>386.5</ele><time>2026-04-07T16:53:56.999Z</time></trkpt><trkpt lat="45.8548249880387" lon="9.270271014942658"><ele>387.0</ele><time>2026-04-07T16:53:57.999Z</time></trkpt><trkpt lat="45.85476451229521" lon="9.270447500018726"><ele>387.5</ele><time>2026-04-07T16:53:58.999Z</time></trkpt><trkpt lat="45.85468276865657" lon="9.270581367165697"><ele>388.0</ele><time>2026-04-07T16:53:59.999Z</time></trkpt><trkpt lat="45.85462346807315" lon="9.270738510494594"><ele>389.0</ele><time>2026-04-07T16:54:00.999Z</time></trkpt><trkpt lat="45.85456505033923" lon="9.270887176963795"><ele>390.0</ele><time>2026-04-07T16:54:01.999Z</time></trkpt><trkpt lat="45.85450723088958" lon="9.271016192873178"><ele>391.0</ele><time>2026-04-07T16:54:02.999Z</time></trkpt><trkpt lat="45.85444072790941" lon="9.27113877115399"><ele>392.0</ele><time>2026-04-07T16:54:03.999Z</time></trkpt><trkpt lat="45.85435736150568" lon="9.271278072827096"><ele>390.75</ele><time>2026-04-07T16:54:04.999Z</time></trkpt><trkpt lat="45.85426022181755" lon="9.271409079083636"><ele>389.5</ele><time>2026-04-07T16:54:05.999Z</time></trkpt><trkpt lat="45.85415297630426" lon="9.271533351803889"><ele>388.25</ele><time>2026-04-07T16:54:06.999Z</time></trkpt><trkpt lat="45.85405839786095" lon="9.2716149138261"><ele>387.0</ele><time>2026-04-07T16:54:07.999Z</time></trkpt><trkpt lat="45.85394112723309" lon="9.271701880559139"><ele>387.0</ele><time>2026-04-07T16:54:08.999Z</time></trkpt><trkpt lat="45.85384518818616" lon="9.271794523798807"><ele>387.0</ele><time>2026-04-07T16:54:09.999Z</time></trkpt><trkpt lat="45.85374690360598" lon="9.271837897228423"><ele>387.0</ele><time>2026-04-07T16:54:10.999Z</time></trkpt><trkpt lat="45.853664314261096" lon="9.271896760201319"><ele>387.0</ele><time>2026-04-07T16:54:11.999Z</time></trkpt><trkpt lat="45.8535809282865" lon="9.271956821803101"><ele>387.0</ele><time>2026-04-07T16:54:12.999Z</time></trkpt><trkpt lat="45.85350961909938" lon="9.272010967852193"><ele>387.42857142857144</ele><time>2026-04-07T16:54:13.999Z</time></trkpt><trkpt lat="45.85343844400104" lon="9.272057486291772"><ele>387.8571428571429</ele><time>2026-04-07T16:54:14.999Z</time></trkpt><trkpt lat="45.85336729020497" lon="9.272078369876626"><ele>388.2857142857143</ele><time>2026-04-07T16:54:15.999Z</time></trkpt><trkpt lat="45.85329060202017" lon="9.272069578354394"><ele>388.7142857142857</ele><time>2026-04-07T16:54:16.999Z</time></trkpt><trkpt lat="45.85322712140907" lon="9.272029227348757"><ele>389.1428571428571</ele><time>2026-04-07T16:54:17.999Z</time></trkpt><trkpt lat="45.853158390912576" lon="9.272019941014534"><ele>389.57142857142856</ele><time>2026-04-07T16:54:18.999Z</time></trkpt><trkpt lat="45.85310218133214" lon="9.272074349465809"><ele>390.0</ele><time>2026-04-07T16:54:19.999Z</time></trkpt><trkpt lat="45.853073274351786" lon="9.272166117932537"><ele>390.0</ele><time>2026-04-07T16:54:20.999Z</time></trkpt><trkpt lat="45.85305135643643" lon="9.272268577946882"><ele>390.0</ele><time>2026-04-07T16:54:21.999Z</time></trkpt><trkpt lat="45.852981114941265" lon="9.272360235448009"><ele>390.0</ele><time>2026-04-07T16:54:22.999Z</time></trkpt><trkpt lat="45.852896786130394" lon="9.272440055078471"><ele>390.0</ele><time>2026-04-07T16:54:23.999Z</time></trkpt><trkpt lat="45.852782524105706" lon="9.272525281117835"><ele>390.0</ele><time>2026-04-07T16:54:24.999Z</time></trkpt><trkpt lat="45.85265352992716" lon="9.272614006262685"><ele>391.75</ele><time>2026-04-07T16:54:25.999Z</time></trkpt><trkpt lat="45.85252719178202" lon="9.272727225559787"><ele>393.5</ele><time>2026-04-07T16:54:26.999Z</time></trkpt><trkpt lat="45.8523749191366" lon="9.272817746888062"><ele>395.25</ele><time>2026-04-07T16:54:27.999Z</time></trkpt><trkpt lat="45.85225132065577" lon="9.27289282031585"><ele>397.0</ele><time>2026-04-07T16:54:28.999Z</time></trkpt><trkpt lat="45.85215438027441" lon="9.272965024073473"><ele>397.0</ele><time>2026-04-07T16:54:29.999Z</time></trkpt><trkpt lat="45.85207124577661" lon="9.272983565591575"><ele>397.0</ele><time>2026-04-07T16:54:30.999Z</time></trkpt><trkpt lat="45.85199749948977" lon="9.272972573968502"><ele>397.0</ele><time>2026-04-07T16:54:31.999Z</time></trkpt><trkpt lat="45.85193341024999" lon="9.272880055132449"><ele>397.0</ele><time>2026-04-07T16:54:32.999Z</time></trkpt><trkpt lat="45.851880392881135" lon="9.27272724141675"><ele>397.0</ele><time>2026-04-07T16:54:33.999Z</time></trkpt><trkpt lat="45.85182662742417" lon="9.272532196051264"><ele>397.0</ele><time>2026-04-07T16:54:34.999Z</time></trkpt><trkpt lat="45.851781319331394" lon="9.272334653936824"><ele>397.0</ele><time>2026-04-07T16:54:35.999Z</time></trkpt><trkpt lat="45.85173146221776" lon="9.272133971460491"><ele>397.0</ele><time>2026-04-07T16:54:36.999Z</time></trkpt><trkpt lat="45.85168803093569" lon="9.271971126508879"><ele>397.0</ele><time>2026-04-07T16:54:37.999Z</time></trkpt><trkpt lat="45.85166022802471" lon="9.271820058072977"><ele>397.0</ele><time>2026-04-07T16:54:38.999Z</time></trkpt><trkpt lat="45.851598179387175" lon="9.271720446575165"><ele>397.0</ele><time>2026-04-07T16:54:39.999Z</time></trkpt><trkpt lat="45.851520917102434" lon="9.271632935948261"><ele>397.0</ele><time>2026-04-07T16:54:40.999Z</time></trkpt><trkpt lat="45.851374311141036" lon="9.271595199897693"><ele>397.0</ele><time>2026-04-07T16:54:41.999Z</time></trkpt><trkpt lat="45.85123234397233" lon="9.271534917630099"><ele>397.0</ele><time>2026-04-07T16:54:42.999Z</time></trkpt><trkpt lat="45.851082536278355" lon="9.271450696990296"><ele>397.0</ele><time>2026-04-07T16:54:43.999Z</time></trkpt><trkpt lat="45.850943772889316" lon="9.271351619699654"><ele>397.0</ele><time>2026-04-07T16:54:44.999Z</time></trkpt><trkpt lat="45.85081710278643" lon="9.2712752141113"><ele>396.0</ele><time>2026-04-07T16:54:45.999Z</time></trkpt><trkpt lat="45.85070002821593" lon="9.271217359160248"><ele>395.0</ele><time>2026-04-07T16:54:46.999Z</time></trkpt><trkpt lat="45.85059604702686" lon="9.271178675933365"><ele>394.0</ele><time>2026-04-07T16:54:47.999Z</time></trkpt><trkpt lat="45.85046937775181" lon="9.27119247631641"><ele>393.0</ele><time>2026-04-07T16:54:48.999Z</time></trkpt><trkpt lat="45.85032526361558" lon="9.271238093050519"><ele>393.0</ele><time>2026-04-07T16:54:50Z</time></trkpt><trkpt lat="45.85017400958962" lon="9.27131816854614"><ele>393.0</ele><time>2026-04-07T16:54:51Z</time></trkpt><trkpt lat="45.85003781991365" lon="9.27139966646293"><ele>393.0</ele><time>2026-04-07T16:54:52Z</time></trkpt><trkpt lat="45.84988365097517" lon="9.27148717414783"><ele>393.0</ele><time>2026-04-07T16:54:53Z</time></trkpt><trkpt lat="45.84975805404351" lon="9.271536963049698"><ele>393.0</ele><time>2026-04-07T16:54:54Z</time></trkpt><trkpt lat="45.849668393117646" lon="9.27161608623658"><ele>393.0</ele><time>2026-04-07T16:54:55Z</time></trkpt><trkpt lat="45.84959489658058" lon="9.27165407583657"><ele>393.0</ele><time>2026-04-07T16:54:56Z</time></trkpt><trkpt lat="45.849510548467194" lon="9.271740076392895"><ele>393.0</ele><time>2026-04-07T16:54:58Z</time></trkpt><trkpt lat="45.84954693093715" lon="9.27193561851062"><ele>393.0</ele><time>2026-04-07T16:55:00Z</time></trkpt><trkpt lat="45.849562395317186" lon="9.272088775607822"><ele>393.0</ele><time>2026-04-07T16:55:02Z</time></trkpt><trkpt lat="45.849577279285725" lon="9.272192705587202"><ele>393.0</ele><time>2026-04-07T16:55:03Z</time></trkpt><trkpt lat="45.8495996047323" lon="9.27229983076654"><ele>393.0</ele><time>2026-04-07T16:55:04Z</time></trkpt><trkpt lat="45.84960860657078" lon="9.272413072952173"><ele>393.0</ele><time>2026-04-07T16:55:05Z</time></trkpt><trkpt lat="45.849624207877106" lon="9.272528913485637"><ele>393.0</ele><time>2026-04-07T16:55:06Z</time></trkpt><trkpt lat="45.849613057284635" lon="9.27262548231838"><ele>393.79999999999995</ele><time>2026-04-07T16:55:07Z</time></trkpt><trkpt lat="45.8496194112446" lon="9.272797014971797"><ele>394.6</ele><time>2026-04-07T16:55:09Z</time></trkpt><trkpt lat="45.84953283869641" lon="9.272919544606877"><ele>395.4</ele><time>2026-04-07T16:55:11Z</time></trkpt><trkpt lat="45.849464738691196" lon="9.2729584276598"><ele>396.20000000000005</ele><time>2026-04-07T16:55:12Z</time></trkpt><trkpt lat="45.8493696881817" lon="9.273056131718214"><ele>397.0</ele><time>2026-04-07T16:55:14Z</time></trkpt><trkpt lat="45.84930938690315" lon="9.273148798429363"><ele>397.5</ele><time>2026-04-07T16:55:15Z</time></trkpt><trkpt lat="45.84922238995948" lon="9.273171242933332"><ele>398.0</ele><time>2026-04-07T16:55:16Z</time></trkpt><trkpt lat="45.84914612741568" lon="9.273144900197707"><ele>398.5</ele><time>2026-04-07T16:55:17Z</time></trkpt><trkpt lat="45.849042244290196" lon="9.273082600329206"><ele>399.0</ele><time>2026-04-07T16:55:18Z</time></trkpt><trkpt lat="45.84890071807323" lon="9.272940998793468"><ele>399.0</ele><time>2026-04-07T16:55:19Z</time></trkpt><trkpt lat="45.84878392610213" lon="9.272859038898835"><ele>399.0</ele><time>2026-04-07T16:55:20Z</time></trkpt><trkpt lat="45.8486660799583" lon="9.272684934510886"><ele>399.0</ele><time>2026-04-07T16:55:21Z</time></trkpt><trkpt lat="45.8485313962766" lon="9.27263106433999"><ele>399.0</ele><time>2026-04-07T16:55:22Z</time></trkpt><trkpt lat="45.84833437369151" lon="9.272619393488503"><ele>397.75</ele><time>2026-04-07T16:55:23Z</time></trkpt><trkpt lat="45.848189118057874" lon="9.272627590986165"><ele>396.5</ele><time>2026-04-07T16:55:24Z</time></trkpt><trkpt lat="45.84806451966729" lon="9.272700321653359"><ele>395.25</ele><time>2026-04-07T16:55:25Z</time></trkpt><trkpt lat="45.84793572289424" lon="9.272698505589995"><ele>394.0</ele><time>2026-04-07T16:55:26Z</time></trkpt><trkpt lat="45.847800355982365" lon="9.272701562986885"><ele>394.0</ele><time>2026-04-07T16:55:27Z</time></trkpt><trkpt lat="45.84765961230992" lon="9.272722243524756"><ele>394.0</ele><time>2026-04-07T16:55:28Z</time></trkpt><trkpt lat="45.847522762659004" lon="9.272687461541194"><ele>394.0</ele><time>2026-04-07T16:55:29Z</time></trkpt><trkpt lat="45.84738591474364" lon="9.272720185121335"><ele>394.0</ele><time>2026-04-07T16:55:30Z</time></trkpt><trkpt lat="45.84723649567091" lon="9.272742329267563"><ele>394.0</ele><time>2026-04-07T16:55:31Z</time></trkpt><trkpt lat="45.847082429405546" lon="9.272763417126232"><ele>394.0</ele><time>2026-04-07T16:55:32Z</time></trkpt><trkpt lat="45.84692780363076" lon="9.272785435037246"><ele>394.0</ele><time>2026-04-07T16:55:33Z</time></trkpt><trkpt lat="45.84678447674766" lon="9.272796189849117"><ele>393.6666666666667</ele><time>2026-04-07T16:55:34Z</time></trkpt><trkpt lat="45.84663227176895" lon="9.272799371879712"><ele>393.33333333333337</ele><time>2026-04-07T16:55:35Z</time></trkpt><trkpt lat="45.84647860656701" lon="9.272810410275705"><ele>393.0</ele><time>2026-04-07T16:55:36Z</time></trkpt><trkpt lat="45.846327071180305" lon="9.272830723578386"><ele>393.0</ele><time>2026-04-07T16:55:37Z</time></trkpt><trkpt lat="45.84620423720972" lon="9.272851406163559"><ele>393.0</ele><time>2026-04-07T16:55:38Z</time></trkpt><trkpt lat="45.84603945731106" lon="9.272863009359062"><ele>393.0</ele><time>2026-04-07T16:55:39Z</time></trkpt><trkpt lat="45.84590132382832" lon="9.272875255423136"><ele>393.0</ele><time>2026-04-07T16:55:40Z</time></trkpt><trkpt lat="45.84574551518494" lon="9.272889925956166"><ele>392.75</ele><time>2026-04-07T16:55:41Z</time></trkpt><trkpt lat="45.84560336374533" lon="9.272902879028782"><ele>392.5</ele><time>2026-04-07T16:55:42Z</time></trkpt><trkpt lat="45.84544330580867" lon="9.2729174637014"><ele>392.25</ele><time>2026-04-07T16:55:43Z</time></trkpt><trkpt lat="45.84530546055355" lon="9.27295063500869"><ele>392.0</ele><time>2026-04-07T16:55:44Z</time></trkpt><trkpt lat="45.845020970442945" lon="9.272931014406504"><ele>392.0</ele><time>2026-04-07T16:55:46Z</time></trkpt><trkpt lat="45.84488612112931" lon="9.27294357161071"><ele>392.0</ele><time>2026-04-07T16:55:47Z</time></trkpt><trkpt lat="45.844754979870956" lon="9.272955452498822"><ele>392.0</ele><time>2026-04-07T16:55:48Z</time></trkpt><trkpt lat="45.8446097257508" lon="9.272985552542773"><ele>392.0</ele><time>2026-04-07T16:55:49Z</time></trkpt><trkpt lat="45.84447620422126" lon="9.2729993044311"><ele>392.0</ele><time>2026-04-07T16:55:50Z</time></trkpt><trkpt lat="45.84434002457455" lon="9.273014110324137"><ele>392.0</ele><time>2026-04-07T16:55:51Z</time></trkpt><trkpt lat="45.84419974615713" lon="9.273034527482688"><ele>392.0</ele><time>2026-04-07T16:55:52Z</time></trkpt><trkpt lat="45.84406600803838" lon="9.273049755079459"><ele>392.0</ele><time>2026-04-07T16:55:53Z</time></trkpt><trkpt lat="45.843934275755196" lon="9.273062969991209"><ele>392.75</ele><time>2026-04-07T16:55:54Z</time></trkpt><trkpt lat="45.84379722311281" lon="9.273079394022961"><ele>393.5</ele><time>2026-04-07T16:55:55Z</time></trkpt><trkpt lat="45.84366105887382" lon="9.273099258874899"><ele>394.25</ele><time>2026-04-07T16:55:56Z</time></trkpt><trkpt lat="45.84354554921279" lon="9.27307983337192"><ele>395.0</ele><time>2026-04-07T16:55:57Z</time></trkpt><trkpt lat="45.84342670199882" lon="9.273089069571476"><ele>395.2</ele><time>2026-04-07T16:55:58Z</time></trkpt><trkpt lat="45.843305145167925" lon="9.27310366029201"><ele>395.4</ele><time>2026-04-07T16:55:59Z</time></trkpt><trkpt lat="45.843200874572226" lon="9.273120295939725"><ele>395.6</ele><time>2026-04-07T16:55:59.999Z</time></trkpt><trkpt lat="45.843100107967416" lon="9.273134887766327"><ele>395.8</ele><time>2026-04-07T16:56:00.999Z</time></trkpt><trkpt lat="45.84299599901078" lon="9.273151857760027"><ele>396.0</ele><time>2026-04-07T16:56:01.999Z</time></trkpt><trkpt lat="45.84289906443227" lon="9.27315149196105"><ele>396.0</ele><time>2026-04-07T16:56:02.999Z</time></trkpt><trkpt lat="45.84281423051636" lon="9.27316317138666"><ele>396.0</ele><time>2026-04-07T16:56:03.999Z</time></trkpt><trkpt lat="45.84273632694069" lon="9.273166751352894"><ele>396.0</ele><time>2026-04-07T16:56:04.999Z</time></trkpt><trkpt lat="45.84266779465738" lon="9.273161619547764"><ele>396.0</ele><time>2026-04-07T16:56:05.999Z</time></trkpt><trkpt lat="45.84259451257916" lon="9.273137594385982"><ele>396.0</ele><time>2026-04-07T16:56:06.999Z</time></trkpt><trkpt lat="45.84250200392772" lon="9.273130201683136"><ele>396.0</ele><time>2026-04-07T16:56:07.999Z</time></trkpt><trkpt lat="45.84240056754964" lon="9.273164897623156"><ele>395.75</ele><time>2026-04-07T16:56:08.999Z</time></trkpt><trkpt lat="45.84229520506083" lon="9.273198206287638"><ele>395.5</ele><time>2026-04-07T16:56:09.999Z</time></trkpt><trkpt lat="45.84218296913137" lon="9.273209012246912"><ele>395.25</ele><time>2026-04-07T16:56:10.999Z</time></trkpt><trkpt lat="45.8420598318112" lon="9.273215959677126"><ele>395.0</ele><time>2026-04-07T16:56:11.999Z</time></trkpt><trkpt lat="45.841929032264986" lon="9.273230090818476"><ele>394.5</ele><time>2026-04-07T16:56:12.999Z</time></trkpt><trkpt lat="45.84179729642809" lon="9.27324491050052"><ele>394.0</ele><time>2026-04-07T16:56:13.999Z</time></trkpt><trkpt lat="45.84166514470239" lon="9.273259151846954"><ele>393.5</ele><time>2026-04-07T16:56:14.999Z</time></trkpt><trkpt lat="45.8415246496328" lon="9.273275432481752"><ele>393.0</ele><time>2026-04-07T16:56:15.999Z</time></trkpt><trkpt lat="45.84138490443252" lon="9.273292652239919"><ele>393.0</ele><time>2026-04-07T16:56:16.999Z</time></trkpt><trkpt lat="45.84124724473857" lon="9.273298773068671"><ele>393.0</ele><time>2026-04-07T16:56:17.999Z</time></trkpt><trkpt lat="45.841103258336354" lon="9.273318051369854"><ele>393.0</ele><time>2026-04-07T16:56:18.999Z</time></trkpt><trkpt lat="45.840962588443205" lon="9.273330447960483"><ele>393.0</ele><time>2026-04-07T16:56:19.999Z</time></trkpt><trkpt lat="45.840816901937075" lon="9.273339439469673"><ele>391.25</ele><time>2026-04-07T16:56:20.999Z</time></trkpt><trkpt lat="45.840675650477486" lon="9.273353076422037"><ele>389.5</ele><time>2026-04-07T16:56:21.999Z</time></trkpt><trkpt lat="45.8405363413583" lon="9.273360706564894"><ele>387.75</ele><time>2026-04-07T16:56:22.999Z</time></trkpt><trkpt lat="45.84038781664091" lon="9.273371335830676"><ele>386.0</ele><time>2026-04-07T16:56:23.999Z</time></trkpt><trkpt lat="45.84024215869354" lon="9.273386999097767"><ele>385.3333333333333</ele><time>2026-04-07T16:56:24.999Z</time></trkpt><trkpt lat="45.84009543083222" lon="9.273398153117952"><ele>384.66666666666663</ele><time>2026-04-07T16:56:25.999Z</time></trkpt><trkpt lat="45.83995104083685" lon="9.273413265213224"><ele>384.0</ele><time>2026-04-07T16:56:26.999Z</time></trkpt><trkpt lat="45.83979158997253" lon="9.27343950015625"><ele>384.0</ele><time>2026-04-07T16:56:27.999Z</time></trkpt><trkpt lat="45.83962510091791" lon="9.273453100753327"><ele>384.0</ele><time>2026-04-07T16:56:28.999Z</time></trkpt><trkpt lat="45.83946059102744" lon="9.27347046186764"><ele>384.0</ele><time>2026-04-07T16:56:29.999Z</time></trkpt><trkpt lat="45.83928937496643" lon="9.273491028947541"><ele>382.6666666666667</ele><time>2026-04-07T16:56:30.999Z</time></trkpt><trkpt lat="45.839108415758815" lon="9.273511280794807"><ele>381.33333333333337</ele><time>2026-04-07T16:56:31.999Z</time></trkpt><trkpt lat="45.83893942890327" lon="9.27351911522977"><ele>380.0</ele><time>2026-04-07T16:56:32.999Z</time></trkpt><trkpt lat="45.83878213694273" lon="9.273528396655466"><ele>380.0</ele><time>2026-04-07T16:56:33.999Z</time></trkpt><trkpt lat="45.838642291571645" lon="9.273542834725855"><ele>380.0</ele><time>2026-04-07T16:56:34.999Z</time></trkpt><trkpt lat="45.83851471231329" lon="9.273553039737061"><ele>380.0</ele><time>2026-04-07T16:56:35.999Z</time></trkpt><trkpt lat="45.83842815572473" lon="9.273557961953387"><ele>380.0</ele><time>2026-04-07T16:56:36.999Z</time></trkpt><trkpt lat="45.838351904658325" lon="9.273549101721835"><ele>380.0</ele><time>2026-04-07T16:56:38.999Z</time></trkpt><trkpt lat="45.83821058065072" lon="9.273534475463963"><ele>380.25</ele><time>2026-04-07T16:57:21Z</time></trkpt><trkpt lat="45.838115239990024" lon="9.273513131806274"><ele>380.5</ele><time>2026-04-07T16:57:22Z</time></trkpt><trkpt lat="45.83798170045741" lon="9.273498549106359"><ele>380.75</ele><time>2026-04-07T16:57:23Z</time></trkpt><trkpt lat="45.83783084548786" lon="9.273480964124671"><ele>381.0</ele><time>2026-04-07T16:57:24Z</time></trkpt><trkpt lat="45.83768004006348" lon="9.27343278111661"><ele>383.33333333333337</ele><time>2026-04-07T16:57:25Z</time></trkpt><trkpt lat="45.83752966635274" lon="9.273364049503895"><ele>385.6666666666667</ele><time>2026-04-07T16:57:26Z</time></trkpt><trkpt lat="45.83738479889959" lon="9.273282260369031"><ele>388.0</ele><time>2026-04-07T16:57:27Z</time></trkpt><trkpt lat="45.83723023763307" lon="9.27318183362197"><ele>393.6666666666667</ele><time>2026-04-07T16:57:28Z</time></trkpt><trkpt lat="45.83703045417523" lon="9.273041814419917"><ele>399.33333333333337</ele><time>2026-04-07T16:57:29Z</time></trkpt><trkpt lat="45.83685152518828" lon="9.272921437459612"><ele>405.0</ele><time>2026-04-07T16:57:30Z</time></trkpt><trkpt lat="45.83663060548597" lon="9.272814436296931"><ele>405.0</ele><time>2026-04-07T16:57:31Z</time></trkpt><trkpt lat="45.83643871537646" lon="9.272692621268277"><ele>405.0</ele><time>2026-04-07T16:57:32Z</time></trkpt><trkpt lat="45.83623562567493" lon="9.27257666570524"><ele>405.0</ele><time>2026-04-07T16:57:33Z</time></trkpt><trkpt lat="45.83602975619883" lon="9.272450480294314"><ele>400.33333333333337</ele><time>2026-04-07T16:57:34Z</time></trkpt><trkpt lat="45.83582923826226" lon="9.272313971343475"><ele>395.6666666666667</ele><time>2026-04-07T16:57:35Z</time></trkpt><trkpt lat="45.83563726827798" lon="9.272203717468777"><ele>391.0</ele><time>2026-04-07T16:57:36Z</time></trkpt><trkpt lat="45.83545493862347" lon="9.272105966121448"><ele>393.6666666666667</ele><time>2026-04-07T16:57:37Z</time></trkpt><trkpt lat="45.83526639090545" lon="9.271993753019702"><ele>396.33333333333337</ele><time>2026-04-07T16:57:38Z</time></trkpt><trkpt lat="45.83508519835166" lon="9.271877912315995"><ele>399.0</ele><time>2026-04-07T16:57:39Z</time></trkpt><trkpt lat="45.83489474490817" lon="9.271756527019386"><ele>399.0</ele><time>2026-04-07T16:57:40Z</time></trkpt><trkpt lat="45.83471346115693" lon="9.27161931405373"><ele>399.0</ele><time>2026-04-07T16:57:41Z</time></trkpt><trkpt lat="45.83454003696794" lon="9.271466652348034"><ele>399.0</ele><time>2026-04-07T16:57:42Z</time></trkpt><trkpt lat="45.83437477750625" lon="9.271288617655106"><ele>401.33333333333337</ele><time>2026-04-07T16:57:43Z</time></trkpt><trkpt lat="45.834219570283864" lon="9.271093427837746"><ele>403.6666666666667</ele><time>2026-04-07T16:57:44Z</time></trkpt><trkpt lat="45.83406557387155" lon="9.270926750249618"><ele>406.0</ele><time>2026-04-07T16:57:45Z</time></trkpt><trkpt lat="45.8338889662127" lon="9.270737822301223"><ele>402.6666666666667</ele><time>2026-04-07T16:57:46Z</time></trkpt><trkpt lat="45.833716255712496" lon="9.270527872684806"><ele>399.33333333333337</ele><time>2026-04-07T16:57:47Z</time></trkpt><trkpt lat="45.83354526706411" lon="9.270345892456913"><ele>396.0</ele><time>2026-04-07T16:57:48Z</time></trkpt><trkpt lat="45.83338391308439" lon="9.270154882957657"><ele>396.0</ele><time>2026-04-07T16:57:49Z</time></trkpt><trkpt lat="45.83324455634017" lon="9.269954688508612"><ele>396.0</ele><time>2026-04-07T16:57:50Z</time></trkpt><trkpt lat="45.83309514822505" lon="9.269740163515937"><ele>396.0</ele><time>2026-04-07T16:57:51Z</time></trkpt><trkpt lat="45.83295227276085" lon="9.26950521347117"><ele>400.66666666666663</ele><time>2026-04-07T16:57:52Z</time></trkpt><trkpt lat="45.8328029029751" lon="9.269274261020145"><ele>405.3333333333333</ele><time>2026-04-07T16:57:53Z</time></trkpt><trkpt lat="45.8326635178073" lon="9.269046508737263"><ele>410.0</ele><time>2026-04-07T16:57:53.999Z</time></trkpt><trkpt lat="45.83251456073422" lon="9.268828008513042"><ele>410.0</ele><time>2026-04-07T16:57:54.999Z</time></trkpt><trkpt lat="45.83237045425379" lon="9.268616072658686"><ele>410.0</ele><time>2026-04-07T16:57:55.999Z</time></trkpt><trkpt lat="45.83222201988075" lon="9.26839519614597"><ele>410.0</ele><time>2026-04-07T16:57:56.999Z</time></trkpt><trkpt lat="45.83206394877621" lon="9.26819106476331"><ele>403.66666666666663</ele><time>2026-04-07T16:57:57.999Z</time></trkpt><trkpt lat="45.83191560853631" lon="9.267957999255463"><ele>397.33333333333337</ele><time>2026-04-07T16:57:58.999Z</time></trkpt><trkpt lat="45.831759294636825" lon="9.267733550437736"><ele>391.0</ele><time>2026-04-07T16:57:59.999Z</time></trkpt><trkpt lat="45.831597553315014" lon="9.267487640791483"><ele>404.0</ele><time>2026-04-07T16:58:00.999Z</time></trkpt><trkpt lat="45.831429197062334" lon="9.267241505547164"><ele>417.0</ele><time>2026-04-07T16:58:01.999Z</time></trkpt><trkpt lat="45.83124408085143" lon="9.26697779039642"><ele>417.0</ele><time>2026-04-07T16:58:02.999Z</time></trkpt><trkpt lat="45.831069101056194" lon="9.26671962632674"><ele>417.0</ele><time>2026-04-07T16:58:03.999Z</time></trkpt><trkpt lat="45.830917682098935" lon="9.26642060900646"><ele>408.5</ele><time>2026-04-07T16:58:04.999Z</time></trkpt><trkpt lat="45.83076079478683" lon="9.266106211206449"><ele>400.0</ele><time>2026-04-07T16:58:05.999Z</time></trkpt><trkpt lat="45.83056708646504" lon="9.265735939597466"><ele>414.5</ele><time>2026-04-07T16:58:06.999Z</time></trkpt><trkpt lat="45.83041325899758" lon="9.26543080236823"><ele>429.0</ele><time>2026-04-07T16:58:07.999Z</time></trkpt><trkpt lat="45.830282076255145" lon="9.26514402414704"><ele>429.0</ele><time>2026-04-07T16:58:08.999Z</time></trkpt><trkpt lat="45.830151840459536" lon="9.264861425421614"><ele>429.0</ele><time>2026-04-07T16:58:09.999Z</time></trkpt><trkpt lat="45.830016662464054" lon="9.264603010670621"><ele>429.0</ele><time>2026-04-07T16:58:10.999Z</time></trkpt><trkpt lat="45.82989665970854" lon="9.264338342357247"><ele>429.0</ele><time>2026-04-07T16:58:11.999Z</time></trkpt><trkpt lat="45.82975623464254" lon="9.264097917357622"><ele>429.0</ele><time>2026-04-07T16:58:12.999Z</time></trkpt><trkpt lat="45.82961740213018" lon="9.263885764682557"><ele>429.0</ele><time>2026-04-07T16:58:13.999Z</time></trkpt><trkpt lat="45.82947833094567" lon="9.263674516659352"><ele>429.0</ele><time>2026-04-07T16:58:14.999Z</time></trkpt><trkpt lat="45.82935778565185" lon="9.2634765016201"><ele>429.0</ele><time>2026-04-07T16:58:15.999Z</time></trkpt><trkpt lat="45.82922002136446" lon="9.263324228504812"><ele>423.33333333333337</ele><time>2026-04-07T16:58:16.999Z</time></trkpt><trkpt lat="45.82908076407247" lon="9.263178558245949"><ele>417.6666666666667</ele><time>2026-04-07T16:58:17.999Z</time></trkpt><trkpt lat="45.828925425165764" lon="9.26299089825484"><ele>412.0</ele><time>2026-04-07T16:58:18.999Z</time></trkpt><trkpt lat="45.82877099152686" lon="9.262812491537614"><ele>412.0</ele><time>2026-04-07T16:58:19.999Z</time></trkpt><trkpt lat="45.828616128874934" lon="9.262646963724794"><ele>412.0</ele><time>2026-04-07T16:58:20.999Z</time></trkpt><trkpt lat="45.82844714740014" lon="9.262489815870497"><ele>412.0</ele><time>2026-04-07T16:58:21.999Z</time></trkpt><trkpt lat="45.82824867765234" lon="9.262345613577164"><ele>418.0</ele><time>2026-04-07T16:58:22.999Z</time></trkpt><trkpt lat="45.82802203864598" lon="9.262236164868227"><ele>424.0</ele><time>2026-04-07T16:58:23.999Z</time></trkpt><trkpt lat="45.827784316639146" lon="9.262170376864926"><ele>419.0</ele><time>2026-04-07T16:58:24.999Z</time></trkpt><trkpt lat="45.82755214067981" lon="9.262126413404317"><ele>414.0</ele><time>2026-04-07T16:58:25.999Z</time></trkpt><trkpt lat="45.82734389755685" lon="9.262070791251094"><ele>409.0</ele><time>2026-04-07T16:58:26.999Z</time></trkpt><trkpt lat="45.82715013099473" lon="9.262020825756787"><ele>409.0</ele><time>2026-04-07T16:58:27.999Z</time></trkpt><trkpt lat="45.82695862909866" lon="9.261971869483784"><ele>409.0</ele><time>2026-04-07T16:58:28.999Z</time></trkpt><trkpt lat="45.82676271434447" lon="9.261907141610571"><ele>409.0</ele><time>2026-04-07T16:58:29.999Z</time></trkpt><trkpt lat="45.826568377525476" lon="9.261819746426298"><ele>400.5</ele><time>2026-04-07T16:58:30.999Z</time></trkpt><trkpt lat="45.82636804407452" lon="9.261705423474204"><ele>392.0</ele><time>2026-04-07T16:58:31.999Z</time></trkpt><trkpt lat="45.82616181147196" lon="9.261535989325436"><ele>395.3333333333333</ele><time>2026-04-07T16:58:32.999Z</time></trkpt><trkpt lat="45.82595505943404" lon="9.261402218473709"><ele>398.66666666666663</ele><time>2026-04-07T16:58:33.999Z</time></trkpt><trkpt lat="45.825758371780175" lon="9.261262913126775"><ele>402.0</ele><time>2026-04-07T16:58:34.999Z</time></trkpt><trkpt lat="45.82556940789552" lon="9.261124106392353"><ele>402.0</ele><time>2026-04-07T16:58:35.999Z</time></trkpt><trkpt lat="45.82538319169947" lon="9.26099933361129"><ele>402.0</ele><time>2026-04-07T16:58:36.999Z</time></trkpt><trkpt lat="45.82521015820711" lon="9.260881277345481"><ele>402.0</ele><time>2026-04-07T16:58:37.999Z</time></trkpt><trkpt lat="45.82504737161914" lon="9.260764110455453"><ele>403.33333333333337</ele><time>2026-04-07T16:58:38.999Z</time></trkpt><trkpt lat="45.824875759114605" lon="9.260642426705944"><ele>404.6666666666667</ele><time>2026-04-07T16:58:39.999Z</time></trkpt><trkpt lat="45.824700878607395" lon="9.260529244127117"><ele>406.0</ele><time>2026-04-07T16:58:40.999Z</time></trkpt><trkpt lat="45.824547762822775" lon="9.260401753762347"><ele>406.0</ele><time>2026-04-07T16:58:41.999Z</time></trkpt><trkpt lat="45.824407771730655" lon="9.26024887990892"><ele>406.0</ele><time>2026-04-07T16:58:42.999Z</time></trkpt><trkpt lat="45.82426959917304" lon="9.26008177565779"><ele>406.0</ele><time>2026-04-07T16:58:43.999Z</time></trkpt><trkpt lat="45.82415010802601" lon="9.259928674026812"><ele>405.25</ele><time>2026-04-07T16:58:44.999Z</time></trkpt><trkpt lat="45.82403001656125" lon="9.259802669175556"><ele>404.5</ele><time>2026-04-07T16:58:45.999Z</time></trkpt><trkpt lat="45.82392324168273" lon="9.25969306566263"><ele>403.75</ele><time>2026-04-07T16:58:46.999Z</time></trkpt><trkpt lat="45.823832373107265" lon="9.259568267716647"><ele>403.0</ele><time>2026-04-07T16:58:47.999Z</time></trkpt><trkpt lat="45.82378918130278" lon="9.259456379545691"><ele>403.0</ele><time>2026-04-07T16:58:48.999Z</time></trkpt><trkpt lat="45.823755532280806" lon="9.259377152174796"><ele>403.0</ele><time>2026-04-07T16:58:49.999Z</time></trkpt><trkpt lat="45.82363055525156" lon="9.259385519579814"><ele>403.0</ele><time>2026-04-07T16:58:51.999Z</time></trkpt><trkpt lat="45.823578609436616" lon="9.259474142754495"><ele>403.0</ele><time>2026-04-07T16:58:52.999Z</time></trkpt><trkpt lat="45.82357104641688" lon="9.2596162179321"><ele>403.0</ele><time>2026-04-07T16:58:53.999Z</time></trkpt><trkpt lat="45.823609123410655" lon="9.259762541151547"><ele>400.2</ele><time>2026-04-07T16:58:54.999Z</time></trkpt><trkpt lat="45.82366231315548" lon="9.25992808691375"><ele>397.4</ele><time>2026-04-07T16:58:55.999Z</time></trkpt><trkpt lat="45.82370119473919" lon="9.26007770107398"><ele>394.59999999999997</ele><time>2026-04-07T16:58:56.999Z</time></trkpt><trkpt lat="45.823730645354246" lon="9.260207608715058"><ele>391.79999999999995</ele><time>2026-04-07T16:58:57.999Z</time></trkpt><trkpt lat="45.823754481728336" lon="9.260329991669387"><ele>389.0</ele><time>2026-04-07T16:58:58.999Z</time></trkpt><trkpt lat="45.823778112746126" lon="9.260502936080114"><ele>387.75</ele><time>2026-04-07T16:58:59.999Z</time></trkpt><trkpt lat="45.8237730261767" lon="9.26065128249971"><ele>386.5</ele><time>2026-04-07T16:59:00.999Z</time></trkpt><trkpt lat="45.82375242280085" lon="9.260819531488089"><ele>385.25</ele><time>2026-04-07T16:59:02Z</time></trkpt><trkpt lat="45.82369808269151" lon="9.260987371316505"><ele>384.0</ele><time>2026-04-07T16:59:03Z</time></trkpt><trkpt lat="45.823644500494694" lon="9.261178353296671"><ele>384.0</ele><time>2026-04-07T16:59:04Z</time></trkpt><trkpt lat="45.82358800061042" lon="9.261372594963722"><ele>384.0</ele><time>2026-04-07T16:59:05Z</time></trkpt><trkpt lat="45.82353956430518" lon="9.261593916153041"><ele>384.0</ele><time>2026-04-07T16:59:06Z</time></trkpt><trkpt lat="45.82348549861571" lon="9.261821307012067"><ele>385.0</ele><time>2026-04-07T16:59:07Z</time></trkpt><trkpt lat="45.82343211707322" lon="9.262036476606891"><ele>386.0</ele><time>2026-04-07T16:59:08Z</time></trkpt><trkpt lat="45.82336668900109" lon="9.262253661776569"><ele>387.0</ele><time>2026-04-07T16:59:09Z</time></trkpt><trkpt lat="45.82331835501893" lon="9.262455392279001"><ele>387.0</ele><time>2026-04-07T16:59:10Z</time></trkpt><trkpt lat="45.82326682532946" lon="9.262637031149128"><ele>387.0</ele><time>2026-04-07T16:59:11Z</time></trkpt><trkpt lat="45.82321201225684" lon="9.262868127723568"><ele>387.0</ele><time>2026-04-07T16:59:12Z</time></trkpt><trkpt lat="45.82315852689812" lon="9.263084581513748"><ele>386.33333333333337</ele><time>2026-04-07T16:59:13Z</time></trkpt><trkpt lat="45.82310064252474" lon="9.263303053333653"><ele>385.6666666666667</ele><time>2026-04-07T16:59:14Z</time></trkpt><trkpt lat="45.823042518830306" lon="9.263522229251272"><ele>385.0</ele><time>2026-04-07T16:59:15Z</time></trkpt><trkpt lat="45.82299746128035" lon="9.26372106013175"><ele>385.0</ele><time>2026-04-07T16:59:16Z</time></trkpt><trkpt lat="45.82294214081117" lon="9.263926062936441"><ele>385.0</ele><time>2026-04-07T16:59:17Z</time></trkpt><trkpt lat="45.82288175523199" lon="9.264117121809411"><ele>385.0</ele><time>2026-04-07T16:59:18Z</time></trkpt><trkpt lat="45.82276781320008" lon="9.264269646783813"><ele>384.25</ele><time>2026-04-07T16:59:19Z</time></trkpt><trkpt lat="45.82265221386121" lon="9.264400035326664"><ele>383.5</ele><time>2026-04-07T16:59:20Z</time></trkpt><trkpt lat="45.82252413465193" lon="9.26449297384214"><ele>382.75</ele><time>2026-04-07T16:59:21Z</time></trkpt><trkpt lat="45.82238296384087" lon="9.264552827525991"><ele>382.0</ele><time>2026-04-07T16:59:22Z</time></trkpt><trkpt lat="45.8222302960913" lon="9.264580534061016"><ele>382.0</ele><time>2026-04-07T16:59:23Z</time></trkpt><trkpt lat="45.82206172789789" lon="9.26459020413771"><ele>382.0</ele><time>2026-04-07T16:59:24Z</time></trkpt><trkpt lat="45.82189539960598" lon="9.264616882945448"><ele>382.0</ele><time>2026-04-07T16:59:25Z</time></trkpt><trkpt lat="45.821729699555156" lon="9.264620303435969"><ele>381.3333333333333</ele><time>2026-04-07T16:59:26Z</time></trkpt><trkpt lat="45.82156129435777" lon="9.264620486189127"><ele>380.6666666666667</ele><time>2026-04-07T16:59:27Z</time></trkpt><trkpt lat="45.82139633829366" lon="9.264622677634849"><ele>380.0</ele><time>2026-04-07T16:59:28Z</time></trkpt><trkpt lat="45.821233150678374" lon="9.264648862681089"><ele>380.0</ele><time>2026-04-07T16:59:29Z</time></trkpt><trkpt lat="45.8210812376023" lon="9.26469376714697"><ele>380.0</ele><time>2026-04-07T16:59:30Z</time></trkpt><trkpt lat="45.82093843949254" lon="9.264767178199127"><ele>380.0</ele><time>2026-04-07T16:59:31Z</time></trkpt><trkpt lat="45.82082204324165" lon="9.264889511202153"><ele>379.6666666666667</ele><time>2026-04-07T16:59:32Z</time></trkpt><trkpt lat="45.82073691474331" lon="9.265056008962299"><ele>379.3333333333333</ele><time>2026-04-07T16:59:33Z</time></trkpt><trkpt lat="45.82070381947364" lon="9.265316065290149"><ele>379.0</ele><time>2026-04-07T16:59:34Z</time></trkpt><trkpt lat="45.82066839765645" lon="9.265541428426202"><ele>378.79999999999995</ele><time>2026-04-07T16:59:35Z</time></trkpt><trkpt lat="45.8206426183094" lon="9.265726075207539"><ele>378.59999999999997</ele><time>2026-04-07T16:59:36Z</time></trkpt><trkpt lat="45.820624299002525" lon="9.265857164873106"><ele>378.4</ele><time>2026-04-07T16:59:37Z</time></trkpt><trkpt lat="45.82057636560889" lon="9.265962692746909"><ele>378.2</ele><time>2026-04-07T16:59:38Z</time></trkpt><trkpt lat="45.820511028399025" lon="9.266053032510039"><ele>378.0</ele><time>2026-04-07T16:59:39Z</time></trkpt><trkpt lat="45.820421057933515" lon="9.266156743976078"><ele>378.0</ele><time>2026-04-07T16:59:40Z</time></trkpt><trkpt lat="45.820334693126085" lon="9.266304088645507"><ele>378.0</ele><time>2026-04-07T16:59:41Z</time></trkpt><trkpt lat="45.82024758740354" lon="9.266466560238937"><ele>378.0</ele><time>2026-04-07T16:59:42Z</time></trkpt><trkpt lat="45.820121297432884" lon="9.266605006734252"><ele>378.0</ele><time>2026-04-07T16:59:43Z</time></trkpt><trkpt lat="45.81997784433291" lon="9.266739611948015"><ele>378.0</ele><time>2026-04-07T16:59:44Z</time></trkpt><trkpt lat="45.819835320643094" lon="9.26688568607589"><ele>378.0</ele><time>2026-04-07T16:59:45Z</time></trkpt><trkpt lat="45.8196913045979" lon="9.267039498390092"><ele>378.0</ele><time>2026-04-07T16:59:46Z</time></trkpt><trkpt lat="45.81954132055283" lon="9.267199853641555"><ele>378.3333333333333</ele><time>2026-04-07T16:59:47Z</time></trkpt><trkpt lat="45.81938970778126" lon="9.267358435959949"><ele>378.66666666666663</ele><time>2026-04-07T16:59:48Z</time></trkpt><trkpt lat="45.819238508596385" lon="9.267516556198045"><ele>379.0</ele><time>2026-04-07T16:59:49Z</time></trkpt><trkpt lat="45.81908474836874" lon="9.267679003553589"><ele>379.0</ele><time>2026-04-07T16:59:50Z</time></trkpt><trkpt lat="45.81892689399044" lon="9.267836716578568"><ele>379.0</ele><time>2026-04-07T16:59:51Z</time></trkpt><trkpt lat="45.81876812812248" lon="9.267995198622744"><ele>379.0</ele><time>2026-04-07T16:59:52Z</time></trkpt><trkpt lat="45.81860978999438" lon="9.268168731270908"><ele>381.66666666666663</ele><time>2026-04-07T16:59:53Z</time></trkpt><trkpt lat="45.81844803250386" lon="9.268335051919218"><ele>384.3333333333333</ele><time>2026-04-07T16:59:54Z</time></trkpt><trkpt lat="45.81828866928097" lon="9.268495342256202"><ele>387.0</ele><time>2026-04-07T16:59:55Z</time></trkpt><trkpt lat="45.81814036290076" lon="9.26866576016014"><ele>387.0</ele><time>2026-04-07T16:59:56Z</time></trkpt><trkpt lat="45.81799571103909" lon="9.268836712143118"><ele>387.0</ele><time>2026-04-07T16:59:57Z</time></trkpt><trkpt lat="45.81787555621789" lon="9.269033905565596"><ele>387.0</ele><time>2026-04-07T16:59:58Z</time></trkpt><trkpt lat="45.81777231891775" lon="9.269255606413342"><ele>388.0</ele><time>2026-04-07T16:59:59Z</time></trkpt><trkpt lat="45.817690054684" lon="9.26949918689209"><ele>389.0</ele><time>2026-04-07T17:00:00Z</time></trkpt><trkpt lat="45.817634631476146" lon="9.269762180429002"><ele>390.0</ele><time>2026-04-07T17:00:01Z</time></trkpt><trkpt lat="45.81758494810628" lon="9.270028753864041"><ele>386.3333333333333</ele><time>2026-04-07T17:00:02Z</time></trkpt><trkpt lat="45.81753839268384" lon="9.270294842480604"><ele>382.66666666666663</ele><time>2026-04-07T17:00:03Z</time></trkpt><trkpt lat="45.81747210043361" lon="9.270553028387996"><ele>379.0</ele><time>2026-04-07T17:00:04Z</time></trkpt><trkpt lat="45.81743011851887" lon="9.270822883748565"><ele>379.0</ele><time>2026-04-07T17:00:05Z</time></trkpt><trkpt lat="45.81737479441485" lon="9.271080927594342"><ele>379.0</ele><time>2026-04-07T17:00:06Z</time></trkpt><trkpt lat="45.81731698388892" lon="9.271343904673179"><ele>379.0</ele><time>2026-04-07T17:00:07Z</time></trkpt><trkpt lat="45.81726463651227" lon="9.271598833238539"><ele>380.66666666666663</ele><time>2026-04-07T17:00:08Z</time></trkpt><trkpt lat="45.81721182375695" lon="9.271867708773625"><ele>382.3333333333333</ele><time>2026-04-07T17:00:09Z</time></trkpt><trkpt lat="45.81715914386258" lon="9.272122331590975"><ele>384.0</ele><time>2026-04-07T17:00:10Z</time></trkpt><trkpt lat="45.81709992508799" lon="9.272358829231736"><ele>385.66666666666663</ele><time>2026-04-07T17:00:11Z</time></trkpt><trkpt lat="45.81704161026608" lon="9.27259541949254"><ele>387.3333333333333</ele><time>2026-04-07T17:00:12Z</time></trkpt><trkpt lat="45.816993194638" lon="9.272828428415698"><ele>389.0</ele><time>2026-04-07T17:00:12.999Z</time></trkpt><trkpt lat="45.81695017664517" lon="9.273058413961758"><ele>390.3333333333333</ele><time>2026-04-07T17:00:13.999Z</time></trkpt><trkpt lat="45.81690512280031" lon="9.273288043129812"><ele>391.66666666666663</ele><time>2026-04-07T17:00:14.999Z</time></trkpt><trkpt lat="45.81686334343074" lon="9.27350651506271"><ele>393.0</ele><time>2026-04-07T17:00:15.999Z</time></trkpt><trkpt lat="45.81681399639096" lon="9.273720584554072"><ele>382.0</ele><time>2026-04-07T17:00:16.999Z</time></trkpt><trkpt lat="45.816765259109474" lon="9.273923480846225"><ele>371.0</ele><time>2026-04-07T17:00:17.999Z</time></trkpt><trkpt lat="45.816749358186016" lon="9.27413951779073"><ele>360.0</ele><time>2026-04-07T17:00:18.999Z</time></trkpt><trkpt lat="45.81676208322681" lon="9.274363885380213"><ele>366.25</ele><time>2026-04-07T17:00:19.999Z</time></trkpt><trkpt lat="45.81683612188776" lon="9.274564699354977"><ele>372.5</ele><time>2026-04-07T17:00:20.999Z</time></trkpt><trkpt lat="45.81688605908118" lon="9.274736727511865"><ele>378.75</ele><time>2026-04-07T17:00:21.999Z</time></trkpt><trkpt lat="45.816955921816096" lon="9.27482808715474"><ele>385.0</ele><time>2026-04-07T17:00:22.999Z</time></trkpt><trkpt lat="45.81694369577561" lon="9.274931812741288"><ele>385.00000000000006</ele><time>2026-04-07T17:00:23.999Z</time></trkpt><trkpt lat="45.8169093026091" lon="9.275009445034454"><ele>385.0</ele><time>2026-04-07T17:00:24.999Z</time></trkpt><trkpt lat="45.81683057179996" lon="9.275025410492631"><ele>385.0</ele><time>2026-04-07T17:00:25.999Z</time></trkpt><trkpt lat="45.816750170390776" lon="9.274986767885446"><ele>385.0</ele><time>2026-04-07T17:00:26.999Z</time></trkpt><trkpt lat="45.816690108344616" lon="9.27486442500954"><ele>385.00000000000006</ele><time>2026-04-07T17:00:27.999Z</time></trkpt><trkpt lat="45.81665340210745" lon="9.27471167592917"><ele>385.0</ele><time>2026-04-07T17:00:28.999Z</time></trkpt><trkpt lat="45.81660337507535" lon="9.274533691163594"><ele>378.75</ele><time>2026-04-07T17:00:29.999Z</time></trkpt><trkpt lat="45.81656198541724" lon="9.274357095882214"><ele>372.5</ele><time>2026-04-07T17:00:30.999Z</time></trkpt><trkpt lat="45.81653884801518" lon="9.2741596261194"><ele>366.25</ele><time>2026-04-07T17:00:31.999Z</time></trkpt><trkpt lat="45.81654416886661" lon="9.273931203781911"><ele>360.0</ele><time>2026-04-07T17:00:32.999Z</time></trkpt><trkpt lat="45.81658044414577" lon="9.273690883854512"><ele>360.0</ele><time>2026-04-07T17:00:33.999Z</time></trkpt><trkpt lat="45.81663136036707" lon="9.273462605411028"><ele>360.0</ele><time>2026-04-07T17:00:34.999Z</time></trkpt><trkpt lat="45.81667328631965" lon="9.273215627943681"><ele>360.0</ele><time>2026-04-07T17:00:35.999Z</time></trkpt><trkpt lat="45.81669322336863" lon="9.27296298736869"><ele>358.0</ele><time>2026-04-07T17:00:36.999Z</time></trkpt><trkpt lat="45.81670831008068" lon="9.272711169490861"><ele>356.0</ele><time>2026-04-07T17:00:37.999Z</time></trkpt><trkpt lat="45.816711081643916" lon="9.272448259297478"><ele>354.0</ele><time>2026-04-07T17:00:38.999Z</time></trkpt><trkpt lat="45.816715332733445" lon="9.272186361211986"><ele>353.0</ele><time>2026-04-07T17:00:39.999Z</time></trkpt><trkpt lat="45.8167149192062" lon="9.271917300794625"><ele>352.0</ele><time>2026-04-07T17:00:40.999Z</time></trkpt><trkpt lat="45.81672184522076" lon="9.271660334466468"><ele>351.0</ele><time>2026-04-07T17:00:41.999Z</time></trkpt><trkpt lat="45.81672504797413" lon="9.271404204693036"><ele>351.0</ele><time>2026-04-07T17:00:42.999Z</time></trkpt><trkpt lat="45.81673022491632" lon="9.271138748765484"><ele>351.0</ele><time>2026-04-07T17:00:43.999Z</time></trkpt><trkpt lat="45.816738164165436" lon="9.270879034667978"><ele>351.0</ele><time>2026-04-07T17:00:44.999Z</time></trkpt><trkpt lat="45.81674213444652" lon="9.270609544441992"><ele>350.3333333333333</ele><time>2026-04-07T17:00:45.999Z</time></trkpt><trkpt lat="45.81674355677221" lon="9.270370289451348"><ele>349.66666666666663</ele><time>2026-04-07T17:00:46.999Z</time></trkpt><trkpt lat="45.81674914743099" lon="9.270144669840729"><ele>349.0</ele><time>2026-04-07T17:00:47.999Z</time></trkpt><trkpt lat="45.81675129794503" lon="9.269931257724652"><ele>349.16666666666663</ele><time>2026-04-07T17:00:48.999Z</time></trkpt><trkpt lat="45.81675561358646" lon="9.269761425498391"><ele>349.3333333333333</ele><time>2026-04-07T17:00:49.999Z</time></trkpt><trkpt lat="45.81675697007245" lon="9.269643092693814"><ele>349.5</ele><time>2026-04-07T17:00:50.999Z</time></trkpt><trkpt lat="45.816720754356304" lon="9.269557189833078"><ele>349.6666666666667</ele><time>2026-04-07T17:00:51.999Z</time></trkpt><trkpt lat="45.816639642386" lon="9.269499884301286"><ele>349.83333333333337</ele><time>2026-04-07T17:00:52.999Z</time></trkpt><trkpt lat="45.81655691516494" lon="9.269497470804387"><ele>350.0</ele><time>2026-04-07T17:00:53.999Z</time></trkpt><trkpt lat="45.816478194491765" lon="9.269565318060936"><ele>350.0</ele><time>2026-04-07T17:00:54.999Z</time></trkpt><trkpt lat="45.81641548093989" lon="9.26969360521243"><ele>350.0</ele><time>2026-04-07T17:00:55.999Z</time></trkpt><trkpt lat="45.816383331551094" lon="9.269873943846608"><ele>350.0</ele><time>2026-04-07T17:00:56.999Z</time></trkpt><trkpt lat="45.81634892425444" lon="9.270096073454269"><ele>350.0</ele><time>2026-04-07T17:00:57.999Z</time></trkpt><trkpt lat="45.81629333839465" lon="9.270325586538704"><ele>349.6666666666667</ele><time>2026-04-07T17:00:58.999Z</time></trkpt><trkpt lat="45.81624378281842" lon="9.270571018639254"><ele>349.3333333333333</ele><time>2026-04-07T17:00:59.999Z</time></trkpt><trkpt lat="45.81619513570562" lon="9.270810094570862"><ele>349.0</ele><time>2026-04-07T17:01:00.999Z</time></trkpt><trkpt lat="45.81615251728365" lon="9.2710301888743"><ele>349.25</ele><time>2026-04-07T17:01:01.999Z</time></trkpt><trkpt lat="45.816098448585706" lon="9.27122788123587"><ele>349.5</ele><time>2026-04-07T17:01:02.999Z</time></trkpt><trkpt lat="45.816052254576235" lon="9.27141663757362"><ele>349.75</ele><time>2026-04-07T17:01:03.999Z</time></trkpt><trkpt lat="45.8159930069416" lon="9.271602195007233"><ele>350.0</ele><time>2026-04-07T17:01:04.999Z</time></trkpt><trkpt lat="45.81590423632793" lon="9.27177344929965"><ele>345.6666666666667</ele><time>2026-04-07T17:01:05.999Z</time></trkpt><trkpt lat="45.815757770234555" lon="9.27187812015096"><ele>341.3333333333333</ele><time>2026-04-07T17:01:06.999Z</time></trkpt><trkpt lat="45.81563384990863" lon="9.272006605546519"><ele>337.0</ele><time>2026-04-07T17:01:08Z</time></trkpt><trkpt lat="45.815510184058766" lon="9.272112154057409"><ele>337.0</ele><time>2026-04-07T17:01:09Z</time></trkpt><trkpt lat="45.81541019432103" lon="9.272228071220153"><ele>337.0</ele><time>2026-04-07T17:01:10Z</time></trkpt><trkpt lat="45.81532250728539" lon="9.27235627222948"><ele>337.0</ele><time>2026-04-07T17:01:11Z</time></trkpt><trkpt lat="45.81527843196817" lon="9.272499485794253"><ele>337.0</ele><time>2026-04-07T17:01:12Z</time></trkpt><trkpt lat="45.81527355933237" lon="9.272698317343078"><ele>337.66666666666663</ele><time>2026-04-07T17:01:13Z</time></trkpt><trkpt lat="45.81528633537564" lon="9.272937796623994"><ele>338.3333333333333</ele><time>2026-04-07T17:01:14Z</time></trkpt><trkpt lat="45.8153038664322" lon="9.273185757055602"><ele>339.0</ele><time>2026-04-07T17:01:15Z</time></trkpt><trkpt lat="45.81532922749611" lon="9.273468595233279"><ele>339.6666666666667</ele><time>2026-04-07T17:01:16Z</time></trkpt><trkpt lat="45.815354935838236" lon="9.273757869637437"><ele>340.33333333333337</ele><time>2026-04-07T17:01:17Z</time></trkpt><trkpt lat="45.81538340939058" lon="9.27407222565861"><ele>341.0</ele><time>2026-04-07T17:01:18Z</time></trkpt><trkpt lat="45.81540895868347" lon="9.27435557319871"><ele>339.0</ele><time>2026-04-07T17:01:19Z</time></trkpt><trkpt lat="45.8154341357989" lon="9.274635976075198"><ele>337.0</ele><time>2026-04-07T17:01:20Z</time></trkpt><trkpt lat="45.81546039411906" lon="9.27492260238737"><ele>335.0</ele><time>2026-04-07T17:01:21Z</time></trkpt><trkpt lat="45.81548439759002" lon="9.275196265160192"><ele>333.0</ele><time>2026-04-07T17:01:22Z</time></trkpt><trkpt lat="45.81550937674752" lon="9.275475521464898"><ele>331.0</ele><time>2026-04-07T17:01:23Z</time></trkpt><trkpt lat="45.81553852975749" lon="9.275748778707566"><ele>329.0</ele><time>2026-04-07T17:01:24Z</time></trkpt><trkpt lat="45.815596661933675" lon="9.276016942014184"><ele>325.6666666666667</ele><time>2026-04-07T17:01:25Z</time></trkpt><trkpt lat="45.81565333702377" lon="9.276289482587924"><ele>322.3333333333333</ele><time>2026-04-07T17:01:26Z</time></trkpt><trkpt lat="45.81572176582835" lon="9.27655421385521"><ele>319.0</ele><time>2026-04-07T17:01:27Z</time></trkpt><trkpt lat="45.815781398694455" lon="9.276837251938531"><ele>317.3333333333333</ele><time>2026-04-07T17:01:28Z</time></trkpt><trkpt lat="45.81585290138155" lon="9.277112419033427"><ele>315.6666666666667</ele><time>2026-04-07T17:01:29Z</time></trkpt><trkpt lat="45.81593555901789" lon="9.277377783822017"><ele>314.0</ele><time>2026-04-07T17:01:30Z</time></trkpt><trkpt lat="45.81599499603531" lon="9.277666084228757"><ele>314.0</ele><time>2026-04-07T17:01:31Z</time></trkpt><trkpt lat="45.81606574755839" lon="9.277936691525747"><ele>314.0</ele><time>2026-04-07T17:01:32Z</time></trkpt><trkpt lat="45.81613141092817" lon="9.278187744044537"><ele>314.0</ele><time>2026-04-07T17:01:33Z</time></trkpt><trkpt lat="45.81619136424071" lon="9.278421064642448"><ele>314.0</ele><time>2026-04-07T17:01:34Z</time></trkpt><trkpt lat="45.81624591461081" lon="9.278656462265333"><ele>314.0</ele><time>2026-04-07T17:01:35Z</time></trkpt><trkpt lat="45.81628010057425" lon="9.278900630220056"><ele>314.0</ele><time>2026-04-07T17:01:36Z</time></trkpt><trkpt lat="45.816283455026266" lon="9.27914105962158"><ele>311.6666666666667</ele><time>2026-04-07T17:01:37Z</time></trkpt><trkpt lat="45.81626616877091" lon="9.279386001639876"><ele>309.3333333333333</ele><time>2026-04-07T17:01:38Z</time></trkpt><trkpt lat="45.81622029903187" lon="9.27962984876577"><ele>307.0</ele><time>2026-04-07T17:01:39Z</time></trkpt><trkpt lat="45.81614564639432" lon="9.279866663295424"><ele>305.66666666666663</ele><time>2026-04-07T17:01:40Z</time></trkpt><trkpt lat="45.81606199703452" lon="9.280107953142148"><ele>304.3333333333333</ele><time>2026-04-07T17:01:41Z</time></trkpt><trkpt lat="45.81597931896954" lon="9.280340491835998"><ele>303.0</ele><time>2026-04-07T17:01:42Z</time></trkpt><trkpt lat="45.81590094265227" lon="9.280560931500018"><ele>299.0</ele><time>2026-04-07T17:01:43Z</time></trkpt><trkpt lat="45.81582517898675" lon="9.28077664524013"><ele>295.0</ele><time>2026-04-07T17:01:44Z</time></trkpt><trkpt lat="45.81576790104505" lon="9.280992714564224"><ele>291.0</ele><time>2026-04-07T17:01:45Z</time></trkpt><trkpt lat="45.81569290444743" lon="9.281202989031513"><ele>291.0</ele><time>2026-04-07T17:01:46Z</time></trkpt><trkpt lat="45.81561654354379" lon="9.28141727214251"><ele>291.0</ele><time>2026-04-07T17:01:47Z</time></trkpt><trkpt lat="45.81554714313002" lon="9.281618344131731"><ele>291.0</ele><time>2026-04-07T17:01:48Z</time></trkpt><trkpt lat="45.815479365282904" lon="9.281812386836624"><ele>291.25</ele><time>2026-04-07T17:01:49Z</time></trkpt><trkpt lat="45.81541129522439" lon="9.281998023343347"><ele>291.5</ele><time>2026-04-07T17:01:50Z</time></trkpt><trkpt lat="45.81534590902741" lon="9.282183048032884"><ele>291.75</ele><time>2026-04-07T17:01:51Z</time></trkpt><trkpt lat="45.81527753086608" lon="9.282376839952716"><ele>292.0</ele><time>2026-04-07T17:01:52Z</time></trkpt><trkpt lat="45.81521174115065" lon="9.282564941506381"><ele>287.3333333333333</ele><time>2026-04-07T17:01:53Z</time></trkpt><trkpt lat="45.815147825889916" lon="9.28275987337883"><ele>282.6666666666667</ele><time>2026-04-07T17:01:54Z</time></trkpt><trkpt lat="45.81507248936743" lon="9.282971432825244"><ele>278.0</ele><time>2026-04-07T17:01:55Z</time></trkpt><trkpt lat="45.81501149638667" lon="9.283244905869742"><ele>278.0</ele><time>2026-04-07T17:01:56Z</time></trkpt><trkpt lat="45.81495946435224" lon="9.28358930014948"><ele>278.0</ele><time>2026-04-07T17:01:57Z</time></trkpt><trkpt lat="45.81491186747371" lon="9.283905171739951"><ele>277.33333333333337</ele><time>2026-04-07T17:01:58Z</time></trkpt><trkpt lat="45.81486422359516" lon="9.284226729824473"><ele>276.6666666666667</ele><time>2026-04-07T17:01:59Z</time></trkpt><trkpt lat="45.81482252949005" lon="9.284509217104128"><ele>276.0</ele><time>2026-04-07T17:02:00Z</time></trkpt><trkpt lat="45.81478439098869" lon="9.28476774360158"><ele>275.75</ele><time>2026-04-07T17:02:01Z</time></trkpt><trkpt lat="45.81475789084634" lon="9.28495102110087"><ele>275.5</ele><time>2026-04-07T17:02:02Z</time></trkpt><trkpt lat="45.81472956504609" lon="9.285144993124046"><ele>275.25</ele><time>2026-04-07T17:02:03Z</time></trkpt><trkpt lat="45.814695491728166" lon="9.285378323492822"><ele>275.0</ele><time>2026-04-07T17:02:04Z</time></trkpt><trkpt lat="45.81466206143501" lon="9.285613518651495"><ele>274.6666666666667</ele><time>2026-04-07T17:02:05Z</time></trkpt><trkpt lat="45.814626146413694" lon="9.285838262936965"><ele>274.3333333333333</ele><time>2026-04-07T17:02:06Z</time></trkpt><trkpt lat="45.814581973239406" lon="9.286043380107724"><ele>274.0</ele><time>2026-04-07T17:02:07Z</time></trkpt><trkpt lat="45.81456033747601" lon="9.286273168171293"><ele>274.0</ele><time>2026-04-07T17:02:08Z</time></trkpt><trkpt lat="45.81450634899044" lon="9.286449737177753"><ele>274.0</ele><time>2026-04-07T17:02:09Z</time></trkpt><trkpt lat="45.814445748905825" lon="9.286597938466423"><ele>274.0</ele><time>2026-04-07T17:02:10Z</time></trkpt><trkpt lat="45.81438216261376" lon="9.286716713845134"><ele>274.0</ele><time>2026-04-07T17:02:11Z</time></trkpt><trkpt lat="45.814265609076344" lon="9.286720293898298"><ele>273.0</ele><time>2026-04-07T17:02:12Z</time></trkpt><trkpt lat="45.81417769053752" lon="9.286790929182043"><ele>272.0</ele><time>2026-04-07T17:02:13Z</time></trkpt><trkpt lat="45.81411049537282" lon="9.286783815084618"><ele>271.0</ele><time>2026-04-07T17:02:17Z</time></trkpt><trkpt lat="45.81401896058863" lon="9.286789996602266"><ele>270.0</ele><time>2026-04-07T17:02:25Z</time></trkpt><trkpt lat="45.8139051261491" lon="9.286791074227922"><ele>269.0</ele><time>2026-04-07T17:02:26.999Z</time></trkpt><trkpt lat="45.81383352237716" lon="9.286785930279128"><ele>268.0</ele><time>2026-04-07T17:02:29.999Z</time></trkpt><trkpt lat="45.81376832818463" lon="9.286769498340016"><ele>268.0</ele><time>2026-04-07T17:02:37.999Z</time></trkpt><trkpt lat="45.81362107306427" lon="9.28675639625736"><ele>268.0</ele><time>2026-04-07T17:02:59.999Z</time></trkpt><trkpt lat="45.81356309810783" lon="9.287005124003318"><ele>268.0</ele><time>2026-04-07T17:03:00.999Z</time></trkpt><trkpt lat="45.81356736579899" lon="9.287151081273077"><ele>268.0</ele><time>2026-04-07T17:03:01.999Z</time></trkpt><trkpt lat="45.813581360178034" lon="9.287326935891587"><ele>268.5</ele><time>2026-04-07T17:03:02.999Z</time></trkpt><trkpt lat="45.813602722090835" lon="9.287524104765666"><ele>269.0</ele><time>2026-04-07T17:03:03.999Z</time></trkpt><trkpt lat="45.813627384003375" lon="9.287715656427661"><ele>269.5</ele><time>2026-04-07T17:03:04.999Z</time></trkpt><trkpt lat="45.81365213413466" lon="9.287904227129758"><ele>270.0</ele><time>2026-04-07T17:03:05.999Z</time></trkpt><trkpt lat="45.81367878087379" lon="9.28809978644663"><ele>270.0</ele><time>2026-04-07T17:03:06.999Z</time></trkpt><trkpt lat="45.81372439019383" lon="9.288301571383359"><ele>270.0</ele><time>2026-04-07T17:03:07.999Z</time></trkpt><trkpt lat="45.813750330753194" lon="9.288511943592614"><ele>270.0</ele><time>2026-04-07T17:03:08.999Z</time></trkpt><trkpt lat="45.813779031937344" lon="9.288727253838934"><ele>269.25</ele><time>2026-04-07T17:03:09.999Z</time></trkpt><trkpt lat="45.813812323174695" lon="9.288937834926681"><ele>268.5</ele><time>2026-04-07T17:03:10.999Z</time></trkpt><trkpt lat="45.813824404554815" lon="9.289151076574473"><ele>267.75</ele><time>2026-04-07T17:03:11.999Z</time></trkpt><trkpt lat="45.8138610953439" lon="9.289358392326662"><ele>267.0</ele><time>2026-04-07T17:03:12.999Z</time></trkpt><trkpt lat="45.813910823599365" lon="9.28956779586443"><ele>267.0</ele><time>2026-04-07T17:03:14Z</time></trkpt><trkpt lat="45.81398053526283" lon="9.28974908139431"><ele>267.0</ele><time>2026-04-07T17:03:15Z</time></trkpt><trkpt lat="45.81403987757894" lon="9.289939444766391"><ele>267.0</ele><time>2026-04-07T17:03:16Z</time></trkpt><trkpt lat="45.81409256077447" lon="9.290121032495733"><ele>267.0</ele><time>2026-04-07T17:03:17Z</time></trkpt><trkpt lat="45.814132140003" lon="9.290287208272655"><ele>267.0</ele><time>2026-04-07T17:03:18Z</time></trkpt><trkpt lat="45.81416702115175" lon="9.290455855554459"><ele>267.0</ele><time>2026-04-07T17:03:19Z</time></trkpt><trkpt lat="45.814198693110676" lon="9.290619476223014"><ele>267.0</ele><time>2026-04-07T17:03:20Z</time></trkpt><trkpt lat="45.814210506726724" lon="9.290774949097623"><ele>267.0</ele><time>2026-04-07T17:03:21Z</time></trkpt><trkpt lat="45.81419732589684" lon="9.290931607199795"><ele>267.6</ele><time>2026-04-07T17:03:22Z</time></trkpt><trkpt lat="45.81417298939638" lon="9.291066232968138"><ele>268.2</ele><time>2026-04-07T17:03:23Z</time></trkpt><trkpt lat="45.814187913972546" lon="9.291216297878789"><ele>268.8</ele><time>2026-04-07T17:03:24Z</time></trkpt><trkpt lat="45.81424084056209" lon="9.291359739622134"><ele>269.4</ele><time>2026-04-07T17:03:25Z</time></trkpt><trkpt lat="45.81432537364714" lon="9.29150464283161"><ele>270.0</ele><time>2026-04-07T17:03:26Z</time></trkpt><trkpt lat="45.814401898017444" lon="9.291627412995624"><ele>270.0</ele><time>2026-04-07T17:03:27Z</time></trkpt><trkpt lat="45.81448546223952" lon="9.291782749893406"><ele>270.0</ele><time>2026-04-07T17:03:28Z</time></trkpt><trkpt lat="45.814534318594866" lon="9.292017596639216"><ele>270.0</ele><time>2026-04-07T17:03:29Z</time></trkpt><trkpt lat="45.81458758268597" lon="9.292223337233516"><ele>268.75</ele><time>2026-04-07T17:03:30Z</time></trkpt><trkpt lat="45.81462003022231" lon="9.292438563020703"><ele>267.5</ele><time>2026-04-07T17:03:31Z</time></trkpt><trkpt lat="45.81465328381025" lon="9.292644547534794"><ele>266.25</ele><time>2026-04-07T17:03:32Z</time></trkpt><trkpt lat="45.81469748605198" lon="9.292846391579868"><ele>265.0</ele><time>2026-04-07T17:03:33Z</time></trkpt><trkpt lat="45.814748034883465" lon="9.293040073138126"><ele>265.0</ele><time>2026-04-07T17:03:34Z</time></trkpt><trkpt lat="45.81480506758004" lon="9.293230602021106"><ele>265.0</ele><time>2026-04-07T17:03:35Z</time></trkpt><trkpt lat="45.81486325457249" lon="9.293438895727473"><ele>265.0</ele><time>2026-04-07T17:03:36Z</time></trkpt><trkpt lat="45.81494119668601" lon="9.293650000012228"><ele>265.0</ele><time>2026-04-07T17:03:37Z</time></trkpt><trkpt lat="45.815022775329425" lon="9.293881603129316"><ele>265.0</ele><time>2026-04-07T17:03:38Z</time></trkpt><trkpt lat="45.81511806523293" lon="9.29414472568221"><ele>265.0</ele><time>2026-04-07T17:03:39Z</time></trkpt><trkpt lat="45.81522778445752" lon="9.294428433703095"><ele>269.0</ele><time>2026-04-07T17:03:40Z</time></trkpt><trkpt lat="45.815332773600744" lon="9.294710597412587"><ele>273.0</ele><time>2026-04-07T17:03:41Z</time></trkpt><trkpt lat="45.815434924077024" lon="9.295006645598825"><ele>273.0</ele><time>2026-04-07T17:03:42Z</time></trkpt><trkpt lat="45.815520091649866" lon="9.295284580611606"><ele>273.0</ele><time>2026-04-07T17:03:43Z</time></trkpt><trkpt lat="45.815591735020114" lon="9.29554582543531"><ele>273.0</ele><time>2026-04-07T17:03:44Z</time></trkpt><trkpt lat="45.81566007886174" lon="9.295825401197733"><ele>273.3333333333333</ele><time>2026-04-07T17:03:45Z</time></trkpt><trkpt lat="45.81571703209933" lon="9.296094252936713"><ele>273.66666666666663</ele><time>2026-04-07T17:03:46Z</time></trkpt><trkpt lat="45.81576622432026" lon="9.29633702603495"><ele>274.0</ele><time>2026-04-07T17:03:47Z</time></trkpt><trkpt lat="45.8158002454122" lon="9.296535826065016"><ele>274.3333333333333</ele><time>2026-04-07T17:03:48Z</time></trkpt><trkpt lat="45.81583648918949" lon="9.296760087643031"><ele>274.6666666666667</ele><time>2026-04-07T17:03:49Z</time></trkpt><trkpt lat="45.81586541322393" lon="9.296950665632739"><ele>275.0</ele><time>2026-04-07T17:03:50Z</time></trkpt><trkpt lat="45.81589385218511" lon="9.297174937263566"><ele>274.6666666666667</ele><time>2026-04-07T17:03:51Z</time></trkpt><trkpt lat="45.8159131115883" lon="9.297404377691626"><ele>274.3333333333333</ele><time>2026-04-07T17:03:52Z</time></trkpt><trkpt lat="45.81591537211929" lon="9.29765456355105"><ele>274.0</ele><time>2026-04-07T17:03:53Z</time></trkpt><trkpt lat="45.81591637278367" lon="9.297927216648477"><ele>273.66666666666663</ele><time>2026-04-07T17:03:54Z</time></trkpt><trkpt lat="45.81590343766589" lon="9.29818721194657"><ele>273.3333333333333</ele><time>2026-04-07T17:03:55Z</time></trkpt><trkpt lat="45.816058813382874" lon="9.29849966409039"><ele>273.0</ele><time>2026-04-07T17:03:56Z</time></trkpt><trkpt lat="45.81590257476858" lon="9.298265150774016"><ele>273.0</ele><time>2026-04-07T17:03:57Z</time></trkpt><trkpt lat="45.81584656277932" lon="9.298362029418291"><ele>273.0</ele><time>2026-04-07T17:03:58Z</time></trkpt><trkpt lat="45.815784249911815" lon="9.298446130962407"><ele>273.0</ele><time>2026-04-07T17:03:59Z</time></trkpt><trkpt lat="45.815755442869616" lon="9.298541137421934"><ele>273.0</ele><time>2026-04-07T17:04:00Z</time></trkpt><trkpt lat="45.815768258809705" lon="9.298655286561093"><ele>273.0</ele><time>2026-04-07T17:04:01Z</time></trkpt><trkpt lat="45.815823020980346" lon="9.298774397437565"><ele>273.0</ele><time>2026-04-07T17:04:02Z</time></trkpt><trkpt lat="45.81589624223607" lon="9.298879850998217"><ele>273.5</ele><time>2026-04-07T17:04:03Z</time></trkpt><trkpt lat="45.815950342960605" lon="9.299020954047757"><ele>274.0</ele><time>2026-04-07T17:04:04Z</time></trkpt><trkpt lat="45.81595814815337" lon="9.299198970182012"><ele>274.5</ele><time>2026-04-07T17:04:05Z</time></trkpt><trkpt lat="45.81594734542346" lon="9.29940092646348"><ele>275.0</ele><time>2026-04-07T17:04:06Z</time></trkpt><trkpt lat="45.81593779747086" lon="9.299622272741061"><ele>275.6666666666667</ele><time>2026-04-07T17:04:07Z</time></trkpt><trkpt lat="45.81593838330966" lon="9.299861387688408"><ele>276.3333333333333</ele><time>2026-04-07T17:04:08Z</time></trkpt><trkpt lat="45.81594708218293" lon="9.300102101518739"><ele>277.0</ele><time>2026-04-07T17:04:09Z</time></trkpt><trkpt lat="45.815956409398844" lon="9.300365787060114"><ele>278.0</ele><time>2026-04-07T17:04:10Z</time></trkpt><trkpt lat="45.81596192409015" lon="9.30062651185783"><ele>279.0</ele><time>2026-04-07T17:04:11Z</time></trkpt><trkpt lat="45.81597658713282" lon="9.300892092147132"><ele>280.0</ele><time>2026-04-07T17:04:12Z</time></trkpt><trkpt lat="45.81600421823649" lon="9.301157458595737"><ele>280.66666666666663</ele><time>2026-04-07T17:04:13Z</time></trkpt><trkpt lat="45.816052601886625" lon="9.301418145450446"><ele>281.3333333333333</ele><time>2026-04-07T17:04:14Z</time></trkpt><trkpt lat="45.816118286029464" lon="9.301682772459355"><ele>282.0</ele><time>2026-04-07T17:04:15Z</time></trkpt><trkpt lat="45.81619890148608" lon="9.30194599294764"><ele>282.0</ele><time>2026-04-07T17:04:16Z</time></trkpt><trkpt lat="45.8162869470216" lon="9.302203977523742"><ele>282.0</ele><time>2026-04-07T17:04:17Z</time></trkpt><trkpt lat="45.816384638685676" lon="9.302463288088477"><ele>282.0</ele><time>2026-04-07T17:04:18Z</time></trkpt><trkpt lat="45.81648213009854" lon="9.302713948921625"><ele>282.6666666666667</ele><time>2026-04-07T17:04:19Z</time></trkpt><trkpt lat="45.81656518025446" lon="9.302945732966883"><ele>283.33333333333337</ele><time>2026-04-07T17:04:20Z</time></trkpt><trkpt lat="45.81664743084844" lon="9.303166036422256"><ele>284.0</ele><time>2026-04-07T17:04:21Z</time></trkpt><trkpt lat="45.81672938826605" lon="9.303393884786402"><ele>284.0</ele><time>2026-04-07T17:04:22Z</time></trkpt><trkpt lat="45.81680485186792" lon="9.303633201804628"><ele>284.0</ele><time>2026-04-07T17:04:23Z</time></trkpt><trkpt lat="45.81686562985579" lon="9.30387200632121"><ele>284.0</ele><time>2026-04-07T17:04:24Z</time></trkpt><trkpt lat="45.81692286366577" lon="9.304100033908977"><ele>287.33333333333337</ele><time>2026-04-07T17:04:25Z</time></trkpt><trkpt lat="45.816976118017514" lon="9.304311815731975"><ele>290.6666666666667</ele><time>2026-04-07T17:04:26Z</time></trkpt><trkpt lat="45.81703170170878" lon="9.304529225269633"><ele>294.0</ele><time>2026-04-07T17:04:27Z</time></trkpt><trkpt lat="45.81705989463121" lon="9.304727804185633"><ele>291.0</ele><time>2026-04-07T17:04:28Z</time></trkpt><trkpt lat="45.81711065289061" lon="9.304916001270067"><ele>288.0</ele><time>2026-04-07T17:04:29Z</time></trkpt><trkpt lat="45.81713190192193" lon="9.305103309681725"><ele>285.0</ele><time>2026-04-07T17:04:30Z</time></trkpt><trkpt lat="45.81717184962656" lon="9.305284328080694"><ele>282.0</ele><time>2026-04-07T17:04:31Z</time></trkpt><trkpt lat="45.8172057595753" lon="9.30547445619528"><ele>281.0</ele><time>2026-04-07T17:04:32Z</time></trkpt><trkpt lat="45.81724257811082" lon="9.305668883565778"><ele>280.0</ele><time>2026-04-07T17:04:33Z</time></trkpt><trkpt lat="45.81728055288669" lon="9.305880530799948"><ele>279.0</ele><time>2026-04-07T17:04:34Z</time></trkpt><trkpt lat="45.8173215979482" lon="9.306065008690986"><ele>278.0</ele><time>2026-04-07T17:04:35Z</time></trkpt><trkpt lat="45.817353652838875" lon="9.306234110821698"><ele>278.0</ele><time>2026-04-07T17:04:36Z</time></trkpt><trkpt lat="45.817378097481956" lon="9.306383672870954"><ele>278.0</ele><time>2026-04-07T17:04:36.999Z</time></trkpt><trkpt lat="45.817393322112196" lon="9.306492955173765"><ele>278.0</ele><time>2026-04-07T17:04:37.999Z</time></trkpt><trkpt lat="45.81740513342979" lon="9.306616207198653"><ele>278.0</ele><time>2026-04-07T17:04:39.999Z</time></trkpt><trkpt lat="45.81736140316746" lon="9.306747843640528"><ele>278.0</ele><time>2026-04-07T17:04:41.999Z</time></trkpt><trkpt lat="45.81735327451314" lon="9.306882470137744"><ele>277.5</ele><time>2026-04-07T17:04:43.999Z</time></trkpt><trkpt lat="45.81740773724012" lon="9.306989578214223"><ele>277.0</ele><time>2026-04-07T17:04:44.999Z</time></trkpt><trkpt lat="45.81748065948851" lon="9.307115227748774"><ele>276.5</ele><time>2026-04-07T17:04:45.999Z</time></trkpt><trkpt lat="45.8175335753882" lon="9.307283849123605"><ele>276.0</ele><time>2026-04-07T17:04:46.999Z</time></trkpt><trkpt lat="45.81758119495714" lon="9.307506229654003"><ele>275.6666666666667</ele><time>2026-04-07T17:04:47.999Z</time></trkpt><trkpt lat="45.81761710264632" lon="9.30772914690348"><ele>275.33333333333337</ele><time>2026-04-07T17:04:48.999Z</time></trkpt><trkpt lat="45.817654021937926" lon="9.307946421145669"><ele>275.0</ele><time>2026-04-07T17:04:49.999Z</time></trkpt><trkpt lat="45.81769422569543" lon="9.308171154320435"><ele>276.0</ele><time>2026-04-07T17:04:50.999Z</time></trkpt><trkpt lat="45.8177379959684" lon="9.308394817232609"><ele>277.0</ele><time>2026-04-07T17:04:51.999Z</time></trkpt><trkpt lat="45.81780012076866" lon="9.308657591861296"><ele>278.0</ele><time>2026-04-07T17:04:52.999Z</time></trkpt><trkpt lat="45.81784790638163" lon="9.308881647111264"><ele>277.5</ele><time>2026-04-07T17:04:53.999Z</time></trkpt><trkpt lat="45.81787188605826" lon="9.309084899551378"><ele>277.0</ele><time>2026-04-07T17:04:54.999Z</time></trkpt><trkpt lat="45.81791207905616" lon="9.309277775042725"><ele>276.5</ele><time>2026-04-07T17:04:55.999Z</time></trkpt><trkpt lat="45.81794649448203" lon="9.309458455156454"><ele>276.0</ele><time>2026-04-07T17:04:56.999Z</time></trkpt><trkpt lat="45.8179745377971" lon="9.309616959426315"><ele>275.3333333333333</ele><time>2026-04-07T17:04:57.999Z</time></trkpt><trkpt lat="45.8180017727187" lon="9.309742212385784"><ele>274.6666666666667</ele><time>2026-04-07T17:04:58.999Z</time></trkpt><trkpt lat="45.81801336049633" lon="9.309898668894675"><ele>274.0</ele><time>2026-04-07T17:05:00.999Z</time></trkpt><trkpt lat="45.81802929680582" lon="9.309993591566293"><ele>273.33333333333337</ele><time>2026-04-07T17:05:03.999Z</time></trkpt><trkpt lat="45.81805503767806" lon="9.310098422871294"><ele>272.6666666666667</ele><time>2026-04-07T17:05:05.999Z</time></trkpt><trkpt lat="45.81806028530714" lon="9.310211423089601"><ele>272.0</ele><time>2026-04-07T17:05:07.999Z</time></trkpt><trkpt lat="45.81797201601228" lon="9.310330899644908"><ele>272.0</ele><time>2026-04-07T17:05:09.999Z</time></trkpt><trkpt lat="45.8179129947005" lon="9.310417019082124"><ele>272.0</ele><time>2026-04-07T17:05:10.999Z</time></trkpt><trkpt lat="45.8178600734422" lon="9.31051964324681"><ele>272.0</ele><time>2026-04-07T17:05:11.999Z</time></trkpt><trkpt lat="45.81783278858544" lon="9.31061433180312"><ele>272.0</ele><time>2026-04-07T17:05:12.999Z</time></trkpt><trkpt lat="45.81784396733011" lon="9.310725145100168"><ele>272.0</ele><time>2026-04-07T17:05:13.999Z</time></trkpt><trkpt lat="45.81785591123146" lon="9.310836531247869"><ele>272.0</ele><time>2026-04-07T17:05:14.999Z</time></trkpt><trkpt lat="45.81785291282711" lon="9.310973699856797"><ele>270.8</ele><time>2026-04-07T17:05:15.999Z</time></trkpt><trkpt lat="45.817839012775735" lon="9.311125799029687"><ele>269.6</ele><time>2026-04-07T17:05:16.999Z</time></trkpt><trkpt lat="45.81781859315008" lon="9.31127270917618"><ele>268.40000000000003</ele><time>2026-04-07T17:05:17.999Z</time></trkpt><trkpt lat="45.81780241081487" lon="9.311422404870838"><ele>267.2</ele><time>2026-04-07T17:05:18.999Z</time></trkpt><trkpt lat="45.81777920596658" lon="9.31155653718761"><ele>266.0</ele><time>2026-04-07T17:05:20Z</time></trkpt><trkpt lat="45.81776973193931" lon="9.311717073097698"><ele>264.8</ele><time>2026-04-07T17:05:21Z</time></trkpt><trkpt lat="45.817761342042914" lon="9.311871588075977"><ele>263.6</ele><time>2026-04-07T17:05:22Z</time></trkpt><trkpt lat="45.817757691690744" lon="9.3120252757792"><ele>262.4</ele><time>2026-04-07T17:05:23Z</time></trkpt><trkpt lat="45.81776159845174" lon="9.31218261666397"><ele>261.2</ele><time>2026-04-07T17:05:24Z</time></trkpt><trkpt lat="45.817764458330934" lon="9.312335495822134"><ele>260.0</ele><time>2026-04-07T17:05:25Z</time></trkpt><trkpt lat="45.81776871115899" lon="9.312489507846099"><ele>259.6</ele><time>2026-04-07T17:05:26Z</time></trkpt><trkpt lat="45.81777484804141" lon="9.312641889413861"><ele>259.2</ele><time>2026-04-07T17:05:27Z</time></trkpt><trkpt lat="45.8177833298891" lon="9.312788449815114"><ele>258.8</ele><time>2026-04-07T17:05:28Z</time></trkpt><trkpt lat="45.817804573181334" lon="9.312906727489713"><ele>258.4</ele><time>2026-04-07T17:05:29Z</time></trkpt><trkpt lat="45.81781974496956" lon="9.31300492492431"><ele>258.0</ele><time>2026-04-07T17:05:30Z</time></trkpt><trkpt lat="45.81785615080899" lon="9.313161242156472"><ele>257.3333333333333</ele><time>2026-04-07T17:05:32Z</time></trkpt><trkpt lat="45.81790891335278" lon="9.313306505698442"><ele>256.6666666666667</ele><time>2026-04-07T17:05:34Z</time></trkpt><trkpt lat="45.81793555601509" lon="9.313407441225516"><ele>256.0</ele><time>2026-04-07T17:05:36Z</time></trkpt><trkpt lat="45.81794915872085" lon="9.313512642119516"><ele>255.33333333333334</ele><time>2026-04-07T17:05:41Z</time></trkpt><trkpt lat="45.81797258929301" lon="9.313598599257206"><ele>254.66666666666669</ele><time>2026-04-07T17:05:43Z</time></trkpt><trkpt lat="45.81799080830371" lon="9.31371973825178"><ele>254.0</ele><time>2026-04-07T17:05:45Z</time></trkpt><trkpt lat="45.818020983073716" lon="9.313821431117264"><ele>253.2</ele><time>2026-04-07T17:05:46Z</time></trkpt><trkpt lat="45.81802086429639" lon="9.313953911113982"><ele>252.39999999999998</ele><time>2026-04-07T17:05:47Z</time></trkpt><trkpt lat="45.81803697759465" lon="9.314112961429753"><ele>251.6</ele><time>2026-04-07T17:05:48Z</time></trkpt><trkpt lat="45.81804772948247" lon="9.314273283447728"><ele>250.8</ele><time>2026-04-07T17:05:49Z</time></trkpt><trkpt lat="45.81807032333316" lon="9.314429260648593"><ele>250.0</ele><time>2026-04-07T17:05:50Z</time></trkpt><trkpt lat="45.81807266327715" lon="9.314599690715106"><ele>249.5</ele><time>2026-04-07T17:05:51Z</time></trkpt><trkpt lat="45.818080097755484" lon="9.314777778882975"><ele>249.0</ele><time>2026-04-07T17:05:52Z</time></trkpt><trkpt lat="45.81810731187113" lon="9.314958040558095"><ele>248.5</ele><time>2026-04-07T17:05:53Z</time></trkpt><trkpt lat="45.8181089617343" lon="9.315154078545612"><ele>248.0</ele><time>2026-04-07T17:05:54Z</time></trkpt><trkpt lat="45.81811709027961" lon="9.31534117996624"><ele>248.0</ele><time>2026-04-07T17:05:55Z</time></trkpt><trkpt lat="45.81812113091897" lon="9.315513874994968"><ele>248.0</ele><time>2026-04-07T17:05:56Z</time></trkpt><trkpt lat="45.818131534993576" lon="9.315670349423959"><ele>248.0</ele><time>2026-04-07T17:05:57Z</time></trkpt><trkpt lat="45.81814236452916" lon="9.315808051304323"><ele>248.0</ele><time>2026-04-07T17:05:58Z</time></trkpt><trkpt lat="45.81814122371914" lon="9.315916138307273"><ele>248.0</ele><time>2026-04-07T17:05:59Z</time></trkpt><trkpt lat="45.81810787233954" lon="9.315998608896484"><ele>248.25</ele><time>2026-04-07T17:06:00Z</time></trkpt><trkpt lat="45.81805103620918" lon="9.31605910846055"><ele>248.5</ele><time>2026-04-07T17:06:01Z</time></trkpt><trkpt lat="45.81798303965856" lon="9.316077283659673"><ele>248.75</ele><time>2026-04-07T17:06:02Z</time></trkpt><trkpt lat="45.81806976561615" lon="9.316347810297797"><ele>249.0</ele><time>2026-04-07T17:06:06Z</time></trkpt><trkpt lat="45.81815146530189" lon="9.316496050069336"><ele>247.0</ele><time>2026-04-07T17:06:07Z</time></trkpt><trkpt lat="45.8182332186027" lon="9.316650803697742"><ele>245.0</ele><time>2026-04-07T17:06:08Z</time></trkpt><trkpt lat="45.81831498408368" lon="9.316815482727044"><ele>243.0</ele><time>2026-04-07T17:06:09Z</time></trkpt><trkpt lat="45.81839009774192" lon="9.316962764702197"><ele>241.0</ele><time>2026-04-07T17:06:10Z</time></trkpt><trkpt lat="45.81846738828592" lon="9.317112738639297"><ele>241.0</ele><time>2026-04-07T17:06:11Z</time></trkpt><trkpt lat="45.818544499638534" lon="9.317256789253848"><ele>241.0</ele><time>2026-04-07T17:06:12Z</time></trkpt><trkpt lat="45.81859965496834" lon="9.317386591316096"><ele>241.0</ele><time>2026-04-07T17:06:13Z</time></trkpt><trkpt lat="45.81864330729277" lon="9.317530882577747"><ele>241.0</ele><time>2026-04-07T17:06:14Z</time></trkpt><trkpt lat="45.818661672656376" lon="9.317696888729023"><ele>241.0</ele><time>2026-04-07T17:06:15Z</time></trkpt><trkpt lat="45.81866024924272" lon="9.317853060430556"><ele>241.00000000000003</ele><time>2026-04-07T17:06:16Z</time></trkpt><trkpt lat="45.818669815152546" lon="9.317975184067702"><ele>241.00000000000003</ele><time>2026-04-07T17:06:17Z</time></trkpt><trkpt lat="45.8187045378617" lon="9.31805551374272"><ele>241.0</ele><time>2026-04-07T17:06:18Z</time></trkpt><trkpt lat="45.81886577210548" lon="9.318117326467226"><ele>241.0</ele><time>2026-04-07T17:06:20Z</time></trkpt><trkpt lat="45.81897130820821" lon="9.31810309760347"><ele>240.99999999999997</ele><time>2026-04-07T17:06:21Z</time></trkpt><trkpt lat="45.81908145450195" lon="9.318059749480987"><ele>241.0</ele><time>2026-04-07T17:06:22Z</time></trkpt><trkpt lat="45.819186573127624" lon="9.318012295793093"><ele>241.0</ele><time>2026-04-07T17:06:23Z</time></trkpt><trkpt lat="45.81927050516668" lon="9.317977286155966"><ele>241.0</ele><time>2026-04-07T17:06:24Z</time></trkpt><trkpt lat="45.81933107256809" lon="9.317947412914064"><ele>240.99999999999997</ele><time>2026-04-07T17:06:25Z</time></trkpt><trkpt lat="45.819388685659476" lon="9.31790887369797"><ele>241.0</ele><time>2026-04-07T17:06:26Z</time></trkpt><trkpt lat="45.81946545752598" lon="9.317870826953254"><ele>241.0</ele><time>2026-04-07T17:06:28Z</time></trkpt><trkpt lat="45.81952641848969" lon="9.318021803568543"><ele>241.0</ele><time>2026-04-07T17:06:32Z</time></trkpt><trkpt lat="45.819541339375974" lon="9.318150661112197"><ele>241.0</ele><time>2026-04-07T17:06:33Z</time></trkpt><trkpt lat="45.81954715781575" lon="9.318319325381536"><ele>241.0</ele><time>2026-04-07T17:06:34Z</time></trkpt><trkpt lat="45.81955738357532" lon="9.318504459072567"><ele>241.0</ele><time>2026-04-07T17:06:34.999Z</time></trkpt><trkpt lat="45.81957688793389" lon="9.318730535524473"><ele>241.0</ele><time>2026-04-07T17:06:35.999Z</time></trkpt><trkpt lat="45.819591320140034" lon="9.318979186515854"><ele>241.0</ele><time>2026-04-07T17:06:36.999Z</time></trkpt><trkpt lat="45.819612909704624" lon="9.319247707810087"><ele>239.33333333333331</ele><time>2026-04-07T17:06:37.999Z</time></trkpt><trkpt lat="45.819634670123655" lon="9.31954273060722"><ele>237.66666666666669</ele><time>2026-04-07T17:06:38.999Z</time></trkpt><trkpt lat="45.819664092600156" lon="9.319858486835074"><ele>236.0</ele><time>2026-04-07T17:06:39.999Z</time></trkpt><trkpt lat="45.819688999638565" lon="9.320170829119839"><ele>234.66666666666669</ele><time>2026-04-07T17:06:40.999Z</time></trkpt><trkpt lat="45.81970827759017" lon="9.320487301715959"><ele>233.33333333333331</ele><time>2026-04-07T17:06:41.999Z</time></trkpt><trkpt lat="45.819728791289045" lon="9.320805213327418"><ele>232.0</ele><time>2026-04-07T17:06:42.999Z</time></trkpt><trkpt lat="45.81974953709868" lon="9.32110610188618"><ele>232.0</ele><time>2026-04-07T17:06:43.999Z</time></trkpt><trkpt lat="45.81977151160736" lon="9.321378525603436"><ele>232.0</ele><time>2026-04-07T17:06:44.999Z</time></trkpt><trkpt lat="45.81979166088942" lon="9.321640508945155"><ele>232.0</ele><time>2026-04-07T17:06:45.999Z</time></trkpt><trkpt lat="45.81981181616013" lon="9.321899592801863"><ele>232.0</ele><time>2026-04-07T17:06:46.999Z</time></trkpt><trkpt lat="45.81982891547352" lon="9.322153312882614"><ele>232.0</ele><time>2026-04-07T17:06:47.999Z</time></trkpt><trkpt lat="45.81984337499526" lon="9.322402129411003"><ele>232.0</ele><time>2026-04-07T17:06:48.999Z</time></trkpt><trkpt lat="45.81985783947517" lon="9.322645484940008"><ele>232.0</ele><time>2026-04-07T17:06:49.999Z</time></trkpt><trkpt lat="45.81987649694844" lon="9.32288145869521"><ele>232.0</ele><time>2026-04-07T17:06:50.999Z</time></trkpt><trkpt lat="45.81990708120542" lon="9.323091735962546"><ele>232.0</ele><time>2026-04-07T17:06:51.999Z</time></trkpt><trkpt lat="45.8199529146201" lon="9.323308369234411"><ele>231.0</ele><time>2026-04-07T17:06:52.999Z</time></trkpt><trkpt lat="45.820020192025325" lon="9.323516930207472"><ele>230.0</ele><time>2026-04-07T17:06:53.999Z</time></trkpt><trkpt lat="45.820104796714745" lon="9.323714299113831"><ele>229.0</ele><time>2026-04-07T17:06:54.999Z</time></trkpt><trkpt lat="45.82020641323533" lon="9.323901406224092"><ele>228.5</ele><time>2026-04-07T17:06:55.999Z</time></trkpt><trkpt lat="45.820304484185144" lon="9.324051182228134"><ele>228.0</ele><time>2026-04-07T17:06:56.999Z</time></trkpt><trkpt lat="45.82036575876862" lon="9.324172714130864"><ele>227.5</ele><time>2026-04-07T17:06:57.999Z</time></trkpt><trkpt lat="45.820464656481576" lon="9.324280495561451"><ele>227.0</ele><time>2026-04-07T17:06:58.999Z</time></trkpt><trkpt lat="45.820673286668445" lon="9.324420964319113"><ele>227.0</ele><time>2026-04-07T17:06:59.999Z</time></trkpt><trkpt lat="45.82083243882627" lon="9.324495645770407"><ele>227.0</ele><time>2026-04-07T17:07:00.999Z</time></trkpt><trkpt lat="45.82099126905971" lon="9.324561501156781"><ele>227.0</ele><time>2026-04-07T17:07:01.999Z</time></trkpt><trkpt lat="45.82116266051423" lon="9.32460937099595"><ele>226.33333333333334</ele><time>2026-04-07T17:07:02.999Z</time></trkpt><trkpt lat="45.82132903242117" lon="9.324627929958988"><ele>225.66666666666669</ele><time>2026-04-07T17:07:03.999Z</time></trkpt><trkpt lat="45.82149576200547" lon="9.324639483100013"><ele>225.0</ele><time>2026-04-07T17:07:04.999Z</time></trkpt><trkpt lat="45.82165730609138" lon="9.324663875011177"><ele>225.0</ele><time>2026-04-07T17:07:05.999Z</time></trkpt><trkpt lat="45.821823949680535" lon="9.324701505200213"><ele>225.0</ele><time>2026-04-07T17:07:06.999Z</time></trkpt><trkpt lat="45.82199210210307" lon="9.324756967655976"><ele>225.0</ele><time>2026-04-07T17:07:07.999Z</time></trkpt><trkpt lat="45.822159723599256" lon="9.324822385164023"><ele>224.66666666666669</ele><time>2026-04-07T17:07:08.999Z</time></trkpt><trkpt lat="45.82232403139898" lon="9.324903132331384"><ele>224.33333333333334</ele><time>2026-04-07T17:07:09.999Z</time></trkpt><trkpt lat="45.82248346057616" lon="9.324999674395103"><ele>224.0</ele><time>2026-04-07T17:07:10.999Z</time></trkpt><trkpt lat="45.822642206200854" lon="9.325112821119102"><ele>224.66666666666669</ele><time>2026-04-07T17:07:11.999Z</time></trkpt><trkpt lat="45.822785314207856" lon="9.32523899064355"><ele>225.33333333333331</ele><time>2026-04-07T17:07:12.999Z</time></trkpt><trkpt lat="45.82292532690292" lon="9.325372797426864"><ele>226.0</ele><time>2026-04-07T17:07:13.999Z</time></trkpt><trkpt lat="45.82305300926569" lon="9.325507411208275"><ele>226.0</ele><time>2026-04-07T17:07:14.999Z</time></trkpt><trkpt lat="45.82319893166672" lon="9.32566386705741"><ele>226.0</ele><time>2026-04-07T17:07:15.999Z</time></trkpt><trkpt lat="45.82328969055725" lon="9.325771850050977"><ele>226.0</ele><time>2026-04-07T17:07:16.999Z</time></trkpt><trkpt lat="45.82339837938522" lon="9.325943198392606"><ele>230.25</ele><time>2026-04-07T17:07:17.999Z</time></trkpt><trkpt lat="45.82349983612487" lon="9.326116515725959"><ele>234.5</ele><time>2026-04-07T17:07:18.999Z</time></trkpt><trkpt lat="45.82358883066677" lon="9.326286403865927"><ele>238.75</ele><time>2026-04-07T17:07:19.999Z</time></trkpt><trkpt lat="45.823664685524776" lon="9.326460439373408"><ele>243.0</ele><time>2026-04-07T17:07:20.999Z</time></trkpt><trkpt lat="45.8237344418777" lon="9.326649803644411"><ele>243.66666666666669</ele><time>2026-04-07T17:07:21.999Z</time></trkpt><trkpt lat="45.823794548201526" lon="9.326845162239842"><ele>244.33333333333334</ele><time>2026-04-07T17:07:22.999Z</time></trkpt><trkpt lat="45.823858220552616" lon="9.32704706128029"><ele>245.0</ele><time>2026-04-07T17:07:23.999Z</time></trkpt><trkpt lat="45.82392656415452" lon="9.32727871053332"><ele>243.33333333333334</ele><time>2026-04-07T17:07:24.999Z</time></trkpt><trkpt lat="45.82400582379438" lon="9.327533095811754"><ele>241.66666666666669</ele><time>2026-04-07T17:07:26Z</time></trkpt><trkpt lat="45.82407259429233" lon="9.327809678037372"><ele>240.0</ele><time>2026-04-07T17:07:27Z</time></trkpt><trkpt lat="45.82411962972572" lon="9.328123376805163"><ele>239.5</ele><time>2026-04-07T17:07:28Z</time></trkpt><trkpt lat="45.82415109420733" lon="9.328449645042758"><ele>239.0</ele><time>2026-04-07T17:07:29Z</time></trkpt><trkpt lat="45.82416700916392" lon="9.32879729173547"><ele>237.5</ele><time>2026-04-07T17:07:30Z</time></trkpt><trkpt lat="45.82417583247687" lon="9.329150904974354"><ele>236.0</ele><time>2026-04-07T17:07:31Z</time></trkpt><trkpt lat="45.8242001832881" lon="9.329512599977361"><ele>234.0</ele><time>2026-04-07T17:07:32Z</time></trkpt><trkpt lat="45.82422894449438" lon="9.329865643067894"><ele>232.0</ele><time>2026-04-07T17:07:33Z</time></trkpt><trkpt lat="45.82425522499855" lon="9.330213688279049"><ele>230.5</ele><time>2026-04-07T17:07:34Z</time></trkpt><trkpt lat="45.82428504203835" lon="9.330565312402035"><ele>229.0</ele><time>2026-04-07T17:07:35Z</time></trkpt><trkpt lat="45.82431127865352" lon="9.330912177472324"><ele>241.5</ele><time>2026-04-07T17:07:36Z</time></trkpt><trkpt lat="45.82433884865345" lon="9.331260904297029"><ele>254.0</ele><time>2026-04-07T17:07:37Z</time></trkpt><trkpt lat="45.82436419838177" lon="9.33160503413519"><ele>254.0</ele><time>2026-04-07T17:07:38Z</time></trkpt><trkpt lat="45.82438347060826" lon="9.331961693180576"><ele>254.0</ele><time>2026-04-07T17:07:39Z</time></trkpt><trkpt lat="45.824410389933234" lon="9.332301672742549"><ele>252.5</ele><time>2026-04-07T17:07:40Z</time></trkpt><trkpt lat="45.82443529880185" lon="9.332646239171055"><ele>251.0</ele><time>2026-04-07T17:07:41Z</time></trkpt><trkpt lat="45.82445818619337" lon="9.332986849764637"><ele>249.5</ele><time>2026-04-07T17:07:42Z</time></trkpt><trkpt lat="45.82447543669476" lon="9.33333277428105"><ele>248.0</ele><time>2026-04-07T17:07:43Z</time></trkpt><trkpt lat="45.82448402057628" lon="9.333676156593388"><ele>247.5</ele><time>2026-04-07T17:07:44Z</time></trkpt><trkpt lat="45.82448636644892" lon="9.334022570387186"><ele>247.0</ele><time>2026-04-07T17:07:45Z</time></trkpt><trkpt lat="45.82448902073912" lon="9.334368220021567"><ele>247.0</ele><time>2026-04-07T17:07:46Z</time></trkpt><trkpt lat="45.82449370105707" lon="9.334718506418035"><ele>247.0</ele><time>2026-04-07T17:07:47Z</time></trkpt><trkpt lat="45.824495018612744" lon="9.335062112743374"><ele>247.0</ele><time>2026-04-07T17:07:48Z</time></trkpt><trkpt lat="45.82449447062868" lon="9.335406403853709"><ele>247.0</ele><time>2026-04-07T17:07:49Z</time></trkpt><trkpt lat="45.82449458021453" lon="9.335752776608562"><ele>247.0</ele><time>2026-04-07T17:07:50Z</time></trkpt><trkpt lat="45.82449904776654" lon="9.336097253548457"><ele>247.0</ele><time>2026-04-07T17:07:51Z</time></trkpt><trkpt lat="45.82451048148486" lon="9.336446261691446"><ele>245.5</ele><time>2026-04-07T17:07:52Z</time></trkpt><trkpt lat="45.82452393635082" lon="9.336795085416165"><ele>244.0</ele><time>2026-04-07T17:07:53Z</time></trkpt><trkpt lat="45.82454167765822" lon="9.337136804899359"><ele>242.5</ele><time>2026-04-07T17:07:54Z</time></trkpt><trkpt lat="45.824556919898434" lon="9.337470979245195"><ele>241.0</ele><time>2026-04-07T17:07:55Z</time></trkpt><trkpt lat="45.824573959684514" lon="9.33780398066446"><ele>239.5</ele><time>2026-04-07T17:07:56Z</time></trkpt><trkpt lat="45.82459181664569" lon="9.338132873924327"><ele>238.0</ele><time>2026-04-07T17:07:57Z</time></trkpt><trkpt lat="45.82460982875322" lon="9.338459304108504"><ele>238.0</ele><time>2026-04-07T17:07:58Z</time></trkpt><trkpt lat="45.82462785344932" lon="9.338785981854468"><ele>238.0</ele><time>2026-04-07T17:07:59Z</time></trkpt><trkpt lat="45.82464073409047" lon="9.33910961417849"><ele>237.33333333333331</ele><time>2026-04-07T17:08:00Z</time></trkpt><trkpt lat="45.82463757612968" lon="9.339414621264254"><ele>236.66666666666669</ele><time>2026-04-07T17:08:01Z</time></trkpt><trkpt lat="45.82462010786668" lon="9.339730287171369"><ele>236.0</ele><time>2026-04-07T17:08:02Z</time></trkpt><trkpt lat="45.82460817531072" lon="9.340075179440708"><ele>237.0</ele><time>2026-04-07T17:08:03Z</time></trkpt><trkpt lat="45.824597328837285" lon="9.340437928893472"><ele>238.0</ele><time>2026-04-07T17:08:04Z</time></trkpt><trkpt lat="45.82457921588772" lon="9.340816665170914"><ele>238.0</ele><time>2026-04-07T17:08:05Z</time></trkpt><trkpt lat="45.82455306852903" lon="9.341188307842268"><ele>238.0</ele><time>2026-04-07T17:08:06Z</time></trkpt><trkpt lat="45.824524553475655" lon="9.341554743339625"><ele>240.5</ele><time>2026-04-07T17:08:07Z</time></trkpt><trkpt lat="45.82449889522586" lon="9.341924865312956"><ele>243.0</ele><time>2026-04-07T17:08:08Z</time></trkpt><trkpt lat="45.82447477313574" lon="9.342295871340422"><ele>243.0</ele><time>2026-04-07T17:08:09Z</time></trkpt><trkpt lat="45.82445175743241" lon="9.342660850606714"><ele>243.0</ele><time>2026-04-07T17:08:10Z</time></trkpt><trkpt lat="45.82442924185325" lon="9.34303060815748"><ele>239.5</ele><time>2026-04-07T17:08:11Z</time></trkpt><trkpt lat="45.824404917933116" lon="9.34339654703287"><ele>236.0</ele><time>2026-04-07T17:08:12Z</time></trkpt><trkpt lat="45.82438040769049" lon="9.34376249539894"><ele>232.5</ele><time>2026-04-07T17:08:13Z</time></trkpt><trkpt lat="45.8243550587753" lon="9.344117372552502"><ele>229.0</ele><time>2026-04-07T17:08:14Z</time></trkpt><trkpt lat="45.82432658999182" lon="9.344472480065718"><ele>226.5</ele><time>2026-04-07T17:08:15Z</time></trkpt><trkpt lat="45.82430170446106" lon="9.344852628554811"><ele>224.0</ele><time>2026-04-07T17:08:16Z</time></trkpt><trkpt lat="45.82427677427747" lon="9.345208602861291"><ele>224.5</ele><time>2026-04-07T17:08:17Z</time></trkpt><trkpt lat="45.82425115704659" lon="9.34556681688634"><ele>225.0</ele><time>2026-04-07T17:08:18Z</time></trkpt><trkpt lat="45.82423406682163" lon="9.34592881566333"><ele>225.0</ele><time>2026-04-07T17:08:19Z</time></trkpt><trkpt lat="45.82423315843324" lon="9.346286135122892"><ele>225.0</ele><time>2026-04-07T17:08:20Z</time></trkpt><trkpt lat="45.82424587750861" lon="9.346640783464334"><ele>225.5</ele><time>2026-04-07T17:08:21Z</time></trkpt><trkpt lat="45.82426950215738" lon="9.346994395796013"><ele>226.0</ele><time>2026-04-07T17:08:22Z</time></trkpt><trkpt lat="45.82431131204712" lon="9.347338816476114"><ele>228.5</ele><time>2026-04-07T17:08:23Z</time></trkpt><trkpt lat="45.824374485626834" lon="9.347680478781328"><ele>231.0</ele><time>2026-04-07T17:08:24Z</time></trkpt><trkpt lat="45.82446033962454" lon="9.348012162922602"><ele>229.0</ele><time>2026-04-07T17:08:25Z</time></trkpt><trkpt lat="45.8245759076093" lon="9.348346693174204"><ele>227.0</ele><time>2026-04-07T17:08:26Z</time></trkpt><trkpt lat="45.82470882453883" lon="9.348648139103215"><ele>229.5</ele><time>2026-04-07T17:08:27Z</time></trkpt><trkpt lat="45.82485663701851" lon="9.348936843109303"><ele>232.0</ele><time>2026-04-07T17:08:28Z</time></trkpt><trkpt lat="45.82502062866371" lon="9.349208983133035"><ele>229.0</ele><time>2026-04-07T17:08:29Z</time></trkpt><trkpt lat="45.82521236487472" lon="9.349460285820731"><ele>226.0</ele><time>2026-04-07T17:08:30Z</time></trkpt><trkpt lat="45.825418643081065" lon="9.349681791835726"><ele>229.5</ele><time>2026-04-07T17:08:31Z</time></trkpt><trkpt lat="45.8256325555189" lon="9.349896347562995"><ele>233.0</ele><time>2026-04-07T17:08:32Z</time></trkpt><trkpt lat="45.82585274425513" lon="9.350102861123046"><ele>231.5</ele><time>2026-04-07T17:08:33Z</time></trkpt><trkpt lat="45.82608338318546" lon="9.350303032188323"><ele>230.0</ele><time>2026-04-07T17:08:34Z</time></trkpt><trkpt lat="45.82632004457091" lon="9.350496236379119"><ele>231.5</ele><time>2026-04-07T17:08:35Z</time></trkpt><trkpt lat="45.8265570171442" lon="9.350688566430296"><ele>233.0</ele><time>2026-04-07T17:08:36Z</time></trkpt><trkpt lat="45.8267902167228" lon="9.350884592981643"><ele>233.0</ele><time>2026-04-07T17:08:37Z</time></trkpt><trkpt lat="45.827028242531455" lon="9.351086927168373"><ele>233.0</ele><time>2026-04-07T17:08:38Z</time></trkpt><trkpt lat="45.82726365363016" lon="9.351277638786668"><ele>233.0</ele><time>2026-04-07T17:08:39Z</time></trkpt><trkpt lat="45.827498725974856" lon="9.351472566245262"><ele>233.0</ele><time>2026-04-07T17:08:40Z</time></trkpt><trkpt lat="45.82773158397923" lon="9.351675776446609"><ele>231.5</ele><time>2026-04-07T17:08:40.999Z</time></trkpt><trkpt lat="45.827961273768715" lon="9.35188848980638"><ele>230.0</ele><time>2026-04-07T17:08:41.999Z</time></trkpt><trkpt lat="45.82818372737906" lon="9.352122716683517"><ele>231.5</ele><time>2026-04-07T17:08:42.999Z</time></trkpt><trkpt lat="45.82839927357304" lon="9.352369659654176"><ele>233.0</ele><time>2026-04-07T17:08:43.999Z</time></trkpt><trkpt lat="45.82860603123111" lon="9.352633944809625"><ele>233.5</ele><time>2026-04-07T17:08:44.999Z</time></trkpt><trkpt lat="45.828804175149" lon="9.352912908965816"><ele>234.0</ele><time>2026-04-07T17:08:45.999Z</time></trkpt><trkpt lat="45.82898834363277" lon="9.35320923361421"><ele>232.5</ele><time>2026-04-07T17:08:46.999Z</time></trkpt><trkpt lat="45.82916194027248" lon="9.353520093504537"><ele>231.0</ele><time>2026-04-07T17:08:47.999Z</time></trkpt><trkpt lat="45.829324523257924" lon="9.353841869827896"><ele>237.5</ele><time>2026-04-07T17:08:48.999Z</time></trkpt><trkpt lat="45.82947695570926" lon="9.354173863069953"><ele>244.0</ele><time>2026-04-07T17:08:49.999Z</time></trkpt><trkpt lat="45.82961712791873" lon="9.354512238509594"><ele>250.0</ele><time>2026-04-07T17:08:50.999Z</time></trkpt><trkpt lat="45.82974395985486" lon="9.354863668630877"><ele>256.0</ele><time>2026-04-07T17:08:51.999Z</time></trkpt><trkpt lat="45.82986451236611" lon="9.35521958343492"><ele>261.5</ele><time>2026-04-07T17:08:52.999Z</time></trkpt><trkpt lat="45.82998493282961" lon="9.355581235354933"><ele>267.0</ele><time>2026-04-07T17:08:53.999Z</time></trkpt><trkpt lat="45.83010962135984" lon="9.355939530760908"><ele>271.0</ele><time>2026-04-07T17:08:54.999Z</time></trkpt><trkpt lat="45.83023477591292" lon="9.356296615604379"><ele>275.0</ele><time>2026-04-07T17:08:55.999Z</time></trkpt><trkpt lat="45.83035821334173" lon="9.356656078068106"><ele>281.0</ele><time>2026-04-07T17:08:57.013Z</time></trkpt><trkpt lat="45.83048011972787" lon="9.357008029638928"><ele>287.0</ele><time>2026-04-07T17:08:58.013Z</time></trkpt><trkpt lat="45.830595293223155" lon="9.357371256728575"><ele>295.0</ele><time>2026-04-07T17:08:59.012Z</time></trkpt><trkpt lat="45.83070549519545" lon="9.357748744575892"><ele>303.0</ele><time>2026-04-07T17:09:00.013Z</time></trkpt><trkpt lat="45.83147566497348" lon="9.360422971018975"><ele>434.0</ele><time>2026-04-07T17:09:03.778Z</time></trkpt><trkpt lat="45.83180373887589" lon="9.361479366089132"><ele>498.0</ele><time>2026-04-07T17:09:04.775Z</time></trkpt><trkpt lat="45.83213425457884" lon="9.362539429282805"><ele>547.0</ele><time>2026-04-07T17:09:05.778Z</time></trkpt><trkpt lat="45.832466166068066" lon="9.36359891254626"><ele>554.0</ele><time>2026-04-07T17:09:06.78Z</time></trkpt><trkpt lat="45.832796573751104" lon="9.364650848825276"><ele>587.0</ele><time>2026-04-07T17:09:07.775Z</time></trkpt><trkpt lat="45.83312903054473" lon="9.365709610526057"><ele>606.0</ele><time>2026-04-07T17:09:08.777Z</time></trkpt><trkpt lat="45.83346143928622" lon="9.36676888704248"><ele>578.0</ele><time>2026-04-07T17:09:09.78Z</time></trkpt><trkpt lat="45.83379134545417" lon="9.367821179878728"><ele>551.0</ele><time>2026-04-07T17:09:10.775Z</time></trkpt><trkpt lat="45.8341226620952" lon="9.368883413780265"><ele>512.0</ele><time>2026-04-07T17:09:11.78Z</time></trkpt><trkpt lat="45.834451685755454" lon="9.369941682585884"><ele>511.0</ele><time>2026-04-07T17:09:12.779Z</time></trkpt><trkpt lat="45.83478076542882" lon="9.370994987874111"><ele>515.0</ele><time>2026-04-07T17:09:13.775Z</time></trkpt><trkpt lat="45.835110882183265" lon="9.372055204977334"><ele>528.0</ele><time>2026-04-07T17:09:14.777Z</time></trkpt><trkpt lat="45.8354426780943" lon="9.373110851424904"><ele>546.0</ele><time>2026-04-07T17:09:15.777Z</time></trkpt><trkpt lat="45.83577995472814" lon="9.374168039169135"><ele>590.0</ele><time>2026-04-07T17:09:16.78Z</time></trkpt><trkpt lat="45.83611651082915" lon="9.375221724779061"><ele>625.0</ele><time>2026-04-07T17:09:17.78Z</time></trkpt><trkpt lat="45.83645263475913" lon="9.376275438258798"><ele>701.0</ele><time>2026-04-07T17:09:18.78Z</time></trkpt><trkpt lat="45.83677498599168" lon="9.377338204985971"><ele>717.0</ele><time>2026-04-07T17:09:19.78Z</time></trkpt><trkpt lat="45.837105205893025" lon="9.378395876429508"><ele>748.0</ele><time>2026-04-07T17:09:20.78Z</time></trkpt><trkpt lat="45.83743397381034" lon="9.379454512486632"><ele>687.0</ele><time>2026-04-07T17:09:21.78Z</time></trkpt><trkpt lat="45.83775856319985" lon="9.380510176217964"><ele>601.0</ele><time>2026-04-07T17:09:22.775Z</time></trkpt><trkpt lat="45.838057309902474" lon="9.381592268033241"><ele>553.0</ele><time>2026-04-07T17:09:23.78Z</time></trkpt><trkpt lat="45.83830988798704" lon="9.382692076716062"><ele>510.0</ele><time>2026-04-07T17:09:24.779Z</time></trkpt><trkpt lat="45.83851611270691" lon="9.383807571445013"><ele>433.0</ele><time>2026-04-07T17:09:25.775Z</time></trkpt><trkpt lat="45.83867774849539" lon="9.38494494736729"><ele>405.0</ele><time>2026-04-07T17:09:26.777Z</time></trkpt><trkpt lat="45.83879119384996" lon="9.386094268218045"><ele>357.0</ele><time>2026-04-07T17:09:27.78Z</time></trkpt><trkpt lat="45.83885641675096" lon="9.387248821974291"><ele>337.0</ele><time>2026-04-07T17:09:28.78Z</time></trkpt><trkpt lat="45.83887035818484" lon="9.388406998035295"><ele>323.0</ele><time>2026-04-07T17:09:29.78Z</time></trkpt><trkpt lat="45.838835336303944" lon="9.3895640948605"><ele>312.0</ele><time>2026-04-07T17:09:30.78Z</time></trkpt><trkpt lat="45.83875398922681" lon="9.390713877212091"><ele>284.0</ele><time>2026-04-07T17:09:31.777Z</time></trkpt><trkpt lat="45.83864494150185" lon="9.391864525254663"><ele>215.0</ele><time>2026-04-07T17:09:32.78Z</time></trkpt><trkpt lat="45.83853568167594" lon="9.393012446825352"><ele>215.0</ele><time>2026-04-07T17:09:33.78Z</time></trkpt><trkpt lat="45.83844640286535" lon="9.394160889993902"><ele>208.0</ele><time>2026-04-07T17:09:34.777Z</time></trkpt><trkpt lat="45.83836910319127" lon="9.395319521435905"><ele>206.0</ele><time>2026-04-07T17:10:41.998Z</time></trkpt><trkpt lat="45.83837205261579" lon="9.395663417435854"><ele>204.0</ele><time>2026-04-07T17:10:42.998Z</time></trkpt><trkpt lat="45.83845371063834" lon="9.396036799382454"><ele>204.0</ele><time>2026-04-07T17:10:43.998Z</time></trkpt><trkpt lat="45.83845724447587" lon="9.39636497980915"><ele>204.0</ele><time>2026-04-07T17:10:44.998Z</time></trkpt><trkpt lat="45.838456658946775" lon="9.396671856953354"><ele>204.0</ele><time>2026-04-07T17:10:45.998Z</time></trkpt><trkpt lat="45.83847714610632" lon="9.396975451045654"><ele>202.66666666666669</ele><time>2026-04-07T17:10:46.998Z</time></trkpt><trkpt lat="45.83850836163743" lon="9.397266222358605"><ele>201.33333333333334</ele><time>2026-04-07T17:10:48Z</time></trkpt><trkpt lat="45.838549812776215" lon="9.397533407197747"><ele>200.0</ele><time>2026-04-07T17:10:49Z</time></trkpt><trkpt lat="45.838593492928645" lon="9.397822379756407"><ele>199.33333333333334</ele><time>2026-04-07T17:10:50Z</time></trkpt><trkpt lat="45.838634998359964" lon="9.398119288431742"><ele>198.66666666666669</ele><time>2026-04-07T17:10:51Z</time></trkpt><trkpt lat="45.838673733170815" lon="9.398400904472316"><ele>198.0</ele><time>2026-04-07T17:10:52Z</time></trkpt><trkpt lat="45.83871127089894" lon="9.398696318558354"><ele>198.0</ele><time>2026-04-07T17:10:53Z</time></trkpt><trkpt lat="45.83874948166565" lon="9.399009312930634"><ele>198.0</ele><time>2026-04-07T17:10:54Z</time></trkpt><trkpt lat="45.838792246116014" lon="9.399322787651622"><ele>198.0</ele><time>2026-04-07T17:10:55Z</time></trkpt><trkpt lat="45.83883087482248" lon="9.399623331068574"><ele>198.0</ele><time>2026-04-07T17:10:56Z</time></trkpt><trkpt lat="45.838863580395355" lon="9.399907538653153"><ele>198.0</ele><time>2026-04-07T17:10:57Z</time></trkpt><trkpt lat="45.83889373404025" lon="9.400172354292804"><ele>198.0</ele><time>2026-04-07T17:10:58Z</time></trkpt><trkpt lat="45.83891576182808" lon="9.400431281142739"><ele>198.33333333333331</ele><time>2026-04-07T17:10:59Z</time></trkpt><trkpt lat="45.83893586222863" lon="9.40069126927323"><ele>198.66666666666666</ele><time>2026-04-07T17:11:00Z</time></trkpt><trkpt lat="45.83895782625425" lon="9.400924291927103"><ele>199.0</ele><time>2026-04-07T17:11:01Z</time></trkpt><trkpt lat="45.83898963577217" lon="9.401156423089777"><ele>199.66666666666666</ele><time>2026-04-07T17:11:02Z</time></trkpt><trkpt lat="45.83901710556094" lon="9.401378322261037"><ele>200.33333333333331</ele><time>2026-04-07T17:11:03Z</time></trkpt><trkpt lat="45.83903859313978" lon="9.40159154966726"><ele>201.0</ele><time>2026-04-07T17:11:04Z</time></trkpt><trkpt lat="45.83906133600846" lon="9.401806007565916"><ele>201.0</ele><time>2026-04-07T17:11:05Z</time></trkpt><trkpt lat="45.839079304244514" lon="9.402015505527626"><ele>201.0</ele><time>2026-04-07T17:11:06Z</time></trkpt><trkpt lat="45.83908800239779" lon="9.402215827332196"><ele>201.0</ele><time>2026-04-07T17:11:07Z</time></trkpt><trkpt lat="45.83906941433044" lon="9.4024219069567"><ele>201.0</ele><time>2026-04-07T17:11:08Z</time></trkpt><trkpt lat="45.839016076468795" lon="9.40262097536851"><ele>201.25</ele><time>2026-04-07T17:11:09Z</time></trkpt><trkpt lat="45.838941826592844" lon="9.402797719271724"><ele>201.5</ele><time>2026-04-07T17:11:10Z</time></trkpt><trkpt lat="45.83884714358925" lon="9.402966169958132"><ele>201.75</ele><time>2026-04-07T17:11:11Z</time></trkpt><trkpt lat="45.83876149206952" lon="9.403130654419947"><ele>202.0</ele><time>2026-04-07T17:11:12Z</time></trkpt><trkpt lat="45.83871662174246" lon="9.403316888148654"><ele>202.0</ele><time>2026-04-07T17:11:13Z</time></trkpt><trkpt lat="45.83867621410809" lon="9.403508189836861"><ele>202.0</ele><time>2026-04-07T17:11:14Z</time></trkpt><trkpt lat="45.8387019471265" lon="9.403705546735004"><ele>202.0</ele><time>2026-04-07T17:11:15Z</time></trkpt><trkpt lat="45.838734238841724" lon="9.403892077591781"><ele>202.0</ele><time>2026-04-07T17:11:16Z</time></trkpt><trkpt lat="45.83880098420517" lon="9.404051793944827"><ele>202.0</ele><time>2026-04-07T17:11:17Z</time></trkpt><trkpt lat="45.838865669992984" lon="9.404231948527153"><ele>202.0</ele><time>2026-04-07T17:11:18Z</time></trkpt><trkpt lat="45.83894922840712" lon="9.404380256176376"><ele>202.0</ele><time>2026-04-07T17:11:19Z</time></trkpt><trkpt lat="45.83900864870872" lon="9.404531527292903"><ele>202.0</ele><time>2026-04-07T17:11:20Z</time></trkpt><trkpt lat="45.83907232880767" lon="9.40466658262083"><ele>202.0</ele><time>2026-04-07T17:11:21Z</time></trkpt><trkpt lat="45.839154676531834" lon="9.404769224260557"><ele>202.0</ele><time>2026-04-07T17:11:22Z</time></trkpt><trkpt lat="45.83923813178103" lon="9.40485776161737"><ele>202.0</ele><time>2026-04-07T17:11:23Z</time></trkpt><trkpt lat="45.83930172615774" lon="9.40494101650466"><ele>202.0</ele><time>2026-04-07T17:11:24Z</time></trkpt><trkpt lat="45.83934484963551" lon="9.405048584394754"><ele>202.0</ele><time>2026-04-07T17:11:25Z</time></trkpt><trkpt lat="45.83935314095178" lon="9.405161843963574"><ele>202.0</ele><time>2026-04-07T17:11:26Z</time></trkpt><trkpt lat="45.83936441063858" lon="9.405287868913387"><ele>202.0</ele><time>2026-04-07T17:11:27Z</time></trkpt><trkpt lat="45.83931606747803" lon="9.40543191898987"><ele>202.0</ele><time>2026-04-07T17:11:28Z</time></trkpt><trkpt lat="45.83932534129051" lon="9.405544892313332"><ele>202.0</ele><time>2026-04-07T17:11:29Z</time></trkpt><trkpt lat="45.839357827319866" lon="9.405650423975178"><ele>202.0</ele><time>2026-04-07T17:11:30Z</time></trkpt><trkpt lat="45.83939235809955" lon="9.405798593180643"><ele>202.0</ele><time>2026-04-07T17:11:32Z</time></trkpt><trkpt lat="45.83936254786781" lon="9.405929591466318"><ele>202.0</ele><time>2026-04-07T17:11:34Z</time></trkpt><trkpt lat="45.83930522131705" lon="9.406028643267604"><ele>202.0</ele><time>2026-04-07T17:11:35Z</time></trkpt><trkpt lat="45.83922514369728" lon="9.406105641041224"><ele>202.0</ele><time>2026-04-07T17:11:36Z</time></trkpt><trkpt lat="45.83911128723196" lon="9.406198131360203"><ele>202.0</ele><time>2026-04-07T17:11:37Z</time></trkpt><trkpt lat="45.83897988956731" lon="9.406298332774261"><ele>201.33333333333331</ele><time>2026-04-07T17:11:38Z</time></trkpt><trkpt lat="45.838847034132726" lon="9.40640920566315"><ele>200.66666666666669</ele><time>2026-04-07T17:11:39Z</time></trkpt><trkpt lat="45.83869559028757" lon="9.406532327368911"><ele>200.0</ele><time>2026-04-07T17:11:40Z</time></trkpt><trkpt lat="45.838544639632644" lon="9.40665911616722"><ele>200.25</ele><time>2026-04-07T17:11:41Z</time></trkpt><trkpt lat="45.83840371099253" lon="9.406775103342408"><ele>200.5</ele><time>2026-04-07T17:11:42Z</time></trkpt><trkpt lat="45.838294466910924" lon="9.40689694790136"><ele>200.75</ele><time>2026-04-07T17:11:43Z</time></trkpt><trkpt lat="45.838212868104165" lon="9.407041304757975"><ele>201.0</ele><time>2026-04-07T17:11:44Z</time></trkpt><trkpt lat="45.83813500835132" lon="9.407174390591349"><ele>201.4</ele><time>2026-04-07T17:11:45Z</time></trkpt><trkpt lat="45.83804486046329" lon="9.40725100181741"><ele>201.8</ele><time>2026-04-07T17:11:46Z</time></trkpt><trkpt lat="45.837947591283836" lon="9.407283735194088"><ele>202.20000000000002</ele><time>2026-04-07T17:11:47Z</time></trkpt><trkpt lat="45.83784639148877" lon="9.40729383711265"><ele>202.60000000000002</ele><time>2026-04-07T17:11:48Z</time></trkpt><trkpt lat="45.837751839062484" lon="9.407226612576169"><ele>203.0</ele><time>2026-04-07T17:11:49Z</time></trkpt><trkpt lat="45.837658295872316" lon="9.407206819595586"><ele>202.60000000000002</ele><time>2026-04-07T17:11:49.999Z</time></trkpt><trkpt lat="45.83757799377081" lon="9.407233752690217"><ele>202.20000000000002</ele><time>2026-04-07T17:11:50.999Z</time></trkpt><trkpt lat="45.8375151906077" lon="9.40733358570114"><ele>201.8</ele><time>2026-04-07T17:11:51.999Z</time></trkpt><trkpt lat="45.83746933799767" lon="9.407491377155768"><ele>201.4</ele><time>2026-04-07T17:11:52.999Z</time></trkpt><trkpt lat="45.83740596154678" lon="9.40762641980003"><ele>201.0</ele><time>2026-04-07T17:11:53.999Z</time></trkpt><trkpt lat="45.83730090266894" lon="9.407700126470727"><ele>201.0</ele><time>2026-04-07T17:11:54.999Z</time></trkpt><trkpt lat="45.83716670924241" lon="9.407735830348363"><ele>201.0</ele><time>2026-04-07T17:11:55.999Z</time></trkpt><trkpt lat="45.83701724070324" lon="9.407729010472158"><ele>201.0</ele><time>2026-04-07T17:11:56.999Z</time></trkpt><trkpt lat="45.83686164992325" lon="9.407710589616745"><ele>201.0</ele><time>2026-04-07T17:11:57.999Z</time></trkpt><trkpt lat="45.836702846194214" lon="9.407715340728698"><ele>201.0</ele><time>2026-04-07T17:11:58.999Z</time></trkpt><trkpt lat="45.83654431575438" lon="9.407715141140592"><ele>201.0</ele><time>2026-04-07T17:11:59.999Z</time></trkpt><trkpt lat="45.8363828225137" lon="9.407717144230833"><ele>201.0</ele><time>2026-04-07T17:12:00.999Z</time></trkpt><trkpt lat="45.83621246266118" lon="9.407688291526282"><ele>201.0</ele><time>2026-04-07T17:12:01.999Z</time></trkpt><trkpt lat="45.83604298878476" lon="9.407690186421767"><ele>201.0</ele><time>2026-04-07T17:12:02.999Z</time></trkpt><trkpt lat="45.835871972168434" lon="9.407692473101461"><ele>201.0</ele><time>2026-04-07T17:12:03.999Z</time></trkpt><trkpt lat="45.835707692122405" lon="9.407682658148522"><ele>202.0</ele><time>2026-04-07T17:12:04.999Z</time></trkpt><trkpt lat="45.83553981528934" lon="9.40766652689176"><ele>203.0</ele><time>2026-04-07T17:12:05.999Z</time></trkpt><trkpt lat="45.83535975776556" lon="9.407640551766287"><ele>204.0</ele><time>2026-04-07T17:12:06.999Z</time></trkpt><trkpt lat="45.83519370193151" lon="9.407623184925383"><ele>204.0</ele><time>2026-04-07T17:12:07.999Z</time></trkpt><trkpt lat="45.8350404930566" lon="9.407612254401112"><ele>204.0</ele><time>2026-04-07T17:12:08.999Z</time></trkpt><trkpt lat="45.83488511180013" lon="9.40760398296967"><ele>204.0</ele><time>2026-04-07T17:12:09.999Z</time></trkpt><trkpt lat="45.834740937699394" lon="9.407592299209483"><ele>204.0</ele><time>2026-04-07T17:12:10.999Z</time></trkpt><trkpt lat="45.8346137570721" lon="9.407579296521117"><ele>204.0</ele><time>2026-04-07T17:12:11.999Z</time></trkpt><trkpt lat="45.83450171488319" lon="9.407568851220729"><ele>204.0</ele><time>2026-04-07T17:12:12.999Z</time></trkpt><trkpt lat="45.83439725121195" lon="9.407549950395977"><ele>204.0</ele><time>2026-04-07T17:12:13.999Z</time></trkpt><trkpt lat="45.83430243889569" lon="9.407492638702221"><ele>204.0</ele><time>2026-04-07T17:12:14.999Z</time></trkpt><trkpt lat="45.8342162873622" lon="9.407398352607935"><ele>203.0</ele><time>2026-04-07T17:12:15.999Z</time></trkpt><trkpt lat="45.83415496795559" lon="9.407255069312107"><ele>202.0</ele><time>2026-04-07T17:12:16.999Z</time></trkpt><trkpt lat="45.83404135525357" lon="9.40721028732579"><ele>201.0</ele><time>2026-04-07T17:12:17.999Z</time></trkpt><trkpt lat="45.83391167277444" lon="9.407174951111342"><ele>200.0</ele><time>2026-04-07T17:12:18.999Z</time></trkpt><trkpt lat="45.83378052384668" lon="9.407134680532955"><ele>199.0</ele><time>2026-04-07T17:12:19.999Z</time></trkpt><trkpt lat="45.83366323101588" lon="9.407041231684953"><ele>198.0</ele><time>2026-04-07T17:12:20.999Z</time></trkpt><trkpt lat="45.83353738457816" lon="9.406925232807506"><ele>197.0</ele><time>2026-04-07T17:12:21.999Z</time></trkpt><trkpt lat="45.833390300226135" lon="9.406801247371437"><ele>197.0</ele><time>2026-04-07T17:12:22.999Z</time></trkpt><trkpt lat="45.83323339856101" lon="9.406702982529444"><ele>197.0</ele><time>2026-04-07T17:12:23.999Z</time></trkpt><trkpt lat="45.833068048432324" lon="9.406647233483067"><ele>197.0</ele><time>2026-04-07T17:12:24.999Z</time></trkpt><trkpt lat="45.83289887429269" lon="9.406623355754316"><ele>197.0</ele><time>2026-04-07T17:12:25.999Z</time></trkpt><trkpt lat="45.83272422631762" lon="9.406615061314005"><ele>197.0</ele><time>2026-04-07T17:12:26.999Z</time></trkpt><trkpt lat="45.832570621291325" lon="9.406622692916551"><ele>197.0</ele><time>2026-04-07T17:12:27.999Z</time></trkpt><trkpt lat="45.83241789374646" lon="9.406650008681025"><ele>198.33333333333334</ele><time>2026-04-07T17:12:28.999Z</time></trkpt><trkpt lat="45.832243463557184" lon="9.406699120888788"><ele>199.66666666666669</ele><time>2026-04-07T17:12:29.999Z</time></trkpt><trkpt lat="45.832090149808046" lon="9.406788235112824"><ele>201.0</ele><time>2026-04-07T17:12:30.999Z</time></trkpt><trkpt lat="45.83194329958345" lon="9.406914437120102"><ele>200.33333333333331</ele><time>2026-04-07T17:12:31.999Z</time></trkpt><trkpt lat="45.831793343118534" lon="9.40707371975779"><ele>199.66666666666666</ele><time>2026-04-07T17:12:32.999Z</time></trkpt><trkpt lat="45.83163590433013" lon="9.407239371157173"><ele>199.0</ele><time>2026-04-07T17:12:33.999Z</time></trkpt><trkpt lat="45.831486581091895" lon="9.407426479258955"><ele>200.66666666666666</ele><time>2026-04-07T17:12:34.999Z</time></trkpt><trkpt lat="45.83133776158448" lon="9.407578513334977"><ele>202.33333333333331</ele><time>2026-04-07T17:12:35.999Z</time></trkpt><trkpt lat="45.831215599753406" lon="9.407752314293152"><ele>204.0</ele><time>2026-04-07T17:12:36.999Z</time></trkpt><trkpt lat="45.83107543440395" lon="9.407928153659592"><ele>204.33333333333331</ele><time>2026-04-07T17:12:37.999Z</time></trkpt><trkpt lat="45.830921629528376" lon="9.408120041182215"><ele>204.66666666666666</ele><time>2026-04-07T17:12:38.999Z</time></trkpt><trkpt lat="45.83075507727223" lon="9.40829401140252"><ele>205.0</ele><time>2026-04-07T17:12:39.999Z</time></trkpt><trkpt lat="45.83059271683878" lon="9.408443032207197"><ele>205.0</ele><time>2026-04-07T17:12:40.999Z</time></trkpt><trkpt lat="45.83042512622851" lon="9.408551590138558"><ele>205.0</ele><time>2026-04-07T17:12:41.999Z</time></trkpt><trkpt lat="45.83028965010433" lon="9.408685238466365"><ele>205.0</ele><time>2026-04-07T17:12:42.999Z</time></trkpt><trkpt lat="45.830158466477826" lon="9.408794871611587"><ele>205.0</ele><time>2026-04-07T17:12:43.999Z</time></trkpt><trkpt lat="45.83007058574661" lon="9.408853107969964"><ele>205.0</ele><time>2026-04-07T17:12:44.999Z</time></trkpt><trkpt lat="45.829996437012355" lon="9.408816282426791"><ele>205.0</ele><time>2026-04-07T17:12:46.999Z</time></trkpt><trkpt lat="45.829724045492746" lon="9.408937275786608"><ele>205.0</ele><time>2026-04-07T17:12:47.999Z</time></trkpt><trkpt lat="45.829696875343416" lon="9.408854503721258"><ele>205.0</ele><time>2026-04-07T17:12:48.999Z</time></trkpt><trkpt lat="45.830059736490405" lon="9.408473771112304"><ele>205.0</ele><time>2026-04-07T17:12:49.999Z</time></trkpt><trkpt lat="45.830125871811475" lon="9.408412331138619"><ele>205.0</ele><time>2026-04-07T17:12:50.999Z</time></trkpt><trkpt lat="45.829191607929765" lon="9.409602809111835"><ele>203.66666666666666</ele><time>2026-04-07T17:12:52.999Z</time></trkpt><trkpt lat="45.829034289142285" lon="9.409723789052364"><ele>202.33333333333331</ele><time>2026-04-07T17:12:54Z</time></trkpt><trkpt lat="45.8288682808678" lon="9.409855487618273"><ele>201.0</ele><time>2026-04-07T17:12:55Z</time></trkpt><trkpt lat="45.828703992047394" lon="9.409997918749141"><ele>201.0</ele><time>2026-04-07T17:12:56Z</time></trkpt><trkpt lat="45.82853732738403" lon="9.41014642090043"><ele>201.0</ele><time>2026-04-07T17:12:57Z</time></trkpt><trkpt lat="45.828376121917756" lon="9.410290454165699"><ele>201.0</ele><time>2026-04-07T17:12:58Z</time></trkpt><trkpt lat="45.82820153077211" lon="9.410441411016661"><ele>202.33333333333331</ele><time>2026-04-07T17:12:59Z</time></trkpt><trkpt lat="45.82802315626025" lon="9.41059892042508"><ele>203.66666666666666</ele><time>2026-04-07T17:13:00Z</time></trkpt><trkpt lat="45.82785459830975" lon="9.410737680151657"><ele>205.0</ele><time>2026-04-07T17:13:01Z</time></trkpt><trkpt lat="45.82767931673446" lon="9.410873728359805"><ele>204.0</ele><time>2026-04-07T17:13:02Z</time></trkpt><trkpt lat="45.827506815584" lon="9.411003561757267"><ele>203.0</ele><time>2026-04-07T17:13:03Z</time></trkpt><trkpt lat="45.827335602486144" lon="9.411140548646886"><ele>202.0</ele><time>2026-04-07T17:13:04Z</time></trkpt><trkpt lat="45.82715937552509" lon="9.411278161848221"><ele>202.66666666666666</ele><time>2026-04-07T17:13:05Z</time></trkpt><trkpt lat="45.826989121136435" lon="9.411414505136507"><ele>203.33333333333331</ele><time>2026-04-07T17:13:06Z</time></trkpt><trkpt lat="45.826828151965145" lon="9.411546917220292"><ele>204.0</ele><time>2026-04-07T17:13:07Z</time></trkpt><trkpt lat="45.82666344952558" lon="9.4116775884119"><ele>202.66666666666669</ele><time>2026-04-07T17:13:08Z</time></trkpt><trkpt lat="45.826501784760985" lon="9.411813201206884"><ele>201.33333333333334</ele><time>2026-04-07T17:13:09Z</time></trkpt><trkpt lat="45.82633793642261" lon="9.411941045010021"><ele>200.0</ele><time>2026-04-07T17:13:10Z</time></trkpt><trkpt lat="45.826171424017716" lon="9.412080116099217"><ele>200.0</ele><time>2026-04-07T17:13:11Z</time></trkpt><trkpt lat="45.82600597388971" lon="9.412215121047371"><ele>200.0</ele><time>2026-04-07T17:13:12Z</time></trkpt><trkpt lat="45.8258414226873" lon="9.412343362538609"><ele>200.0</ele><time>2026-04-07T17:13:13Z</time></trkpt><trkpt lat="45.82567575277609" lon="9.412480713936644"><ele>200.0</ele><time>2026-04-07T17:13:14Z</time></trkpt><trkpt lat="45.82551497577646" lon="9.412611912680278"><ele>200.0</ele><time>2026-04-07T17:13:15Z</time></trkpt><trkpt lat="45.82536070802664" lon="9.412739878776753"><ele>200.0</ele><time>2026-04-07T17:13:16Z</time></trkpt><trkpt lat="45.82519737788978" lon="9.412879276559346"><ele>202.33333333333334</ele><time>2026-04-07T17:13:17Z</time></trkpt><trkpt lat="45.82503947792912" lon="9.41301210880348"><ele>204.66666666666669</ele><time>2026-04-07T17:13:18Z</time></trkpt><trkpt lat="45.8248775847583" lon="9.413149466824818"><ele>207.0</ele><time>2026-04-07T17:13:19Z</time></trkpt><trkpt lat="45.82471638953182" lon="9.413285346409092"><ele>207.0</ele><time>2026-04-07T17:13:20Z</time></trkpt><trkpt lat="45.82455189204675" lon="9.413417009865983"><ele>207.0</ele><time>2026-04-07T17:13:21Z</time></trkpt><trkpt lat="45.82438834381191" lon="9.413549778130612"><ele>207.0</ele><time>2026-04-07T17:13:22Z</time></trkpt><trkpt lat="45.82423094420787" lon="9.413680872280489"><ele>206.0</ele><time>2026-04-07T17:13:23Z</time></trkpt><trkpt lat="45.82407026771984" lon="9.413816622948605"><ele>205.0</ele><time>2026-04-07T17:13:24Z</time></trkpt><trkpt lat="45.82391225332355" lon="9.41395664054491"><ele>204.0</ele><time>2026-04-07T17:13:25Z</time></trkpt><trkpt lat="45.823761095992175" lon="9.41408131925157"><ele>204.0</ele><time>2026-04-07T17:13:26Z</time></trkpt><trkpt lat="45.82361974819722" lon="9.414193056806587"><ele>204.0</ele><time>2026-04-07T17:13:27Z</time></trkpt><trkpt lat="45.82349275734918" lon="9.414284992875313"><ele>204.0</ele><time>2026-04-07T17:13:28Z</time></trkpt><trkpt lat="45.82336867637022" lon="9.414416985529602"><ele>203.25</ele><time>2026-04-07T17:13:29Z</time></trkpt><trkpt lat="45.82326253861134" lon="9.414527514145483"><ele>202.5</ele><time>2026-04-07T17:13:30Z</time></trkpt><trkpt lat="45.823161500678815" lon="9.414614826804893"><ele>201.75</ele><time>2026-04-07T17:13:31Z</time></trkpt><trkpt lat="45.823053070526846" lon="9.414699986440437"><ele>201.0</ele><time>2026-04-07T17:13:32Z</time></trkpt><trkpt lat="45.82292845141046" lon="9.414814125480058"><ele>201.0</ele><time>2026-04-07T17:13:33Z</time></trkpt><trkpt lat="45.82280510290872" lon="9.414916579882442"><ele>201.0</ele><time>2026-04-07T17:13:34Z</time></trkpt><trkpt lat="45.822689307925685" lon="9.414988774107577"><ele>201.0</ele><time>2026-04-07T17:13:35Z</time></trkpt><trkpt lat="45.822568750558744" lon="9.415050513854268"><ele>201.0</ele><time>2026-04-07T17:13:36Z</time></trkpt><trkpt lat="45.82244114928955" lon="9.415098472976414"><ele>200.75</ele><time>2026-04-07T17:13:37Z</time></trkpt><trkpt lat="45.82230676554261" lon="9.415148117602323"><ele>200.5</ele><time>2026-04-07T17:13:38Z</time></trkpt><trkpt lat="45.82217436076862" lon="9.415207516496348"><ele>200.25</ele><time>2026-04-07T17:13:39Z</time></trkpt><trkpt lat="45.822049159500466" lon="9.415278272205498"><ele>200.0</ele><time>2026-04-07T17:13:40Z</time></trkpt><trkpt lat="45.82192548472087" lon="9.415360890278551"><ele>199.75</ele><time>2026-04-07T17:13:41Z</time></trkpt><trkpt lat="45.8217976846552" lon="9.415462735423906"><ele>199.5</ele><time>2026-04-07T17:13:42Z</time></trkpt><trkpt lat="45.821675575539274" lon="9.41556802965162"><ele>199.25</ele><time>2026-04-07T17:13:43Z</time></trkpt><trkpt lat="45.821549919596585" lon="9.4156719753194"><ele>199.0</ele><time>2026-04-07T17:13:44Z</time></trkpt><trkpt lat="45.82141924314645" lon="9.415773049858519"><ele>199.5</ele><time>2026-04-07T17:13:45Z</time></trkpt><trkpt lat="45.82128577676561" lon="9.415873134056191"><ele>200.0</ele><time>2026-04-07T17:13:46Z</time></trkpt><trkpt lat="45.821151942213504" lon="9.415976262997164"><ele>200.5</ele><time>2026-04-07T17:13:47Z</time></trkpt><trkpt lat="45.8210242649408" lon="9.416077921641163"><ele>201.0</ele><time>2026-04-07T17:13:48Z</time></trkpt><trkpt lat="45.82089341389499" lon="9.416179151740206"><ele>201.25</ele><time>2026-04-07T17:13:49Z</time></trkpt><trkpt lat="45.820764255448374" lon="9.41627837477936"><ele>201.5</ele><time>2026-04-07T17:13:50Z</time></trkpt><trkpt lat="45.820649023029254" lon="9.41637222551687"><ele>201.75</ele><time>2026-04-07T17:13:51Z</time></trkpt><trkpt lat="45.82053690127869" lon="9.416479549473026"><ele>202.0</ele><time>2026-04-07T17:13:52Z</time></trkpt><trkpt lat="45.82043521785208" lon="9.416592049491744"><ele>202.0</ele><time>2026-04-07T17:13:53Z</time></trkpt><trkpt lat="45.820346957233006" lon="9.4167194509906"><ele>202.0</ele><time>2026-04-07T17:13:54Z</time></trkpt><trkpt lat="45.82026623678236" lon="9.416861814166927"><ele>202.0</ele><time>2026-04-07T17:13:55Z</time></trkpt><trkpt lat="45.82019051198447" lon="9.417021266837466"><ele>202.0</ele><time>2026-04-07T17:13:56Z</time></trkpt><trkpt lat="45.82012304918629" lon="9.417193989652016"><ele>202.0</ele><time>2026-04-07T17:13:57Z</time></trkpt><trkpt lat="45.820048931557864" lon="9.4173548066919"><ele>202.0</ele><time>2026-04-07T17:13:58Z</time></trkpt><trkpt lat="45.819996832509794" lon="9.417528263242849"><ele>202.0</ele><time>2026-04-07T17:13:58.999Z</time></trkpt><trkpt lat="45.819934787829645" lon="9.417693056985497"><ele>202.0</ele><time>2026-04-07T17:13:59.999Z</time></trkpt><trkpt lat="45.819874630484605" lon="9.417857582371733"><ele>202.6</ele><time>2026-04-07T17:14:00.999Z</time></trkpt><trkpt lat="45.81981878118573" lon="9.418017935090479"><ele>203.2</ele><time>2026-04-07T17:14:01.999Z</time></trkpt><trkpt lat="45.81976863983533" lon="9.418152104303399"><ele>203.8</ele><time>2026-04-07T17:14:02.999Z</time></trkpt><trkpt lat="45.81972783466342" lon="9.418272542969028"><ele>204.4</ele><time>2026-04-07T17:14:03.999Z</time></trkpt><trkpt lat="45.819692810634066" lon="9.41837038593647"><ele>205.0</ele><time>2026-04-07T17:14:04.999Z</time></trkpt><trkpt lat="45.819627295133124" lon="9.418518166337073"><ele>204.99999999999997</ele><time>2026-04-07T17:14:06.999Z</time></trkpt><trkpt lat="45.81957636091153" lon="9.418605773389558"><ele>205.0</ele><time>2026-04-07T17:14:08.999Z</time></trkpt><trkpt lat="45.81949080738801" lon="9.418661630412355"><ele>205.0</ele><time>2026-04-07T17:14:11.999Z</time></trkpt><trkpt lat="45.81940871208155" lon="9.41866043078282"><ele>205.0</ele><time>2026-04-07T17:14:12.999Z</time></trkpt><trkpt lat="45.819326018707365" lon="9.418634224326766"><ele>204.99999999999997</ele><time>2026-04-07T17:14:13.999Z</time></trkpt><trkpt lat="45.81923772050143" lon="9.418624397766214"><ele>205.0</ele><time>2026-04-07T17:14:14.999Z</time></trkpt><trkpt lat="45.81913700587599" lon="9.418635721182945"><ele>204.6</ele><time>2026-04-07T17:14:15.999Z</time></trkpt><trkpt lat="45.81906123306622" lon="9.418654522061596"><ele>204.2</ele><time>2026-04-07T17:14:16.999Z</time></trkpt><trkpt lat="45.81898293359689" lon="9.418681734644496"><ele>203.8</ele><time>2026-04-07T17:14:18.999Z</time></trkpt><trkpt lat="45.8188871573071" lon="9.41871343319624"><ele>203.4</ele><time>2026-04-07T17:14:21.999Z</time></trkpt><trkpt lat="45.8187885679469" lon="9.41876206059729"><ele>203.0</ele><time>2026-04-07T17:14:22.999Z</time></trkpt><trkpt lat="45.81868103357941" lon="9.418823055079125"><ele>205.0</ele><time>2026-04-07T17:14:23.999Z</time></trkpt><trkpt lat="45.81857416725134" lon="9.418871551004914"><ele>207.0</ele><time>2026-04-07T17:14:24.999Z</time></trkpt><trkpt lat="45.81845853548566" lon="9.418902758357914"><ele>209.0</ele><time>2026-04-07T17:14:25.999Z</time></trkpt><trkpt lat="45.81833219885485" lon="9.418919590381273"><ele>211.0</ele><time>2026-04-07T17:14:26.999Z</time></trkpt><trkpt lat="45.81818229721252" lon="9.418933960916169"><ele>211.25</ele><time>2026-04-07T17:14:27.999Z</time></trkpt><trkpt lat="45.818036803360506" lon="9.41894468817865"><ele>211.5</ele><time>2026-04-07T17:14:28.999Z</time></trkpt><trkpt lat="45.81791258384709" lon="9.418978891332005"><ele>211.75</ele><time>2026-04-07T17:14:29.999Z</time></trkpt><trkpt lat="45.817808112555056" lon="9.419007845898177"><ele>212.0</ele><time>2026-04-07T17:14:30.999Z</time></trkpt><trkpt lat="45.81771434025778" lon="9.419042887154182"><ele>211.39999999999998</ele><time>2026-04-07T17:14:31.999Z</time></trkpt><trkpt lat="45.817631099594166" lon="9.419083072063712"><ele>210.79999999999998</ele><time>2026-04-07T17:14:32.999Z</time></trkpt><trkpt lat="45.81753351688208" lon="9.419113513833533"><ele>210.2</ele><time>2026-04-07T17:14:33.999Z</time></trkpt><trkpt lat="45.81744161816361" lon="9.419188435015883"><ele>209.6</ele><time>2026-04-07T17:14:34.999Z</time></trkpt><trkpt lat="45.817355733846675" lon="9.419235125592971"><ele>209.0</ele><time>2026-04-07T17:14:35.999Z</time></trkpt><trkpt lat="45.81729431469191" lon="9.419288266099224"><ele>209.0</ele><time>2026-04-07T17:14:36.999Z</time></trkpt><trkpt lat="45.81721087449172" lon="9.419338771484199"><ele>209.0</ele><time>2026-04-07T17:14:37.999Z</time></trkpt><trkpt lat="45.81712324771899" lon="9.4194221539588"><ele>209.0</ele><time>2026-04-07T17:14:38.999Z</time></trkpt><trkpt lat="45.817037983687044" lon="9.41951931956405"><ele>209.0</ele><time>2026-04-07T17:14:39.999Z</time></trkpt><trkpt lat="45.816966007635735" lon="9.419601657365227"><ele>209.0</ele><time>2026-04-07T17:14:40.999Z</time></trkpt><trkpt lat="45.81690196012146" lon="9.419681991082415"><ele>209.50000000000003</ele><time>2026-04-07T17:14:41.999Z</time></trkpt><trkpt lat="45.816850959314664" lon="9.419756376252165"><ele>210.0</ele><time>2026-04-07T17:14:42.999Z</time></trkpt><trkpt lat="45.8167664544664" lon="9.419856580631533"><ele>210.5</ele><time>2026-04-07T17:14:44.999Z</time></trkpt><trkpt lat="45.81670446929869" lon="9.41993072045049"><ele>211.0</ele><time>2026-04-07T17:14:46.999Z</time></trkpt><trkpt lat="45.81662136866101" lon="9.42004403313689"><ele>211.50000000000003</ele><time>2026-04-07T17:14:48.999Z</time></trkpt><trkpt lat="45.816569950929704" lon="9.420109475172112"><ele>212.0</ele><time>2026-04-07T17:14:49.999Z</time></trkpt><trkpt lat="45.81650730223843" lon="9.420196750259457"><ele>212.0</ele><time>2026-04-07T17:14:50.999Z</time></trkpt><trkpt lat="45.81641559624548" lon="9.420299581884251"><ele>212.0</ele><time>2026-04-07T17:14:51.999Z</time></trkpt><trkpt lat="45.81631631303042" lon="9.420423511605929"><ele>212.0</ele><time>2026-04-07T17:14:52.999Z</time></trkpt><trkpt lat="45.81620888027439" lon="9.420558605721943"><ele>212.0</ele><time>2026-04-07T17:14:53.999Z</time></trkpt><trkpt lat="45.81611005097813" lon="9.420682489387113"><ele>211.33333333333334</ele><time>2026-04-07T17:14:54.999Z</time></trkpt><trkpt lat="45.81602949857373" lon="9.420778509972555"><ele>210.66666666666669</ele><time>2026-04-07T17:14:55.999Z</time></trkpt><trkpt lat="45.8159592971381" lon="9.420861721189409"><ele>210.0</ele><time>2026-04-07T17:14:56.999Z</time></trkpt><trkpt lat="45.81590759079901" lon="9.420928918184256"><ele>209.33333333333331</ele><time>2026-04-07T17:14:57.999Z</time></trkpt><trkpt lat="45.81586262841169" lon="9.42099985096428"><ele>208.66666666666666</ele><time>2026-04-07T17:14:58.999Z</time></trkpt><trkpt lat="45.81580616875959" lon="9.421070363433659"><ele>208.0</ele><time>2026-04-07T17:15:00Z</time></trkpt><trkpt lat="45.815724684837306" lon="9.421154248930051"><ele>208.0</ele><time>2026-04-07T17:15:01Z</time></trkpt><trkpt lat="45.81564262517719" lon="9.421241176797203"><ele>208.0</ele><time>2026-04-07T17:15:02Z</time></trkpt><trkpt lat="45.81556248690688" lon="9.421321327235061"><ele>208.0</ele><time>2026-04-07T17:15:03Z</time></trkpt><trkpt lat="45.81547290577418" lon="9.42142028875698"><ele>208.0</ele><time>2026-04-07T17:15:04Z</time></trkpt><trkpt lat="45.81538347869991" lon="9.421507392938441"><ele>208.0</ele><time>2026-04-07T17:15:05Z</time></trkpt><trkpt lat="45.815293202519285" lon="9.421607286166571"><ele>209.0</ele><time>2026-04-07T17:15:06Z</time></trkpt><trkpt lat="45.81519159568761" lon="9.421714424608274"><ele>210.0</ele><time>2026-04-07T17:15:07Z</time></trkpt><trkpt lat="45.8150789508739" lon="9.421812387216262"><ele>211.0</ele><time>2026-04-07T17:15:08Z</time></trkpt><trkpt lat="45.814959272273484" lon="9.421911974707507"><ele>212.0</ele><time>2026-04-07T17:15:09Z</time></trkpt><trkpt lat="45.81486813980237" lon="9.422020342416683"><ele>212.0</ele><time>2026-04-07T17:15:10Z</time></trkpt><trkpt lat="45.81478757262263" lon="9.422107031071615"><ele>212.0</ele><time>2026-04-07T17:15:11Z</time></trkpt><trkpt lat="45.81471416170647" lon="9.422184365345396"><ele>212.0</ele><time>2026-04-07T17:15:12Z</time></trkpt><trkpt lat="45.814654263312626" lon="9.42225966531899"><ele>212.0</ele><time>2026-04-07T17:15:13Z</time></trkpt><trkpt lat="45.81459782089179" lon="9.422374256350858"><ele>212.0</ele><time>2026-04-07T17:15:14Z</time></trkpt><trkpt lat="45.814536070025916" lon="9.422514926169203"><ele>214.25</ele><time>2026-04-07T17:15:15Z</time></trkpt><trkpt lat="45.814467566242755" lon="9.422645539274196"><ele>216.5</ele><time>2026-04-07T17:15:16Z</time></trkpt><trkpt lat="45.81439600465811" lon="9.422796611606136"><ele>218.75</ele><time>2026-04-07T17:15:17Z</time></trkpt><trkpt lat="45.81433376148221" lon="9.422929958204362"><ele>221.0</ele><time>2026-04-07T17:15:18Z</time></trkpt><trkpt lat="45.81427175052537" lon="9.42305444113334"><ele>221.0</ele><time>2026-04-07T17:15:19Z</time></trkpt><trkpt lat="45.81420165223406" lon="9.423168996493136"><ele>221.00000000000003</ele><time>2026-04-07T17:15:20Z</time></trkpt><trkpt lat="45.814141297625376" lon="9.42325180117487"><ele>221.00000000000003</ele><time>2026-04-07T17:15:21Z</time></trkpt><trkpt lat="45.81407774618343" lon="9.42333386205521"><ele>221.0</ele><time>2026-04-07T17:15:22Z</time></trkpt><trkpt lat="45.81398676434401" lon="9.423409889272817"><ele>221.0</ele><time>2026-04-07T17:15:23Z</time></trkpt><trkpt lat="45.813891511659065" lon="9.423484895512338"><ele>221.0</ele><time>2026-04-07T17:15:24Z</time></trkpt><trkpt lat="45.81378589853415" lon="9.42352619642102"><ele>221.00000000000003</ele><time>2026-04-07T17:15:25Z</time></trkpt><trkpt lat="45.813674082801604" lon="9.423569833634504"><ele>221.00000000000003</ele><time>2026-04-07T17:15:26Z</time></trkpt><trkpt lat="45.81356395593433" lon="9.42362268586763"><ele>221.0</ele><time>2026-04-07T17:15:27Z</time></trkpt><trkpt lat="45.81347251810283" lon="9.423668551265656"><ele>221.0</ele><time>2026-04-07T17:15:28Z</time></trkpt><trkpt lat="45.81337310991529" lon="9.42371490625568"><ele>221.60000000000002</ele><time>2026-04-07T17:15:29Z</time></trkpt><trkpt lat="45.813279687807935" lon="9.423745894233404"><ele>222.20000000000002</ele><time>2026-04-07T17:15:30Z</time></trkpt><trkpt lat="45.813182279063575" lon="9.423790018308598"><ele>222.79999999999998</ele><time>2026-04-07T17:15:31Z</time></trkpt><trkpt lat="45.81310263318973" lon="9.423814968495396"><ele>223.39999999999998</ele><time>2026-04-07T17:15:32Z</time></trkpt><trkpt lat="45.813039945554884" lon="9.423836688485968"><ele>224.0</ele><time>2026-04-07T17:15:33Z</time></trkpt><trkpt lat="45.812934560455716" lon="9.423889212179692"><ele>224.00000000000003</ele><time>2026-04-07T17:15:35Z</time></trkpt><trkpt lat="45.8128392344831" lon="9.423936800808013"><ele>224.0</ele><time>2026-04-07T17:15:37Z</time></trkpt><trkpt lat="45.8127682836446" lon="9.423969395234547"><ele>224.0</ele><time>2026-04-07T17:15:38Z</time></trkpt><trkpt lat="45.812684257876796" lon="9.423995438145564"><ele>224.0</ele><time>2026-04-07T17:15:39Z</time></trkpt><trkpt lat="45.81260140680778" lon="9.424029760480646"><ele>224.00000000000003</ele><time>2026-04-07T17:15:40Z</time></trkpt><trkpt lat="45.812522647474644" lon="9.42406608225294"><ele>224.0</ele><time>2026-04-07T17:15:41Z</time></trkpt><trkpt lat="45.81245680083481" lon="9.424085443669384"><ele>223.83333333333334</ele><time>2026-04-07T17:15:42Z</time></trkpt><trkpt lat="45.812350018127525" lon="9.4241247782186"><ele>223.66666666666669</ele><time>2026-04-07T17:15:44Z</time></trkpt><trkpt lat="45.81224417700763" lon="9.424146321431916"><ele>223.5</ele><time>2026-04-07T17:15:46Z</time></trkpt><trkpt lat="45.81217814023395" lon="9.424169277314952"><ele>223.33333333333331</ele><time>2026-04-07T17:15:47Z</time></trkpt><trkpt lat="45.81210453157971" lon="9.424204159863011"><ele>223.16666666666666</ele><time>2026-04-07T17:15:48Z</time></trkpt><trkpt lat="45.81202013882156" lon="9.424222951560928"><ele>223.0</ele><time>2026-04-07T17:15:49Z</time></trkpt><trkpt lat="45.8118744503935" lon="9.424248317267232"><ele>222.5</ele><time>2026-04-07T17:15:51Z</time></trkpt><trkpt lat="45.811774215831484" lon="9.424245908036955"><ele>222.0</ele><time>2026-04-07T17:15:52Z</time></trkpt><trkpt lat="45.811653276197674" lon="9.424232448421161"><ele>221.5</ele><time>2026-04-07T17:15:53Z</time></trkpt><trkpt lat="45.81151927889412" lon="9.424225815737305"><ele>221.0</ele><time>2026-04-07T17:15:54Z</time></trkpt><trkpt lat="45.81139937217135" lon="9.424205625293874"><ele>221.0</ele><time>2026-04-07T17:15:55Z</time></trkpt><trkpt lat="45.81125015934351" lon="9.42415310087824"><ele>221.0</ele><time>2026-04-07T17:15:56Z</time></trkpt><trkpt lat="45.81110504999159" lon="9.424102561607747"><ele>221.0</ele><time>2026-04-07T17:15:57Z</time></trkpt><trkpt lat="45.81096674263259" lon="9.424064914846415"><ele>221.0</ele><time>2026-04-07T17:15:58Z</time></trkpt><trkpt lat="45.81082925628014" lon="9.424020535637325"><ele>222.25</ele><time>2026-04-07T17:15:59Z</time></trkpt><trkpt lat="45.81068921284818" lon="9.423981705066355"><ele>223.5</ele><time>2026-04-07T17:16:00Z</time></trkpt><trkpt lat="45.8105533289598" lon="9.423940455055586"><ele>224.75</ele><time>2026-04-07T17:16:01Z</time></trkpt><trkpt lat="45.81041929407395" lon="9.42389866075245"><ele>226.0</ele><time>2026-04-07T17:16:02Z</time></trkpt><trkpt lat="45.81029198149208" lon="9.423856040536975"><ele>225.0</ele><time>2026-04-07T17:16:03Z</time></trkpt><trkpt lat="45.810158851948174" lon="9.423813309131843"><ele>224.0</ele><time>2026-04-07T17:16:03.999Z</time></trkpt><trkpt lat="45.81002183678481" lon="9.423769184824858"><ele>223.0</ele><time>2026-04-07T17:16:04.999Z</time></trkpt><trkpt lat="45.80987931744745" lon="9.42372561980318"><ele>222.0</ele><time>2026-04-07T17:16:05.999Z</time></trkpt><trkpt lat="45.80973591779556" lon="9.423684186741713"><ele>222.0</ele><time>2026-04-07T17:16:06.999Z</time></trkpt><trkpt lat="45.80959370198909" lon="9.423659810801869"><ele>222.0</ele><time>2026-04-07T17:16:07.999Z</time></trkpt><trkpt lat="45.80946470109693" lon="9.423639809968648"><ele>222.0</ele><time>2026-04-07T17:16:08.999Z</time></trkpt><trkpt lat="45.809341311589534" lon="9.423622591614276"><ele>222.0</ele><time>2026-04-07T17:16:09.999Z</time></trkpt><trkpt lat="45.80920673819669" lon="9.423620278110409"><ele>222.5</ele><time>2026-04-07T17:16:10.999Z</time></trkpt><trkpt lat="45.80908283963488" lon="9.423649483369353"><ele>223.0</ele><time>2026-04-07T17:16:11.999Z</time></trkpt><trkpt lat="45.80894242713948" lon="9.423688120899175"><ele>223.5</ele><time>2026-04-07T17:16:12.999Z</time></trkpt><trkpt lat="45.80881950594389" lon="9.423729982961065"><ele>224.0</ele><time>2026-04-07T17:16:13.999Z</time></trkpt><trkpt lat="45.80869571677097" lon="9.423782176166153"><ele>225.0</ele><time>2026-04-07T17:16:14.999Z</time></trkpt><trkpt lat="45.808563489800825" lon="9.423833849390762"><ele>226.0</ele><time>2026-04-07T17:16:15.999Z</time></trkpt><trkpt lat="45.808436384432056" lon="9.42388769589726"><ele>227.0</ele><time>2026-04-07T17:16:16.999Z</time></trkpt><trkpt lat="45.80832156248801" lon="9.423930211108752"><ele>228.0</ele><time>2026-04-07T17:16:17.999Z</time></trkpt><trkpt lat="45.80820068661432" lon="9.42397543025317"><ele>228.0</ele><time>2026-04-07T17:16:18.999Z</time></trkpt><trkpt lat="45.80807205370724" lon="9.424016408975735"><ele>228.0</ele><time>2026-04-07T17:16:19.999Z</time></trkpt><trkpt lat="45.807939596913315" lon="9.42406118119169"><ele>228.0</ele><time>2026-04-07T17:16:20.999Z</time></trkpt><trkpt lat="45.80782228741884" lon="9.424107908811346"><ele>228.0</ele><time>2026-04-07T17:16:21.999Z</time></trkpt><trkpt lat="45.80769028435452" lon="9.424147537297221"><ele>227.0</ele><time>2026-04-07T17:16:22.999Z</time></trkpt><trkpt lat="45.80755175250741" lon="9.424200783848802"><ele>226.0</ele><time>2026-04-07T17:16:23.999Z</time></trkpt><trkpt lat="45.807407115384414" lon="9.424239687223432"><ele>225.0</ele><time>2026-04-07T17:16:24.999Z</time></trkpt><trkpt lat="45.80726103368983" lon="9.424341038049244"><ele>225.0</ele><time>2026-04-07T17:16:25.999Z</time></trkpt><trkpt lat="45.80711098729756" lon="9.424437354630646"><ele>225.0</ele><time>2026-04-07T17:16:26.999Z</time></trkpt><trkpt lat="45.80698221506872" lon="9.424538205868457"><ele>225.0</ele><time>2026-04-07T17:16:27.999Z</time></trkpt><trkpt lat="45.806851681268576" lon="9.42463354988534"><ele>224.75</ele><time>2026-04-07T17:16:28.999Z</time></trkpt><trkpt lat="45.80673212123396" lon="9.424722538221246"><ele>224.5</ele><time>2026-04-07T17:16:29.999Z</time></trkpt><trkpt lat="45.80661465842272" lon="9.42479343279716"><ele>224.25</ele><time>2026-04-07T17:16:30.999Z</time></trkpt><trkpt lat="45.806501364587355" lon="9.424881302922525"><ele>224.0</ele><time>2026-04-07T17:16:31.999Z</time></trkpt><trkpt lat="45.80635378575584" lon="9.424968316481497"><ele>224.0</ele><time>2026-04-07T17:16:32.999Z</time></trkpt><trkpt lat="45.806262748276446" lon="9.425039284796707"><ele>223.99999999999997</ele><time>2026-04-07T17:16:33.999Z</time></trkpt><trkpt lat="45.80619359966985" lon="9.42510158672147"><ele>223.99999999999997</ele><time>2026-04-07T17:16:34.999Z</time></trkpt><trkpt lat="45.80614131680389" lon="9.42515242985577"><ele>224.0</ele><time>2026-04-07T17:16:35.999Z</time></trkpt><trkpt lat="45.8060599631002" lon="9.425265747419532"><ele>224.0</ele><time>2026-04-07T17:16:37.999Z</time></trkpt><trkpt lat="45.80607991307732" lon="9.425450868006115"><ele>222.0</ele><time>2026-04-07T17:16:41.999Z</time></trkpt><trkpt lat="45.80525371810551" lon="9.425891303806937"><ele>222.0</ele><time>2026-04-07T17:16:43.999Z</time></trkpt><trkpt lat="45.805169045061206" lon="9.42595889295569"><ele>222.0</ele><time>2026-04-07T17:16:44.999Z</time></trkpt><trkpt lat="45.80508821674257" lon="9.426009672635976"><ele>222.0</ele><time>2026-04-07T17:16:45.999Z</time></trkpt><trkpt lat="45.805010407784344" lon="9.426070872940883"><ele>222.0</ele><time>2026-04-07T17:16:46.999Z</time></trkpt><trkpt lat="45.80493682959293" lon="9.426122497761442"><ele>222.0</ele><time>2026-04-07T17:16:47.999Z</time></trkpt><trkpt lat="45.804862601416986" lon="9.426172893094076"><ele>222.0</ele><time>2026-04-07T17:16:48.999Z</time></trkpt><trkpt lat="45.80479671741368" lon="9.426239993410102"><ele>221.66666666666666</ele><time>2026-04-07T17:16:49.999Z</time></trkpt><trkpt lat="45.80473859557485" lon="9.426298141007047"><ele>221.33333333333331</ele><time>2026-04-07T17:16:50.999Z</time></trkpt><trkpt lat="45.80467636279041" lon="9.426334935100668"><ele>221.0</ele><time>2026-04-07T17:16:51.999Z</time></trkpt><trkpt lat="45.804556730857314" lon="9.426393986724893"><ele>220.66666666666666</ele><time>2026-04-07T17:16:53.999Z</time></trkpt><trkpt lat="45.80448424975656" lon="9.426383691536705"><ele>220.33333333333331</ele><time>2026-04-07T17:16:54.999Z</time></trkpt><trkpt lat="45.8044177754998" lon="9.426383522490044"><ele>220.0</ele><time>2026-04-07T17:16:55.999Z</time></trkpt><trkpt lat="45.80435744113085" lon="9.42645524482728"><ele>219.5</ele><time>2026-04-07T17:16:56.999Z</time></trkpt><trkpt lat="45.80432875078072" lon="9.426591605235044"><ele>219.0</ele><time>2026-04-07T17:16:57.999Z</time></trkpt><trkpt lat="45.804218200783964" lon="9.426700564761127"><ele>218.5</ele><time>2026-04-07T17:16:58.999Z</time></trkpt><trkpt lat="45.80410962801" lon="9.426783671554416"><ele>218.0</ele><time>2026-04-07T17:16:59.999Z</time></trkpt><trkpt lat="45.803992727359876" lon="9.426874925371697"><ele>218.0</ele><time>2026-04-07T17:17:00.999Z</time></trkpt><trkpt lat="45.803877251481936" lon="9.426991072630074"><ele>218.0</ele><time>2026-04-07T17:17:01.999Z</time></trkpt><trkpt lat="45.80375753211297" lon="9.427126260211388"><ele>218.0</ele><time>2026-04-07T17:17:02.999Z</time></trkpt><trkpt lat="45.803618233855374" lon="9.427302840089682"><ele>217.0</ele><time>2026-04-07T17:17:03.999Z</time></trkpt><trkpt lat="45.80348418576324" lon="9.427488832355907"><ele>216.0</ele><time>2026-04-07T17:17:04.999Z</time></trkpt><trkpt lat="45.80336260828449" lon="9.427688887902804"><ele>215.0</ele><time>2026-04-07T17:17:06Z</time></trkpt><trkpt lat="45.80326854626013" lon="9.427855522658655"><ele>217.66666666666669</ele><time>2026-04-07T17:17:07Z</time></trkpt><trkpt lat="45.80317219839043" lon="9.428027848333338"><ele>220.33333333333331</ele><time>2026-04-07T17:17:08Z</time></trkpt><trkpt lat="45.80307060292773" lon="9.428197373890075"><ele>223.0</ele><time>2026-04-07T17:17:09Z</time></trkpt><trkpt lat="45.80297788071149" lon="9.428364903806482"><ele>223.0</ele><time>2026-04-07T17:17:10Z</time></trkpt><trkpt lat="45.80289004575703" lon="9.42852360572381"><ele>223.0</ele><time>2026-04-07T17:17:11Z</time></trkpt><trkpt lat="45.80279874847652" lon="9.428684494074282"><ele>223.0</ele><time>2026-04-07T17:17:12Z</time></trkpt><trkpt lat="45.80270785112018" lon="9.428838813771755"><ele>223.0</ele><time>2026-04-07T17:17:13Z</time></trkpt><trkpt lat="45.80262481920181" lon="9.428982478715403"><ele>221.8</ele><time>2026-04-07T17:17:14Z</time></trkpt><trkpt lat="45.80254691220744" lon="9.429110406589333"><ele>220.60000000000002</ele><time>2026-04-07T17:17:15Z</time></trkpt><trkpt lat="45.80246960720302" lon="9.42923159405388"><ele>219.39999999999998</ele><time>2026-04-07T17:17:16Z</time></trkpt><trkpt lat="45.8024030116934" lon="9.42934792917403"><ele>218.2</ele><time>2026-04-07T17:17:17Z</time></trkpt><trkpt lat="45.80234818905841" lon="9.429451681646068"><ele>217.0</ele><time>2026-04-07T17:17:18Z</time></trkpt><trkpt lat="45.80229727776565" lon="9.429538470278505"><ele>217.0</ele><time>2026-04-07T17:17:19Z</time></trkpt><trkpt lat="45.802263040303245" lon="9.429618623368004"><ele>217.0</ele><time>2026-04-07T17:17:20Z</time></trkpt><trkpt lat="45.80217626990121" lon="9.429767927721349"><ele>217.0</ele><time>2026-04-07T17:17:22Z</time></trkpt><trkpt lat="45.802123512359316" lon="9.429865662250895"><ele>217.0</ele><time>2026-04-07T17:17:23Z</time></trkpt><trkpt lat="45.80206382873744" lon="9.429961872445775"><ele>217.0</ele><time>2026-04-07T17:17:24Z</time></trkpt><trkpt lat="45.80200532018277" lon="9.430060194314658"><ele>217.2</ele><time>2026-04-07T17:17:25Z</time></trkpt><trkpt lat="45.80195381855573" lon="9.430150153413573"><ele>217.39999999999998</ele><time>2026-04-07T17:17:26Z</time></trkpt><trkpt lat="45.80189638412961" lon="9.430249768665789"><ele>217.60000000000002</ele><time>2026-04-07T17:17:27Z</time></trkpt><trkpt lat="45.80182515982712" lon="9.430328465331295"><ele>217.8</ele><time>2026-04-07T17:17:28Z</time></trkpt><trkpt lat="45.80175447776019" lon="9.430451212686643"><ele>218.0</ele><time>2026-04-07T17:17:29Z</time></trkpt><trkpt lat="45.80167937673929" lon="9.430552445928248"><ele>218.0</ele><time>2026-04-07T17:17:30Z</time></trkpt><trkpt lat="45.80159700879062" lon="9.430674730791425"><ele>218.0</ele><time>2026-04-07T17:17:31Z</time></trkpt><trkpt lat="45.80150778403296" lon="9.430781684631725"><ele>218.0</ele><time>2026-04-07T17:17:32Z</time></trkpt><trkpt lat="45.801428358418754" lon="9.430904955081118"><ele>218.0</ele><time>2026-04-07T17:17:33Z</time></trkpt><trkpt lat="45.80132987398025" lon="9.430999581844379"><ele>218.0</ele><time>2026-04-07T17:17:34Z</time></trkpt><trkpt lat="45.8012509114088" lon="9.431095056152776"><ele>218.0</ele><time>2026-04-07T17:17:35Z</time></trkpt><trkpt lat="45.801162664689436" lon="9.431190992506563"><ele>218.0</ele><time>2026-04-07T17:17:36Z</time></trkpt><trkpt lat="45.80106702186509" lon="9.431295033915436"><ele>218.0</ele><time>2026-04-07T17:17:37Z</time></trkpt><trkpt lat="45.800979906046734" lon="9.431385974687256"><ele>218.0</ele><time>2026-04-07T17:17:38Z</time></trkpt><trkpt lat="45.800891313213306" lon="9.431473765531278"><ele>218.0</ele><time>2026-04-07T17:17:39Z</time></trkpt><trkpt lat="45.80080815404844" lon="9.431566629881834"><ele>218.0</ele><time>2026-04-07T17:17:40Z</time></trkpt><trkpt lat="45.800715653983644" lon="9.431635687392452"><ele>218.0</ele><time>2026-04-07T17:17:41Z</time></trkpt><trkpt lat="45.800609924296026" lon="9.43172224340812"><ele>218.0</ele><time>2026-04-07T17:17:42Z</time></trkpt><trkpt lat="45.80051483821667" lon="9.431795498588444"><ele>218.0</ele><time>2026-04-07T17:17:43Z</time></trkpt><trkpt lat="45.800429772896884" lon="9.431884857196216"><ele>218.0</ele><time>2026-04-07T17:17:44Z</time></trkpt><trkpt lat="45.800334276926314" lon="9.431955815503992"><ele>218.0</ele><time>2026-04-07T17:17:45Z</time></trkpt><trkpt lat="45.800248860225906" lon="9.43201821402355"><ele>218.0</ele><time>2026-04-07T17:17:46Z</time></trkpt><trkpt lat="45.80016304677489" lon="9.432082267818023"><ele>218.0</ele><time>2026-04-07T17:17:47Z</time></trkpt><trkpt lat="45.80009263733683" lon="9.432147260751158"><ele>218.0</ele><time>2026-04-07T17:17:48Z</time></trkpt><trkpt lat="45.80001764222703" lon="9.432204971846557"><ele>217.60000000000002</ele><time>2026-04-07T17:17:49Z</time></trkpt><trkpt lat="45.79993939599458" lon="9.432288726678102"><ele>217.20000000000002</ele><time>2026-04-07T17:17:50Z</time></trkpt><trkpt lat="45.79985645836383" lon="9.432346561597152"><ele>216.8</ele><time>2026-04-07T17:17:51Z</time></trkpt><trkpt lat="45.79978003094534" lon="9.432408361647468"><ele>216.4</ele><time>2026-04-07T17:17:52Z</time></trkpt><trkpt lat="45.79970298730157" lon="9.43247165084276"><ele>216.0</ele><time>2026-04-07T17:17:53Z</time></trkpt><trkpt lat="45.799621944918115" lon="9.432542674916895"><ele>216.0</ele><time>2026-04-07T17:17:54Z</time></trkpt><trkpt lat="45.79954082005081" lon="9.432619282877726"><ele>216.00000000000003</ele><time>2026-04-07T17:17:55Z</time></trkpt><trkpt lat="45.79947751203243" lon="9.432689640217763"><ele>216.00000000000003</ele><time>2026-04-07T17:17:56Z</time></trkpt><trkpt lat="45.79944194430141" lon="9.432777586346583"><ele>216.0</ele><time>2026-04-07T17:17:57Z</time></trkpt><trkpt lat="45.799346005358764" lon="9.43280932044539"><ele>216.0</ele><time>2026-04-07T17:17:58Z</time></trkpt><trkpt lat="45.79924415658485" lon="9.432877531792116"><ele>215.57142857142856</ele><time>2026-04-07T17:17:59Z</time></trkpt><trkpt lat="45.79916544859502" lon="9.43293297296094"><ele>215.14285714285714</ele><time>2026-04-07T17:18:00Z</time></trkpt><trkpt lat="45.79910430674777" lon="9.43296869316264"><ele>214.71428571428572</ele><time>2026-04-07T17:18:01Z</time></trkpt><trkpt lat="45.799046793065585" lon="9.433013444199107"><ele>214.28571428571428</ele><time>2026-04-07T17:18:02Z</time></trkpt><trkpt lat="45.79898877794618" lon="9.433054659425572"><ele>213.85714285714286</ele><time>2026-04-07T17:18:03Z</time></trkpt><trkpt lat="45.798930143146954" lon="9.43310730661497"><ele>213.42857142857142</ele><time>2026-04-07T17:18:04Z</time></trkpt><trkpt lat="45.79887048210964" lon="9.433158440490022"><ele>213.0</ele><time>2026-04-07T17:18:05Z</time></trkpt><trkpt lat="45.79879782086368" lon="9.433225183055033"><ele>212.83333333333334</ele><time>2026-04-07T17:18:06Z</time></trkpt><trkpt lat="45.798732061102584" lon="9.433285172217557"><ele>212.66666666666669</ele><time>2026-04-07T17:18:07Z</time></trkpt><trkpt lat="45.79866666699407" lon="9.433325108530449"><ele>212.5</ele><time>2026-04-07T17:18:07.999Z</time></trkpt><trkpt lat="45.79859751941505" lon="9.433367087307186"><ele>212.33333333333334</ele><time>2026-04-07T17:18:08.999Z</time></trkpt><trkpt lat="45.798531420239065" lon="9.433419505812452"><ele>212.16666666666669</ele><time>2026-04-07T17:18:09.999Z</time></trkpt><trkpt lat="45.798459062229284" lon="9.433474099755793"><ele>212.0</ele><time>2026-04-07T17:18:10.999Z</time></trkpt><trkpt lat="45.79838723124661" lon="9.433537006389011"><ele>212.0</ele><time>2026-04-07T17:18:11.999Z</time></trkpt><trkpt lat="45.79832248913685" lon="9.433586320912458"><ele>212.0</ele><time>2026-04-07T17:18:12.999Z</time></trkpt><trkpt lat="45.79821144670091" lon="9.433645260786303"><ele>212.0</ele><time>2026-04-07T17:18:14.999Z</time></trkpt><trkpt lat="45.798137548415745" lon="9.433700670145758"><ele>212.0</ele><time>2026-04-07T17:18:15.999Z</time></trkpt><trkpt lat="45.79804066435102" lon="9.433772307107594"><ele>212.0</ele><time>2026-04-07T17:18:16.999Z</time></trkpt><trkpt lat="45.79792601101207" lon="9.433853592136595"><ele>212.0</ele><time>2026-04-07T17:18:17.999Z</time></trkpt><trkpt lat="45.79781256496479" lon="9.433939176453237"><ele>212.0</ele><time>2026-04-07T17:18:18.999Z</time></trkpt><trkpt lat="45.797729538316474" lon="9.434023396584145"><ele>212.0</ele><time>2026-04-07T17:18:19.999Z</time></trkpt><trkpt lat="45.7976123012654" lon="9.434093326689823"><ele>212.0</ele><time>2026-04-07T17:18:20.999Z</time></trkpt><trkpt lat="45.79751727828187" lon="9.434201072791266"><ele>211.5</ele><time>2026-04-07T17:18:21.999Z</time></trkpt><trkpt lat="45.79734809490586" lon="9.434306882769397"><ele>211.0</ele><time>2026-04-07T17:18:22.999Z</time></trkpt><trkpt lat="45.7972383098057" lon="9.434391342634374"><ele>210.5</ele><time>2026-04-07T17:18:23.999Z</time></trkpt><trkpt lat="45.79714192309755" lon="9.434460443702225"><ele>210.0</ele><time>2026-04-07T17:18:24.999Z</time></trkpt><trkpt lat="45.797058365452386" lon="9.434532311108695"><ele>210.0</ele><time>2026-04-07T17:18:25.999Z</time></trkpt><trkpt lat="45.79695896789086" lon="9.434632708086676"><ele>210.0</ele><time>2026-04-07T17:18:26.999Z</time></trkpt><trkpt lat="45.79681591328488" lon="9.434750900128206"><ele>210.0</ele><time>2026-04-07T17:18:27.999Z</time></trkpt><trkpt lat="45.79667351899646" lon="9.434863995820292"><ele>210.0</ele><time>2026-04-07T17:18:28.999Z</time></trkpt><trkpt lat="45.79650937040274" lon="9.43499589042561"><ele>211.66666666666669</ele><time>2026-04-07T17:18:29.999Z</time></trkpt><trkpt lat="45.79633017909174" lon="9.435134579006764"><ele>213.33333333333334</ele><time>2026-04-07T17:18:30.999Z</time></trkpt><trkpt lat="45.79616563260711" lon="9.435237242711281"><ele>215.0</ele><time>2026-04-07T17:18:31.999Z</time></trkpt><trkpt lat="45.796026456289006" lon="9.43532682958231"><ele>215.0</ele><time>2026-04-07T17:18:32.999Z</time></trkpt><trkpt lat="45.795857982546735" lon="9.4354495604465"><ele>215.0</ele><time>2026-04-07T17:18:33.999Z</time></trkpt><trkpt lat="45.795690117928324" lon="9.435612603693096"><ele>215.0</ele><time>2026-04-07T17:18:34.999Z</time></trkpt><trkpt lat="45.79553717198162" lon="9.435734592799426"><ele>215.33333333333334</ele><time>2026-04-07T17:18:35.999Z</time></trkpt><trkpt lat="45.79539032186458" lon="9.435843054989821"><ele>215.66666666666669</ele><time>2026-04-07T17:18:36.999Z</time></trkpt><trkpt lat="45.79521524903707" lon="9.435956634932431"><ele>216.0</ele><time>2026-04-07T17:18:37.999Z</time></trkpt><trkpt lat="45.7950536519494" lon="9.436106444636918"><ele>216.0</ele><time>2026-04-07T17:18:38.999Z</time></trkpt><trkpt lat="45.794921500369796" lon="9.436210199866734"><ele>216.0</ele><time>2026-04-07T17:18:39.999Z</time></trkpt><trkpt lat="45.79479241536031" lon="9.436339688277066"><ele>216.0</ele><time>2026-04-07T17:18:40.999Z</time></trkpt><trkpt lat="45.79466527146041" lon="9.436424917032605"><ele>216.0</ele><time>2026-04-07T17:18:41.999Z</time></trkpt><trkpt lat="45.79455974900531" lon="9.436514935778387"><ele>217.0</ele><time>2026-04-07T17:18:42.999Z</time></trkpt><trkpt lat="45.794455897130675" lon="9.43658118125449"><ele>218.00000000000003</ele><time>2026-04-07T17:18:43.999Z</time></trkpt><trkpt lat="45.79439732394429" lon="9.436645153926243"><ele>219.00000000000003</ele><time>2026-04-07T17:18:44.999Z</time></trkpt><trkpt lat="45.7944256245294" lon="9.436824277112287"><ele>220.0</ele><time>2026-04-07T17:18:46.999Z</time></trkpt><trkpt lat="45.794472593495584" lon="9.436997472921766"><ele>221.0</ele><time>2026-04-07T17:18:47.999Z</time></trkpt><trkpt lat="45.79451894313855" lon="9.437207329521273"><ele>222.33333333333334</ele><time>2026-04-07T17:18:48.999Z</time></trkpt><trkpt lat="45.79457924818222" lon="9.437431225851421"><ele>223.66666666666669</ele><time>2026-04-07T17:18:49.999Z</time></trkpt><trkpt lat="45.794614376229426" lon="9.437649275291188"><ele>225.0</ele><time>2026-04-07T17:18:50.999Z</time></trkpt><trkpt lat="45.79466439769762" lon="9.43786560905509"><ele>225.66666666666669</ele><time>2026-04-07T17:18:51.999Z</time></trkpt><trkpt lat="45.794721575210566" lon="9.43811303577985"><ele>226.33333333333334</ele><time>2026-04-07T17:18:52.999Z</time></trkpt><trkpt lat="45.79476832881751" lon="9.438325994504359"><ele>227.0</ele><time>2026-04-07T17:18:53.999Z</time></trkpt><trkpt lat="45.79480733169039" lon="9.438510923379422"><ele>227.0</ele><time>2026-04-07T17:18:54.999Z</time></trkpt><trkpt lat="45.79483942688682" lon="9.438688314976242"><ele>227.0</ele><time>2026-04-07T17:18:55.999Z</time></trkpt><trkpt lat="45.794884591269096" lon="9.438799225451744"><ele>227.0</ele><time>2026-04-07T17:18:56.999Z</time></trkpt><trkpt lat="45.79485708381347" lon="9.43897868299581"><ele>227.0</ele><time>2026-04-07T17:18:58.999Z</time></trkpt><trkpt lat="45.79482423000803" lon="9.439082196507302"><ele>227.0</ele><time>2026-04-07T17:19:00.999Z</time></trkpt><trkpt lat="45.79488031774175" lon="9.439127630755117"><ele>228.0</ele><time>2026-04-07T17:19:01.999Z</time></trkpt><trkpt lat="45.79498121941172" lon="9.439042772475617"><ele>229.0</ele><time>2026-04-07T17:19:02.999Z</time></trkpt><trkpt lat="45.79504666679391" lon="9.439115609582919"><ele>230.0</ele><time>2026-04-07T17:19:03.999Z</time></trkpt><trkpt lat="45.795137931687776" lon="9.439128555127338"><ele>231.0</ele><time>2026-04-07T17:19:04.999Z</time></trkpt><trkpt lat="45.79524173234889" lon="9.439171949246841"><ele>232.0</ele><time>2026-04-07T17:19:05.999Z</time></trkpt><trkpt lat="45.79533105496734" lon="9.439208929004254"><ele>232.0</ele><time>2026-04-07T17:19:06.999Z</time></trkpt><trkpt lat="45.795423893895126" lon="9.439247297609606"><ele>232.0</ele><time>2026-04-07T17:19:07.999Z</time></trkpt><trkpt lat="45.795527878679664" lon="9.439267708884659"><ele>232.0</ele><time>2026-04-07T17:19:08.999Z</time></trkpt><trkpt lat="45.79562809865783" lon="9.439351738912077"><ele>232.0</ele><time>2026-04-07T17:19:09.999Z</time></trkpt><trkpt lat="45.79571662044958" lon="9.439398116003321"><ele>232.0</ele><time>2026-04-07T17:19:10.999Z</time></trkpt><trkpt lat="45.79582553290368" lon="9.439420322013657"><ele>232.0</ele><time>2026-04-07T17:19:12Z</time></trkpt><trkpt lat="45.79592805378523" lon="9.439436404391293"><ele>232.0</ele><time>2026-04-07T17:19:13Z</time></trkpt><trkpt lat="45.79604946710606" lon="9.439484380545924"><ele>232.0</ele><time>2026-04-07T17:19:14Z</time></trkpt><trkpt lat="45.79615226144981" lon="9.439551427139236"><ele>232.0</ele><time>2026-04-07T17:19:16Z</time></trkpt><trkpt lat="45.79615785426792" lon="9.439678772815533"><ele>232.0</ele><time>2026-04-07T17:19:18Z</time></trkpt><trkpt lat="45.79610653454013" lon="9.439761315377845"><ele>233.0</ele><time>2026-04-07T17:19:20Z</time></trkpt><trkpt lat="45.79602811318908" lon="9.439929917179711"><ele>234.0</ele><time>2026-04-07T17:19:22Z</time></trkpt><trkpt lat="45.79594591225453" lon="9.440067484988212"><ele>235.0</ele><time>2026-04-07T17:19:24Z</time></trkpt><trkpt lat="45.795895729087206" lon="9.44014095886123"><ele>236.0</ele><time>2026-04-07T17:19:25Z</time></trkpt><trkpt lat="45.79581689739114" lon="9.440289317240122"><ele>236.0</ele><time>2026-04-07T17:19:27Z</time></trkpt><trkpt lat="45.79574907663955" lon="9.440387058722576"><ele>236.00000000000003</ele><time>2026-04-07T17:19:28Z</time></trkpt><trkpt lat="45.795692135960586" lon="9.440472213398463"><ele>236.00000000000003</ele><time>2026-04-07T17:19:29Z</time></trkpt><trkpt lat="45.795630482839485" lon="9.440590502774464"><ele>236.0</ele><time>2026-04-07T17:19:31Z</time></trkpt><trkpt lat="45.795555957687874" lon="9.440634488704127"><ele>236.0</ele><time>2026-04-07T17:19:32Z</time></trkpt><trkpt lat="45.795506568705896" lon="9.440743032144573"><ele>236.60000000000002</ele><time>2026-04-07T17:19:34Z</time></trkpt><trkpt lat="45.795542264861844" lon="9.440851697416289"><ele>237.20000000000002</ele><time>2026-04-07T17:19:35Z</time></trkpt><trkpt lat="45.795547253283296" lon="9.44095635161348"><ele>237.79999999999998</ele><time>2026-04-07T17:19:36Z</time></trkpt><trkpt lat="45.79554869663387" lon="9.441099393553507"><ele>238.39999999999998</ele><time>2026-04-07T17:19:38Z</time></trkpt><trkpt lat="45.795547978291864" lon="9.441246398959414"><ele>239.0</ele><time>2026-04-07T17:19:39Z</time></trkpt><trkpt lat="45.79556008351493" lon="9.441383969555517"><ele>240.0</ele><time>2026-04-07T17:19:40Z</time></trkpt><trkpt lat="45.79551484391785" lon="9.441459343754198"><ele>240.99999999999997</ele><time>2026-04-07T17:19:43Z</time></trkpt><trkpt lat="45.79542263503966" lon="9.441522189659501"><ele>241.99999999999997</ele><time>2026-04-07T17:19:47Z</time></trkpt><trkpt lat="45.795400599607476" lon="9.44165711559314"><ele>243.0</ele><time>2026-04-07T17:19:48Z</time></trkpt><trkpt lat="45.79533269675126" lon="9.441778034342537"><ele>244.0</ele><time>2026-04-07T17:19:50Z</time></trkpt><trkpt lat="45.795207550262006" lon="9.4418297866683"><ele>243.0</ele><time>2026-04-07T17:19:52Z</time></trkpt><trkpt lat="45.79509668727987" lon="9.441915199481858"><ele>241.99999999999997</ele><time>2026-04-07T17:19:53Z</time></trkpt><trkpt lat="45.79503064702227" lon="9.441999402044583"><ele>240.99999999999997</ele><time>2026-04-07T17:19:54Z</time></trkpt><trkpt lat="45.79496472016237" lon="9.442050446300422"><ele>240.0</ele><time>2026-04-07T17:19:55Z</time></trkpt><trkpt lat="45.794883426579204" lon="9.442123552434259"><ele>239.0</ele><time>2026-04-07T17:19:57Z</time></trkpt><trkpt lat="45.794807548924545" lon="9.442190688169022"><ele>238.79999999999998</ele><time>2026-04-07T17:19:58Z</time></trkpt><trkpt lat="45.79472525117748" lon="9.442265160138495"><ele>238.59999999999997</ele><time>2026-04-07T17:19:59Z</time></trkpt><trkpt lat="45.79461169575187" lon="9.442360312553248"><ele>238.4</ele><time>2026-04-07T17:20:01Z</time></trkpt><trkpt lat="45.79448462501609" lon="9.442451900292944"><ele>238.2</ele><time>2026-04-07T17:20:03Z</time></trkpt><trkpt lat="45.79442427637615" lon="9.442498774452032"><ele>238.0</ele><time>2026-04-07T17:20:04Z</time></trkpt><trkpt lat="45.7943179290729" lon="9.442546137775855"><ele>238.0</ele><time>2026-04-07T17:20:06Z</time></trkpt><trkpt lat="45.79420179944838" lon="9.442635515090416"><ele>238.0</ele><time>2026-04-07T17:20:08Z</time></trkpt><trkpt lat="45.79413776409952" lon="9.442660607040784"><ele>238.0</ele><time>2026-04-07T17:20:09Z</time></trkpt><trkpt lat="45.79404073760017" lon="9.44275947173399"><ele>238.0</ele><time>2026-04-07T17:20:12Z</time></trkpt><trkpt lat="45.79394730436226" lon="9.442841950214493"><ele>238.0</ele><time>2026-04-07T17:20:14Z</time></trkpt><trkpt lat="45.79388576957605" lon="9.442866411163495"><ele>238.0</ele><time>2026-04-07T17:20:15Z</time></trkpt><trkpt lat="45.79378227837664" lon="9.442951874983368"><ele>238.0</ele><time>2026-04-07T17:20:16.999Z</time></trkpt><trkpt lat="45.79369635062257" lon="9.443031722162292"><ele>238.0</ele><time>2026-04-07T17:20:17.999Z</time></trkpt><trkpt lat="45.79364305426266" lon="9.443112582007057"><ele>238.0</ele><time>2026-04-07T17:20:18.999Z</time></trkpt><trkpt lat="45.79353946272413" lon="9.44320163753731"><ele>238.0</ele><time>2026-04-07T17:20:20.999Z</time></trkpt><trkpt lat="45.793484306917556" lon="9.443280187039393"><ele>238.25</ele><time>2026-04-07T17:20:21.999Z</time></trkpt><trkpt lat="45.79344470217789" lon="9.443358760880528"><ele>238.5</ele><time>2026-04-07T17:20:23.999Z</time></trkpt><trkpt lat="45.793349485130776" lon="9.443392793166797"><ele>238.75</ele><time>2026-04-07T17:20:24.999Z</time></trkpt><trkpt lat="45.793260265630984" lon="9.44350333996487"><ele>239.0</ele><time>2026-04-07T17:20:25.999Z</time></trkpt><trkpt lat="45.79310521628965" lon="9.44359625375968"><ele>239.0</ele><time>2026-04-07T17:20:26.999Z</time></trkpt><trkpt lat="45.79294090823382" lon="9.443703424329254"><ele>239.0</ele><time>2026-04-07T17:20:27.999Z</time></trkpt><trkpt lat="45.792768665045074" lon="9.44380409447263"><ele>239.0</ele><time>2026-04-07T17:20:28.999Z</time></trkpt><trkpt lat="45.792587790460054" lon="9.443940295409103"><ele>240.0</ele><time>2026-04-07T17:20:29.999Z</time></trkpt><trkpt lat="45.79240703400488" lon="9.444047124479635"><ele>241.0</ele><time>2026-04-07T17:20:30.999Z</time></trkpt><trkpt lat="45.792264494126144" lon="9.44416693950248"><ele>242.0</ele><time>2026-04-07T17:20:31.999Z</time></trkpt><trkpt lat="45.792073165579446" lon="9.444259992658052"><ele>242.0</ele><time>2026-04-07T17:20:32.999Z</time></trkpt><trkpt lat="45.791873023181225" lon="9.444313247152175"><ele>242.0</ele><time>2026-04-07T17:20:33.999Z</time></trkpt><trkpt lat="45.791662756561685" lon="9.444364155854494"><ele>242.0</ele><time>2026-04-07T17:20:34.999Z</time></trkpt><trkpt lat="45.791496411440356" lon="9.444418011512022"><ele>241.0</ele><time>2026-04-07T17:20:35.999Z</time></trkpt><trkpt lat="45.79131739807782" lon="9.444495184822157"><ele>240.0</ele><time>2026-04-07T17:20:36.999Z</time></trkpt><trkpt lat="45.791142355965555" lon="9.444626423368648"><ele>239.0</ele><time>2026-04-07T17:20:37.999Z</time></trkpt><trkpt lat="45.790972659569" lon="9.444786115213503"><ele>239.0</ele><time>2026-04-07T17:20:38.999Z</time></trkpt><trkpt lat="45.79079856680907" lon="9.44498035656702"><ele>239.0</ele><time>2026-04-07T17:20:39.999Z</time></trkpt><trkpt lat="45.79061610314623" lon="9.445154319518522"><ele>239.0</ele><time>2026-04-07T17:20:40.999Z</time></trkpt><trkpt lat="45.79043456751456" lon="9.445280142078492"><ele>239.0</ele><time>2026-04-07T17:20:41.999Z</time></trkpt><trkpt lat="45.79026183869238" lon="9.445375081628663"><ele>239.0</ele><time>2026-04-07T17:20:42.999Z</time></trkpt><trkpt lat="45.790101237562276" lon="9.445476484002855"><ele>239.0</ele><time>2026-04-07T17:20:43.999Z</time></trkpt><trkpt lat="45.78994268243794" lon="9.44560930230863"><ele>243.66666666666669</ele><time>2026-04-07T17:20:44.999Z</time></trkpt><trkpt lat="45.78979290606897" lon="9.445777854666309"><ele>248.33333333333331</ele><time>2026-04-07T17:20:45.999Z</time></trkpt><trkpt lat="45.789654762930695" lon="9.445985012880849"><ele>253.0</ele><time>2026-04-07T17:20:46.999Z</time></trkpt><trkpt lat="45.78952630448963" lon="9.446201248956982"><ele>254.0</ele><time>2026-04-07T17:20:47.999Z</time></trkpt><trkpt lat="45.789391207784135" lon="9.446404002739865"><ele>255.0</ele><time>2026-04-07T17:20:48.999Z</time></trkpt><trkpt lat="45.78924867146007" lon="9.446589428182277"><ele>256.0</ele><time>2026-04-07T17:20:49.999Z</time></trkpt><trkpt lat="45.789108307124415" lon="9.446767199500917"><ele>256.0</ele><time>2026-04-07T17:20:50.999Z</time></trkpt><trkpt lat="45.788962471903425" lon="9.446959055596954"><ele>256.0</ele><time>2026-04-07T17:20:51.999Z</time></trkpt><trkpt lat="45.78880672241116" lon="9.447153121618317"><ele>256.0</ele><time>2026-04-07T17:20:52.999Z</time></trkpt><trkpt lat="45.788638092588975" lon="9.447292540690828"><ele>256.3333333333333</ele><time>2026-04-07T17:20:53.999Z</time></trkpt><trkpt lat="45.78846660297914" lon="9.447449213819592"><ele>256.6666666666667</ele><time>2026-04-07T17:20:54.999Z</time></trkpt><trkpt lat="45.78829924649205" lon="9.447622116143513"><ele>257.0</ele><time>2026-04-07T17:20:55.999Z</time></trkpt><trkpt lat="45.788172698027104" lon="9.447832891538825"><ele>262.6666666666667</ele><time>2026-04-07T17:20:56.999Z</time></trkpt><trkpt lat="45.78800895541952" lon="9.448050317771342"><ele>268.3333333333333</ele><time>2026-04-07T17:20:57.999Z</time></trkpt><trkpt lat="45.787861672248376" lon="9.44825013666197"><ele>274.0</ele><time>2026-04-07T17:20:58.999Z</time></trkpt><trkpt lat="45.78773875439809" lon="9.44845201055702"><ele>276.66666666666663</ele><time>2026-04-07T17:20:59.999Z</time></trkpt><trkpt lat="45.78760609314488" lon="9.448618365388594"><ele>279.3333333333333</ele><time>2026-04-07T17:21:00.999Z</time></trkpt><trkpt lat="45.78750838572633" lon="9.448763810208176"><ele>282.0</ele><time>2026-04-07T17:21:01.999Z</time></trkpt><trkpt lat="45.78737323943227" lon="9.448842972840398"><ele>282.0</ele><time>2026-04-07T17:21:02.999Z</time></trkpt><trkpt lat="45.78726685732331" lon="9.448913664945518"><ele>282.0</ele><time>2026-04-07T17:21:03.999Z</time></trkpt><trkpt lat="45.7871490034562" lon="9.448952003922171"><ele>282.0</ele><time>2026-04-07T17:21:04.999Z</time></trkpt><trkpt lat="45.78700754269098" lon="9.448978674499962"><ele>282.0</ele><time>2026-04-07T17:21:05.999Z</time></trkpt><trkpt lat="45.78686516270039" lon="9.449090053910933"><ele>279.6666666666667</ele><time>2026-04-07T17:21:06.999Z</time></trkpt><trkpt lat="45.786734987304506" lon="9.449200157201805"><ele>277.33333333333337</ele><time>2026-04-07T17:21:07.999Z</time></trkpt><trkpt lat="45.78660749795277" lon="9.449333817825261"><ele>275.0</ele><time>2026-04-07T17:21:08.999Z</time></trkpt><trkpt lat="45.78652056828425" lon="9.449568931551346"><ele>280.75</ele><time>2026-04-07T17:21:09.999Z</time></trkpt><trkpt lat="45.786428094119536" lon="9.449737952755202"><ele>286.5</ele><time>2026-04-07T17:21:10.999Z</time></trkpt><trkpt lat="45.78632819151612" lon="9.44988591023773"><ele>292.25</ele><time>2026-04-07T17:21:11.999Z</time></trkpt><trkpt lat="45.786229692955104" lon="9.449983072520064"><ele>298.0</ele><time>2026-04-07T17:21:12.999Z</time></trkpt><trkpt lat="45.786150505792286" lon="9.450109690838836"><ele>298.0</ele><time>2026-04-07T17:21:13.999Z</time></trkpt><trkpt lat="45.78609288773931" lon="9.450327417849806"><ele>298.0</ele><time>2026-04-07T17:21:14.999Z</time></trkpt><trkpt lat="45.78604913569669" lon="9.450406470286271"><ele>298.0</ele><time>2026-04-07T17:21:15.999Z</time></trkpt><trkpt lat="45.786001528273815" lon="9.450473085955887"><ele>298.0</ele><time>2026-04-07T17:21:16.999Z</time></trkpt><trkpt lat="45.78586968061054" lon="9.450480636625125"><ele>298.0</ele><time>2026-04-07T17:21:19Z</time></trkpt><trkpt lat="45.78574950044564" lon="9.450407178961306"><ele>295.0</ele><time>2026-04-07T17:21:20Z</time></trkpt><trkpt lat="45.78564972343612" lon="9.450333626867337"><ele>292.0</ele><time>2026-04-07T17:21:21Z</time></trkpt><trkpt lat="45.78553619151239" lon="9.450276997217273"><ele>289.0</ele><time>2026-04-07T17:21:22Z</time></trkpt><trkpt lat="45.78540232576355" lon="9.450246471415737"><ele>286.0</ele><time>2026-04-07T17:21:23Z</time></trkpt><trkpt lat="45.78529418315179" lon="9.450265121938331"><ele>286.0</ele><time>2026-04-07T17:21:24Z</time></trkpt><trkpt lat="45.785184068939834" lon="9.450276252127328"><ele>286.0</ele><time>2026-04-07T17:21:25Z</time></trkpt><trkpt lat="45.785040735489176" lon="9.450324394536247"><ele>286.0</ele><time>2026-04-07T17:21:26Z</time></trkpt><trkpt lat="45.7848904814989" lon="9.450387326969553"><ele>286.0</ele><time>2026-04-07T17:21:27Z</time></trkpt><trkpt lat="45.78471237530637" lon="9.45041496119962"><ele>287.3333333333333</ele><time>2026-04-07T17:21:28Z</time></trkpt><trkpt lat="45.78451889331067" lon="9.450435423190054"><ele>288.6666666666667</ele><time>2026-04-07T17:21:29Z</time></trkpt><trkpt lat="45.7843235584123" lon="9.450459632470661"><ele>290.0</ele><time>2026-04-07T17:21:30Z</time></trkpt><trkpt lat="45.78412130423924" lon="9.450465011017137"><ele>292.33333333333337</ele><time>2026-04-07T17:21:31Z</time></trkpt><trkpt lat="45.783930427296326" lon="9.45045369083862"><ele>294.6666666666667</ele><time>2026-04-07T17:21:32Z</time></trkpt><trkpt lat="45.783735368798055" lon="9.450431562846738"><ele>297.0</ele><time>2026-04-07T17:21:33Z</time></trkpt><trkpt lat="45.78353370234526" lon="9.450401730570256"><ele>299.3333333333333</ele><time>2026-04-07T17:21:34Z</time></trkpt><trkpt lat="45.78335855314898" lon="9.450372176831069"><ele>301.66666666666663</ele><time>2026-04-07T17:21:35Z</time></trkpt><trkpt lat="45.783176744476634" lon="9.450347018385441"><ele>304.0</ele><time>2026-04-07T17:21:36Z</time></trkpt><trkpt lat="45.78298969570804" lon="9.450322678560864"><ele>304.0</ele><time>2026-04-07T17:21:37Z</time></trkpt><trkpt lat="45.7828206453228" lon="9.450298381138147"><ele>304.0</ele><time>2026-04-07T17:21:38Z</time></trkpt><trkpt lat="45.782674298106755" lon="9.450270043110816"><ele>304.0</ele><time>2026-04-07T17:21:39Z</time></trkpt><trkpt lat="45.782550645080335" lon="9.450280397685393"><ele>304.0</ele><time>2026-04-07T17:21:40Z</time></trkpt><trkpt lat="45.78243134850533" lon="9.45035458726765"><ele>309.5</ele><time>2026-04-07T17:21:41Z</time></trkpt><trkpt lat="45.78232227118325" lon="9.450491625527462"><ele>315.0</ele><time>2026-04-07T17:21:42Z</time></trkpt><trkpt lat="45.782218011788714" lon="9.450660363798733"><ele>320.5</ele><time>2026-04-07T17:21:43Z</time></trkpt><trkpt lat="45.78210540681376" lon="9.450759971816804"><ele>326.0</ele><time>2026-04-07T17:21:44Z</time></trkpt><trkpt lat="45.781984900936536" lon="9.450822197858944"><ele>326.0</ele><time>2026-04-07T17:21:45Z</time></trkpt><trkpt lat="45.78186586053876" lon="9.450886811748862"><ele>326.0</ele><time>2026-04-07T17:21:46Z</time></trkpt><trkpt lat="45.78176058712664" lon="9.450929760027003"><ele>326.0</ele><time>2026-04-07T17:21:47Z</time></trkpt><trkpt lat="45.781675955890435" lon="9.450984222830916"><ele>326.0</ele><time>2026-04-07T17:21:48Z</time></trkpt><trkpt lat="45.78160338262666" lon="9.451046009713698"><ele>326.0</ele><time>2026-04-07T17:21:49Z</time></trkpt><trkpt lat="45.78155579223743" lon="9.45114544971144"><ele>326.5</ele><time>2026-04-07T17:21:50Z</time></trkpt><trkpt lat="45.781537809479126" lon="9.45130723739827"><ele>327.0</ele><time>2026-04-07T17:21:51Z</time></trkpt><trkpt lat="45.78155822614125" lon="9.451468599011202"><ele>327.5</ele><time>2026-04-07T17:21:52Z</time></trkpt><trkpt lat="45.78153444728999" lon="9.451653814320371"><ele>328.0</ele><time>2026-04-07T17:21:53Z</time></trkpt><trkpt lat="45.78154460347332" lon="9.451879823808751"><ele>328.0</ele><time>2026-04-07T17:21:54Z</time></trkpt><trkpt lat="45.78155962244925" lon="9.452119633037283"><ele>328.0</ele><time>2026-04-07T17:21:55Z</time></trkpt><trkpt lat="45.781572876562926" lon="9.452360062194572"><ele>328.0</ele><time>2026-04-07T17:21:56Z</time></trkpt><trkpt lat="45.781607500241286" lon="9.452626924348927"><ele>330.0</ele><time>2026-04-07T17:21:57Z</time></trkpt><trkpt lat="45.781618709217625" lon="9.452891193445621"><ele>332.0</ele><time>2026-04-07T17:21:58Z</time></trkpt><trkpt lat="45.78159515612959" lon="9.453128539427974"><ele>334.0</ele><time>2026-04-07T17:21:59Z</time></trkpt><trkpt lat="45.78150086903304" lon="9.45332261535359"><ele>337.3333333333333</ele><time>2026-04-07T17:22:00Z</time></trkpt><trkpt lat="45.78139797134167" lon="9.453538227947421"><ele>340.6666666666667</ele><time>2026-04-07T17:22:01Z</time></trkpt><trkpt lat="45.78129451973623" lon="9.45376757129675"><ele>344.0</ele><time>2026-04-07T17:22:02Z</time></trkpt><trkpt lat="45.781190038267866" lon="9.454013661062339"><ele>345.5</ele><time>2026-04-07T17:22:03Z</time></trkpt><trkpt lat="45.78108412029913" lon="9.454223985263193"><ele>347.0</ele><time>2026-04-07T17:22:04Z</time></trkpt><trkpt lat="45.780999078024884" lon="9.454384861736699"><ele>348.5</ele><time>2026-04-07T17:22:05Z</time></trkpt><trkpt lat="45.7809014677454" lon="9.45448552878587"><ele>350.0</ele><time>2026-04-07T17:22:06Z</time></trkpt><trkpt lat="45.78081034734334" lon="9.454622237534558"><ele>352.25</ele><time>2026-04-07T17:22:07Z</time></trkpt><trkpt lat="45.78071120962451" lon="9.454755658817637"><ele>354.5</ele><time>2026-04-07T17:22:08Z</time></trkpt><trkpt lat="45.78060394628196" lon="9.454881269921286"><ele>356.75</ele><time>2026-04-07T17:22:09Z</time></trkpt><trkpt lat="45.78049751337409" lon="9.455013906666185"><ele>359.0</ele><time>2026-04-07T17:22:10Z</time></trkpt><trkpt lat="45.780430083750026" lon="9.455179597181294"><ele>359.0</ele><time>2026-04-07T17:22:11Z</time></trkpt><trkpt lat="45.78036377820559" lon="9.45534628861225"><ele>359.0</ele><time>2026-04-07T17:22:12Z</time></trkpt><trkpt lat="45.780341977863195" lon="9.455558704133015"><ele>359.0</ele><time>2026-04-07T17:22:13Z</time></trkpt><trkpt lat="45.78031720742256" lon="9.455760040069281"><ele>359.0</ele><time>2026-04-07T17:22:14Z</time></trkpt><trkpt lat="45.780299529842985" lon="9.455974706616798"><ele>361.25</ele><time>2026-04-07T17:22:15Z</time></trkpt><trkpt lat="45.78028807962411" lon="9.456164337160443"><ele>363.5</ele><time>2026-04-07T17:22:16Z</time></trkpt><trkpt lat="45.780272981315285" lon="9.456353370402176"><ele>365.75</ele><time>2026-04-07T17:22:17Z</time></trkpt><trkpt lat="45.78026025346846" lon="9.456540827078657"><ele>368.0</ele><time>2026-04-07T17:22:18Z</time></trkpt><trkpt lat="45.780243593378" lon="9.45673117577931"><ele>369.0</ele><time>2026-04-07T17:22:19Z</time></trkpt><trkpt lat="45.78022268881306" lon="9.456934904627628"><ele>370.0</ele><time>2026-04-07T17:22:19.999Z</time></trkpt><trkpt lat="45.78018572391671" lon="9.457143379275642"><ele>371.0</ele><time>2026-04-07T17:22:20.999Z</time></trkpt><trkpt lat="45.78009566854249" lon="9.45732131409337"><ele>372.0</ele><time>2026-04-07T17:22:21.999Z</time></trkpt><trkpt lat="45.780019662940504" lon="9.457538340124486"><ele>372.0</ele><time>2026-04-07T17:22:22.999Z</time></trkpt><trkpt lat="45.77990949707509" lon="9.457750233044301"><ele>372.0</ele><time>2026-04-07T17:22:23.999Z</time></trkpt><trkpt lat="45.7798029435313" lon="9.457981673592583"><ele>372.0</ele><time>2026-04-07T17:22:24.999Z</time></trkpt><trkpt lat="45.77968804473255" lon="9.458233696794098"><ele>374.5</ele><time>2026-04-07T17:22:25.999Z</time></trkpt><trkpt lat="45.77956395567451" lon="9.458499428566663"><ele>377.0</ele><time>2026-04-07T17:22:26.999Z</time></trkpt><trkpt lat="45.77942438091701" lon="9.458764761103243"><ele>381.5</ele><time>2026-04-07T17:22:27.999Z</time></trkpt><trkpt lat="45.77927093819251" lon="9.458999434284756"><ele>386.0</ele><time>2026-04-07T17:22:28.999Z</time></trkpt><trkpt lat="45.779096710570165" lon="9.459221513121378"><ele>386.0</ele><time>2026-04-07T17:22:29.999Z</time></trkpt><trkpt lat="45.778920837071446" lon="9.459399585500835"><ele>386.0</ele><time>2026-04-07T17:22:30.999Z</time></trkpt><trkpt lat="45.77876331091223" lon="9.459583300028061"><ele>386.0</ele><time>2026-04-07T17:22:31.999Z</time></trkpt><trkpt lat="45.7786425751059" lon="9.45974704662483"><ele>387.0</ele><time>2026-04-07T17:22:32.999Z</time></trkpt><trkpt lat="45.7785371414039" lon="9.459937624426033"><ele>388.0</ele><time>2026-04-07T17:22:33.999Z</time></trkpt><trkpt lat="45.77848691103345" lon="9.46017909283033"><ele>389.0</ele><time>2026-04-07T17:22:34.999Z</time></trkpt><trkpt lat="45.778481236588654" lon="9.4604723259563"><ele>392.0</ele><time>2026-04-07T17:22:35.999Z</time></trkpt><trkpt lat="45.77843266507518" lon="9.460743004839665"><ele>395.0</ele><time>2026-04-07T17:22:36.999Z</time></trkpt><trkpt lat="45.77839015797475" lon="9.460997865811873"><ele>398.0</ele><time>2026-04-07T17:22:37.999Z</time></trkpt><trkpt lat="45.77835226161915" lon="9.46121799107061"><ele>399.5</ele><time>2026-04-07T17:22:38.999Z</time></trkpt><trkpt lat="45.7783020433027" lon="9.461417421778249"><ele>401.0</ele><time>2026-04-07T17:22:39.999Z</time></trkpt><trkpt lat="45.7782603148866" lon="9.461591072391712"><ele>402.5</ele><time>2026-04-07T17:22:40.999Z</time></trkpt><trkpt lat="45.77821718264176" lon="9.461746229312924"><ele>404.0</ele><time>2026-04-07T17:22:41.999Z</time></trkpt><trkpt lat="45.7781731719639" lon="9.461881042960627"><ele>404.0</ele><time>2026-04-07T17:22:42.999Z</time></trkpt><trkpt lat="45.77812471447126" lon="9.462013070923282"><ele>404.0</ele><time>2026-04-07T17:22:43.999Z</time></trkpt><trkpt lat="45.77806877312582" lon="9.462157462655181"><ele>404.0</ele><time>2026-04-07T17:22:44.999Z</time></trkpt><trkpt lat="45.778005090317116" lon="9.462323360669526"><ele>404.0</ele><time>2026-04-07T17:22:45.999Z</time></trkpt><trkpt lat="45.777941924081645" lon="9.462545776995364"><ele>406.0</ele><time>2026-04-07T17:22:46.999Z</time></trkpt><trkpt lat="45.777880050690044" lon="9.462801388420157"><ele>408.0</ele><time>2026-04-07T17:22:47.999Z</time></trkpt><trkpt lat="45.777809645928" lon="9.463070525500259"><ele>410.0</ele><time>2026-04-07T17:22:48.999Z</time></trkpt><trkpt lat="45.77771846945731" lon="9.463344589596458"><ele>408.3333333333333</ele><time>2026-04-07T17:22:49.999Z</time></trkpt><trkpt lat="45.77760387503585" lon="9.463614393423827"><ele>406.66666666666663</ele><time>2026-04-07T17:22:50.999Z</time></trkpt><trkpt lat="45.77746275522522" lon="9.46386833528898"><ele>405.0</ele><time>2026-04-07T17:22:51.999Z</time></trkpt><trkpt lat="45.777314597547125" lon="9.464125537656797"><ele>405.0</ele><time>2026-04-07T17:22:52.999Z</time></trkpt><trkpt lat="45.77716678934264" lon="9.464373799202514"><ele>405.0</ele><time>2026-04-07T17:22:53.999Z</time></trkpt><trkpt lat="45.77702843707963" lon="9.464592512977251"><ele>405.0</ele><time>2026-04-07T17:22:54.999Z</time></trkpt><trkpt lat="45.77690616593965" lon="9.464835003019159"><ele>406.0</ele><time>2026-04-07T17:22:55.999Z</time></trkpt><trkpt lat="45.77679426053527" lon="9.465106928386989"><ele>407.0</ele><time>2026-04-07T17:22:56.999Z</time></trkpt><trkpt lat="45.77668581559819" lon="9.465400968579543"><ele>407.0</ele><time>2026-04-07T17:22:57.999Z</time></trkpt><trkpt lat="45.776548679959845" lon="9.46566498763076"><ele>407.0</ele><time>2026-04-07T17:22:58.999Z</time></trkpt><trkpt lat="45.77643725788838" lon="9.46589638351029"><ele>407.0</ele><time>2026-04-07T17:22:59.999Z</time></trkpt><trkpt lat="45.7763276388922" lon="9.46611124828"><ele>407.3333333333333</ele><time>2026-04-07T17:23:00.999Z</time></trkpt><trkpt lat="45.776228191445306" lon="9.466299347166714"><ele>407.66666666666663</ele><time>2026-04-07T17:23:01.999Z</time></trkpt><trkpt lat="45.77613046994595" lon="9.466484183134773"><ele>408.0</ele><time>2026-04-07T17:23:02.999Z</time></trkpt><trkpt lat="45.77602289430931" lon="9.46668193112311"><ele>408.0</ele><time>2026-04-07T17:23:03.999Z</time></trkpt><trkpt lat="45.77590847519498" lon="9.466916654682295"><ele>408.0</ele><time>2026-04-07T17:23:04.999Z</time></trkpt><trkpt lat="45.77576818754741" lon="9.467143527079799"><ele>408.0</ele><time>2026-04-07T17:23:05.999Z</time></trkpt><trkpt lat="45.77562304869348" lon="9.467389310281565"><ele>408.0</ele><time>2026-04-07T17:23:06.999Z</time></trkpt><trkpt lat="45.77548564748816" lon="9.467645048771688"><ele>408.0</ele><time>2026-04-07T17:23:07.999Z</time></trkpt><trkpt lat="45.77533133564865" lon="9.467909304965673"><ele>408.0</ele><time>2026-04-07T17:23:08.999Z</time></trkpt><trkpt lat="45.7751766657756" lon="9.468181215880794"><ele>408.0</ele><time>2026-04-07T17:23:09.999Z</time></trkpt><trkpt lat="45.775011964463054" lon="9.468486572327048"><ele>405.5</ele><time>2026-04-07T17:23:10.999Z</time></trkpt><trkpt lat="45.7748435862588" lon="9.468782978555717"><ele>403.0</ele><time>2026-04-07T17:23:11.999Z</time></trkpt><trkpt lat="45.7746657749289" lon="9.469066441634013"><ele>403.0</ele><time>2026-04-07T17:23:12.999Z</time></trkpt><trkpt lat="45.774476801701354" lon="9.469331885738383"><ele>403.0</ele><time>2026-04-07T17:23:13.999Z</time></trkpt><trkpt lat="45.77426785425758" lon="9.469604305749984"><ele>401.0</ele><time>2026-04-07T17:23:14.999Z</time></trkpt><trkpt lat="45.77404158145207" lon="9.469867424907559"><ele>399.0</ele><time>2026-04-07T17:23:15.999Z</time></trkpt><trkpt lat="45.7738102853258" lon="9.47014563387616"><ele>399.0</ele><time>2026-04-07T17:23:16.999Z</time></trkpt><trkpt lat="45.773583895034854" lon="9.470427797877404"><ele>399.0</ele><time>2026-04-07T17:23:17.999Z</time></trkpt><trkpt lat="45.77334932568302" lon="9.470700952963057"><ele>398.0</ele><time>2026-04-07T17:23:18.999Z</time></trkpt><trkpt lat="45.773133196411344" lon="9.470972142256237"><ele>397.0</ele><time>2026-04-07T17:23:19.999Z</time></trkpt><trkpt lat="45.77293087233666" lon="9.471228894374175"><ele>397.0</ele><time>2026-04-07T17:23:20.999Z</time></trkpt><trkpt lat="45.77273827012317" lon="9.471470869933958"><ele>397.0</ele><time>2026-04-07T17:23:21.999Z</time></trkpt><trkpt lat="45.77255740447552" lon="9.471712399296072"><ele>397.0</ele><time>2026-04-07T17:23:22.999Z</time></trkpt><trkpt lat="45.772391406338386" lon="9.47196087562606"><ele>397.0</ele><time>2026-04-07T17:23:24Z</time></trkpt><trkpt lat="45.77223908113603" lon="9.472233185110017"><ele>388.5</ele><time>2026-04-07T17:23:25Z</time></trkpt><trkpt lat="45.772091923642186" lon="9.472542573659771"><ele>380.0</ele><time>2026-04-07T17:23:26Z</time></trkpt><trkpt lat="45.771967342821824" lon="9.472837560819363"><ele>380.0</ele><time>2026-04-07T17:23:27Z</time></trkpt><trkpt lat="45.77185699951315" lon="9.473129781571416"><ele>380.0</ele><time>2026-04-07T17:23:28Z</time></trkpt><trkpt lat="45.77176310082276" lon="9.473413481537623"><ele>380.6666666666667</ele><time>2026-04-07T17:23:29Z</time></trkpt><trkpt lat="45.771672114839866" lon="9.473690489145426"><ele>381.3333333333333</ele><time>2026-04-07T17:23:30Z</time></trkpt><trkpt lat="45.77158355201786" lon="9.4739561729599"><ele>382.0</ele><time>2026-04-07T17:23:31Z</time></trkpt><trkpt lat="45.77149193569109" lon="9.474207664698895"><ele>379.66666666666663</ele><time>2026-04-07T17:23:32Z</time></trkpt><trkpt lat="45.77140462346611" lon="9.474445380086276"><ele>377.3333333333333</ele><time>2026-04-07T17:23:33Z</time></trkpt><trkpt lat="45.77132011974365" lon="9.474677941005273"><ele>375.0</ele><time>2026-04-07T17:23:34Z</time></trkpt><trkpt lat="45.77123473200709" lon="9.474922766243381"><ele>374.0</ele><time>2026-04-07T17:23:35Z</time></trkpt><trkpt lat="45.77115716444051" lon="9.475151579980437"><ele>373.0</ele><time>2026-04-07T17:23:36Z</time></trkpt><trkpt lat="45.771080337620155" lon="9.47536961544054"><ele>372.0</ele><time>2026-04-07T17:23:37Z</time></trkpt><trkpt lat="45.77101161904837" lon="9.475578567695337"><ele>373.5</ele><time>2026-04-07T17:23:38Z</time></trkpt><trkpt lat="45.770939627845884" lon="9.475755729972567"><ele>375.0</ele><time>2026-04-07T17:23:39Z</time></trkpt><trkpt lat="45.770886809491316" lon="9.47593128463185"><ele>376.5</ele><time>2026-04-07T17:23:40Z</time></trkpt><trkpt lat="45.77083387873639" lon="9.476103687285885"><ele>378.0</ele><time>2026-04-07T17:23:41Z</time></trkpt><trkpt lat="45.77079778767925" lon="9.476269725171493"><ele>376.79999999999995</ele><time>2026-04-07T17:23:42Z</time></trkpt><trkpt lat="45.77074404197721" lon="9.476418471615913"><ele>375.6</ele><time>2026-04-07T17:23:43Z</time></trkpt><trkpt lat="45.77069516451501" lon="9.476552673215446"><ele>374.4</ele><time>2026-04-07T17:23:44Z</time></trkpt><trkpt lat="45.77064562509383" lon="9.476652194890795"><ele>373.20000000000005</ele><time>2026-04-07T17:23:45Z</time></trkpt><trkpt lat="45.77060125539509" lon="9.476724713727991"><ele>372.0</ele><time>2026-04-07T17:23:46Z</time></trkpt><trkpt lat="45.77073248628561" lon="9.476939534516163"><ele>372.0</ele><time>2026-04-07T17:23:49Z</time></trkpt><trkpt lat="45.770804850043206" lon="9.477014973887453"><ele>372.0</ele><time>2026-04-07T17:23:50Z</time></trkpt><trkpt lat="45.77086432365545" lon="9.477109529482824"><ele>372.0</ele><time>2026-04-07T17:23:51Z</time></trkpt><trkpt lat="45.770928646642716" lon="9.477214846660138"><ele>372.0</ele><time>2026-04-07T17:23:52Z</time></trkpt><trkpt lat="45.77097244176309" lon="9.477334984516643"><ele>372.0</ele><time>2026-04-07T17:23:53Z</time></trkpt><trkpt lat="45.771007960752044" lon="9.477478196819359"><ele>374.0</ele><time>2026-04-07T17:23:54Z</time></trkpt><trkpt lat="45.77102995122549" lon="9.477775665930027"><ele>376.0</ele><time>2026-04-07T17:23:55Z</time></trkpt><trkpt lat="45.770867098150205" lon="9.47822128426349"><ele>378.25</ele><time>2026-04-07T17:23:56Z</time></trkpt><trkpt lat="45.77077032256768" lon="9.478351802247724"><ele>380.5</ele><time>2026-04-07T17:23:57Z</time></trkpt><trkpt lat="45.77070000927497" lon="9.478439258383334"><ele>382.75</ele><time>2026-04-07T17:23:58Z</time></trkpt><trkpt lat="45.770645265707955" lon="9.478505978896134"><ele>385.0</ele><time>2026-04-07T17:24:00Z</time></trkpt><trkpt lat="45.77045400587991" lon="9.478162773816715"><ele>385.0</ele><time>2026-04-07T17:24:01Z</time></trkpt><trkpt lat="45.77051819457578" lon="9.478124205532273"><ele>385.0</ele><time>2026-04-07T17:25:24.999Z</time></trkpt><trkpt lat="45.770581292523644" lon="9.478002423325025"><ele>385.0</ele><time>2026-04-07T17:25:26.999Z</time></trkpt><trkpt lat="45.77063037963099" lon="9.477898481235995"><ele>385.0</ele><time>2026-04-07T17:25:28.999Z</time></trkpt><trkpt lat="45.77066799365662" lon="9.4778017446459"><ele>385.0</ele><time>2026-04-07T17:25:31Z</time></trkpt><trkpt lat="45.77073473476728" lon="9.47766645349764"><ele>382.50000000000006</ele><time>2026-04-07T17:25:33Z</time></trkpt><trkpt lat="45.770780679978834" lon="9.477543350313585"><ele>380.0</ele><time>2026-04-07T17:25:35Z</time></trkpt><trkpt lat="45.77079431702736" lon="9.477453432938518"><ele>377.5</ele><time>2026-04-07T17:25:44Z</time></trkpt><trkpt lat="45.77083022900037" lon="9.477304577110727"><ele>375.0</ele><time>2026-04-07T17:25:46Z</time></trkpt><trkpt lat="45.77084845137235" lon="9.477217677561566"><ele>372.5</ele><time>2026-04-07T17:25:47Z</time></trkpt><trkpt lat="45.77086447803224" lon="9.477116599340253"><ele>370.0</ele><time>2026-04-07T17:25:50Z</time></trkpt><trkpt lat="45.77093910662865" lon="9.4771687315973"><ele>370.0</ele><time>2026-04-07T17:25:53Z</time></trkpt><trkpt lat="45.77097201258554" lon="9.477250412833486"><ele>370.0</ele><time>2026-04-07T17:25:54Z</time></trkpt><trkpt lat="45.77103397784832" lon="9.477312535170443"><ele>370.0</ele><time>2026-04-07T17:25:55Z</time></trkpt><trkpt lat="45.77108196593772" lon="9.477419733845291"><ele>370.0</ele><time>2026-04-07T17:25:56Z</time></trkpt><trkpt lat="45.77104079226366" lon="9.477602638424154"><ele>370.0</ele><time>2026-04-07T17:25:57Z</time></trkpt><trkpt lat="45.77105500426999" lon="9.477766530433247"><ele>373.75</ele><time>2026-04-07T17:25:58Z</time></trkpt><trkpt lat="45.77103389367263" lon="9.477947128568244"><ele>377.5</ele><time>2026-04-07T17:25:59Z</time></trkpt><trkpt lat="45.770976478128134" lon="9.478115192389586"><ele>381.25</ele><time>2026-04-07T17:26:00Z</time></trkpt><trkpt lat="45.77086766975377" lon="9.4782555225827"><ele>385.0</ele><time>2026-04-07T17:26:01Z</time></trkpt><trkpt lat="45.77076363646934" lon="9.478392470763117"><ele>385.0</ele><time>2026-04-07T17:26:02Z</time></trkpt><trkpt lat="45.77064907287139" lon="9.478532599116868"><ele>385.0</ele><time>2026-04-07T17:26:03Z</time></trkpt><trkpt lat="45.77052743966293" lon="9.478676032605637"><ele>385.0</ele><time>2026-04-07T17:26:04Z</time></trkpt><trkpt lat="45.77042251891072" lon="9.478823704685373"><ele>386.6</ele><time>2026-04-07T17:26:05Z</time></trkpt><trkpt lat="45.770320339569444" lon="9.47891848498082"><ele>388.2</ele><time>2026-04-07T17:26:06Z</time></trkpt><trkpt lat="45.770252265760604" lon="9.478996790998721"><ele>389.79999999999995</ele><time>2026-04-07T17:26:07Z</time></trkpt><trkpt lat="45.77020098752526" lon="9.479077848686558"><ele>391.4</ele><time>2026-04-07T17:26:08Z</time></trkpt><trkpt lat="45.770119163807955" lon="9.479162685305841"><ele>393.0</ele><time>2026-04-07T17:26:10Z</time></trkpt><trkpt lat="45.77001750589363" lon="9.479282393775803"><ele>393.00000000000006</ele><time>2026-04-07T17:26:12Z</time></trkpt><trkpt lat="45.76994385684079" lon="9.47936032997948"><ele>393.0</ele><time>2026-04-07T17:26:13Z</time></trkpt><trkpt lat="45.76988919156169" lon="9.47942727132037"><ele>393.0</ele><time>2026-04-07T17:26:14Z</time></trkpt><trkpt lat="45.76983214633677" lon="9.479484786486918"><ele>393.0</ele><time>2026-04-07T17:26:15Z</time></trkpt><trkpt lat="45.769779450039856" lon="9.479554506513473"><ele>393.0</ele><time>2026-04-07T17:26:16Z</time></trkpt><trkpt lat="45.769729983300884" lon="9.479620696762952"><ele>393.00000000000006</ele><time>2026-04-07T17:26:17Z</time></trkpt><trkpt lat="45.76968985283289" lon="9.479708684739084"><ele>393.0</ele><time>2026-04-07T17:26:18Z</time></trkpt><trkpt lat="45.769678289518374" lon="9.479821563948867"><ele>396.4</ele><time>2026-04-07T17:26:19Z</time></trkpt><trkpt lat="45.76969523896113" lon="9.479944208757724"><ele>399.79999999999995</ele><time>2026-04-07T17:26:20Z</time></trkpt><trkpt lat="45.76973093965406" lon="9.480044342342207"><ele>403.2</ele><time>2026-04-07T17:26:21Z</time></trkpt><trkpt lat="45.769767840785605" lon="9.480206157002268"><ele>406.6</ele><time>2026-04-07T17:26:23Z</time></trkpt><trkpt lat="45.76979445902494" lon="9.480361193318783"><ele>410.0</ele><time>2026-04-07T17:26:25Z</time></trkpt><trkpt lat="45.769876625802986" lon="9.480428822196162"><ele>409.99999999999994</ele><time>2026-04-07T17:26:27Z</time></trkpt><trkpt lat="45.76997465721522" lon="9.48031089589927"><ele>410.0</ele><time>2026-04-07T17:26:29Z</time></trkpt><trkpt lat="45.770011413524" lon="9.480209102599405"><ele>410.0</ele><time>2026-04-07T17:26:30Z</time></trkpt><trkpt lat="45.77005584662313" lon="9.480116759223245"><ele>410.0</ele><time>2026-04-07T17:26:31Z</time></trkpt><trkpt lat="45.770130977713514" lon="9.480056173362133"><ele>409.99999999999994</ele><time>2026-04-07T17:26:32Z</time></trkpt><trkpt lat="45.770200905427416" lon="9.480027599496507"><ele>410.0</ele><time>2026-04-07T17:26:33Z</time></trkpt><trkpt lat="45.77029601316442" lon="9.479966982371561"><ele>412.0</ele><time>2026-04-07T17:26:34Z</time></trkpt><trkpt lat="45.77039884374085" lon="9.479908975357203"><ele>414.0</ele><time>2026-04-07T17:26:35Z</time></trkpt><trkpt lat="45.77049550741723" lon="9.479881736424511"><ele>416.0</ele><time>2026-04-07T17:26:36Z</time></trkpt><trkpt lat="45.77059485198588" lon="9.479877439960145"><ele>418.0</ele><time>2026-04-07T17:26:37Z</time></trkpt><trkpt lat="45.77069145837082" lon="9.47987190246442"><ele>420.0</ele><time>2026-04-07T17:26:38Z</time></trkpt><trkpt lat="45.77079048622511" lon="9.479868497918995"><ele>420.0</ele><time>2026-04-07T17:26:39Z</time></trkpt><trkpt lat="45.77087992206561" lon="9.479870262482065"><ele>420.0</ele><time>2026-04-07T17:26:40Z</time></trkpt><trkpt lat="45.77094886223165" lon="9.479866192490817"><ele>420.0</ele><time>2026-04-07T17:26:40.999Z</time></trkpt><trkpt lat="45.77105936256988" lon="9.479873525061619"><ele>420.0</ele><time>2026-04-07T17:26:41.999Z</time></trkpt><trkpt lat="45.77117277057292" lon="9.47989322853033"><ele>420.0</ele><time>2026-04-07T17:26:42.999Z</time></trkpt><trkpt lat="45.771290957068615" lon="9.479881390146254"><ele>423.25</ele><time>2026-04-07T17:26:43.999Z</time></trkpt><trkpt lat="45.77142381629704" lon="9.479870509462277"><ele>426.5</ele><time>2026-04-07T17:26:44.999Z</time></trkpt><trkpt lat="45.77157718109446" lon="9.479857358906177"><ele>429.75</ele><time>2026-04-07T17:26:45.999Z</time></trkpt><trkpt lat="45.77168584014588" lon="9.47979291287329"><ele>433.0</ele><time>2026-04-07T17:26:46.999Z</time></trkpt><trkpt lat="45.771770472652214" lon="9.479749984399135"><ele>433.0</ele><time>2026-04-07T17:26:47.999Z</time></trkpt><trkpt lat="45.771848541658564" lon="9.479751854294719"><ele>432.99999999999994</ele><time>2026-04-07T17:26:49.999Z</time></trkpt><trkpt lat="45.77186752278336" lon="9.479885833354663"><ele>432.99999999999994</ele><time>2026-04-07T17:26:51.999Z</time></trkpt><trkpt lat="45.77183558023031" lon="9.479977505775139"><ele>433.0</ele><time>2026-04-07T17:26:52.999Z</time></trkpt><trkpt lat="45.77173954993561" lon="9.480030790847206"><ele>433.0</ele><time>2026-04-07T17:26:53.999Z</time></trkpt><trkpt lat="45.771689233514834" lon="9.480167940597404"><ele>433.0</ele><time>2026-04-07T17:26:54.999Z</time></trkpt><trkpt lat="45.77163812009511" lon="9.480307799884663"><ele>433.0</ele><time>2026-04-07T17:26:55.999Z</time></trkpt><trkpt lat="45.771591785831156" lon="9.480464532696198"><ele>433.0</ele><time>2026-04-07T17:26:56.999Z</time></trkpt><trkpt lat="45.77156345458416" lon="9.480635317438129"><ele>433.0</ele><time>2026-04-07T17:26:57.999Z</time></trkpt><trkpt lat="45.771539532137936" lon="9.48080015712086"><ele>435.2</ele><time>2026-04-07T17:26:58.999Z</time></trkpt><trkpt lat="45.77152320148343" lon="9.480962333232927"><ele>437.4</ele><time>2026-04-07T17:26:59.999Z</time></trkpt><trkpt lat="45.771525599201375" lon="9.481096960905173"><ele>439.59999999999997</ele><time>2026-04-07T17:27:00.999Z</time></trkpt><trkpt lat="45.771527509848724" lon="9.481196956938938"><ele>441.79999999999995</ele><time>2026-04-07T17:27:01.999Z</time></trkpt><trkpt lat="45.77154064268069" lon="9.481292405783826"><ele>444.0</ele><time>2026-04-07T17:27:04.999Z</time></trkpt><trkpt lat="45.77140509473473" lon="9.481261217634852"><ele>445.6</ele><time>2026-04-07T17:27:07.999Z</time></trkpt><trkpt lat="45.77133327042175" lon="9.481284813542546"><ele>447.2</ele><time>2026-04-07T17:27:08.999Z</time></trkpt><trkpt lat="45.771268212245126" lon="9.48129967438789"><ele>448.80000000000007</ele><time>2026-04-07T17:27:09.999Z</time></trkpt><trkpt lat="45.77120220217998" lon="9.481348344617942"><ele>450.40000000000003</ele><time>2026-04-07T17:27:10.999Z</time></trkpt><trkpt lat="45.771103329145795" lon="9.481424734437105"><ele>452.0</ele><time>2026-04-07T17:27:11.999Z</time></trkpt><trkpt lat="45.770984886622095" lon="9.481509598914519"><ele>452.0</ele><time>2026-04-07T17:27:12.999Z</time></trkpt><trkpt lat="45.77110214706291" lon="9.481494194970328"><ele>452.00000000000006</ele><time>2026-04-07T17:27:13.999Z</time></trkpt><trkpt lat="45.771054519322945" lon="9.481559139528628"><ele>452.00000000000006</ele><time>2026-04-07T17:27:15.999Z</time></trkpt><trkpt lat="45.77099281329036" lon="9.481438841702127"><ele>452.0</ele><time>2026-04-07T17:27:21.999Z</time></trkpt><trkpt lat="45.770947558377" lon="9.481340603777673"><ele>452.0</ele><time>2026-04-07T17:27:22.999Z</time></trkpt><trkpt lat="45.77086837270655" lon="9.481292080344868"><ele>452.0</ele><time>2026-04-07T17:27:24.999Z</time></trkpt><trkpt lat="45.77074138034299" lon="9.481338244548063"><ele>452.00000000000006</ele><time>2026-04-07T17:27:26.999Z</time></trkpt><trkpt lat="45.770643388950894" lon="9.481379933867318"><ele>452.00000000000006</ele><time>2026-04-07T17:27:28.999Z</time></trkpt><trkpt lat="45.77055113092189" lon="9.481377897771448"><ele>452.0</ele><time>2026-04-07T17:27:30.999Z</time></trkpt><trkpt lat="45.77047411715077" lon="9.481393441334417"><ele>452.0</ele><time>2026-04-07T17:27:31.999Z</time></trkpt><trkpt lat="45.7703932937077" lon="9.481390486670225"><ele>452.0</ele><time>2026-04-07T17:27:32.999Z</time></trkpt><trkpt lat="45.770294721875054" lon="9.481411483181617"><ele>452.00000000000006</ele><time>2026-04-07T17:27:34.999Z</time></trkpt><trkpt lat="45.770201012249004" lon="9.48141798564371"><ele>452.00000000000006</ele><time>2026-04-07T17:27:42Z</time></trkpt><trkpt lat="45.77012027572649" lon="9.481438085734734"><ele>452.0</ele><time>2026-04-07T17:27:55Z</time></trkpt><trkpt lat="45.77007517015968" lon="9.481501643825387"><ele>452.0</ele><time>2026-04-07T17:27:57Z</time></trkpt><trkpt lat="45.770126527137585" lon="9.481840658502403"><ele>451.99999999999994</ele><time>2026-04-07T17:27:58Z</time></trkpt><trkpt lat="45.77013704410641" lon="9.48193467052971"><ele>452.0</ele><time>2026-04-07T17:31:46.999Z</time></trkpt><trkpt lat="45.77010555054543" lon="9.482020971969044"><ele>452.0</ele><time>2026-04-07T17:32:01Z</time></trkpt><trkpt lat="45.77017685698672" lon="9.481988328631834"><ele>452.0</ele><time>2026-04-07T17:32:07Z</time></trkpt><trkpt lat="45.77023665997946" lon="9.481803061014737"><ele>451.99999999999994</ele><time>2026-04-07T17:32:16Z</time></trkpt><trkpt lat="45.770178014187515" lon="9.481864588459171"><ele>452.0</ele><time>2026-04-07T17:33:29.016Z</time></trkpt><trkpt lat="45.77023182245818" lon="9.481743333287136"><ele>452.0</ele><time>2026-04-07T17:47:01.012Z</time></trkpt><trkpt lat="45.7701538575438" lon="9.481892161071443"><ele>452.0</ele><time>2026-04-07T17:51:19.014Z</time></trkpt><trkpt lat="45.77023182245818" lon="9.481743333287136"><ele>452.0</ele><time>2026-04-07T18:13:03.009Z</time></trkpt><trkpt lat="45.770153994120385" lon="9.481893942745046"><ele>452.0</ele><time>2026-04-07T18:14:02.004Z</time></trkpt><trkpt lat="45.77023182245818" lon="9.481743333287136"><ele>452.0</ele><time>2026-04-07T18:14:28.008Z</time></trkpt><trkpt lat="45.7701364563146" lon="9.48175975394413"><ele>452.00000000000006</ele><time>2026-04-07T18:16:25.017Z</time></trkpt><trkpt lat="45.77023182245818" lon="9.481743333287136"><ele>452.00000000000006</ele><time>2026-04-07T18:35:20.936Z</time></trkpt><trkpt lat="45.770147821320435" lon="9.481853774019044"><ele>452.0</ele><time>2026-04-07T18:42:20.605Z</time></trkpt><trkpt lat="45.77023182245818" lon="9.481743333287136"><ele>452.0</ele><time>2026-04-07T18:48:08.136Z</time></trkpt><trkpt lat="45.77015377773771" lon="9.48187035122632"><ele>452.0</ele><time>2026-04-07T18:50:03.138Z</time></trkpt><trkpt lat="45.77023182245818" lon="9.481743333287136"><ele>452.0</ele><time>2026-04-07T19:00:59.335Z</time></trkpt><trkpt lat="45.770153549134875" lon="9.481870169191943"><ele>452.0</ele><time>2026-04-07T19:02:50.139Z</time></trkpt><trkpt lat="45.77023182245818" lon="9.481743333287136"><ele>452.0</ele><time>2026-04-07T19:05:54.763Z</time></trkpt><trkpt lat="45.770153851582194" lon="9.481870298744804"><ele>448.0</ele><time>2026-04-07T19:07:00.79Z</time></trkpt><trkpt lat="45.77023182245818" lon="9.481743333287136"><ele>452.0</ele><time>2026-04-07T19:36:43.149Z</time></trkpt><trkpt lat="45.77015353416778" lon="9.481870236976654"><ele>448.0</ele><time>2026-04-07T19:39:10.149Z</time></trkpt></trkseg></trk></gpx>